<?xml version="1.0" encoding="UTF-8"?>
<gpx version="1.1" creator=" " xmlns="http://www.topografix.com/GPX/1/1" xmlns:xsi="http://www.w3.org/2001/XMLSchema-instance" xsi:schemaLocation="http://www.topografix.com/GPX/1/1 http://www.topografix.com/GPX/1/1/gpx.xsd">
<metadata>
<name>Osterburken</name>
<desc></desc>
<link href="">
<text>  </text>
</link>
<time>2024-05-12T07:50:23Z</time>
</metadata>
<trk>
<trkseg>
<trkpt lat="49.52327728271485" lon="9.321418711915612">
<ele>335.2</ele>
</trkpt>
<trkpt lat="49.52327728271485" lon="9.321418711915612">
<ele>335.2</ele>
<time>2024-05-12T07:50:23Z</time>
</trkpt>
<trkpt lat="49.523273427039385" lon="9.32141963392496">
<ele>334.6</ele>
<time>2024-05-12T07:50:24Z</time>
</trkpt>
<trkpt lat="49.52327728271485" lon="9.32141963392496">
<ele>334.4</ele>
<time>2024-05-12T07:50:25Z</time>
</trkpt>
<trkpt lat="49.52327728271485" lon="9.32142156176269">
<ele>334</ele>
<time>2024-05-12T07:50:27Z</time>
</trkpt>
<trkpt lat="49.52327728271485" lon="9.32142348960042">
<ele>333.8</ele>
<time>2024-05-12T07:50:29Z</time>
</trkpt>
<trkpt lat="49.52328105457127" lon="9.32142348960042">
<ele>333.4</ele>
<time>2024-05-12T07:50:32Z</time>
</trkpt>
<trkpt lat="49.52327728271485" lon="9.32142348960042">
<ele>333.2</ele>
<time>2024-05-12T07:50:33Z</time>
</trkpt>
<trkpt lat="49.523273427039385" lon="9.32141963392496">
<ele>333</ele>
<time>2024-05-12T07:50:35Z</time>
</trkpt>
<trkpt lat="49.523273427039385" lon="9.32142156176269">
<ele>332.8</ele>
<time>2024-05-12T07:50:40Z</time>
</trkpt>
<trkpt lat="49.523273427039385" lon="9.32142348960042">
<ele>332.8</ele>
<time>2024-05-12T07:50:43Z</time>
</trkpt>
<trkpt lat="49.523273427039385" lon="9.32142156176269">
<ele>332.6</ele>
<time>2024-05-12T07:50:46Z</time>
</trkpt>
<trkpt lat="49.523273427039385" lon="9.32142348960042">
<ele>332.6</ele>
<time>2024-05-12T07:50:49Z</time>
</trkpt>
<trkpt lat="49.523273427039385" lon="9.32142156176269">
<ele>332.4</ele>
<time>2024-05-12T07:50:50Z</time>
</trkpt>
<trkpt lat="49.523273427039385" lon="9.32142348960042">
<ele>332.4</ele>
<time>2024-05-12T07:50:51Z</time>
</trkpt>
<trkpt lat="49.523273427039385" lon="9.32142541743815">
<ele>332.4</ele>
<time>2024-05-12T07:50:54Z</time>
</trkpt>
<trkpt lat="49.523273427039385" lon="9.321426339447498">
<ele>332.2</ele>
<time>2024-05-12T07:51:00Z</time>
</trkpt>
<trkpt lat="49.52327728271485" lon="9.321426339447498">
<ele>332.2</ele>
<time>2024-05-12T07:51:01Z</time>
</trkpt>
<trkpt lat="49.52327728271485" lon="9.321428267285228">
<ele>332.2</ele>
<time>2024-05-12T07:51:12Z</time>
</trkpt>
<trkpt lat="49.52327728271485" lon="9.321426339447498">
<ele>332.2</ele>
<time>2024-05-12T07:51:16Z</time>
</trkpt>
<trkpt lat="49.52327728271485" lon="9.321428267285228">
<ele>332.2</ele>
<time>2024-05-12T07:51:19Z</time>
</trkpt>
<trkpt lat="49.52328105457127" lon="9.321428267285228">
<ele>332.2</ele>
<time>2024-05-12T07:51:23Z</time>
</trkpt>
<trkpt lat="49.52327728271485" lon="9.321426339447498">
<ele>332.2</ele>
<time>2024-05-12T07:51:27Z</time>
</trkpt>
<trkpt lat="49.52328105457127" lon="9.321426339447498">
<ele>332.2</ele>
<time>2024-05-12T07:51:28Z</time>
</trkpt>
<trkpt lat="49.52327728271485" lon="9.321426339447498">
<ele>332.2</ele>
<time>2024-05-12T07:51:29Z</time>
</trkpt>
<trkpt lat="49.52328105457127" lon="9.321426339447498">
<ele>332.2</ele>
<time>2024-05-12T07:51:30Z</time>
</trkpt>
<trkpt lat="49.52327728271485" lon="9.321418711915612">
<ele>332.4</ele>
<time>2024-05-12T07:51:34Z</time>
</trkpt>
<trkpt lat="49.52327728271485" lon="9.32140538468957">
<ele>332.4</ele>
<time>2024-05-12T07:51:35Z</time>
</trkpt>
<trkpt lat="49.52327728271485" lon="9.321386273950338">
<ele>332.4</ele>
<time>2024-05-12T07:51:36Z</time>
</trkpt>
<trkpt lat="49.52327728271485" lon="9.32136531919241">
<ele>332.4</ele>
<time>2024-05-12T07:51:37Z</time>
</trkpt>
<trkpt lat="49.523273427039385" lon="9.321341514587402">
<ele>332.4</ele>
<time>2024-05-12T07:51:38Z</time>
</trkpt>
<trkpt lat="49.523273427039385" lon="9.321321481838822">
<ele>332.4</ele>
<time>2024-05-12T07:51:39Z</time>
</trkpt>
<trkpt lat="49.5232657995075" lon="9.321299521252511">
<ele>332.4</ele>
<time>2024-05-12T07:51:40Z</time>
</trkpt>
<trkpt lat="49.52325817197561" lon="9.321281416341662">
<ele>332.4</ele>
<time>2024-05-12T07:51:41Z</time>
</trkpt>
<trkpt lat="49.52324668876827" lon="9.32126708328724">
<ele>332.4</ele>
<time>2024-05-12T07:51:42Z</time>
</trkpt>
<trkpt lat="49.523235289379954" lon="9.321254678070543">
<ele>332.4</ele>
<time>2024-05-12T07:51:43Z</time>
</trkpt>
<trkpt lat="49.52322003431618" lon="9.321253756061196">
<ele>332.4</ele>
<time>2024-05-12T07:51:44Z</time>
</trkpt>
<trkpt lat="49.52319715172053" lon="9.321263311430812">
<ele>332.4</ele>
<time>2024-05-12T07:51:45Z</time>
</trkpt>
<trkpt lat="49.52317041344941" lon="9.321278566494584">
<ele>332.4</ele>
<time>2024-05-12T07:51:46Z</time>
</trkpt>
<trkpt lat="49.52315138652921" lon="9.321296671405436">
<ele>332.4</ele>
<time>2024-05-12T07:51:47Z</time>
</trkpt>
<trkpt lat="49.52312464825809" lon="9.321308070793748">
<ele>332.4</ele>
<time>2024-05-12T07:51:48Z</time>
</trkpt>
<trkpt lat="49.52310176566243" lon="9.321319554001091">
<ele>332.4</ele>
<time>2024-05-12T07:51:49Z</time>
</trkpt>
<trkpt lat="49.52308651059866" lon="9.321339586749671">
<ele>332.4</ele>
<time>2024-05-12T07:51:50Z</time>
</trkpt>
<trkpt lat="49.52307125553489" lon="9.321354841813443">
<ele>332.4</ele>
<time>2024-05-12T07:51:51Z</time>
</trkpt>
<trkpt lat="49.52304837293923" lon="9.321366241201758">
<ele>332.4</ele>
<time>2024-05-12T07:51:52Z</time>
</trkpt>
<trkpt lat="49.52303311787546" lon="9.32138342410326">
<ele>332.4</ele>
<time>2024-05-12T07:51:53Z</time>
</trkpt>
<trkpt lat="49.523014007136226" lon="9.32140152901411">
<ele>332.4</ele>
<time>2024-05-12T07:51:54Z</time>
</trkpt>
<trkpt lat="49.52299112454057" lon="9.32141963392496">
<ele>332.4</ele>
<time>2024-05-12T07:51:55Z</time>
</trkpt>
<trkpt lat="49.52296447008848" lon="9.321433044970036">
<ele>332.4</ele>
<time>2024-05-12T07:51:56Z</time>
</trkpt>
<trkpt lat="49.52293395996094" lon="9.321443522349">
<ele>332.4</ele>
<time>2024-05-12T07:51:57Z</time>
</trkpt>
<trkpt lat="49.52291099354625" lon="9.32145969942212">
<ele>332.4</ele>
<time>2024-05-12T07:51:58Z</time>
</trkpt>
<trkpt lat="49.52288811095059" lon="9.321490209549664">
<ele>332.4</ele>
<time>2024-05-12T07:51:59Z</time>
</trkpt>
<trkpt lat="49.52287671156227" lon="9.321528431028128">
<ele>332.4</ele>
<time>2024-05-12T07:52:00Z</time>
</trkpt>
<trkpt lat="49.522861456498504" lon="9.32155986316502">
<ele>332.4</ele>
<time>2024-05-12T07:52:01Z</time>
</trkpt>
<trkpt lat="49.522838573902845" lon="9.321583667770028">
<ele>332.4</ele>
<time>2024-05-12T07:52:02Z</time>
</trkpt>
<trkpt lat="49.52281183563173" lon="9.321606634184718">
<ele>332.4</ele>
<time>2024-05-12T07:52:03Z</time>
</trkpt>
<trkpt lat="49.52278518117964" lon="9.321633288636804">
<ele>332.4</ele>
<time>2024-05-12T07:52:04Z</time>
</trkpt>
<trkpt lat="49.522758442908525" lon="9.321671426296234">
<ele>332.4</ele>
<time>2024-05-12T07:52:05Z</time>
</trkpt>
<trkpt lat="49.52273170463741" lon="9.321704786270857">
<ele>332.4</ele>
<time>2024-05-12T07:52:06Z</time>
</trkpt>
<trkpt lat="49.52269742265344" lon="9.321736302226782">
<ele>332.4</ele>
<time>2024-05-12T07:52:07Z</time>
</trkpt>
<trkpt lat="49.52266305685043" lon="9.321768740192056">
<ele>332.4</ele>
<time>2024-05-12T07:52:08Z</time>
</trkpt>
<trkpt lat="49.522624919191" lon="9.321800172328947">
<ele>332.4</ele>
<time>2024-05-12T07:52:09Z</time>
</trkpt>
<trkpt lat="49.52259063720703" lon="9.321834538131952">
<ele>332.4</ele>
<time>2024-05-12T07:52:10Z</time>
</trkpt>
<trkpt lat="49.522560043260455" lon="9.32187644764781">
<ele>332.4</ele>
<time>2024-05-12T07:52:11Z</time>
</trkpt>
<trkpt lat="49.52252576127648" lon="9.321920368820429">
<ele>332.4</ele>
<time>2024-05-12T07:52:12Z</time>
</trkpt>
<trkpt lat="49.52249139547348" lon="9.321963284164667">
<ele>332.4</ele>
<time>2024-05-12T07:52:13Z</time>
</trkpt>
<trkpt lat="49.52245325781405" lon="9.322006199508904">
<ele>332.4</ele>
<time>2024-05-12T07:52:14Z</time>
</trkpt>
<trkpt lat="49.52242660336197" lon="9.3220548145473">
<ele>332.4</ele>
<time>2024-05-12T07:52:15Z</time>
</trkpt>
<trkpt lat="49.52239600941539" lon="9.322110135108232">
<ele>332.2</ele>
<time>2024-05-12T07:52:16Z</time>
</trkpt>
<trkpt lat="49.52236172743142" lon="9.322163527831435">
<ele>332</ele>
<time>2024-05-12T07:52:17Z</time>
</trkpt>
<trkpt lat="49.522323589771986" lon="9.322228403761985">
<ele>331.8</ele>
<time>2024-05-12T07:52:18Z</time>
</trkpt>
<trkpt lat="49.52229307964444" lon="9.3222913518548">
<ele>331.6</ele>
<time>2024-05-12T07:52:19Z</time>
</trkpt>
<trkpt lat="49.5222625695169" lon="9.322369555011392">
<ele>331.4</ele>
<time>2024-05-12T07:52:20Z</time>
</trkpt>
<trkpt lat="49.52223583124578" lon="9.322435352951288">
<ele>331.4</ele>
<time>2024-05-12T07:52:21Z</time>
</trkpt>
<trkpt lat="49.52221294865012" lon="9.322496373206375">
<ele>331.2</ele>
<time>2024-05-12T07:52:22Z</time>
</trkpt>
<trkpt lat="49.522186210379004" lon="9.322558399289846">
<ele>331</ele>
<time>2024-05-12T07:52:23Z</time>
</trkpt>
<trkpt lat="49.522167183458805" lon="9.322614641860127">
<ele>331</ele>
<time>2024-05-12T07:52:24Z</time>
</trkpt>
<trkpt lat="49.522148072719574" lon="9.32266996242106">
<ele>330.8</ele>
<time>2024-05-12T07:52:25Z</time>
</trkpt>
<trkpt lat="49.5221328176558" lon="9.322721427306533">
<ele>330.8</ele>
<time>2024-05-12T07:52:26Z</time>
</trkpt>
<trkpt lat="49.52212141826749" lon="9.322771970182655">
<ele>330.6</ele>
<time>2024-05-12T07:52:27Z</time>
</trkpt>
<trkpt lat="49.52210993506014" lon="9.322821591049433">
<ele>330.6</ele>
<time>2024-05-12T07:52:28Z</time>
</trkpt>
<trkpt lat="49.52210230752826" lon="9.3228664342314">
<ele>330.6</ele>
<time>2024-05-12T07:52:29Z</time>
</trkpt>
<trkpt lat="49.52209853567183" lon="9.322908343747258">
<ele>330.6</ele>
<time>2024-05-12T07:52:30Z</time>
</trkpt>
<trkpt lat="49.522090908139944" lon="9.322946481406689">
<ele>330.6</ele>
<time>2024-05-12T07:52:31Z</time>
</trkpt>
<trkpt lat="49.522087052464485" lon="9.32298176921904">
<ele>330.6</ele>
<time>2024-05-12T07:52:32Z</time>
</trkpt>
<trkpt lat="49.52207565307617" lon="9.323019906878471">
<ele>330.6</ele>
<time>2024-05-12T07:52:33Z</time>
</trkpt>
<trkpt lat="49.52207565307617" lon="9.323053350672126">
<ele>330.6</ele>
<time>2024-05-12T07:52:34Z</time>
</trkpt>
<trkpt lat="49.52207179740071" lon="9.32308478280902">
<ele>330.6</ele>
<time>2024-05-12T07:52:35Z</time>
</trkpt>
<trkpt lat="49.52207179740071" lon="9.323109593242409">
<ele>330.6</ele>
<time>2024-05-12T07:52:36Z</time>
</trkpt>
<trkpt lat="49.522067941725254" lon="9.323151586577296">
<ele>330.6</ele>
<time>2024-05-12T07:52:37Z</time>
</trkpt>
<trkpt lat="49.52206416986883" lon="9.32318494655192">
<ele>330.6</ele>
<time>2024-05-12T07:52:38Z</time>
</trkpt>
<trkpt lat="49.522048914805055" lon="9.32322308421135">
<ele>330.6</ele>
<time>2024-05-12T07:52:39Z</time>
</trkpt>
<trkpt lat="49.5220450591296" lon="9.323258372023702">
<ele>330.6</ele>
<time>2024-05-12T07:52:40Z</time>
</trkpt>
<trkpt lat="49.522029804065824" lon="9.323309836909177">
<ele>330.6</ele>
<time>2024-05-12T07:52:41Z</time>
</trkpt>
<trkpt lat="49.52201454900205" lon="9.32336138561368">
<ele>330.6</ele>
<time>2024-05-12T07:52:42Z</time>
</trkpt>
<trkpt lat="49.522006921470165" lon="9.323403295129538">
<ele>330.6</ele>
<time>2024-05-12T07:52:43Z</time>
</trkpt>
<trkpt lat="49.52200314961374" lon="9.323441432788968">
<ele>330.8</ele>
<time>2024-05-12T07:52:44Z</time>
</trkpt>
<trkpt lat="49.52199166640639" lon="9.323483426123856">
<ele>330.8</ele>
<time>2024-05-12T07:52:45Z</time>
</trkpt>
<trkpt lat="49.52198026701808" lon="9.32351871393621">
<ele>331</ele>
<time>2024-05-12T07:52:46Z</time>
</trkpt>
<trkpt lat="49.52196501195431" lon="9.323545452207329">
<ele>331</ele>
<time>2024-05-12T07:52:47Z</time>
</trkpt>
<trkpt lat="49.52194590121507" lon="9.32357495650649">
<ele>331.2</ele>
<time>2024-05-12T07:52:48Z</time>
</trkpt>
<trkpt lat="49.52192687429488" lon="9.32361309416592">
<ele>331.2</ele>
<time>2024-05-12T07:52:49Z</time>
</trkpt>
<trkpt lat="49.52192687429488" lon="9.323657937347887">
<ele>331.4</ele>
<time>2024-05-12T07:52:50Z</time>
</trkpt>
<trkpt lat="49.521930646151304" lon="9.323699930682778">
<ele>331.4</ele>
<time>2024-05-12T07:52:51Z</time>
</trkpt>
<trkpt lat="49.52192687429488" lon="9.3237332906574">
<ele>331.4</ele>
<time>2024-05-12T07:52:52Z</time>
</trkpt>
<trkpt lat="49.52193827368319" lon="9.32377620600164">
<ele>331.6</ele>
<time>2024-05-12T07:52:53Z</time>
</trkpt>
<trkpt lat="49.52193827368319" lon="9.32381342165172">
<ele>331.6</ele>
<time>2024-05-12T07:52:54Z</time>
</trkpt>
<trkpt lat="49.52193827368319" lon="9.323844853788614">
<ele>331.6</ele>
<time>2024-05-12T07:52:55Z</time>
</trkpt>
<trkpt lat="49.52193827368319" lon="9.323882069438696">
<ele>331.6</ele>
<time>2024-05-12T07:52:56Z</time>
</trkpt>
<trkpt lat="49.52195738442242" lon="9.323923056945205">
<ele>331.6</ele>
<time>2024-05-12T07:52:57Z</time>
</trkpt>
<trkpt lat="49.521949756890535" lon="9.3239716719836">
<ele>331.6</ele>
<time>2024-05-12T07:52:58Z</time>
</trkpt>
<trkpt lat="49.52195738442242" lon="9.324023220688105">
<ele>331.8</ele>
<time>2024-05-12T07:52:59Z</time>
</trkpt>
<trkpt lat="49.521972639486194" lon="9.324060436338186">
<ele>331.8</ele>
<time>2024-05-12T07:53:00Z</time>
</trkpt>
<trkpt lat="49.52198026701808" lon="9.324092790484428">
<ele>331.8</ele>
<time>2024-05-12T07:53:01Z</time>
</trkpt>
<trkpt lat="49.52198403887451" lon="9.324132855981588">
<ele>331.8</ele>
<time>2024-05-12T07:53:02Z</time>
</trkpt>
<trkpt lat="49.52199552208185" lon="9.324179627001286">
<ele>332</ele>
<time>2024-05-12T07:53:03Z</time>
</trkpt>
<trkpt lat="49.52199929393828" lon="9.324221536517143">
<ele>332</ele>
<time>2024-05-12T07:53:04Z</time>
</trkpt>
<trkpt lat="49.52200314961374" lon="9.32426830753684">
<ele>331.8</ele>
<time>2024-05-12T07:53:05Z</time>
</trkpt>
<trkpt lat="49.52200314961374" lon="9.324317928403616">
<ele>331.8</ele>
<time>2024-05-12T07:53:06Z</time>
</trkpt>
<trkpt lat="49.522010777145624" lon="9.32436461560428">
<ele>331.8</ele>
<time>2024-05-12T07:53:07Z</time>
</trkpt>
<trkpt lat="49.522010777145624" lon="9.324413230642676">
<ele>331.8</ele>
<time>2024-05-12T07:53:08Z</time>
</trkpt>
<trkpt lat="49.522006921470165" lon="9.324461929500105">
<ele>331.8</ele>
<time>2024-05-12T07:53:09Z</time>
</trkpt>
<trkpt lat="49.522006921470165" lon="9.324508616700768">
<ele>331.8</ele>
<time>2024-05-12T07:53:10Z</time>
</trkpt>
<trkpt lat="49.522006921470165" lon="9.324555387720466">
<ele>331.8</ele>
<time>2024-05-12T07:53:11Z</time>
</trkpt>
<trkpt lat="49.522006921470165" lon="9.324602074921131">
<ele>331.8</ele>
<time>2024-05-12T07:53:12Z</time>
</trkpt>
<trkpt lat="49.522006921470165" lon="9.32464499026537">
<ele>332</ele>
<time>2024-05-12T07:53:13Z</time>
</trkpt>
<trkpt lat="49.52200314961374" lon="9.32468698360026">
<ele>332</ele>
<time>2024-05-12T07:53:14Z</time>
</trkpt>
<trkpt lat="49.52199929393828" lon="9.324729898944495">
<ele>332</ele>
<time>2024-05-12T07:53:15Z</time>
</trkpt>
<trkpt lat="49.52199929393828" lon="9.324773736298084">
<ele>332</ele>
<time>2024-05-12T07:53:16Z</time>
</trkpt>
<trkpt lat="49.52199929393828" lon="9.324818579480052">
<ele>332</ele>
<time>2024-05-12T07:53:17Z</time>
</trkpt>
<trkpt lat="49.52199929393828" lon="9.32486149482429">
<ele>332</ele>
<time>2024-05-12T07:53:18Z</time>
</trkpt>
<trkpt lat="49.52199552208185" lon="9.324905332177876">
<ele>331.8</ele>
<time>2024-05-12T07:53:19Z</time>
</trkpt>
<trkpt lat="49.52199166640639" lon="9.324953025206923">
<ele>331.8</ele>
<time>2024-05-12T07:53:20Z</time>
</trkpt>
<trkpt lat="49.521987894549966" lon="9.32499979622662">
<ele>331.8</ele>
<time>2024-05-12T07:53:21Z</time>
</trkpt>
<trkpt lat="49.52197641134262" lon="9.325041705742478">
<ele>331.6</ele>
<time>2024-05-12T07:53:22Z</time>
</trkpt>
<trkpt lat="49.521968783810735" lon="9.325084621086717">
<ele>331.6</ele>
<time>2024-05-12T07:53:23Z</time>
</trkpt>
<trkpt lat="49.52196115627885" lon="9.325123764574528">
<ele>331.6</ele>
<time>2024-05-12T07:53:24Z</time>
</trkpt>
<trkpt lat="49.52194590121507" lon="9.325161902233958">
<ele>331.6</ele>
<time>2024-05-12T07:53:25Z</time>
</trkpt>
<trkpt lat="49.521930646151304" lon="9.32519618421793">
<ele>331.6</ele>
<time>2024-05-12T07:53:26Z</time>
</trkpt>
<trkpt lat="49.52191539108753" lon="9.325229628011584">
<ele>331.6</ele>
<time>2024-05-12T07:53:27Z</time>
</trkpt>
<trkpt lat="49.52190013602376" lon="9.325262987986209">
<ele>331.6</ele>
<time>2024-05-12T07:53:28Z</time>
</trkpt>
<trkpt lat="49.5218962803483" lon="9.325302047654986">
<ele>331.6</ele>
<time>2024-05-12T07:53:29Z</time>
</trkpt>
<trkpt lat="49.52188102528453" lon="9.32533448562026">
<ele>331.6</ele>
<time>2024-05-12T07:53:30Z</time>
</trkpt>
<trkpt lat="49.52185437083244" lon="9.325361223891376">
<ele>331.6</ele>
<time>2024-05-12T07:53:31Z</time>
</trkpt>
<trkpt lat="49.5218428876251" lon="9.325386956334114">
<ele>331.6</ele>
<time>2024-05-12T07:53:32Z</time>
</trkpt>
<trkpt lat="49.5218238607049" lon="9.32541847229004">
<ele>331.6</ele>
<time>2024-05-12T07:53:33Z</time>
</trkpt>
<trkpt lat="49.52180474996567" lon="9.325460381805897">
<ele>331.8</ele>
<time>2024-05-12T07:53:34Z</time>
</trkpt>
<trkpt lat="49.52178572304547" lon="9.325498519465327">
<ele>331.6</ele>
<time>2024-05-12T07:53:35Z</time>
</trkpt>
<trkpt lat="49.52176284044981" lon="9.325539506971836">
<ele>331.6</ele>
<time>2024-05-12T07:53:36Z</time>
</trkpt>
<trkpt lat="49.521751357242465" lon="9.325578650459647">
<ele>331.6</ele>
<time>2024-05-12T07:53:37Z</time>
</trkpt>
<trkpt lat="49.52173995785415" lon="9.32561201043427">
<ele>331.6</ele>
<time>2024-05-12T07:53:38Z</time>
</trkpt>
<trkpt lat="49.52172461897135" lon="9.325654925778508">
<ele>331.4</ele>
<time>2024-05-12T07:53:39Z</time>
</trkpt>
<trkpt lat="49.521709363907576" lon="9.325694991275668">
<ele>331.4</ele>
<time>2024-05-12T07:53:40Z</time>
</trkpt>
<trkpt lat="49.521690336987376" lon="9.325735056772828">
<ele>331.4</ele>
<time>2024-05-12T07:53:41Z</time>
</trkpt>
<trkpt lat="49.5216750819236" lon="9.32577126659453">
<ele>331.4</ele>
<time>2024-05-12T07:53:42Z</time>
</trkpt>
<trkpt lat="49.52165597118437" lon="9.325801776722074">
<ele>331.4</ele>
<time>2024-05-12T07:53:43Z</time>
</trkpt>
<trkpt lat="49.521633088588715" lon="9.325824659317732">
<ele>331.2</ele>
<time>2024-05-12T07:53:44Z</time>
</trkpt>
<trkpt lat="49.52160643413663" lon="9.325836142525077">
<ele>331.2</ele>
<time>2024-05-12T07:53:45Z</time>
</trkpt>
<trkpt lat="49.52157969586551" lon="9.325843770056965">
<ele>331.2</ele>
<time>2024-05-12T07:53:46Z</time>
</trkpt>
<trkpt lat="49.52154918573797" lon="9.32584854774177">
<ele>331.2</ele>
<time>2024-05-12T07:53:47Z</time>
</trkpt>
<trkpt lat="49.52151481993496" lon="9.325858103111386">
<ele>331</ele>
<time>2024-05-12T07:53:48Z</time>
</trkpt>
<trkpt lat="49.52148816548288" lon="9.32586858049035">
<ele>331</ele>
<time>2024-05-12T07:53:49Z</time>
</trkpt>
<trkpt lat="49.521457655355334" lon="9.325878135859966">
<ele>330.8</ele>
<time>2024-05-12T07:53:50Z</time>
</trkpt>
<trkpt lat="49.521419517695904" lon="9.325882829725742">
<ele>330.6</ele>
<time>2024-05-12T07:53:51Z</time>
</trkpt>
<trkpt lat="49.52138129621744" lon="9.3258866854012">
<ele>330.6</ele>
<time>2024-05-12T07:53:52Z</time>
</trkpt>
<trkpt lat="49.521339386701584" lon="9.325884757563472">
<ele>330.4</ele>
<time>2024-05-12T07:53:53Z</time>
</trkpt>
<trkpt lat="49.52130502089858" lon="9.325884757563472">
<ele>330.4</ele>
<time>2024-05-12T07:53:54Z</time>
</trkpt>
<trkpt lat="49.52127073891461" lon="9.3258866854012">
<ele>330.2</ele>
<time>2024-05-12T07:53:55Z</time>
</trkpt>
<trkpt lat="49.521236373111606" lon="9.325891463086007">
<ele>330</ele>
<time>2024-05-12T07:53:56Z</time>
</trkpt>
<trkpt lat="49.52120963484049" lon="9.325895234942436">
<ele>329.8</ele>
<time>2024-05-12T07:53:57Z</time>
</trkpt>
<trkpt lat="49.521179124712944" lon="9.32590956799686">
<ele>329.6</ele>
<time>2024-05-12T07:53:58Z</time>
</trkpt>
<trkpt lat="49.52115247026086" lon="9.325935300439596">
<ele>329.6</ele>
<time>2024-05-12T07:53:59Z</time>
</trkpt>
<trkpt lat="49.52114098705351" lon="9.325980143621564">
<ele>329.6</ele>
<time>2024-05-12T07:54:00Z</time>
</trkpt>
<trkpt lat="49.5211295876652" lon="9.326031608507035">
<ele>329.6</ele>
<time>2024-05-12T07:54:01Z</time>
</trkpt>
<trkpt lat="49.52112573198974" lon="9.326080307364464">
<ele>329.6</ele>
<time>2024-05-12T07:54:02Z</time>
</trkpt>
<trkpt lat="49.5211295876652" lon="9.32612699456513">
<ele>329.4</ele>
<time>2024-05-12T07:54:03Z</time>
</trkpt>
<trkpt lat="49.52113335952163" lon="9.32618323713541">
<ele>329.4</ele>
<time>2024-05-12T07:54:04Z</time>
</trkpt>
<trkpt lat="49.521137215197086" lon="9.326238557696342">
<ele>329.2</ele>
<time>2024-05-12T07:54:05Z</time>
</trkpt>
<trkpt lat="49.52114098705351" lon="9.326292956247926">
<ele>329</ele>
<time>2024-05-12T07:54:06Z</time>
</trkpt>
<trkpt lat="49.5211486145854" lon="9.326338721439242">
<ele>328.8</ele>
<time>2024-05-12T07:54:07Z</time>
</trkpt>
<trkpt lat="49.52115247026086" lon="9.326386414468288">
<ele>328.6</ele>
<time>2024-05-12T07:54:08Z</time>
</trkpt>
<trkpt lat="49.521156242117286" lon="9.326435029506683">
<ele>328.4</ele>
<time>2024-05-12T07:54:09Z</time>
</trkpt>
<trkpt lat="49.52116386964917" lon="9.326490350067616">
<ele>328.4</ele>
<time>2024-05-12T07:54:10Z</time>
</trkpt>
<trkpt lat="49.521160097792745" lon="9.326543742790818">
<ele>328.2</ele>
<time>2024-05-12T07:54:11Z</time>
</trkpt>
<trkpt lat="49.52115247026086" lon="9.326601913198829">
<ele>328.2</ele>
<time>2024-05-12T07:54:12Z</time>
</trkpt>
<trkpt lat="49.521160097792745" lon="9.326648684218526">
<ele>328</ele>
<time>2024-05-12T07:54:13Z</time>
</trkpt>
<trkpt lat="49.521160097792745" lon="9.326693527400494">
<ele>328</ele>
<time>2024-05-12T07:54:14Z</time>
</trkpt>
<trkpt lat="49.521160097792745" lon="9.326733509078622">
<ele>327.8</ele>
<time>2024-05-12T07:54:15Z</time>
</trkpt>
<trkpt lat="49.52116386964917" lon="9.326773574575782">
<ele>327.8</ele>
<time>2024-05-12T07:54:16Z</time>
</trkpt>
<trkpt lat="49.52117535285652" lon="9.326813640072942">
<ele>327.8</ele>
<time>2024-05-12T07:54:17Z</time>
</trkpt>
<trkpt lat="49.52119060792029" lon="9.326853705570102">
<ele>327.8</ele>
<time>2024-05-12T07:54:18Z</time>
</trkpt>
<trkpt lat="49.5212020073086" lon="9.32689469307661">
<ele>328</ele>
<time>2024-05-12T07:54:19Z</time>
</trkpt>
<trkpt lat="49.52121349051595" lon="9.326941464096308">
<ele>328</ele>
<time>2024-05-12T07:54:20Z</time>
</trkpt>
<trkpt lat="49.521217346191406" lon="9.326988151296971">
<ele>328</ele>
<time>2024-05-12T07:54:21Z</time>
</trkpt>
<trkpt lat="49.52122497372329" lon="9.3270368501544">
<ele>328</ele>
<time>2024-05-12T07:54:22Z</time>
</trkpt>
<trkpt lat="49.521240228787065" lon="9.327081609517336">
<ele>328.2</ele>
<time>2024-05-12T07:54:23Z</time>
</trkpt>
<trkpt lat="49.52126311138272" lon="9.327128380537031">
<ele>328.2</ele>
<time>2024-05-12T07:54:24Z</time>
</trkpt>
<trkpt lat="49.52128976583481" lon="9.327176995575428">
<ele>328.4</ele>
<time>2024-05-12T07:54:25Z</time>
</trkpt>
<trkpt lat="49.52130124904215" lon="9.327223766595123">
<ele>328.4</ele>
<time>2024-05-12T07:54:26Z</time>
</trkpt>
<trkpt lat="49.52131264843047" lon="9.327266681939363">
<ele>328.6</ele>
<time>2024-05-12T07:54:27Z</time>
</trkpt>
<trkpt lat="49.52132027596235" lon="9.3273114413023">
<ele>328.6</ele>
<time>2024-05-12T07:54:28Z</time>
</trkpt>
<trkpt lat="49.52132413163781" lon="9.327356284484267">
<ele>328.8</ele>
<time>2024-05-12T07:54:29Z</time>
</trkpt>
<trkpt lat="49.52132790349424" lon="9.327400205656886">
<ele>329</ele>
<time>2024-05-12T07:54:30Z</time>
</trkpt>
<trkpt lat="49.521339386701584" lon="9.327433565631509">
<ele>329.2</ele>
<time>2024-05-12T07:54:31Z</time>
</trkpt>
<trkpt lat="49.52135464176536" lon="9.32746784761548">
<ele>329.4</ele>
<time>2024-05-12T07:54:32Z</time>
</trkpt>
<trkpt lat="49.521373668685555" lon="9.327500285580754">
<ele>329.6</ele>
<time>2024-05-12T07:54:33Z</time>
</trkpt>
<trkpt lat="49.521396635100245" lon="9.327518390491605">
<ele>329.8</ele>
<time>2024-05-12T07:54:34Z</time>
</trkpt>
<trkpt lat="49.521419517695904" lon="9.327536579221489">
<ele>330</ele>
<time>2024-05-12T07:54:35Z</time>
</trkpt>
<trkpt lat="49.5214385446161" lon="9.32755183428526">
<ele>330.2</ele>
<time>2024-05-12T07:54:36Z</time>
</trkpt>
<trkpt lat="49.521457655355334" lon="9.327573711052535">
<ele>330.2</ele>
<time>2024-05-12T07:54:37Z</time>
</trkpt>
<trkpt lat="49.52147291041911" lon="9.32760614901781">
<ele>330.4</ele>
<time>2024-05-12T07:54:38Z</time>
</trkpt>
<trkpt lat="49.52148816548288" lon="9.327652920037508">
<ele>330.4</ele>
<time>2024-05-12T07:54:39Z</time>
</trkpt>
<trkpt lat="49.521491937339306" lon="9.32770530693233">
<ele>330.4</ele>
<time>2024-05-12T07:54:40Z</time>
</trkpt>
<trkpt lat="49.52149956487119" lon="9.327754927799106">
<ele>330.6</ele>
<time>2024-05-12T07:54:41Z</time>
</trkpt>
<trkpt lat="49.52151481993496" lon="9.327799770981072">
<ele>330.6</ele>
<time>2024-05-12T07:54:42Z</time>
</trkpt>
<trkpt lat="49.521533930674195" lon="9.327841680496933">
<ele>330.6</ele>
<time>2024-05-12T07:54:43Z</time>
</trkpt>
<trkpt lat="49.521556813269854" lon="9.327875124290586">
<ele>330.6</ele>
<time>2024-05-12T07:54:44Z</time>
</trkpt>
<trkpt lat="49.52157969586551" lon="9.3279037065804">
<ele>330.8</ele>
<time>2024-05-12T07:54:45Z</time>
</trkpt>
<trkpt lat="49.52160643413663" lon="9.327937066555023">
<ele>330.8</ele>
<time>2024-05-12T07:54:46Z</time>
</trkpt>
<trkpt lat="49.521633088588715" lon="9.327975204214454">
<ele>331</ele>
<time>2024-05-12T07:54:47Z</time>
</trkpt>
<trkpt lat="49.52165597118437" lon="9.32802197523415">
<ele>331</ele>
<time>2024-05-12T07:54:48Z</time>
</trkpt>
<trkpt lat="49.5216750819236" lon="9.328075367957354">
<ele>331.2</ele>
<time>2024-05-12T07:54:49Z</time>
</trkpt>
<trkpt lat="49.52169796451926" lon="9.328129766508937">
<ele>331.2</ele>
<time>2024-05-12T07:54:50Z</time>
</trkpt>
<trkpt lat="49.52171699143946" lon="9.32818030938506">
<ele>331.2</ele>
<time>2024-05-12T07:54:51Z</time>
</trkpt>
<trkpt lat="49.521732330322266" lon="9.328227918595076">
<ele>331.4</ele>
<time>2024-05-12T07:54:52Z</time>
</trkpt>
<trkpt lat="49.52174372971058" lon="9.328274689614773">
<ele>331.4</ele>
<time>2024-05-12T07:54:53Z</time>
</trkpt>
<trkpt lat="49.52175898477435" lon="9.32831953279674">
<ele>331.6</ele>
<time>2024-05-12T07:54:54Z</time>
</trkpt>
<trkpt lat="49.521770467981696" lon="9.328365297988055">
<ele>331.8</ele>
<time>2024-05-12T07:54:55Z</time>
</trkpt>
<trkpt lat="49.52178186737001" lon="9.3284148350358">
<ele>332</ele>
<time>2024-05-12T07:54:56Z</time>
</trkpt>
<trkpt lat="49.521789494901896" lon="9.328473089262843">
<ele>332.2</ele>
<time>2024-05-12T07:54:57Z</time>
</trkpt>
<trkpt lat="49.52180097810924" lon="9.328530253842471">
<ele>332.4</ele>
<time>2024-05-12T07:54:58Z</time>
</trkpt>
<trkpt lat="49.521812377497554" lon="9.328588424250484">
<ele>332.6</ele>
<time>2024-05-12T07:54:59Z</time>
</trkpt>
<trkpt lat="49.5218238607049" lon="9.328648522496223">
<ele>332.6</ele>
<time>2024-05-12T07:55:00Z</time>
</trkpt>
<trkpt lat="49.52183526009321" lon="9.328708620741963">
<ele>332.6</ele>
<time>2024-05-12T07:55:01Z</time>
</trkpt>
<trkpt lat="49.52184674330056" lon="9.328766791149974">
<ele>332.6</ele>
<time>2024-05-12T07:55:02Z</time>
</trkpt>
<trkpt lat="49.52186199836433" lon="9.328824961557984">
<ele>332.8</ele>
<time>2024-05-12T07:55:03Z</time>
</trkpt>
<trkpt lat="49.52188102528453" lon="9.328883131965997">
<ele>332.8</ele>
<time>2024-05-12T07:55:04Z</time>
</trkpt>
<trkpt lat="49.52190013602376" lon="9.328943230211737">
<ele>332.8</ele>
<time>2024-05-12T07:55:05Z</time>
</trkpt>
<trkpt lat="49.52191539108753" lon="9.329006178304551">
<ele>333</ele>
<time>2024-05-12T07:55:06Z</time>
</trkpt>
<trkpt lat="49.521930646151304" lon="9.32907004840672">
<ele>333</ele>
<time>2024-05-12T07:55:07Z</time>
</trkpt>
<trkpt lat="49.521949756890535" lon="9.32913207449019">
<ele>333</ele>
<time>2024-05-12T07:55:08Z</time>
</trkpt>
<trkpt lat="49.52196501195431" lon="9.329191166907547">
<ele>333</ele>
<time>2024-05-12T07:55:09Z</time>
</trkpt>
<trkpt lat="49.52198026701808" lon="9.329251265153289">
<ele>333</ele>
<time>2024-05-12T07:55:10Z</time>
</trkpt>
<trkpt lat="49.52199552208185" lon="9.329313207417728">
<ele>332.8</ele>
<time>2024-05-12T07:55:11Z</time>
</trkpt>
<trkpt lat="49.522010777145624" lon="9.329373305663466">
<ele>332.8</ele>
<time>2024-05-12T07:55:12Z</time>
</trkpt>
<trkpt lat="49.52202217653394" lon="9.329433403909206">
<ele>332.6</ele>
<time>2024-05-12T07:55:13Z</time>
</trkpt>
<trkpt lat="49.52203365974128" lon="9.329493502154946">
<ele>332.6</ele>
<time>2024-05-12T07:55:14Z</time>
</trkpt>
<trkpt lat="49.5220450591296" lon="9.329554522410035">
<ele>332.6</ele>
<time>2024-05-12T07:55:15Z</time>
</trkpt>
<trkpt lat="49.52205654233694" lon="9.329614620655777">
<ele>332.6</ele>
<time>2024-05-12T07:55:16Z</time>
</trkpt>
<trkpt lat="49.522067941725254" lon="9.329673713073134">
<ele>332.6</ele>
<time>2024-05-12T07:55:17Z</time>
</trkpt>
<trkpt lat="49.5220794249326" lon="9.329731883481143">
<ele>332.6</ele>
<time>2024-05-12T07:55:18Z</time>
</trkpt>
<trkpt lat="49.522087052464485" lon="9.329790053889155">
<ele>332.6</ele>
<time>2024-05-12T07:55:19Z</time>
</trkpt>
<trkpt lat="49.52209853567183" lon="9.329846380278468">
<ele>332.6</ele>
<time>2024-05-12T07:55:20Z</time>
</trkpt>
<trkpt lat="49.52210993506014" lon="9.329906394705176">
<ele>332.6</ele>
<time>2024-05-12T07:55:21Z</time>
</trkpt>
<trkpt lat="49.52212141826749" lon="9.329964565113189">
<ele>332.6</ele>
<time>2024-05-12T07:55:22Z</time>
</trkpt>
<trkpt lat="49.5221328176558" lon="9.330023741349578">
<ele>332.6</ele>
<time>2024-05-12T07:55:23Z</time>
</trkpt>
<trkpt lat="49.52214430086315" lon="9.330082833766935">
<ele>332.8</ele>
<time>2024-05-12T07:55:24Z</time>
</trkpt>
<trkpt lat="49.52215570025146" lon="9.330142010003328">
<ele>332.8</ele>
<time>2024-05-12T07:55:25Z</time>
</trkpt>
<trkpt lat="49.522163327783346" lon="9.33020018041134">
<ele>333</ele>
<time>2024-05-12T07:55:26Z</time>
</trkpt>
<trkpt lat="49.52217481099069" lon="9.33025835081935">
<ele>333</ele>
<time>2024-05-12T07:55:27Z</time>
</trkpt>
<trkpt lat="49.522186210379004" lon="9.33031844906509">
<ele>333.2</ele>
<time>2024-05-12T07:55:28Z</time>
</trkpt>
<trkpt lat="49.52219769358635" lon="9.3303766194731">
<ele>333.2</ele>
<time>2024-05-12T07:55:29Z</time>
</trkpt>
<trkpt lat="49.52220909297466" lon="9.330436633899808">
<ele>333</ele>
<time>2024-05-12T07:55:30Z</time>
</trkpt>
<trkpt lat="49.52221672050655" lon="9.330498659983276">
<ele>333</ele>
<time>2024-05-12T07:55:31Z</time>
</trkpt>
<trkpt lat="49.522228203713894" lon="9.330556830391288">
<ele>333</ele>
<time>2024-05-12T07:55:32Z</time>
</trkpt>
<trkpt lat="49.52223960310221" lon="9.330613072961569">
<ele>333.2</ele>
<time>2024-05-12T07:55:33Z</time>
</trkpt>
<trkpt lat="49.522247314453125" lon="9.33067032136023">
<ele>333.2</ele>
<time>2024-05-12T07:55:34Z</time>
</trkpt>
<trkpt lat="49.52225494198501" lon="9.330723714083431">
<ele>333.2</ele>
<time>2024-05-12T07:55:35Z</time>
</trkpt>
<trkpt lat="49.52225871384144" lon="9.330778112635016">
<ele>333.4</ele>
<time>2024-05-12T07:55:36Z</time>
</trkpt>
<trkpt lat="49.52226634137333" lon="9.330833433195949">
<ele>333.4</ele>
<time>2024-05-12T07:55:37Z</time>
</trkpt>
<trkpt lat="49.52227396890521" lon="9.330888669937847">
<ele>333.4</ele>
<time>2024-05-12T07:55:38Z</time>
</trkpt>
<trkpt lat="49.5222815964371" lon="9.330943068489432">
<ele>333.6</ele>
<time>2024-05-12T07:55:39Z</time>
</trkpt>
<trkpt lat="49.52228922396898" lon="9.331000316888094">
<ele>333.6</ele>
<time>2024-05-12T07:55:40Z</time>
</trkpt>
<trkpt lat="49.52229307964444" lon="9.331056559458377">
<ele>333.8</ele>
<time>2024-05-12T07:55:41Z</time>
</trkpt>
<trkpt lat="49.52230070717633" lon="9.331114729866384">
<ele>334</ele>
<time>2024-05-12T07:55:42Z</time>
</trkpt>
<trkpt lat="49.522308334708214" lon="9.331171978265049">
<ele>334</ele>
<time>2024-05-12T07:55:43Z</time>
</trkpt>
<trkpt lat="49.5223159622401" lon="9.331230148673058">
<ele>334.2</ele>
<time>2024-05-12T07:55:44Z</time>
</trkpt>
<trkpt lat="49.522323589771986" lon="9.33128546923399">
<ele>334.4</ele>
<time>2024-05-12T07:55:45Z</time>
</trkpt>
<trkpt lat="49.52233121730387" lon="9.33133978396654">
<ele>334.4</ele>
<time>2024-05-12T07:55:46Z</time>
</trkpt>
<trkpt lat="49.52233884483576" lon="9.331395104527472">
<ele>334.6</ele>
<time>2024-05-12T07:55:47Z</time>
</trkpt>
<trkpt lat="49.522342616692185" lon="9.331451347097754">
<ele>334.8</ele>
<time>2024-05-12T07:55:48Z</time>
</trkpt>
<trkpt lat="49.52235024422407" lon="9.331509517505763">
<ele>335</ele>
<time>2024-05-12T07:55:49Z</time>
</trkpt>
<trkpt lat="49.52235787175596" lon="9.331566765904428">
<ele>335.2</ele>
<time>2024-05-12T07:55:50Z</time>
</trkpt>
<trkpt lat="49.52236172743142" lon="9.331624936312435">
<ele>335.2</ele>
<time>2024-05-12T07:55:51Z</time>
</trkpt>
<trkpt lat="49.5223693549633" lon="9.331683106720448">
<ele>335.4</ele>
<time>2024-05-12T07:55:52Z</time>
</trkpt>
<trkpt lat="49.52237312681973" lon="9.33174035511911">
<ele>335.4</ele>
<time>2024-05-12T07:55:53Z</time>
</trkpt>
<trkpt lat="49.52237698249519" lon="9.33179852552712">
<ele>335.6</ele>
<time>2024-05-12T07:55:54Z</time>
</trkpt>
<trkpt lat="49.522384610027075" lon="9.33185669593513">
<ele>335.8</ele>
<time>2024-05-12T07:55:55Z</time>
</trkpt>
<trkpt lat="49.5223883818835" lon="9.33191486634314">
<ele>335.8</ele>
<time>2024-05-12T07:55:56Z</time>
</trkpt>
<trkpt lat="49.52239223755896" lon="9.331973036751153">
<ele>336</ele>
<time>2024-05-12T07:55:57Z</time>
</trkpt>
<trkpt lat="49.52239600941539" lon="9.33203506283462">
<ele>336</ele>
<time>2024-05-12T07:55:58Z</time>
</trkpt>
<trkpt lat="49.52239986509085" lon="9.332095077261329">
<ele>336.2</ele>
<time>2024-05-12T07:55:59Z</time>
</trkpt>
<trkpt lat="49.522403636947274" lon="9.33215324766934">
<ele>336.2</ele>
<time>2024-05-12T07:56:00Z</time>
</trkpt>
<trkpt lat="49.52240749262273" lon="9.33221334591508">
<ele>336.2</ele>
<time>2024-05-12T07:56:01Z</time>
</trkpt>
<trkpt lat="49.52241126447916" lon="9.33227151632309">
<ele>336.2</ele>
<time>2024-05-12T07:56:02Z</time>
</trkpt>
<trkpt lat="49.52241126447916" lon="9.33233161456883">
<ele>336.4</ele>
<time>2024-05-12T07:56:03Z</time>
</trkpt>
<trkpt lat="49.52241126447916" lon="9.3323936406523">
<ele>336.4</ele>
<time>2024-05-12T07:56:04Z</time>
</trkpt>
<trkpt lat="49.52241126447916" lon="9.332454660907388">
<ele>336.4</ele>
<time>2024-05-12T07:56:05Z</time>
</trkpt>
<trkpt lat="49.52241126447916" lon="9.332516603171824">
<ele>336.6</ele>
<time>2024-05-12T07:56:06Z</time>
</trkpt>
<trkpt lat="49.52241126447916" lon="9.332578629255297">
<ele>336.6</ele>
<time>2024-05-12T07:56:07Z</time>
</trkpt>
<trkpt lat="49.52240749262273" lon="9.332639649510384">
<ele>336.8</ele>
<time>2024-05-12T07:56:08Z</time>
</trkpt>
<trkpt lat="49.52240749262273" lon="9.332698741927745">
<ele>336.8</ele>
<time>2024-05-12T07:56:09Z</time>
</trkpt>
<trkpt lat="49.522403636947274" lon="9.332757918164134">
<ele>336.8</ele>
<time>2024-05-12T07:56:10Z</time>
</trkpt>
<trkpt lat="49.52239986509085" lon="9.332817010581492">
<ele>337</ele>
<time>2024-05-12T07:56:11Z</time>
</trkpt>
<trkpt lat="49.52239600941539" lon="9.332875180989504">
<ele>337</ele>
<time>2024-05-12T07:56:12Z</time>
</trkpt>
<trkpt lat="49.5223883818835" lon="9.332935279235244">
<ele>337.2</ele>
<time>2024-05-12T07:56:13Z</time>
</trkpt>
<trkpt lat="49.522384610027075" lon="9.332996299490333">
<ele>337.2</ele>
<time>2024-05-12T07:56:14Z</time>
</trkpt>
<trkpt lat="49.52237312681973" lon="9.333058325573802">
<ele>337.4</ele>
<time>2024-05-12T07:56:15Z</time>
</trkpt>
<trkpt lat="49.52236549928784" lon="9.33312026783824">
<ele>337.6</ele>
<time>2024-05-12T07:56:16Z</time>
</trkpt>
<trkpt lat="49.52235787175596" lon="9.333183215931058">
<ele>337.6</ele>
<time>2024-05-12T07:56:17Z</time>
</trkpt>
<trkpt lat="49.52235024422407" lon="9.333245242014527">
<ele>337.8</ele>
<time>2024-05-12T07:56:18Z</time>
</trkpt>
<trkpt lat="49.522342616692185" lon="9.333308190107346">
<ele>337.8</ele>
<time>2024-05-12T07:56:19Z</time>
</trkpt>
<trkpt lat="49.5223349891603" lon="9.333370132371783">
<ele>337.8</ele>
<time>2024-05-12T07:56:20Z</time>
</trkpt>
<trkpt lat="49.52232736162841" lon="9.333431236445904">
<ele>338</ele>
<time>2024-05-12T07:56:21Z</time>
</trkpt>
<trkpt lat="49.52231973409653" lon="9.33349317871034">
<ele>338</ele>
<time>2024-05-12T07:56:22Z</time>
</trkpt>
<trkpt lat="49.52231210656464" lon="9.33355520479381">
<ele>338</ele>
<time>2024-05-12T07:56:23Z</time>
</trkpt>
<trkpt lat="49.522304479032755" lon="9.333618152886627">
<ele>338</ele>
<time>2024-05-12T07:56:24Z</time>
</trkpt>
<trkpt lat="49.52229307964444" lon="9.333682944998143">
<ele>338</ele>
<time>2024-05-12T07:56:25Z</time>
</trkpt>
<trkpt lat="49.5222815964371" lon="9.333749748766422">
<ele>338</ele>
<time>2024-05-12T07:56:26Z</time>
</trkpt>
<trkpt lat="49.52227396890521" lon="9.333816468715668">
<ele>338</ele>
<time>2024-05-12T07:56:27Z</time>
</trkpt>
<trkpt lat="49.52226634137333" lon="9.333883272483943">
<ele>338</ele>
<time>2024-05-12T07:56:28Z</time>
</trkpt>
<trkpt lat="49.52225494198501" lon="9.33394806459546">
<ele>338</ele>
<time>2024-05-12T07:56:29Z</time>
</trkpt>
<trkpt lat="49.522247314453125" lon="9.334014868363738">
<ele>338</ele>
<time>2024-05-12T07:56:30Z</time>
</trkpt>
<trkpt lat="49.52223960310221" lon="9.334083516150711">
<ele>338</ele>
<time>2024-05-12T07:56:31Z</time>
</trkpt>
<trkpt lat="49.522228203713894" lon="9.334150236099958">
<ele>338</ele>
<time>2024-05-12T07:56:32Z</time>
</trkpt>
<trkpt lat="49.52221672050655" lon="9.334217039868236">
<ele>338</ele>
<time>2024-05-12T07:56:33Z</time>
</trkpt>
<trkpt lat="49.52220909297466" lon="9.334279987961054">
<ele>338</ele>
<time>2024-05-12T07:56:34Z</time>
</trkpt>
<trkpt lat="49.52219769358635" lon="9.334342936053872">
<ele>338</ele>
<time>2024-05-12T07:56:35Z</time>
</trkpt>
<trkpt lat="49.52219006605446" lon="9.33440487831831">
<ele>338</ele>
<time>2024-05-12T07:56:36Z</time>
</trkpt>
<trkpt lat="49.52218243852258" lon="9.33446497656405">
<ele>338</ele>
<time>2024-05-12T07:56:37Z</time>
</trkpt>
<trkpt lat="49.52218243852258" lon="9.33452314697206">
<ele>338</ele>
<time>2024-05-12T07:56:38Z</time>
</trkpt>
<trkpt lat="49.52217858284712" lon="9.33458517305553">
<ele>338</ele>
<time>2024-05-12T07:56:39Z</time>
</trkpt>
<trkpt lat="49.52217095531523" lon="9.334648121148348">
<ele>338</ele>
<time>2024-05-12T07:56:40Z</time>
</trkpt>
<trkpt lat="49.522167183458805" lon="9.334716768935325">
<ele>338.2</ele>
<time>2024-05-12T07:56:41Z</time>
</trkpt>
<trkpt lat="49.52215955592692" lon="9.334783488884568">
<ele>338.2</ele>
<time>2024-05-12T07:56:42Z</time>
</trkpt>
<trkpt lat="49.52215192839503" lon="9.334850292652844">
<ele>338.4</ele>
<time>2024-05-12T07:56:43Z</time>
</trkpt>
<trkpt lat="49.52214430086315" lon="9.334918018430471">
<ele>338.4</ele>
<time>2024-05-12T07:56:44Z</time>
</trkpt>
<trkpt lat="49.52213667333126" lon="9.334986666217446">
<ele>338.6</ele>
<time>2024-05-12T07:56:45Z</time>
</trkpt>
<trkpt lat="49.5221328176558" lon="9.33505531400442">
<ele>338.6</ele>
<time>2024-05-12T07:56:46Z</time>
</trkpt>
<trkpt lat="49.52212519012392" lon="9.335122033953668">
<ele>338.6</ele>
<time>2024-05-12T07:56:47Z</time>
</trkpt>
<trkpt lat="49.5221137907356" lon="9.335186909884214">
<ele>338.8</ele>
<time>2024-05-12T07:56:48Z</time>
</trkpt>
<trkpt lat="49.52210993506014" lon="9.335247930139303">
<ele>338.8</ele>
<time>2024-05-12T07:56:49Z</time>
</trkpt>
<trkpt lat="49.52210230752826" lon="9.335308028385043">
<ele>338.8</ele>
<time>2024-05-12T07:56:50Z</time>
</trkpt>
<trkpt lat="49.52209467999637" lon="9.335366198793054">
<ele>339</ele>
<time>2024-05-12T07:56:51Z</time>
</trkpt>
<trkpt lat="49.52208328060806" lon="9.335421519353986">
<ele>339</ele>
<time>2024-05-12T07:56:52Z</time>
</trkpt>
<trkpt lat="49.52208328060806" lon="9.335476839914918">
<ele>339.2</ele>
<time>2024-05-12T07:56:53Z</time>
</trkpt>
<trkpt lat="49.52208328060806" lon="9.335528304800391">
<ele>339.4</ele>
<time>2024-05-12T07:56:54Z</time>
</trkpt>
<trkpt lat="49.522090908139944" lon="9.335577003657818">
<ele>339.4</ele>
<time>2024-05-12T07:56:55Z</time>
</trkpt>
<trkpt lat="49.52209853567183" lon="9.335621763020754">
<ele>339.6</ele>
<time>2024-05-12T07:56:56Z</time>
</trkpt>
<trkpt lat="49.52210993506014" lon="9.335668534040453">
<ele>339.6</ele>
<time>2024-05-12T07:56:57Z</time>
</trkpt>
<trkpt lat="49.52211756259203" lon="9.335715221241117">
<ele>339.8</ele>
<time>2024-05-12T07:56:58Z</time>
</trkpt>
<trkpt lat="49.52212519012392" lon="9.335760064423084">
<ele>340</ele>
<time>2024-05-12T07:56:59Z</time>
</trkpt>
<trkpt lat="49.522129045799375" lon="9.335800129920244">
<ele>340</ele>
<time>2024-05-12T07:57:00Z</time>
</trkpt>
<trkpt lat="49.5221328176558" lon="9.335840195417404">
<ele>340.2</ele>
<time>2024-05-12T07:57:01Z</time>
</trkpt>
<trkpt lat="49.52212519012392" lon="9.335880260914564">
<ele>340.2</ele>
<time>2024-05-12T07:57:02Z</time>
</trkpt>
<trkpt lat="49.52210616320371" lon="9.335921248421071">
<ele>340.4</ele>
<time>2024-05-12T07:57:03Z</time>
</trkpt>
<trkpt lat="49.52209467999637" lon="9.33596701361239">
<ele>340.4</ele>
<time>2024-05-12T07:57:04Z</time>
</trkpt>
<trkpt lat="49.5220794249326" lon="9.336011856794356">
<ele>340.6</ele>
<time>2024-05-12T07:57:05Z</time>
</trkpt>
<trkpt lat="49.522067941725254" lon="9.336056699976323">
<ele>340.6</ele>
<time>2024-05-12T07:57:06Z</time>
</trkpt>
<trkpt lat="49.52205654233694" lon="9.336099615320563">
<ele>340.8</ele>
<time>2024-05-12T07:57:07Z</time>
</trkpt>
<trkpt lat="49.522048914805055" lon="9.33614538051188">
<ele>341</ele>
<time>2024-05-12T07:57:08Z</time>
</trkpt>
<trkpt lat="49.5220450591296" lon="9.336191145703197">
<ele>341.2</ele>
<time>2024-05-12T07:57:09Z</time>
</trkpt>
<trkpt lat="49.52203743159771" lon="9.336239760741591">
<ele>341.4</ele>
<time>2024-05-12T07:57:10Z</time>
</trkpt>
<trkpt lat="49.522029804065824" lon="9.336290303617716">
<ele>341.4</ele>
<time>2024-05-12T07:57:11Z</time>
</trkpt>
<trkpt lat="49.52202217653394" lon="9.33634185232222">
<ele>341.6</ele>
<time>2024-05-12T07:57:12Z</time>
</trkpt>
<trkpt lat="49.52201454900205" lon="9.336393317207694">
<ele>341.8</ele>
<time>2024-05-12T07:57:13Z</time>
</trkpt>
<trkpt lat="49.52200314961374" lon="9.336448637768626">
<ele>341.8</ele>
<time>2024-05-12T07:57:14Z</time>
</trkpt>
<trkpt lat="49.52199929393828" lon="9.336502952501178">
<ele>342</ele>
<time>2024-05-12T07:57:15Z</time>
</trkpt>
<trkpt lat="49.52199166640639" lon="9.336555423215032">
<ele>342</ele>
<time>2024-05-12T07:57:16Z</time>
</trkpt>
<trkpt lat="49.521987894549966" lon="9.336607893928884">
<ele>342.2</ele>
<time>2024-05-12T07:57:17Z</time>
</trkpt>
<trkpt lat="49.52198403887451" lon="9.336663214489818">
<ele>342.2</ele>
<time>2024-05-12T07:57:18Z</time>
</trkpt>
<trkpt lat="49.52197641134262" lon="9.33671853505075">
<ele>342.2</ele>
<time>2024-05-12T07:57:19Z</time>
</trkpt>
<trkpt lat="49.521972639486194" lon="9.336771927773952">
<ele>342.4</ele>
<time>2024-05-12T07:57:20Z</time>
</trkpt>
<trkpt lat="49.52196501195431" lon="9.336823392659426">
<ele>342.4</ele>
<time>2024-05-12T07:57:21Z</time>
</trkpt>
<trkpt lat="49.52196115627885" lon="9.3368730135262">
<ele>342.6</ele>
<time>2024-05-12T07:57:22Z</time>
</trkpt>
<trkpt lat="49.52195352874696" lon="9.336928334087132">
<ele>342.6</ele>
<time>2024-05-12T07:57:23Z</time>
</trkpt>
<trkpt lat="49.52194590121507" lon="9.336984576657414">
<ele>342.6</ele>
<time>2024-05-12T07:57:24Z</time>
</trkpt>
<trkpt lat="49.52193827368319" lon="9.337044674903154">
<ele>342.6</ele>
<time>2024-05-12T07:57:25Z</time>
</trkpt>
<trkpt lat="49.521930646151304" lon="9.337104773148894">
<ele>342.6</ele>
<time>2024-05-12T07:57:26Z</time>
</trkpt>
<trkpt lat="49.52191924676299" lon="9.33716956526041">
<ele>342.6</ele>
<time>2024-05-12T07:57:27Z</time>
</trkpt>
<trkpt lat="49.521911619231105" lon="9.33723544701934">
<ele>342.6</ele>
<time>2024-05-12T07:57:28Z</time>
</trkpt>
<trkpt lat="49.52190399169922" lon="9.337300239130856">
<ele>342.6</ele>
<time>2024-05-12T07:57:29Z</time>
</trkpt>
<trkpt lat="49.5218962803483" lon="9.337363187223673">
<ele>342.6</ele>
<time>2024-05-12T07:57:30Z</time>
</trkpt>
<trkpt lat="49.521888652816415" lon="9.33742705732584">
<ele>342.6</ele>
<time>2024-05-12T07:57:31Z</time>
</trkpt>
<trkpt lat="49.5218772534281" lon="9.337486233562233">
<ele>342.6</ele>
<time>2024-05-12T07:57:32Z</time>
</trkpt>
<trkpt lat="49.52186577022076" lon="9.337548175826669">
<ele>342.6</ele>
<time>2024-05-12T07:57:33Z</time>
</trkpt>
<trkpt lat="49.52185437083244" lon="9.337608274072409">
<ele>342.6</ele>
<time>2024-05-12T07:57:34Z</time>
</trkpt>
<trkpt lat="49.52184674330056" lon="9.33766644448042">
<ele>342.6</ele>
<time>2024-05-12T07:57:35Z</time>
</trkpt>
<trkpt lat="49.5218428876251" lon="9.33772654272616">
<ele>342.8</ele>
<time>2024-05-12T07:57:36Z</time>
</trkpt>
<trkpt lat="49.5218428876251" lon="9.337788568809628">
<ele>342.8</ele>
<time>2024-05-12T07:57:37Z</time>
</trkpt>
<trkpt lat="49.52184674330056" lon="9.33784481137991">
<ele>342.8</ele>
<time>2024-05-12T07:57:38Z</time>
</trkpt>
<trkpt lat="49.52185814268887" lon="9.337898204103112">
<ele>343</ele>
<time>2024-05-12T07:57:39Z</time>
</trkpt>
<trkpt lat="49.52187339775264" lon="9.337949752807615">
<ele>343</ele>
<time>2024-05-12T07:57:40Z</time>
</trkpt>
<trkpt lat="49.5218962803483" lon="9.337998367846012">
<ele>343</ele>
<time>2024-05-12T07:57:41Z</time>
</trkpt>
<trkpt lat="49.52191924676299" lon="9.338036505505444">
<ele>343</ele>
<time>2024-05-12T07:57:42Z</time>
</trkpt>
<trkpt lat="49.521930646151304" lon="9.33808034285903">
<ele>343.2</ele>
<time>2024-05-12T07:57:43Z</time>
</trkpt>
<trkpt lat="49.521930646151304" lon="9.338125186040998">
<ele>343.2</ele>
<time>2024-05-12T07:57:44Z</time>
</trkpt>
<trkpt lat="49.52192301861942" lon="9.338172879070044">
<ele>343.2</ele>
<time>2024-05-12T07:57:45Z</time>
</trkpt>
<trkpt lat="49.52191539108753" lon="9.338225349783896">
<ele>343.2</ele>
<time>2024-05-12T07:57:46Z</time>
</trkpt>
<trkpt lat="49.521907763555646" lon="9.338279664516447">
<ele>343.2</ele>
<time>2024-05-12T07:57:47Z</time>
</trkpt>
<trkpt lat="49.5218962803483" lon="9.338331213220954">
<ele>343.2</ele>
<time>2024-05-12T07:57:48Z</time>
</trkpt>
<trkpt lat="49.52187339775264" lon="9.33837790042162">
<ele>343.2</ele>
<time>2024-05-12T07:57:49Z</time>
</trkpt>
<trkpt lat="49.52183911576867" lon="9.338419893756509">
<ele>343.2</ele>
<time>2024-05-12T07:57:50Z</time>
</trkpt>
<trkpt lat="49.52180474996567" lon="9.338461803272368">
<ele>343.2</ele>
<time>2024-05-12T07:57:51Z</time>
</trkpt>
<trkpt lat="49.52177423983812" lon="9.338511424139142">
<ele>343</ele>
<time>2024-05-12T07:57:52Z</time>
</trkpt>
<trkpt lat="49.52174372971058" lon="9.338571522384882">
<ele>343</ele>
<time>2024-05-12T07:57:53Z</time>
</trkpt>
<trkpt lat="49.52172084711492" lon="9.338631620630622">
<ele>343</ele>
<time>2024-05-12T07:57:54Z</time>
</trkpt>
<trkpt lat="49.52170173637569" lon="9.338696412742138">
<ele>343</ele>
<time>2024-05-12T07:57:55Z</time>
</trkpt>
<trkpt lat="49.52168270945549" lon="9.338758438825607">
<ele>343</ele>
<time>2024-05-12T07:57:56Z</time>
</trkpt>
<trkpt lat="49.52166359871626" lon="9.338820381090043">
<ele>343</ele>
<time>2024-05-12T07:57:57Z</time>
</trkpt>
<trkpt lat="49.52164834365249" lon="9.338885257020593">
<ele>343</ele>
<time>2024-05-12T07:57:58Z</time>
</trkpt>
<trkpt lat="49.521633088588715" lon="9.33895206078887">
<ele>343</ele>
<time>2024-05-12T07:57:59Z</time>
</trkpt>
<trkpt lat="49.5216216892004" lon="9.339016852900386">
<ele>343</ele>
<time>2024-05-12T07:58:00Z</time>
</trkpt>
<trkpt lat="49.521610205993056" lon="9.339079800993204">
<ele>342.8</ele>
<time>2024-05-12T07:58:01Z</time>
</trkpt>
<trkpt lat="49.52159880660474" lon="9.339144676923752">
<ele>343</ele>
<time>2024-05-12T07:58:02Z</time>
</trkpt>
<trkpt lat="49.52159117907286" lon="9.33920661918819">
<ele>343</ele>
<time>2024-05-12T07:58:03Z</time>
</trkpt>
<trkpt lat="49.52158355154097" lon="9.339262945577502">
<ele>343</ele>
<time>2024-05-12T07:58:04Z</time>
</trkpt>
<trkpt lat="49.521575924009085" lon="9.339315332472324">
<ele>343.2</ele>
<time>2024-05-12T07:58:05Z</time>
</trkpt>
<trkpt lat="49.521572068333626" lon="9.339373586699368">
<ele>343.4</ele>
<time>2024-05-12T07:58:06Z</time>
</trkpt>
<trkpt lat="49.5215682964772" lon="9.339433601126077">
<ele>343.4</ele>
<time>2024-05-12T07:58:07Z</time>
</trkpt>
<trkpt lat="49.521556813269854" lon="9.339493699371817">
<ele>343.6</ele>
<time>2024-05-12T07:58:08Z</time>
</trkpt>
<trkpt lat="49.52154918573797" lon="9.339554719626904">
<ele>343.6</ele>
<time>2024-05-12T07:58:09Z</time>
</trkpt>
<trkpt lat="49.52153770253062" lon="9.339618673548102">
<ele>343.8</ele>
<time>2024-05-12T07:58:10Z</time>
</trkpt>
<trkpt lat="49.521530074998736" lon="9.339676843956113">
<ele>343.8</ele>
<time>2024-05-12T07:58:11Z</time>
</trkpt>
<trkpt lat="49.52151481993496" lon="9.339735014364123">
<ele>344</ele>
<time>2024-05-12T07:58:12Z</time>
</trkpt>
<trkpt lat="49.52150719240308" lon="9.339793184772134">
<ele>344.2</ele>
<time>2024-05-12T07:58:13Z</time>
</trkpt>
<trkpt lat="49.52149956487119" lon="9.339850349351764">
<ele>344.4</ele>
<time>2024-05-12T07:58:14Z</time>
</trkpt>
<trkpt lat="49.521491937339306" lon="9.33989997021854">
<ele>344.6</ele>
<time>2024-05-12T07:58:15Z</time>
</trkpt>
<trkpt lat="49.52148430980742" lon="9.339955290779471">
<ele>344.8</ele>
<time>2024-05-12T07:58:16Z</time>
</trkpt>
<trkpt lat="49.52148816548288" lon="9.340002983808516">
<ele>345</ele>
<time>2024-05-12T07:58:17Z</time>
</trkpt>
<trkpt lat="49.521495793014765" lon="9.340051598846912">
<ele>345</ele>
<time>2024-05-12T07:58:18Z</time>
</trkpt>
<trkpt lat="49.52151104807854" lon="9.34009836986661">
<ele>345</ele>
<time>2024-05-12T07:58:19Z</time>
</trkpt>
<trkpt lat="49.521530074998736" lon="9.340131729841232">
<ele>345</ele>
<time>2024-05-12T07:58:20Z</time>
</trkpt>
<trkpt lat="49.521552957594395" lon="9.340167017653584">
<ele>345.2</ele>
<time>2024-05-12T07:58:21Z</time>
</trkpt>
<trkpt lat="49.52156444080174" lon="9.340205155313017">
<ele>345.2</ele>
<time>2024-05-12T07:58:22Z</time>
</trkpt>
<trkpt lat="49.5215682964772" lon="9.340246142819524">
<ele>345.2</ele>
<time>2024-05-12T07:58:23Z</time>
</trkpt>
<trkpt lat="49.52156066894531" lon="9.340288136154411">
<ele>345.4</ele>
<time>2024-05-12T07:58:24Z</time>
</trkpt>
<trkpt lat="49.521552957594395" lon="9.340331973508">
<ele>345.4</ele>
<time>2024-05-12T07:58:25Z</time>
</trkpt>
<trkpt lat="49.52154155820608" lon="9.340376816689968">
<ele>345.4</ele>
<time>2024-05-12T07:58:26Z</time>
</trkpt>
<trkpt lat="49.521530074998736" lon="9.34041302651167">
<ele>345.4</ele>
<time>2024-05-12T07:58:27Z</time>
</trkpt>
<trkpt lat="49.52151481993496" lon="9.34044831432402">
<ele>345.6</ele>
<time>2024-05-12T07:58:28Z</time>
</trkpt>
<trkpt lat="49.521495793014765" lon="9.340483602136374">
<ele>345.6</ele>
<time>2024-05-12T07:58:29Z</time>
</trkpt>
<trkpt lat="49.52146905474365" lon="9.340513190254567">
<ele>345.6</ele>
<time>2024-05-12T07:58:30Z</time>
</trkpt>
<trkpt lat="49.5214385446161" lon="9.340551327914">
<ele>345.6</ele>
<time>2024-05-12T07:58:31Z</time>
</trkpt>
<trkpt lat="49.52141189016402" lon="9.340597093105316">
<ele>345.4</ele>
<time>2024-05-12T07:58:32Z</time>
</trkpt>
<trkpt lat="49.5213851518929" lon="9.34064864180982">
<ele>345.4</ele>
<time>2024-05-12T07:58:33Z</time>
</trkpt>
<trkpt lat="49.52136226929724" lon="9.340704884380102">
<ele>345.4</ele>
<time>2024-05-12T07:58:34Z</time>
</trkpt>
<trkpt lat="49.521339386701584" lon="9.34076976031065">
<ele>345.4</ele>
<time>2024-05-12T07:58:35Z</time>
</trkpt>
<trkpt lat="49.521316504105926" lon="9.340836480259895">
<ele>345.4</ele>
<time>2024-05-12T07:58:36Z</time>
</trkpt>
<trkpt lat="49.521297393366694" lon="9.34090512804687">
<ele>345.2</ele>
<time>2024-05-12T07:58:37Z</time>
</trkpt>
<trkpt lat="49.521278366446495" lon="9.340976709499955">
<ele>345.2</ele>
<time>2024-05-12T07:58:38Z</time>
</trkpt>
<trkpt lat="49.52126311138272" lon="9.341041501611471">
<ele>345.2</ele>
<time>2024-05-12T07:58:39Z</time>
</trkpt>
<trkpt lat="49.52125162817538" lon="9.34110545553267">
<ele>345.2</ele>
<time>2024-05-12T07:58:40Z</time>
</trkpt>
<trkpt lat="49.521240228787065" lon="9.34116647578776">
<ele>345.2</ele>
<time>2024-05-12T07:58:41Z</time>
</trkpt>
<trkpt lat="49.52122497372329" lon="9.341228418052197">
<ele>345.4</ele>
<time>2024-05-12T07:58:42Z</time>
</trkpt>
<trkpt lat="49.52120586298406" lon="9.341295221820474">
<ele>345.4</ele>
<time>2024-05-12T07:58:43Z</time>
</trkpt>
<trkpt lat="49.52118675224483" lon="9.3413629475981">
<ele>345.6</ele>
<time>2024-05-12T07:58:44Z</time>
</trkpt>
<trkpt lat="49.52116772532463" lon="9.341436373069882">
<ele>345.6</ele>
<time>2024-05-12T07:58:45Z</time>
</trkpt>
<trkpt lat="49.5211486145854" lon="9.341506948694589">
<ele>345.8</ele>
<time>2024-05-12T07:58:46Z</time>
</trkpt>
<trkpt lat="49.52113335952163" lon="9.34157651849091">
<ele>346</ele>
<time>2024-05-12T07:58:47Z</time>
</trkpt>
<trkpt lat="49.52111047692597" lon="9.341648099943995">
<ele>346.2</ele>
<time>2024-05-12T07:58:48Z</time>
</trkpt>
<trkpt lat="49.52109145000577" lon="9.341718591749668">
<ele>346.4</ele>
<time>2024-05-12T07:58:49Z</time>
</trkpt>
<trkpt lat="49.52106856741011" lon="9.341785395517944">
<ele>346.4</ele>
<time>2024-05-12T07:58:50Z</time>
</trkpt>
<trkpt lat="49.52104945667088" lon="9.341851193457842">
<ele>346.6</ele>
<time>2024-05-12T07:58:51Z</time>
</trkpt>
<trkpt lat="49.52102657407522" lon="9.341919841244817">
<ele>346.8</ele>
<time>2024-05-12T07:58:52Z</time>
</trkpt>
<trkpt lat="49.52100746333599" lon="9.341988489031792">
<ele>346.8</ele>
<time>2024-05-12T07:58:53Z</time>
</trkpt>
<trkpt lat="49.52098843641579" lon="9.342055292800069">
<ele>347</ele>
<time>2024-05-12T07:58:54Z</time>
</trkpt>
<trkpt lat="49.52096932567656" lon="9.342120168730617">
<ele>347</ele>
<time>2024-05-12T07:58:55Z</time>
</trkpt>
<trkpt lat="49.5209464430809" lon="9.342186888679862">
<ele>347</ele>
<time>2024-05-12T07:58:56Z</time>
</trkpt>
<trkpt lat="49.5209274161607" lon="9.342246986925602">
<ele>347.2</ele>
<time>2024-05-12T07:58:57Z</time>
</trkpt>
<trkpt lat="49.52090830542147" lon="9.342307085171342">
<ele>347.2</ele>
<time>2024-05-12T07:58:58Z</time>
</trkpt>
<trkpt lat="49.5208930503577" lon="9.34236810542643">
<ele>347.2</ele>
<time>2024-05-12T07:58:59Z</time>
</trkpt>
<trkpt lat="49.5208740234375" lon="9.342430047690868">
<ele>347.2</ele>
<time>2024-05-12T07:59:00Z</time>
</trkpt>
<trkpt lat="49.52085491269827" lon="9.342492073774338">
<ele>347.2</ele>
<time>2024-05-12T07:59:01Z</time>
</trkpt>
<trkpt lat="49.5208396576345" lon="9.342550244182348">
<ele>347.2</ele>
<time>2024-05-12T07:59:02Z</time>
</trkpt>
<trkpt lat="49.52081677503884" lon="9.342610342428088">
<ele>347.2</ele>
<time>2024-05-12T07:59:03Z</time>
</trkpt>
<trkpt lat="49.520801519975066" lon="9.342670440673828">
<ele>347.2</ele>
<time>2024-05-12T07:59:04Z</time>
</trkpt>
<trkpt lat="49.520782409235835" lon="9.34272668324411">
<ele>347.2</ele>
<time>2024-05-12T07:59:05Z</time>
</trkpt>
<trkpt lat="49.52075952664018" lon="9.342786781489847">
<ele>347.2</ele>
<time>2024-05-12T07:59:06Z</time>
</trkpt>
<trkpt lat="49.52074049971998" lon="9.34284495189786">
<ele>347.2</ele>
<time>2024-05-12T07:59:07Z</time>
</trkpt>
<trkpt lat="49.520721388980746" lon="9.34290312230587">
<ele>347.2</ele>
<time>2024-05-12T07:59:08Z</time>
</trkpt>
<trkpt lat="49.52069850638509" lon="9.342971770092843">
<ele>347.2</ele>
<time>2024-05-12T07:59:09Z</time>
</trkpt>
<trkpt lat="49.52067939564586" lon="9.343029940500855">
<ele>347.2</ele>
<time>2024-05-12T07:59:10Z</time>
</trkpt>
<trkpt lat="49.5206565130502" lon="9.34309858828783">
<ele>347.2</ele>
<time>2024-05-12T07:59:11Z</time>
</trkpt>
<trkpt lat="49.52063748613" lon="9.343161536380649">
<ele>347</ele>
<time>2024-05-12T07:59:12Z</time>
</trkpt>
<trkpt lat="49.52061837539077" lon="9.343225406482816">
<ele>346.8</ele>
<time>2024-05-12T07:59:13Z</time>
</trkpt>
<trkpt lat="49.52059934847057" lon="9.343288354575634">
<ele>346.6</ele>
<time>2024-05-12T07:59:14Z</time>
</trkpt>
<trkpt lat="49.5205840934068" lon="9.343341747298837">
<ele>346.6</ele>
<time>2024-05-12T07:59:15Z</time>
</trkpt>
<trkpt lat="49.52055735513568" lon="9.343406623229384">
<ele>346.4</ele>
<time>2024-05-12T07:59:16Z</time>
</trkpt>
<trkpt lat="49.52053832821548" lon="9.343460015952587">
<ele>346.4</ele>
<time>2024-05-12T07:59:17Z</time>
</trkpt>
<trkpt lat="49.52051921747625" lon="9.34351340867579">
<ele>346.2</ele>
<time>2024-05-12T07:59:18Z</time>
</trkpt>
<trkpt lat="49.52049633488059" lon="9.343568729236722">
<ele>346.2</ele>
<time>2024-05-12T07:59:19Z</time>
</trkpt>
<trkpt lat="49.52047345228493" lon="9.343621199950576">
<ele>346.2</ele>
<time>2024-05-12T07:59:20Z</time>
</trkpt>
<trkpt lat="49.520450569689274" lon="9.343678448349236">
<ele>346.2</ele>
<time>2024-05-12T07:59:21Z</time>
</trkpt>
<trkpt lat="49.520427687093616" lon="9.34373184107244">
<ele>346.2</ele>
<time>2024-05-12T07:59:22Z</time>
</trkpt>
<trkpt lat="49.52040480449796" lon="9.343781461939216">
<ele>346.2</ele>
<time>2024-05-12T07:59:23Z</time>
</trkpt>
<trkpt lat="49.520385693758726" lon="9.343825299292805">
<ele>346.2</ele>
<time>2024-05-12T07:59:24Z</time>
</trkpt>
<trkpt lat="49.520370438694954" lon="9.343858659267426">
<ele>346.2</ele>
<time>2024-05-12T07:59:25Z</time>
</trkpt>
<trkpt lat="49.52035903930664" lon="9.343886319547892">
<ele>346.2</ele>
<time>2024-05-12T07:59:26Z</time>
</trkpt>
<trkpt lat="49.520347556099296" lon="9.343917835503817">
<ele>346.2</ele>
<time>2024-05-12T07:59:27Z</time>
</trkpt>
<trkpt lat="49.52033992856741" lon="9.34395018965006">
<ele>346.2</ele>
<time>2024-05-12T07:59:28Z</time>
</trkpt>
<trkpt lat="49.520328445360065" lon="9.34398841112852">
<ele>346.2</ele>
<time>2024-05-12T07:59:29Z</time>
</trkpt>
<trkpt lat="49.52031704597175" lon="9.34403132647276">
<ele>346.2</ele>
<time>2024-05-12T07:59:30Z</time>
</trkpt>
<trkpt lat="49.52031319029629" lon="9.344077091664076">
<ele>346.2</ele>
<time>2024-05-12T07:59:31Z</time>
</trkpt>
<trkpt lat="49.52031319029629" lon="9.344111373648047">
<ele>346.2</ele>
<time>2024-05-12T07:59:32Z</time>
</trkpt>
<trkpt lat="49.52031704597175" lon="9.344140039756894">
<ele>346.2</ele>
<time>2024-05-12T07:59:33Z</time>
</trkpt>
<trkpt lat="49.52032081782818" lon="9.344161916524172">
<ele>346.2</ele>
<time>2024-05-12T07:59:34Z</time>
</trkpt>
<trkpt lat="49.52032081782818" lon="9.344176249578595">
<ele>346.2</ele>
<time>2024-05-12T07:59:35Z</time>
</trkpt>
<trkpt lat="49.52032467350364" lon="9.344182955101132">
<ele>346.2</ele>
<time>2024-05-12T07:59:36Z</time>
</trkpt>
<trkpt lat="49.52032467350364" lon="9.344180105254054">
<ele>346.2</ele>
<time>2024-05-12T07:59:37Z</time>
</trkpt>
<trkpt lat="49.52032467350364" lon="9.344181949272752">
<ele>346.2</ele>
<time>2024-05-12T07:59:38Z</time>
</trkpt>
<trkpt lat="49.52032081782818" lon="9.344191504642367">
<ele>346.2</ele>
<time>2024-05-12T07:59:39Z</time>
</trkpt>
<trkpt lat="49.52031319029629" lon="9.344198210164905">
<ele>346.2</ele>
<time>2024-05-12T07:59:40Z</time>
</trkpt>
<trkpt lat="49.52030179090798" lon="9.344216315075755">
<ele>346.2</ele>
<time>2024-05-12T07:59:41Z</time>
</trkpt>
<trkpt lat="49.520290307700634" lon="9.344236347824337">
<ele>346.2</ele>
<time>2024-05-12T07:59:42Z</time>
</trkpt>
<trkpt lat="49.52027505263686" lon="9.344260152429342">
<ele>346.2</ele>
<time>2024-05-12T07:59:43Z</time>
</trkpt>
<trkpt lat="49.52025979757309" lon="9.34428689070046">
<ele>346.2</ele>
<time>2024-05-12T07:59:44Z</time>
</trkpt>
<trkpt lat="49.52024077065289" lon="9.344318322837353">
<ele>346.2</ele>
<time>2024-05-12T07:59:45Z</time>
</trkpt>
<trkpt lat="49.520210260525346" lon="9.34434506110847">
<ele>346.2</ele>
<time>2024-05-12T07:59:46Z</time>
</trkpt>
<trkpt lat="49.52017966657877" lon="9.344356460496783">
<ele>346.2</ele>
<time>2024-05-12T07:59:47Z</time>
</trkpt>
<trkpt lat="49.52015678398311" lon="9.34436702169478">
<ele>346.2</ele>
<time>2024-05-12T07:59:48Z</time>
</trkpt>
<trkpt lat="49.52013390138745" lon="9.34438705444336">
<ele>346.2</ele>
<time>2024-05-12T07:59:49Z</time>
</trkpt>
<trkpt lat="49.520114874467254" lon="9.344416558742523">
<ele>346.2</ele>
<time>2024-05-12T07:59:50Z</time>
</trkpt>
<trkpt lat="49.520091991871595" lon="9.344454696401954">
<ele>346.2</ele>
<time>2024-05-12T07:59:51Z</time>
</trkpt>
<trkpt lat="49.52006910927594" lon="9.344505239278078">
<ele>346.2</ele>
<time>2024-05-12T07:59:52Z</time>
</trkpt>
<trkpt lat="49.52004237100482" lon="9.344554860144854">
<ele>346.2</ele>
<time>2024-05-12T07:59:53Z</time>
</trkpt>
<trkpt lat="49.520011860877275" lon="9.344606325030329">
<ele>346.2</ele>
<time>2024-05-12T07:59:54Z</time>
</trkpt>
<trkpt lat="49.51998135074973" lon="9.344653096050024">
<ele>346.2</ele>
<time>2024-05-12T07:59:55Z</time>
</trkpt>
<trkpt lat="49.51995084062219" lon="9.34470171108842">
<ele>346.2</ele>
<time>2024-05-12T07:59:56Z</time>
</trkpt>
<trkpt lat="49.51992410235107" lon="9.344744626432655">
<ele>346.2</ele>
<time>2024-05-12T07:59:57Z</time>
</trkpt>
<trkpt lat="49.519897447898984" lon="9.344793241471052">
<ele>346.2</ele>
<time>2024-05-12T07:59:58Z</time>
</trkpt>
<trkpt lat="49.51987070962787" lon="9.34484001249075">
<ele>346.4</ele>
<time>2024-05-12T07:59:59Z</time>
</trkpt>
<trkpt lat="49.51984019950032" lon="9.344891477376224">
<ele>346.4</ele>
<time>2024-05-12T08:00:00Z</time>
</trkpt>
<trkpt lat="49.519813461229205" lon="9.344944953918455">
<ele>346.6</ele>
<time>2024-05-12T08:00:01Z</time>
</trkpt>
<trkpt lat="49.51978680677712" lon="9.3449944909662">
<ele>346.6</ele>
<time>2024-05-12T08:00:02Z</time>
</trkpt>
<trkpt lat="49.519760068506" lon="9.345043106004596">
<ele>346.8</ele>
<time>2024-05-12T08:00:03Z</time>
</trkpt>
<trkpt lat="49.51973341405392" lon="9.345091804862022">
<ele>346.8</ele>
<time>2024-05-12T08:00:04Z</time>
</trkpt>
<trkpt lat="49.5197066757828" lon="9.345141341909766">
<ele>346.8</ele>
<time>2024-05-12T08:00:05Z</time>
</trkpt>
<trkpt lat="49.519680021330714" lon="9.34519188478589">
<ele>347</ele>
<time>2024-05-12T08:00:06Z</time>
</trkpt>
<trkpt lat="49.5196532830596" lon="9.345243433490396">
<ele>347</ele>
<time>2024-05-12T08:00:07Z</time>
</trkpt>
<trkpt lat="49.51962654478848" lon="9.34529297053814">
<ele>347</ele>
<time>2024-05-12T08:00:08Z</time>
</trkpt>
<trkpt lat="49.519596034660935" lon="9.345344519242644">
<ele>347.2</ele>
<time>2024-05-12T08:00:09Z</time>
</trkpt>
<trkpt lat="49.51956938020885" lon="9.345395062118769">
<ele>347.2</ele>
<time>2024-05-12T08:00:10Z</time>
</trkpt>
<trkpt lat="49.51954264193773" lon="9.345443677157164">
<ele>347.4</ele>
<time>2024-05-12T08:00:11Z</time>
</trkpt>
<trkpt lat="49.51951213181019" lon="9.345488520339131">
<ele>347.6</ele>
<time>2024-05-12T08:00:12Z</time>
</trkpt>
<trkpt lat="49.51948162168264" lon="9.345536213368176">
<ele>347.6</ele>
<time>2024-05-12T08:00:13Z</time>
</trkpt>
<trkpt lat="49.51945488341153" lon="9.345584828406572">
<ele>347.8</ele>
<time>2024-05-12T08:00:14Z</time>
</trkpt>
<trkpt lat="49.51942822895944" lon="9.345635371282697">
<ele>347.8</ele>
<time>2024-05-12T08:00:15Z</time>
</trkpt>
<trkpt lat="49.5193977188319" lon="9.345684992149472">
<ele>348</ele>
<time>2024-05-12T08:00:16Z</time>
</trkpt>
<trkpt lat="49.51936720870435" lon="9.345736457034944">
<ele>348</ele>
<time>2024-05-12T08:00:17Z</time>
</trkpt>
<trkpt lat="49.51933669857681" lon="9.34578792192042">
<ele>348.2</ele>
<time>2024-05-12T08:00:18Z</time>
</trkpt>
<trkpt lat="49.51930996030569" lon="9.345838464796543">
<ele>348.2</ele>
<time>2024-05-12T08:00:19Z</time>
</trkpt>
<trkpt lat="49.519279450178146" lon="9.345890013501048">
<ele>348.2</ele>
<time>2024-05-12T08:00:20Z</time>
</trkpt>
<trkpt lat="49.5192489400506" lon="9.345939634367824">
<ele>348.2</ele>
<time>2024-05-12T08:00:21Z</time>
</trkpt>
<trkpt lat="49.51921842992306" lon="9.345992021262646">
<ele>348.4</ele>
<time>2024-05-12T08:00:22Z</time>
</trkpt>
<trkpt lat="49.51918791979551" lon="9.34604164212942">
<ele>348.6</ele>
<time>2024-05-12T08:00:23Z</time>
</trkpt>
<trkpt lat="49.51915740966797" lon="9.346090257167816">
<ele>348.6</ele>
<time>2024-05-12T08:00:24Z</time>
</trkpt>
<trkpt lat="49.51913067139685" lon="9.346137950196862">
<ele>348.8</ele>
<time>2024-05-12T08:00:25Z</time>
</trkpt>
<trkpt lat="49.51910016126931" lon="9.346190420910716">
<ele>348.8</ele>
<time>2024-05-12T08:00:26Z</time>
</trkpt>
<trkpt lat="49.51906965114176" lon="9.346238113939762">
<ele>349</ele>
<time>2024-05-12T08:00:27Z</time>
</trkpt>
<trkpt lat="49.519042912870646" lon="9.346289578825235">
<ele>349</ele>
<time>2024-05-12T08:00:28Z</time>
</trkpt>
<trkpt lat="49.5190124027431" lon="9.34634012170136">
<ele>349</ele>
<time>2024-05-12T08:00:29Z</time>
</trkpt>
<trkpt lat="49.51898189261556" lon="9.346389742568135">
<ele>349.2</ele>
<time>2024-05-12T08:00:30Z</time>
</trkpt>
<trkpt lat="49.51895138248801" lon="9.34643835760653">
<ele>349.2</ele>
<time>2024-05-12T08:00:31Z</time>
</trkpt>
<trkpt lat="49.51892087236047" lon="9.346487978473306">
<ele>349.2</ele>
<time>2024-05-12T08:00:32Z</time>
</trkpt>
<trkpt lat="49.51889036223292" lon="9.346541371196508">
<ele>349.2</ele>
<time>2024-05-12T08:00:33Z</time>
</trkpt>
<trkpt lat="49.51885985210538" lon="9.346594763919711">
<ele>349.2</ele>
<time>2024-05-12T08:00:34Z</time>
</trkpt>
<trkpt lat="49.518829341977835" lon="9.346650084480643">
<ele>349.2</ele>
<time>2024-05-12T08:00:35Z</time>
</trkpt>
<trkpt lat="49.51879874803126" lon="9.346703477203846">
<ele>349.2</ele>
<time>2024-05-12T08:00:36Z</time>
</trkpt>
<trkpt lat="49.518768237903714" lon="9.346756869927049">
<ele>349</ele>
<time>2024-05-12T08:00:37Z</time>
</trkpt>
<trkpt lat="49.51874158345163" lon="9.346806490793824">
<ele>349</ele>
<time>2024-05-12T08:00:38Z</time>
</trkpt>
<trkpt lat="49.51871107332408" lon="9.346857955679296">
<ele>349</ele>
<time>2024-05-12T08:00:39Z</time>
</trkpt>
<trkpt lat="49.51868433505297" lon="9.346908498555422">
<ele>349</ele>
<time>2024-05-12T08:00:40Z</time>
</trkpt>
<trkpt lat="49.51865382492542" lon="9.346958119422196">
<ele>348.8</ele>
<time>2024-05-12T08:00:41Z</time>
</trkpt>
<trkpt lat="49.51862331479788" lon="9.34700958430767">
<ele>348.8</ele>
<time>2024-05-12T08:00:42Z</time>
</trkpt>
<trkpt lat="49.51859657652676" lon="9.347062055021524">
<ele>348.8</ele>
<time>2024-05-12T08:00:43Z</time>
</trkpt>
<trkpt lat="49.51856992207467" lon="9.3471116758883">
<ele>348.8</ele>
<time>2024-05-12T08:00:44Z</time>
</trkpt>
<trkpt lat="49.51854318380356" lon="9.347161212936044">
<ele>348.8</ele>
<time>2024-05-12T08:00:45Z</time>
</trkpt>
<trkpt lat="49.5185203012079" lon="9.347211755812168">
<ele>348.6</ele>
<time>2024-05-12T08:00:46Z</time>
</trkpt>
<trkpt lat="49.51849741861224" lon="9.347261376678944">
<ele>348.6</ele>
<time>2024-05-12T08:00:47Z</time>
</trkpt>
<trkpt lat="49.51847076416016" lon="9.347312925383449">
<ele>348.6</ele>
<time>2024-05-12T08:00:48Z</time>
</trkpt>
<trkpt lat="49.51844402588904" lon="9.34736531227827">
<ele>348.8</ele>
<time>2024-05-12T08:00:49Z</time>
</trkpt>
<trkpt lat="49.51841728761792" lon="9.347414933145046">
<ele>348.8</ele>
<time>2024-05-12T08:00:50Z</time>
</trkpt>
<trkpt lat="49.51839063316584" lon="9.34746639803052">
<ele>348.8</ele>
<time>2024-05-12T08:00:51Z</time>
</trkpt>
<trkpt lat="49.51836389489472" lon="9.347519874572754">
<ele>349</ele>
<time>2024-05-12T08:00:52Z</time>
</trkpt>
<trkpt lat="49.51834101229906" lon="9.347570417448878">
<ele>349.2</ele>
<time>2024-05-12T08:00:53Z</time>
</trkpt>
<trkpt lat="49.5183181297034" lon="9.347621882334352">
<ele>349.4</ele>
<time>2024-05-12T08:00:54Z</time>
</trkpt>
<trkpt lat="49.518295247107744" lon="9.347675275057554">
<ele>349.6</ele>
<time>2024-05-12T08:00:55Z</time>
</trkpt>
<trkpt lat="49.518272364512086" lon="9.347726739943027">
<ele>349.8</ele>
<time>2024-05-12T08:00:56Z</time>
</trkpt>
<trkpt lat="49.51824948191643" lon="9.347780216485262">
<ele>350</ele>
<time>2024-05-12T08:00:57Z</time>
</trkpt>
<trkpt lat="49.51822659932077" lon="9.347834531217812">
<ele>350.2</ele>
<time>2024-05-12T08:00:58Z</time>
</trkpt>
<trkpt lat="49.51820371672511" lon="9.347887001931667">
<ele>350.4</ele>
<time>2024-05-12T08:00:59Z</time>
</trkpt>
<trkpt lat="49.51818083412945" lon="9.34794131666422">
<ele>350.6</ele>
<time>2024-05-12T08:01:00Z</time>
</trkpt>
<trkpt lat="49.51816172339022" lon="9.347994793206452">
<ele>350.8</ele>
<time>2024-05-12T08:01:01Z</time>
</trkpt>
<trkpt lat="49.51813884079456" lon="9.348050113767384">
<ele>350.8</ele>
<time>2024-05-12T08:01:02Z</time>
</trkpt>
<trkpt lat="49.51811973005533" lon="9.348105350509286">
<ele>351</ele>
<time>2024-05-12T08:01:03Z</time>
</trkpt>
<trkpt lat="49.518096847459674" lon="9.3481616768986">
<ele>351</ele>
<time>2024-05-12T08:01:04Z</time>
</trkpt>
<trkpt lat="49.51807019300759" lon="9.34821984730661">
<ele>351.2</ele>
<time>2024-05-12T08:01:05Z</time>
</trkpt>
<trkpt lat="49.51805108226836" lon="9.34827701188624">
<ele>351.2</ele>
<time>2024-05-12T08:01:06Z</time>
</trkpt>
<trkpt lat="49.5180281996727" lon="9.34833526611328">
<ele>351.2</ele>
<time>2024-05-12T08:01:07Z</time>
</trkpt>
<trkpt lat="49.5180091727525" lon="9.34839528053999">
<ele>351.2</ele>
<time>2024-05-12T08:01:08Z</time>
</trkpt>
<trkpt lat="49.51799006201327" lon="9.348451606929302">
<ele>351.2</ele>
<time>2024-05-12T08:01:09Z</time>
</trkpt>
<trkpt lat="49.517974806949496" lon="9.348509777337313">
<ele>351.2</ele>
<time>2024-05-12T08:01:10Z</time>
</trkpt>
<trkpt lat="49.5179557800293" lon="9.34857171960175">
<ele>351.2</ele>
<time>2024-05-12T08:01:11Z</time>
</trkpt>
<trkpt lat="49.517936669290066" lon="9.348627962172031">
<ele>351.2</ele>
<time>2024-05-12T08:01:12Z</time>
</trkpt>
<trkpt lat="49.517921414226294" lon="9.348686216399074">
<ele>351.2</ele>
<time>2024-05-12T08:01:13Z</time>
</trkpt>
<trkpt lat="49.51790615916252" lon="9.348745308816431">
<ele>351.2</ele>
<time>2024-05-12T08:01:14Z</time>
</trkpt>
<trkpt lat="49.51789090409875" lon="9.348803479224443">
<ele>351.2</ele>
<time>2024-05-12T08:01:15Z</time>
</trkpt>
<trkpt lat="49.51787564903498" lon="9.348861649632454">
<ele>351.2</ele>
<time>2024-05-12T08:01:16Z</time>
</trkpt>
<trkpt lat="49.517860393971205" lon="9.348923675715923">
<ele>351.2</ele>
<time>2024-05-12T08:01:17Z</time>
</trkpt>
<trkpt lat="49.51784513890743" lon="9.348984695971012">
<ele>351.2</ele>
<time>2024-05-12T08:01:18Z</time>
</trkpt>
<trkpt lat="49.51783365570009" lon="9.349042866379024">
<ele>351.2</ele>
<time>2024-05-12T08:01:19Z</time>
</trkpt>
<trkpt lat="49.517822256311774" lon="9.349101958796382">
<ele>351.2</ele>
<time>2024-05-12T08:01:20Z</time>
</trkpt>
<trkpt lat="49.51781462877989" lon="9.34916297905147">
<ele>351.4</ele>
<time>2024-05-12T08:01:21Z</time>
</trkpt>
<trkpt lat="49.51780314557254" lon="9.34922307729721">
<ele>351.4</ele>
<time>2024-05-12T08:01:22Z</time>
</trkpt>
<trkpt lat="49.51779551804066" lon="9.34928317554295">
<ele>351.6</ele>
<time>2024-05-12T08:01:23Z</time>
</trkpt>
<trkpt lat="49.51778789050877" lon="9.34934520162642">
<ele>351.6</ele>
<time>2024-05-12T08:01:24Z</time>
</trkpt>
<trkpt lat="49.517776407301426" lon="9.349408149719238">
<ele>351.8</ele>
<time>2024-05-12T08:01:25Z</time>
</trkpt>
<trkpt lat="49.51776877976954" lon="9.349468164145948">
<ele>351.8</ele>
<time>2024-05-12T08:01:26Z</time>
</trkpt>
<trkpt lat="49.51775738038123" lon="9.349532118067144">
<ele>352</ele>
<time>2024-05-12T08:01:27Z</time>
</trkpt>
<trkpt lat="49.51774975284934" lon="9.349593138322234">
<ele>352</ele>
<time>2024-05-12T08:01:28Z</time>
</trkpt>
<trkpt lat="49.517742125317454" lon="9.349655080586672">
<ele>352</ele>
<time>2024-05-12T08:01:29Z</time>
</trkpt>
<trkpt lat="49.517738269641995" lon="9.34971995651722">
<ele>352</ele>
<time>2024-05-12T08:01:30Z</time>
</trkpt>
<trkpt lat="49.51773449778557" lon="9.349784832447767">
<ele>352.2</ele>
<time>2024-05-12T08:01:31Z</time>
</trkpt>
<trkpt lat="49.51772687025368" lon="9.349849624559283">
<ele>352.2</ele>
<time>2024-05-12T08:01:32Z</time>
</trkpt>
<trkpt lat="49.51772301457822" lon="9.349913578480482">
<ele>352.2</ele>
<time>2024-05-12T08:01:33Z</time>
</trkpt>
<trkpt lat="49.51771924272179" lon="9.3499765265733">
<ele>352.2</ele>
<time>2024-05-12T08:01:34Z</time>
</trkpt>
<trkpt lat="49.51771538704634" lon="9.350041318684816">
<ele>352.2</ele>
<time>2024-05-12T08:01:35Z</time>
</trkpt>
<trkpt lat="49.51771161518991" lon="9.350108122453094">
<ele>352.2</ele>
<time>2024-05-12T08:01:36Z</time>
</trkpt>
<trkpt lat="49.51771161518991" lon="9.35017484240234">
<ele>352.2</ele>
<time>2024-05-12T08:01:37Z</time>
</trkpt>
<trkpt lat="49.51770775951445" lon="9.350241646170616">
<ele>352.2</ele>
<time>2024-05-12T08:01:38Z</time>
</trkpt>
<trkpt lat="49.51770775951445" lon="9.350308366119862">
<ele>352.2</ele>
<time>2024-05-12T08:01:39Z</time>
</trkpt>
<trkpt lat="49.517703987658024" lon="9.35037324205041">
<ele>352.2</ele>
<time>2024-05-12T08:01:40Z</time>
</trkpt>
<trkpt lat="49.517703987658024" lon="9.350438117980955">
<ele>352.2</ele>
<time>2024-05-12T08:01:41Z</time>
</trkpt>
<trkpt lat="49.517703987658024" lon="9.350502910092471">
<ele>352.2</ele>
<time>2024-05-12T08:01:42Z</time>
</trkpt>
<trkpt lat="49.51770775951445" lon="9.35056971386075">
<ele>352.2</ele>
<time>2024-05-12T08:01:43Z</time>
</trkpt>
<trkpt lat="49.51771161518991" lon="9.350634505972266">
<ele>352.2</ele>
<time>2024-05-12T08:01:44Z</time>
</trkpt>
<trkpt lat="49.51771161518991" lon="9.350700303912165">
<ele>352.2</ele>
<time>2024-05-12T08:01:45Z</time>
</trkpt>
<trkpt lat="49.51771924272179" lon="9.35076517984271">
<ele>352.2</ele>
<time>2024-05-12T08:01:46Z</time>
</trkpt>
<trkpt lat="49.51772301457822" lon="9.350830055773258">
<ele>352.2</ele>
<time>2024-05-12T08:01:47Z</time>
</trkpt>
<trkpt lat="49.51773449778557" lon="9.350896775722504">
<ele>352.2</ele>
<time>2024-05-12T08:01:48Z</time>
</trkpt>
<trkpt lat="49.517742125317454" lon="9.350961651653051">
<ele>352.2</ele>
<time>2024-05-12T08:01:49Z</time>
</trkpt>
<trkpt lat="49.51774975284934" lon="9.351028371602297">
<ele>352.2</ele>
<time>2024-05-12T08:01:50Z</time>
</trkpt>
<trkpt lat="49.51775738038123" lon="9.351091319695117">
<ele>352.2</ele>
<time>2024-05-12T08:01:51Z</time>
</trkpt>
<trkpt lat="49.51776500791311" lon="9.351156195625665">
<ele>352.2</ele>
<time>2024-05-12T08:01:52Z</time>
</trkpt>
<trkpt lat="49.517776407301426" lon="9.35122006572783">
<ele>352.2</ele>
<time>2024-05-12T08:01:53Z</time>
</trkpt>
<trkpt lat="49.517780262976885" lon="9.351284941658378">
<ele>352.2</ele>
<time>2024-05-12T08:01:54Z</time>
</trkpt>
<trkpt lat="49.51778789050877" lon="9.351349817588924">
<ele>352.2</ele>
<time>2024-05-12T08:01:55Z</time>
</trkpt>
<trkpt lat="49.51779551804066" lon="9.35141460970044">
<ele>352.4</ele>
<time>2024-05-12T08:01:56Z</time>
</trkpt>
<trkpt lat="49.517807001248" lon="9.35147856362164">
<ele>352.6</ele>
<time>2024-05-12T08:01:57Z</time>
</trkpt>
<trkpt lat="49.517818400636315" lon="9.351545283570886">
<ele>352.6</ele>
<time>2024-05-12T08:01:58Z</time>
</trkpt>
<trkpt lat="49.51782988384366" lon="9.351610159501432">
<ele>352.8</ele>
<time>2024-05-12T08:01:59Z</time>
</trkpt>
<trkpt lat="49.51784513890743" lon="9.35167687945068">
<ele>352.8</ele>
<time>2024-05-12T08:02:00Z</time>
</trkpt>
<trkpt lat="49.517856538295746" lon="9.351739827543495">
<ele>353</ele>
<time>2024-05-12T08:02:01Z</time>
</trkpt>
<trkpt lat="49.51786802150309" lon="9.351804703474045">
<ele>353</ele>
<time>2024-05-12T08:02:02Z</time>
</trkpt>
<trkpt lat="49.51787942089141" lon="9.351866645738482">
<ele>353.2</ele>
<time>2024-05-12T08:02:03Z</time>
</trkpt>
<trkpt lat="49.51789090409875" lon="9.351928671821952">
<ele>353.2</ele>
<time>2024-05-12T08:02:04Z</time>
</trkpt>
<trkpt lat="49.51790230348706" lon="9.351988770067692">
<ele>353.2</ele>
<time>2024-05-12T08:02:05Z</time>
</trkpt>
<trkpt lat="49.51791378669441" lon="9.352047862485051">
<ele>353.4</ele>
<time>2024-05-12T08:02:06Z</time>
</trkpt>
<trkpt lat="49.51792518608272" lon="9.35210988856852">
<ele>353.4</ele>
<time>2024-05-12T08:02:07Z</time>
</trkpt>
<trkpt lat="49.517936669290066" lon="9.352171830832958">
<ele>353.4</ele>
<time>2024-05-12T08:02:08Z</time>
</trkpt>
<trkpt lat="49.51794806867838" lon="9.352234778925776">
<ele>353.4</ele>
<time>2024-05-12T08:02:09Z</time>
</trkpt>
<trkpt lat="49.51796340756118" lon="9.352296805009246">
<ele>353.4</ele>
<time>2024-05-12T08:02:10Z</time>
</trkpt>
<trkpt lat="49.517974806949496" lon="9.352359753102064">
<ele>353.4</ele>
<time>2024-05-12T08:02:11Z</time>
</trkpt>
<trkpt lat="49.51799006201327" lon="9.352423623204231">
<ele>353.4</ele>
<time>2024-05-12T08:02:12Z</time>
</trkpt>
<trkpt lat="49.51800154522061" lon="9.35248849913478">
<ele>353.6</ele>
<time>2024-05-12T08:02:13Z</time>
</trkpt>
<trkpt lat="49.518016800284386" lon="9.352551447227595">
<ele>353.6</ele>
<time>2024-05-12T08:02:14Z</time>
</trkpt>
<trkpt lat="49.5180281996727" lon="9.352613389492037">
<ele>353.8</ele>
<time>2024-05-12T08:02:15Z</time>
</trkpt>
<trkpt lat="49.51804345473647" lon="9.352675415575504">
<ele>353.8</ele>
<time>2024-05-12T08:02:16Z</time>
</trkpt>
<trkpt lat="49.518054937943816" lon="9.352734507992864">
<ele>354</ele>
<time>2024-05-12T08:02:17Z</time>
</trkpt>
<trkpt lat="49.51807019300759" lon="9.352798461914063">
<ele>354</ele>
<time>2024-05-12T08:02:18Z</time>
</trkpt>
<trkpt lat="49.5180815923959" lon="9.3528604041785">
<ele>354.2</ele>
<time>2024-05-12T08:02:19Z</time>
</trkpt>
<trkpt lat="49.518096847459674" lon="9.352923352271318">
<ele>354.2</ele>
<time>2024-05-12T08:02:20Z</time>
</trkpt>
<trkpt lat="49.51810833066702" lon="9.352986300364137">
<ele>354.2</ele>
<time>2024-05-12T08:02:21Z</time>
</trkpt>
<trkpt lat="49.51811973005533" lon="9.353050170466304">
<ele>354.4</ele>
<time>2024-05-12T08:02:22Z</time>
</trkpt>
<trkpt lat="49.51813121326268" lon="9.353115046396852">
<ele>354.4</ele>
<time>2024-05-12T08:02:23Z</time>
</trkpt>
<trkpt lat="49.51814269647002" lon="9.35317799448967">
<ele>354.6</ele>
<time>2024-05-12T08:02:24Z</time>
</trkpt>
<trkpt lat="49.518157951533794" lon="9.353241864591835">
<ele>354.8</ele>
<time>2024-05-12T08:02:25Z</time>
</trkpt>
<trkpt lat="49.51816935092211" lon="9.353302884846926">
<ele>354.8</ele>
<time>2024-05-12T08:02:26Z</time>
</trkpt>
<trkpt lat="49.51818083412945" lon="9.353362061083317">
<ele>355</ele>
<time>2024-05-12T08:02:27Z</time>
</trkpt>
<trkpt lat="49.518192233517766" lon="9.353423081338406">
<ele>355</ele>
<time>2024-05-12T08:02:28Z</time>
</trkpt>
<trkpt lat="49.51820371672511" lon="9.353485107421877">
<ele>355</ele>
<time>2024-05-12T08:02:29Z</time>
</trkpt>
<trkpt lat="49.518215116113424" lon="9.353545121848583">
<ele>355</ele>
<time>2024-05-12T08:02:30Z</time>
</trkpt>
<trkpt lat="49.51822274364531" lon="9.3536080699414">
<ele>355.2</ele>
<time>2024-05-12T08:02:31Z</time>
</trkpt>
<trkpt lat="49.518234226852655" lon="9.35367009602487">
<ele>355.2</ele>
<time>2024-05-12T08:02:32Z</time>
</trkpt>
<trkpt lat="49.51824948191643" lon="9.35373304411769">
<ele>355.4</ele>
<time>2024-05-12T08:02:33Z</time>
</trkpt>
<trkpt lat="49.51826088130474" lon="9.353794986382129">
<ele>355.4</ele>
<time>2024-05-12T08:02:34Z</time>
</trkpt>
<trkpt lat="49.518272364512086" lon="9.353859862312676">
<ele>355.6</ele>
<time>2024-05-12T08:02:35Z</time>
</trkpt>
<trkpt lat="49.5182837639004" lon="9.353924738243222">
<ele>355.6</ele>
<time>2024-05-12T08:02:36Z</time>
</trkpt>
<trkpt lat="49.518295247107744" lon="9.353989530354738">
<ele>355.6</ele>
<time>2024-05-12T08:02:37Z</time>
</trkpt>
<trkpt lat="49.51830673031509" lon="9.354053484275935">
<ele>355.6</ele>
<time>2024-05-12T08:02:38Z</time>
</trkpt>
<trkpt lat="49.5183181297034" lon="9.354116432368755">
<ele>355.6</ele>
<time>2024-05-12T08:02:39Z</time>
</trkpt>
<trkpt lat="49.518333384767175" lon="9.354180302470922">
<ele>355.8</ele>
<time>2024-05-12T08:02:40Z</time>
</trkpt>
<trkpt lat="49.51834101229906" lon="9.35424325056374">
<ele>355.8</ele>
<time>2024-05-12T08:02:41Z</time>
</trkpt>
<trkpt lat="49.51834863983095" lon="9.35430619865656">
<ele>355.8</ele>
<time>2024-05-12T08:02:42Z</time>
</trkpt>
<trkpt lat="49.51836012303829" lon="9.354370068758726">
<ele>356</ele>
<time>2024-05-12T08:02:43Z</time>
</trkpt>
<trkpt lat="49.518371522426605" lon="9.354434944689274">
<ele>356</ele>
<time>2024-05-12T08:02:44Z</time>
</trkpt>
<trkpt lat="49.51837914995849" lon="9.35449973680079">
<ele>356.2</ele>
<time>2024-05-12T08:02:45Z</time>
</trkpt>
<trkpt lat="49.51839063316584" lon="9.35456176288426">
<ele>356.4</ele>
<time>2024-05-12T08:02:46Z</time>
</trkpt>
<trkpt lat="49.51839826069772" lon="9.354626638814809">
<ele>356.4</ele>
<time>2024-05-12T08:02:47Z</time>
</trkpt>
<trkpt lat="49.51840966008603" lon="9.354691430926325">
<ele>356.6</ele>
<time>2024-05-12T08:02:48Z</time>
</trkpt>
<trkpt lat="49.51841728761792" lon="9.35476016253233">
<ele>356.6</ele>
<time>2024-05-12T08:02:49Z</time>
</trkpt>
<trkpt lat="49.51842491514981" lon="9.354826882481577">
<ele>356.8</ele>
<time>2024-05-12T08:02:50Z</time>
</trkpt>
<trkpt lat="49.518432542681694" lon="9.35489360243082">
<ele>356.8</ele>
<time>2024-05-12T08:02:51Z</time>
</trkpt>
<trkpt lat="49.51844017021358" lon="9.354958478361368">
<ele>357</ele>
<time>2024-05-12T08:02:52Z</time>
</trkpt>
<trkpt lat="49.518447797745466" lon="9.355025282129644">
<ele>357.2</ele>
<time>2024-05-12T08:02:53Z</time>
</trkpt>
<trkpt lat="49.51845542527735" lon="9.355086302384734">
<ele>357.2</ele>
<time>2024-05-12T08:02:54Z</time>
</trkpt>
<trkpt lat="49.51846305280924" lon="9.355148244649172">
<ele>357.2</ele>
<time>2024-05-12T08:02:55Z</time>
</trkpt>
<trkpt lat="49.5184669084847" lon="9.35521027073264">
<ele>357.4</ele>
<time>2024-05-12T08:02:56Z</time>
</trkpt>
<trkpt lat="49.51847453601658" lon="9.35527036897838">
<ele>357.4</ele>
<time>2024-05-12T08:02:57Z</time>
</trkpt>
<trkpt lat="49.51847839169204" lon="9.35532946139574">
<ele>357.6</ele>
<time>2024-05-12T08:02:58Z</time>
</trkpt>
<trkpt lat="49.51848216354847" lon="9.35539148747921">
<ele>357.6</ele>
<time>2024-05-12T08:02:59Z</time>
</trkpt>
<trkpt lat="49.51848979108035" lon="9.355451501905918">
<ele>357.8</ele>
<time>2024-05-12T08:03:00Z</time>
</trkpt>
<trkpt lat="49.518493646755815" lon="9.355511600151658">
<ele>357.8</ele>
<time>2024-05-12T08:03:01Z</time>
</trkpt>
<trkpt lat="49.51849741861224" lon="9.355571698397398">
<ele>357.8</ele>
<time>2024-05-12T08:03:02Z</time>
</trkpt>
<trkpt lat="49.51850504614413" lon="9.355631796643138">
<ele>357.8</ele>
<time>2024-05-12T08:03:03Z</time>
</trkpt>
<trkpt lat="49.51850890181959" lon="9.355691894888878">
<ele>357.8</ele>
<time>2024-05-12T08:03:04Z</time>
</trkpt>
<trkpt lat="49.51851652935147" lon="9.355751909315586">
<ele>357.8</ele>
<time>2024-05-12T08:03:05Z</time>
</trkpt>
<trkpt lat="49.5185203012079" lon="9.355813013389708">
<ele>358</ele>
<time>2024-05-12T08:03:06Z</time>
</trkpt>
<trkpt lat="49.51852415688336" lon="9.355873027816417">
<ele>358</ele>
<time>2024-05-12T08:03:07Z</time>
</trkpt>
<trkpt lat="49.518527928739786" lon="9.355933126062157">
<ele>358</ele>
<time>2024-05-12T08:03:08Z</time>
</trkpt>
<trkpt lat="49.518531784415245" lon="9.355993224307896">
<ele>358</ele>
<time>2024-05-12T08:03:09Z</time>
</trkpt>
<trkpt lat="49.51853555627167" lon="9.356053322553636">
<ele>358</ele>
<time>2024-05-12T08:03:10Z</time>
</trkpt>
<trkpt lat="49.51853941194713" lon="9.356113420799376">
<ele>358</ele>
<time>2024-05-12T08:03:11Z</time>
</trkpt>
<trkpt lat="49.51854318380356" lon="9.356169663369656">
<ele>358</ele>
<time>2024-05-12T08:03:12Z</time>
</trkpt>
<trkpt lat="49.51854318380356" lon="9.356226911768315">
<ele>357.8</ele>
<time>2024-05-12T08:03:13Z</time>
</trkpt>
<trkpt lat="49.51854703947902" lon="9.35628030449152">
<ele>358</ele>
<time>2024-05-12T08:03:14Z</time>
</trkpt>
<trkpt lat="49.51854703947902" lon="9.356333697214724">
<ele>358</ele>
<time>2024-05-12T08:03:15Z</time>
</trkpt>
<trkpt lat="49.51855081133544" lon="9.356388011947274">
<ele>358.2</ele>
<time>2024-05-12T08:03:16Z</time>
</trkpt>
<trkpt lat="49.5185546670109" lon="9.356443332508206">
<ele>358.2</ele>
<time>2024-05-12T08:03:17Z</time>
</trkpt>
<trkpt lat="49.51855843886733" lon="9.35649865306914">
<ele>358.4</ele>
<time>2024-05-12T08:03:18Z</time>
</trkpt>
<trkpt lat="49.51855843886733" lon="9.356553051620722">
<ele>358.4</ele>
<time>2024-05-12T08:03:19Z</time>
</trkpt>
<trkpt lat="49.51856229454279" lon="9.356606444343925">
<ele>358.6</ele>
<time>2024-05-12T08:03:20Z</time>
</trkpt>
<trkpt lat="49.51856229454279" lon="9.356659837067127">
<ele>358.6</ele>
<time>2024-05-12T08:03:21Z</time>
</trkpt>
<trkpt lat="49.51856229454279" lon="9.35671322979033">
<ele>358.8</ele>
<time>2024-05-12T08:03:22Z</time>
</trkpt>
<trkpt lat="49.51856606639922" lon="9.356766622513533">
<ele>359</ele>
<time>2024-05-12T08:03:23Z</time>
</trkpt>
<trkpt lat="49.51856606639922" lon="9.356822948902844">
<ele>359</ele>
<time>2024-05-12T08:03:24Z</time>
</trkpt>
<trkpt lat="49.51856992207467" lon="9.356878269463778">
<ele>359</ele>
<time>2024-05-12T08:03:25Z</time>
</trkpt>
<trkpt lat="49.51856992207467" lon="9.35692973434925">
<ele>359.2</ele>
<time>2024-05-12T08:03:26Z</time>
</trkpt>
<trkpt lat="49.5185736939311" lon="9.356976505368948">
<ele>359.2</ele>
<time>2024-05-12T08:03:27Z</time>
</trkpt>
<trkpt lat="49.51858132146299" lon="9.357021264731884">
<ele>359.2</ele>
<time>2024-05-12T08:03:28Z</time>
</trkpt>
<trkpt lat="49.518588948994875" lon="9.357065185904505">
<ele>359</ele>
<time>2024-05-12T08:03:29Z</time>
</trkpt>
<trkpt lat="49.51859657652676" lon="9.357106173411012">
<ele>359.2</ele>
<time>2024-05-12T08:03:30Z</time>
</trkpt>
<trkpt lat="49.518588948994875" lon="9.357143389061092">
<ele>359.2</ele>
<time>2024-05-12T08:03:31Z</time>
</trkpt>
<trkpt lat="49.51857754960656" lon="9.357178676873446">
<ele>359.4</ele>
<time>2024-05-12T08:03:32Z</time>
</trkpt>
<trkpt lat="49.5185546670109" lon="9.35721010901034">
<ele>359.4</ele>
<time>2024-05-12T08:03:33Z</time>
</trkpt>
<trkpt lat="49.51853941194713" lon="9.35724631883204">
<ele>359.6</ele>
<time>2024-05-12T08:03:34Z</time>
</trkpt>
<trkpt lat="49.518527928739786" lon="9.3572863843292">
<ele>359.6</ele>
<time>2024-05-12T08:03:35Z</time>
</trkpt>
<trkpt lat="49.51852415688336" lon="9.357333155348895">
<ele>359.8</ele>
<time>2024-05-12T08:03:36Z</time>
</trkpt>
<trkpt lat="49.51852415688336" lon="9.35738462023437">
<ele>359.8</ele>
<time>2024-05-12T08:03:37Z</time>
</trkpt>
<trkpt lat="49.518527928739786" lon="9.357441868633032">
<ele>360</ele>
<time>2024-05-12T08:03:38Z</time>
</trkpt>
<trkpt lat="49.518531784415245" lon="9.35750481672585">
<ele>360</ele>
<time>2024-05-12T08:03:39Z</time>
</trkpt>
<trkpt lat="49.51853555627167" lon="9.357568686828015">
<ele>360</ele>
<time>2024-05-12T08:03:40Z</time>
</trkpt>
<trkpt lat="49.51853941194713" lon="9.357633562758563">
<ele>360.2</ele>
<time>2024-05-12T08:03:41Z</time>
</trkpt>
<trkpt lat="49.51854318380356" lon="9.357696510851383">
<ele>360.2</ele>
<time>2024-05-12T08:03:42Z</time>
</trkpt>
<trkpt lat="49.51855081133544" lon="9.35776038095355">
<ele>360.2</ele>
<time>2024-05-12T08:03:43Z</time>
</trkpt>
<trkpt lat="49.5185546670109" lon="9.35781955718994">
<ele>360.2</ele>
<time>2024-05-12T08:03:44Z</time>
</trkpt>
<trkpt lat="49.51855843886733" lon="9.35788149945438">
<ele>360.2</ele>
<time>2024-05-12T08:03:45Z</time>
</trkpt>
<trkpt lat="49.51856229454279" lon="9.357945369556546">
<ele>360.4</ele>
<time>2024-05-12T08:03:46Z</time>
</trkpt>
<trkpt lat="49.51856229454279" lon="9.358008317649364">
<ele>360.4</ele>
<time>2024-05-12T08:03:47Z</time>
</trkpt>
<trkpt lat="49.51856606639922" lon="9.358068415895104">
<ele>360.6</ele>
<time>2024-05-12T08:03:48Z</time>
</trkpt>
<trkpt lat="49.51856992207467" lon="9.358130441978574">
<ele>360.6</ele>
<time>2024-05-12T08:03:49Z</time>
</trkpt>
<trkpt lat="49.51856992207467" lon="9.358191462233664">
<ele>360.8</ele>
<time>2024-05-12T08:03:50Z</time>
</trkpt>
<trkpt lat="49.5185736939311" lon="9.35825533233583">
<ele>360.8</ele>
<time>2024-05-12T08:03:51Z</time>
</trkpt>
<trkpt lat="49.51857754960656" lon="9.35831635259092">
<ele>360.8</ele>
<time>2024-05-12T08:03:52Z</time>
</trkpt>
<trkpt lat="49.51858132146299" lon="9.358380306512116">
<ele>361</ele>
<time>2024-05-12T08:03:53Z</time>
</trkpt>
<trkpt lat="49.51858517713845" lon="9.358441326767206">
<ele>361</ele>
<time>2024-05-12T08:03:54Z</time>
</trkpt>
<trkpt lat="49.518588948994875" lon="9.358503269031644">
<ele>361</ele>
<time>2024-05-12T08:03:55Z</time>
</trkpt>
<trkpt lat="49.518592804670334" lon="9.358565295115111">
<ele>361</ele>
<time>2024-05-12T08:03:56Z</time>
</trkpt>
<trkpt lat="49.51859657652676" lon="9.358628243207932">
<ele>361</ele>
<time>2024-05-12T08:03:57Z</time>
</trkpt>
<trkpt lat="49.51860043220222" lon="9.35869018547237">
<ele>361.2</ele>
<time>2024-05-12T08:03:58Z</time>
</trkpt>
<trkpt lat="49.51860043220222" lon="9.35875028371811">
<ele>361.2</ele>
<time>2024-05-12T08:03:59Z</time>
</trkpt>
<trkpt lat="49.51860043220222" lon="9.358811303973198">
<ele>361.2</ele>
<time>2024-05-12T08:04:00Z</time>
</trkpt>
<trkpt lat="49.51860420405865" lon="9.358871402218938">
<ele>361.2</ele>
<time>2024-05-12T08:04:01Z</time>
</trkpt>
<trkpt lat="49.518608059734106" lon="9.358929572626948">
<ele>361.2</ele>
<time>2024-05-12T08:04:02Z</time>
</trkpt>
<trkpt lat="49.51861183159053" lon="9.358989670872688">
<ele>361.2</ele>
<time>2024-05-12T08:04:03Z</time>
</trkpt>
<trkpt lat="49.51861183159053" lon="9.359049769118428">
<ele>361.2</ele>
<time>2024-05-12T08:04:04Z</time>
</trkpt>
<trkpt lat="49.51861568726599" lon="9.359111711382866">
<ele>361.2</ele>
<time>2024-05-12T08:04:05Z</time>
</trkpt>
<trkpt lat="49.51861568726599" lon="9.359173737466335">
<ele>361.2</ele>
<time>2024-05-12T08:04:06Z</time>
</trkpt>
<trkpt lat="49.51861945912242" lon="9.359234757721424">
<ele>361.2</ele>
<time>2024-05-12T08:04:07Z</time>
</trkpt>
<trkpt lat="49.51862331479788" lon="9.359298627823591">
<ele>361.4</ele>
<time>2024-05-12T08:04:08Z</time>
</trkpt>
<trkpt lat="49.51862331479788" lon="9.35936157591641">
<ele>361.4</ele>
<time>2024-05-12T08:04:09Z</time>
</trkpt>
<trkpt lat="49.518627086654305" lon="9.35942167416215">
<ele>361.4</ele>
<time>2024-05-12T08:04:10Z</time>
</trkpt>
<trkpt lat="49.518627086654305" lon="9.35948177240789">
<ele>361.6</ele>
<time>2024-05-12T08:04:11Z</time>
</trkpt>
<trkpt lat="49.51863094232976" lon="9.35954187065363">
<ele>361.6</ele>
<time>2024-05-12T08:04:12Z</time>
</trkpt>
<trkpt lat="49.51863471418619" lon="9.35960196889937">
<ele>361.8</ele>
<time>2024-05-12T08:04:13Z</time>
</trkpt>
<trkpt lat="49.51863856986165" lon="9.359662989154458">
<ele>361.8</ele>
<time>2024-05-12T08:04:14Z</time>
</trkpt>
<trkpt lat="49.51864242553711" lon="9.359723087400198">
<ele>361.8</ele>
<time>2024-05-12T08:04:15Z</time>
</trkpt>
<trkpt lat="49.51864619739354" lon="9.359785029664636">
<ele>361.8</ele>
<time>2024-05-12T08:04:16Z</time>
</trkpt>
<trkpt lat="49.518650053068995" lon="9.359847055748103">
<ele>361.8</ele>
<time>2024-05-12T08:04:17Z</time>
</trkpt>
<trkpt lat="49.518650053068995" lon="9.359908076003194">
<ele>362</ele>
<time>2024-05-12T08:04:18Z</time>
</trkpt>
<trkpt lat="49.51865382492542" lon="9.35997194610536">
<ele>362</ele>
<time>2024-05-12T08:04:19Z</time>
</trkpt>
<trkpt lat="49.51865382492542" lon="9.36003296636045">
<ele>362</ele>
<time>2024-05-12T08:04:20Z</time>
</trkpt>
<trkpt lat="49.51865768060088" lon="9.36009306460619">
<ele>362</ele>
<time>2024-05-12T08:04:21Z</time>
</trkpt>
<trkpt lat="49.51866145245731" lon="9.36015509068966">
<ele>362.2</ele>
<time>2024-05-12T08:04:22Z</time>
</trkpt>
<trkpt lat="49.51866145245731" lon="9.360217032954097">
<ele>362.4</ele>
<time>2024-05-12T08:04:23Z</time>
</trkpt>
<trkpt lat="49.51866530813277" lon="9.360278053209186">
<ele>362.6</ele>
<time>2024-05-12T08:04:24Z</time>
</trkpt>
<trkpt lat="49.518669079989195" lon="9.360340079292657">
<ele>362.6</ele>
<time>2024-05-12T08:04:25Z</time>
</trkpt>
<trkpt lat="49.518669079989195" lon="9.360400177538397">
<ele>362.8</ele>
<time>2024-05-12T08:04:26Z</time>
</trkpt>
<trkpt lat="49.518672935664654" lon="9.360463125631211">
<ele>363</ele>
<time>2024-05-12T08:04:27Z</time>
</trkpt>
<trkpt lat="49.518672935664654" lon="9.36052699573338">
<ele>363</ele>
<time>2024-05-12T08:04:28Z</time>
</trkpt>
<trkpt lat="49.51867670752108" lon="9.3605899438262">
<ele>363.2</ele>
<time>2024-05-12T08:04:29Z</time>
</trkpt>
<trkpt lat="49.51868056319654" lon="9.360652891919017">
<ele>363.2</ele>
<time>2024-05-12T08:04:30Z</time>
</trkpt>
<trkpt lat="49.51868056319654" lon="9.360714834183456">
<ele>363.4</ele>
<time>2024-05-12T08:04:31Z</time>
</trkpt>
<trkpt lat="49.51868433505297" lon="9.360774932429194">
<ele>363.4</ele>
<time>2024-05-12T08:04:32Z</time>
</trkpt>
<trkpt lat="49.518688190728426" lon="9.360836958512664">
<ele>363.4</ele>
<time>2024-05-12T08:04:33Z</time>
</trkpt>
<trkpt lat="49.518688190728426" lon="9.360899906605482">
<ele>363.6</ele>
<time>2024-05-12T08:04:34Z</time>
</trkpt>
<trkpt lat="49.51869196258485" lon="9.36096184886992">
<ele>363.6</ele>
<time>2024-05-12T08:04:35Z</time>
</trkpt>
<trkpt lat="49.51869581826031" lon="9.361022869125009">
<ele>363.6</ele>
<time>2024-05-12T08:04:36Z</time>
</trkpt>
<trkpt lat="49.51869959011674" lon="9.361082967370749">
<ele>363.6</ele>
<time>2024-05-12T08:04:37Z</time>
</trkpt>
<trkpt lat="49.5187034457922" lon="9.361144993454218">
<ele>363.8</ele>
<time>2024-05-12T08:04:38Z</time>
</trkpt>
<trkpt lat="49.5187034457922" lon="9.361206935718656">
<ele>364</ele>
<time>2024-05-12T08:04:39Z</time>
</trkpt>
<trkpt lat="49.5187034457922" lon="9.361267033964396">
<ele>364</ele>
<time>2024-05-12T08:04:40Z</time>
</trkpt>
<trkpt lat="49.518707217648625" lon="9.361326210200788">
<ele>364.2</ele>
<time>2024-05-12T08:04:41Z</time>
</trkpt>
<trkpt lat="49.51871107332408" lon="9.361385302618146">
<ele>364.4</ele>
<time>2024-05-12T08:04:42Z</time>
</trkpt>
<trkpt lat="49.51871484518051" lon="9.361445400863886">
<ele>364.6</ele>
<time>2024-05-12T08:04:43Z</time>
</trkpt>
<trkpt lat="49.51871484518051" lon="9.361503571271896">
<ele>364.6</ele>
<time>2024-05-12T08:04:44Z</time>
</trkpt>
<trkpt lat="49.51871870085597" lon="9.361557886004448">
<ele>364.8</ele>
<time>2024-05-12T08:04:45Z</time>
</trkpt>
<trkpt lat="49.5187224727124" lon="9.36161320656538">
<ele>365</ele>
<time>2024-05-12T08:04:46Z</time>
</trkpt>
<trkpt lat="49.51872632838786" lon="9.36167137697339">
<ele>365.2</ele>
<time>2024-05-12T08:04:47Z</time>
</trkpt>
<trkpt lat="49.51873010024429" lon="9.361728625372052">
<ele>365.4</ele>
<time>2024-05-12T08:04:48Z</time>
</trkpt>
<trkpt lat="49.51873010024429" lon="9.361786795780064">
<ele>365.4</ele>
<time>2024-05-12T08:04:49Z</time>
</trkpt>
<trkpt lat="49.51873395591974" lon="9.361844966188071">
<ele>365.6</ele>
<time>2024-05-12T08:04:50Z</time>
</trkpt>
<trkpt lat="49.51873772777617" lon="9.361901208758354">
<ele>365.8</ele>
<time>2024-05-12T08:04:51Z</time>
</trkpt>
<trkpt lat="49.51873772777617" lon="9.361958457157016">
<ele>365.8</ele>
<time>2024-05-12T08:04:52Z</time>
</trkpt>
<trkpt lat="49.51874158345163" lon="9.362016627565026">
<ele>366</ele>
<time>2024-05-12T08:04:53Z</time>
</trkpt>
<trkpt lat="49.518749210983515" lon="9.362076725810766">
<ele>366.2</ele>
<time>2024-05-12T08:04:54Z</time>
</trkpt>
<trkpt lat="49.5187568385154" lon="9.362136824056506">
<ele>366.2</ele>
<time>2024-05-12T08:04:55Z</time>
</trkpt>
<trkpt lat="49.51876061037183" lon="9.362194994464517">
<ele>366.4</ele>
<time>2024-05-12T08:04:56Z</time>
</trkpt>
<trkpt lat="49.518768237903714" lon="9.362255092710257">
<ele>366.4</ele>
<time>2024-05-12T08:04:57Z</time>
</trkpt>
<trkpt lat="49.5187758654356" lon="9.362315107136965">
<ele>366.6</ele>
<time>2024-05-12T08:04:58Z</time>
</trkpt>
<trkpt lat="49.518783492967486" lon="9.362373277544975">
<ele>366.8</ele>
<time>2024-05-12T08:04:59Z</time>
</trkpt>
<trkpt lat="49.51879497617483" lon="9.362429603934288">
<ele>366.8</ele>
<time>2024-05-12T08:05:00Z</time>
</trkpt>
<trkpt lat="49.51880260370672" lon="9.362486768513918">
<ele>367</ele>
<time>2024-05-12T08:05:01Z</time>
</trkpt>
<trkpt lat="49.51881408691406" lon="9.362540245056152">
<ele>367.2</ele>
<time>2024-05-12T08:05:02Z</time>
</trkpt>
<trkpt lat="49.518825486302376" lon="9.362594559788704">
<ele>367.4</ele>
<time>2024-05-12T08:05:03Z</time>
</trkpt>
<trkpt lat="49.51884074136615" lon="9.362649880349636">
<ele>367.4</ele>
<time>2024-05-12T08:05:04Z</time>
</trkpt>
<trkpt lat="49.51885222457349" lon="9.36270327307284">
<ele>367.6</ele>
<time>2024-05-12T08:05:05Z</time>
</trkpt>
<trkpt lat="49.518867479637265" lon="9.362758593633773">
<ele>367.6</ele>
<time>2024-05-12T08:05:06Z</time>
</trkpt>
<trkpt lat="49.51888273470104" lon="9.362814836204052">
<ele>367.8</ele>
<time>2024-05-12T08:05:07Z</time>
</trkpt>
<trkpt lat="49.51889413408935" lon="9.362868228927256">
<ele>367.8</ele>
<time>2024-05-12T08:05:08Z</time>
</trkpt>
<trkpt lat="49.518905617296696" lon="9.362924555316567">
<ele>367.8</ele>
<time>2024-05-12T08:05:09Z</time>
</trkpt>
<trkpt lat="49.51892087236047" lon="9.36297794803977">
<ele>368</ele>
<time>2024-05-12T08:05:10Z</time>
</trkpt>
<trkpt lat="49.51893612742424" lon="9.363031340762973">
<ele>368</ele>
<time>2024-05-12T08:05:11Z</time>
</trkpt>
<trkpt lat="49.51895138248801" lon="9.363084733486176">
<ele>368.2</ele>
<time>2024-05-12T08:05:12Z</time>
</trkpt>
<trkpt lat="49.51897040940821" lon="9.363138126209378">
<ele>368.4</ele>
<time>2024-05-12T08:05:13Z</time>
</trkpt>
<trkpt lat="49.518985748291016" lon="9.36319344677031">
<ele>368.4</ele>
<time>2024-05-12T08:05:14Z</time>
</trkpt>
<trkpt lat="49.519004775211215" lon="9.363249773159623">
<ele>368.6</ele>
<time>2024-05-12T08:05:15Z</time>
</trkpt>
<trkpt lat="49.51902003027499" lon="9.363305009901524">
<ele>368.6</ele>
<time>2024-05-12T08:05:16Z</time>
</trkpt>
<trkpt lat="49.51903528533876" lon="9.363358486443758">
<ele>368.8</ele>
<time>2024-05-12T08:05:17Z</time>
</trkpt>
<trkpt lat="49.51905439607799" lon="9.36341472901404">
<ele>368.8</ele>
<time>2024-05-12T08:05:18Z</time>
</trkpt>
<trkpt lat="49.51906965114176" lon="9.363468121737242">
<ele>369</ele>
<time>2024-05-12T08:05:19Z</time>
</trkpt>
<trkpt lat="49.519084906205535" lon="9.363523442298174">
<ele>369</ele>
<time>2024-05-12T08:05:20Z</time>
</trkpt>
<trkpt lat="49.51910016126931" lon="9.363578762859106">
<ele>369.2</ele>
<time>2024-05-12T08:05:21Z</time>
</trkpt>
<trkpt lat="49.51911541633308" lon="9.363636933267117">
<ele>369.2</ele>
<time>2024-05-12T08:05:22Z</time>
</trkpt>
<trkpt lat="49.51912681572139" lon="9.363693175837398">
<ele>369.2</ele>
<time>2024-05-12T08:05:23Z</time>
</trkpt>
<trkpt lat="49.519142070785165" lon="9.36374849639833">
<ele>369.4</ele>
<time>2024-05-12T08:05:24Z</time>
</trkpt>
<trkpt lat="49.51915355399251" lon="9.363802894949911">
<ele>369.4</ele>
<time>2024-05-12T08:05:25Z</time>
</trkpt>
<trkpt lat="49.519165037199855" lon="9.363858215510843">
<ele>369.4</ele>
<time>2024-05-12T08:05:26Z</time>
</trkpt>
<trkpt lat="49.51918029226363" lon="9.363915380090477">
<ele>369.6</ele>
<time>2024-05-12T08:05:27Z</time>
</trkpt>
<trkpt lat="49.51919169165194" lon="9.363971706479788">
<ele>369.8</ele>
<time>2024-05-12T08:05:28Z</time>
</trkpt>
<trkpt lat="49.519199319183826" lon="9.364027949050069">
<ele>369.8</ele>
<time>2024-05-12T08:05:29Z</time>
</trkpt>
<trkpt lat="49.51920694671571" lon="9.364088047295809">
<ele>370</ele>
<time>2024-05-12T08:05:30Z</time>
</trkpt>
<trkpt lat="49.51921842992306" lon="9.36414521187544">
<ele>370</ele>
<time>2024-05-12T08:05:31Z</time>
</trkpt>
<trkpt lat="49.519226057454944" lon="9.36420338228345">
<ele>370</ele>
<time>2024-05-12T08:05:32Z</time>
</trkpt>
<trkpt lat="49.51922982931137" lon="9.364263480529187">
<ele>370.2</ele>
<time>2024-05-12T08:05:33Z</time>
</trkpt>
<trkpt lat="49.51923368498683" lon="9.3643216509372">
<ele>370.2</ele>
<time>2024-05-12T08:05:34Z</time>
</trkpt>
<trkpt lat="49.51923745684326" lon="9.36437982134521">
<ele>370.2</ele>
<time>2024-05-12T08:05:35Z</time>
</trkpt>
<trkpt lat="49.51924508437514" lon="9.36443799175322">
<ele>370.4</ele>
<time>2024-05-12T08:05:36Z</time>
</trkpt>
<trkpt lat="49.5192489400506" lon="9.364496162161233">
<ele>370.4</ele>
<time>2024-05-12T08:05:37Z</time>
</trkpt>
<trkpt lat="49.51925271190703" lon="9.364555338397622">
<ele>370.4</ele>
<time>2024-05-12T08:05:38Z</time>
</trkpt>
<trkpt lat="49.51925656758249" lon="9.364613508805633">
<ele>370.4</ele>
<time>2024-05-12T08:05:39Z</time>
</trkpt>
<trkpt lat="49.519264195114374" lon="9.364671679213645">
<ele>370.4</ele>
<time>2024-05-12T08:05:40Z</time>
</trkpt>
<trkpt lat="49.5192679669708" lon="9.364731777459385">
<ele>370.4</ele>
<time>2024-05-12T08:05:41Z</time>
</trkpt>
<trkpt lat="49.51927182264626" lon="9.364791791886091">
<ele>370.4</ele>
<time>2024-05-12T08:05:42Z</time>
</trkpt>
<trkpt lat="49.51927559450269" lon="9.364851890131831">
<ele>370.4</ele>
<time>2024-05-12T08:05:43Z</time>
</trkpt>
<trkpt lat="49.519279450178146" lon="9.364910060539842">
<ele>370.4</ele>
<time>2024-05-12T08:05:44Z</time>
</trkpt>
<trkpt lat="49.519283222034574" lon="9.364968230947852">
<ele>370.6</ele>
<time>2024-05-12T08:05:45Z</time>
</trkpt>
<trkpt lat="49.51929084956646" lon="9.365026401355864">
<ele>370.6</ele>
<time>2024-05-12T08:05:46Z</time>
</trkpt>
<trkpt lat="49.51929470524192" lon="9.365084571763871">
<ele>370.8</ele>
<time>2024-05-12T08:05:47Z</time>
</trkpt>
<trkpt lat="49.519302332773805" lon="9.365143748000264">
<ele>371</ele>
<time>2024-05-12T08:05:48Z</time>
</trkpt>
<trkpt lat="49.51930610463023" lon="9.365201918408276">
<ele>371.2</ele>
<time>2024-05-12T08:05:49Z</time>
</trkpt>
<trkpt lat="49.51930996030569" lon="9.365262016654016">
<ele>371.2</ele>
<time>2024-05-12T08:05:50Z</time>
</trkpt>
<trkpt lat="49.51931373216212" lon="9.365320187062023">
<ele>371.4</ele>
<time>2024-05-12T08:05:51Z</time>
</trkpt>
<trkpt lat="49.51931758783758" lon="9.365380285307763">
<ele>371.4</ele>
<time>2024-05-12T08:05:52Z</time>
</trkpt>
<trkpt lat="49.519321359694" lon="9.365440299734471">
<ele>371.6</ele>
<time>2024-05-12T08:05:53Z</time>
</trkpt>
<trkpt lat="49.51932521536946" lon="9.365498470142484">
<ele>371.8</ele>
<time>2024-05-12T08:05:54Z</time>
</trkpt>
<trkpt lat="49.51932907104492" lon="9.365558568388224">
<ele>372</ele>
<time>2024-05-12T08:05:55Z</time>
</trkpt>
<trkpt lat="49.51933669857681" lon="9.365616738796234">
<ele>372.2</ele>
<time>2024-05-12T08:05:56Z</time>
</trkpt>
<trkpt lat="49.51933669857681" lon="9.365673065185549">
<ele>372.2</ele>
<time>2024-05-12T08:05:57Z</time>
</trkpt>
<trkpt lat="49.519344326108694" lon="9.365728301927447">
<ele>372.4</ele>
<time>2024-05-12T08:05:58Z</time>
</trkpt>
<trkpt lat="49.51934809796512" lon="9.36578462831676">
<ele>372.4</ele>
<time>2024-05-12T08:05:59Z</time>
</trkpt>
<trkpt lat="49.51935195364058" lon="9.365839948877692">
<ele>372.6</ele>
<time>2024-05-12T08:06:00Z</time>
</trkpt>
<trkpt lat="49.519359581172466" lon="9.365896191447971">
<ele>372.8</ele>
<time>2024-05-12T08:06:01Z</time>
</trkpt>
<trkpt lat="49.51936335302889" lon="9.365953439846637">
<ele>372.8</ele>
<time>2024-05-12T08:06:02Z</time>
</trkpt>
<trkpt lat="49.51936720870435" lon="9.366009682416916">
<ele>373</ele>
<time>2024-05-12T08:06:03Z</time>
</trkpt>
<trkpt lat="49.51937098056078" lon="9.366066930815578">
<ele>373</ele>
<time>2024-05-12T08:06:04Z</time>
</trkpt>
<trkpt lat="49.51937483623624" lon="9.36612317338586">
<ele>373.2</ele>
<time>2024-05-12T08:06:05Z</time>
</trkpt>
<trkpt lat="49.519378608092666" lon="9.366181343793867">
<ele>373.2</ele>
<time>2024-05-12T08:06:06Z</time>
</trkpt>
<trkpt lat="49.519382463768125" lon="9.36623859219253">
<ele>373.4</ele>
<time>2024-05-12T08:06:07Z</time>
</trkpt>
<trkpt lat="49.51938623562455" lon="9.36629860661924">
<ele>373.4</ele>
<time>2024-05-12T08:06:08Z</time>
</trkpt>
<trkpt lat="49.51938623562455" lon="9.36635677702725">
<ele>373.6</ele>
<time>2024-05-12T08:06:09Z</time>
</trkpt>
<trkpt lat="49.51939009130001" lon="9.36641788110137">
<ele>373.6</ele>
<time>2024-05-12T08:06:10Z</time>
</trkpt>
<trkpt lat="49.51938623562455" lon="9.366477895528078">
<ele>373.8</ele>
<time>2024-05-12T08:06:11Z</time>
</trkpt>
<trkpt lat="49.51938623562455" lon="9.366537993773818">
<ele>374</ele>
<time>2024-05-12T08:06:12Z</time>
</trkpt>
<trkpt lat="49.519378608092666" lon="9.366596164181828">
<ele>374</ele>
<time>2024-05-12T08:06:13Z</time>
</trkpt>
<trkpt lat="49.51937483623624" lon="9.36665341258049">
<ele>374</ele>
<time>2024-05-12T08:06:14Z</time>
</trkpt>
<trkpt lat="49.51937098056078" lon="9.3667115829885">
<ele>374.2</ele>
<time>2024-05-12T08:06:15Z</time>
</trkpt>
<trkpt lat="49.51936335302889" lon="9.366766903549433">
<ele>374.2</ele>
<time>2024-05-12T08:06:16Z</time>
</trkpt>
<trkpt lat="49.51935195364058" lon="9.366820296272635">
<ele>374.2</ele>
<time>2024-05-12T08:06:17Z</time>
</trkpt>
<trkpt lat="49.51933669857681" lon="9.366873688995838">
<ele>374.4</ele>
<time>2024-05-12T08:06:18Z</time>
</trkpt>
<trkpt lat="49.519321359694" lon="9.366925237700343">
<ele>374.4</ele>
<time>2024-05-12T08:06:19Z</time>
</trkpt>
<trkpt lat="49.519302332773805" lon="9.366974774748089">
<ele>374.4</ele>
<time>2024-05-12T08:06:20Z</time>
</trkpt>
<trkpt lat="49.519279450178146" lon="9.36702816747129">
<ele>374.4</ele>
<time>2024-05-12T08:06:21Z</time>
</trkpt>
<trkpt lat="49.51925656758249" lon="9.367083488032222">
<ele>374.4</ele>
<time>2024-05-12T08:06:22Z</time>
</trkpt>
<trkpt lat="49.51922982931137" lon="9.367136880755424">
<ele>374.4</ele>
<time>2024-05-12T08:06:23Z</time>
</trkpt>
<trkpt lat="49.519199319183826" lon="9.36718842945993">
<ele>374.4</ele>
<time>2024-05-12T08:06:24Z</time>
</trkpt>
<trkpt lat="49.51916880905628" lon="9.367241822183132">
<ele>374.4</ele>
<time>2024-05-12T08:06:25Z</time>
</trkpt>
<trkpt lat="49.519142070785165" lon="9.367293287068604">
<ele>374.4</ele>
<time>2024-05-12T08:06:26Z</time>
</trkpt>
<trkpt lat="49.51911541633308" lon="9.36734483577311">
<ele>374.4</ele>
<time>2024-05-12T08:06:27Z</time>
</trkpt>
<trkpt lat="49.519084906205535" lon="9.367398228496311">
<ele>374.4</ele>
<time>2024-05-12T08:06:28Z</time>
</trkpt>
<trkpt lat="49.51905816793442" lon="9.367449693381786">
<ele>374.4</ele>
<time>2024-05-12T08:06:29Z</time>
</trkpt>
<trkpt lat="49.519023885950446" lon="9.36750023625791">
<ele>374.4</ele>
<time>2024-05-12T08:06:30Z</time>
</trkpt>
<trkpt lat="49.5189933758229" lon="9.367547929286957">
<ele>374.4</ele>
<time>2024-05-12T08:06:31Z</time>
</trkpt>
<trkpt lat="49.518962781876326" lon="9.36759847216308">
<ele>374.4</ele>
<time>2024-05-12T08:06:32Z</time>
</trkpt>
<trkpt lat="49.518928499892354" lon="9.367650020867586">
<ele>374.4</ele>
<time>2024-05-12T08:06:33Z</time>
</trkpt>
<trkpt lat="49.51889798976481" lon="9.367703413590789">
<ele>374.4</ele>
<time>2024-05-12T08:06:34Z</time>
</trkpt>
<trkpt lat="49.518863623961806" lon="9.367756806313992">
<ele>374.4</ele>
<time>2024-05-12T08:06:35Z</time>
</trkpt>
<trkpt lat="49.51883311383426" lon="9.367813048884273">
<ele>374.4</ele>
<time>2024-05-12T08:06:36Z</time>
</trkpt>
<trkpt lat="49.51879497617483" lon="9.367866441607475">
<ele>374.2</ele>
<time>2024-05-12T08:06:37Z</time>
</trkpt>
<trkpt lat="49.5187568385154" lon="9.367921762168407">
<ele>374.2</ele>
<time>2024-05-12T08:06:38Z</time>
</trkpt>
<trkpt lat="49.51872632838786" lon="9.36797708272934">
<ele>374.2</ele>
<time>2024-05-12T08:06:39Z</time>
</trkpt>
<trkpt lat="49.518688190728426" lon="9.368029553443192">
<ele>374.2</ele>
<time>2024-05-12T08:06:40Z</time>
</trkpt>
<trkpt lat="49.51865382492542" lon="9.368082946166396">
<ele>374.2</ele>
<time>2024-05-12T08:06:41Z</time>
</trkpt>
<trkpt lat="49.51861945912242" lon="9.3681363388896">
<ele>374.2</ele>
<time>2024-05-12T08:06:42Z</time>
</trkpt>
<trkpt lat="49.51858517713845" lon="9.368189731612802">
<ele>374.2</ele>
<time>2024-05-12T08:06:43Z</time>
</trkpt>
<trkpt lat="49.5185546670109" lon="9.368241280317308">
<ele>374.2</ele>
<time>2024-05-12T08:06:44Z</time>
</trkpt>
<trkpt lat="49.518527928739786" lon="9.368291823193433">
<ele>374.2</ele>
<time>2024-05-12T08:06:45Z</time>
</trkpt>
<trkpt lat="49.518493646755815" lon="9.368348065763712">
<ele>374.2</ele>
<time>2024-05-12T08:06:46Z</time>
</trkpt>
<trkpt lat="49.51845928095281" lon="9.368399614468215">
<ele>374.2</ele>
<time>2024-05-12T08:06:47Z</time>
</trkpt>
<trkpt lat="49.51842877082527" lon="9.36845200136304">
<ele>374.4</ele>
<time>2024-05-12T08:06:48Z</time>
</trkpt>
<trkpt lat="49.51840203255415" lon="9.368501622229816">
<ele>374.4</ele>
<time>2024-05-12T08:06:49Z</time>
</trkpt>
<trkpt lat="49.518375378102064" lon="9.368556942790748">
<ele>374.6</ele>
<time>2024-05-12T08:06:50Z</time>
</trkpt>
<trkpt lat="49.51834486797452" lon="9.368613185361028">
<ele>374.6</ele>
<time>2024-05-12T08:06:51Z</time>
</trkpt>
<trkpt lat="49.5183181297034" lon="9.368671355769038">
<ele>374.8</ele>
<time>2024-05-12T08:06:52Z</time>
</trkpt>
<trkpt lat="49.5182837639004" lon="9.368722904473543">
<ele>374.8</ele>
<time>2024-05-12T08:06:53Z</time>
</trkpt>
<trkpt lat="49.51824948191643" lon="9.368773447349668">
<ele>374.8</ele>
<time>2024-05-12T08:06:54Z</time>
</trkpt>
<trkpt lat="49.51821897178888" lon="9.368818206712604">
<ele>374.8</ele>
<time>2024-05-12T08:06:55Z</time>
</trkpt>
<trkpt lat="49.51818846166134" lon="9.368863049894571">
<ele>374.8</ele>
<time>2024-05-12T08:06:56Z</time>
</trkpt>
<trkpt lat="49.51816172339022" lon="9.368911664932966">
<ele>375</ele>
<time>2024-05-12T08:06:57Z</time>
</trkpt>
<trkpt lat="49.51813121326268" lon="9.368960363790393">
<ele>375</ele>
<time>2024-05-12T08:06:58Z</time>
</trkpt>
<trkpt lat="49.518096847459674" lon="9.369003279134631">
<ele>375</ele>
<time>2024-05-12T08:06:59Z</time>
</trkpt>
<trkpt lat="49.51807019300759" lon="9.369045188650489">
<ele>375</ele>
<time>2024-05-12T08:07:00Z</time>
</trkpt>
<trkpt lat="49.51804345473647" lon="9.369091959670186">
<ele>375.2</ele>
<time>2024-05-12T08:07:01Z</time>
</trkpt>
<trkpt lat="49.51802442781627" lon="9.369138646870852">
<ele>375.2</ele>
<time>2024-05-12T08:07:02Z</time>
</trkpt>
<trkpt lat="49.5180091727525" lon="9.369179718196392">
<ele>375.4</ele>
<time>2024-05-12T08:07:03Z</time>
</trkpt>
<trkpt lat="49.51800154522061" lon="9.369224477559328">
<ele>375.4</ele>
<time>2024-05-12T08:07:04Z</time>
</trkpt>
<trkpt lat="49.517997689545155" lon="9.369270242750645">
<ele>375.6</ele>
<time>2024-05-12T08:07:05Z</time>
</trkpt>
<trkpt lat="49.517997689545155" lon="9.36931986361742">
<ele>375.6</ele>
<time>2024-05-12T08:07:06Z</time>
</trkpt>
<trkpt lat="49.517997689545155" lon="9.369370406493545">
<ele>375.8</ele>
<time>2024-05-12T08:07:07Z</time>
</trkpt>
<trkpt lat="49.51800154522061" lon="9.369426649063826">
<ele>375.8</ele>
<time>2024-05-12T08:07:08Z</time>
</trkpt>
<trkpt lat="49.51800154522061" lon="9.36948012560606">
<ele>376</ele>
<time>2024-05-12T08:07:09Z</time>
</trkpt>
<trkpt lat="49.5180091727525" lon="9.369531590491532">
<ele>376</ele>
<time>2024-05-12T08:07:10Z</time>
</trkpt>
<trkpt lat="49.51801294460893" lon="9.369580205529928">
<ele>376.2</ele>
<time>2024-05-12T08:07:11Z</time>
</trkpt>
<trkpt lat="49.518016800284386" lon="9.369623120874166">
<ele>376.2</ele>
<time>2024-05-12T08:07:12Z</time>
</trkpt>
<trkpt lat="49.51802442781627" lon="9.369663186371326">
<ele>376.4</ele>
<time>2024-05-12T08:07:13Z</time>
</trkpt>
<trkpt lat="49.5180281996727" lon="9.369701324030755">
<ele>376.4</ele>
<time>2024-05-12T08:07:14Z</time>
</trkpt>
<trkpt lat="49.518035827204585" lon="9.36973853968084">
<ele>376.4</ele>
<time>2024-05-12T08:07:15Z</time>
</trkpt>
<trkpt lat="49.51803968288005" lon="9.369776677340267">
<ele>376.6</ele>
<time>2024-05-12T08:07:16Z</time>
</trkpt>
<trkpt lat="49.51804731041193" lon="9.36981288716197">
<ele>376.6</ele>
<time>2024-05-12T08:07:17Z</time>
</trkpt>
<trkpt lat="49.518054937943816" lon="9.36985203064978">
<ele>376.8</ele>
<time>2024-05-12T08:07:18Z</time>
</trkpt>
<trkpt lat="49.51805870980024" lon="9.36989209614694">
<ele>376.8</ele>
<time>2024-05-12T08:07:19Z</time>
</trkpt>
<trkpt lat="49.51806633733213" lon="9.36993308365345">
<ele>377</ele>
<time>2024-05-12T08:07:20Z</time>
</trkpt>
<trkpt lat="49.518073964864016" lon="9.369976921007035">
<ele>377.2</ele>
<time>2024-05-12T08:07:21Z</time>
</trkpt>
<trkpt lat="49.5180815923959" lon="9.370019836351275">
<ele>377.4</ele>
<time>2024-05-12T08:07:22Z</time>
</trkpt>
<trkpt lat="49.5180815923959" lon="9.370063757523894">
<ele>377.6</ele>
<time>2024-05-12T08:07:23Z</time>
</trkpt>
<trkpt lat="49.51808544807136" lon="9.370108600705862">
<ele>377.8</ele>
<time>2024-05-12T08:07:24Z</time>
</trkpt>
<trkpt lat="49.51808544807136" lon="9.370153360068798">
<ele>378</ele>
<time>2024-05-12T08:07:25Z</time>
</trkpt>
<trkpt lat="49.518096847459674" lon="9.370200131088495">
<ele>378.2</ele>
<time>2024-05-12T08:07:26Z</time>
</trkpt>
<trkpt lat="49.51810070313513" lon="9.37024681828916">
<ele>378.4</ele>
<time>2024-05-12T08:07:27Z</time>
</trkpt>
<trkpt lat="49.51810833066702" lon="9.370293589308858">
<ele>378.8</ele>
<time>2024-05-12T08:07:28Z</time>
</trkpt>
<trkpt lat="49.518112102523446" lon="9.370338432490826">
<ele>379</ele>
<time>2024-05-12T08:07:29Z</time>
</trkpt>
<trkpt lat="49.518115958198905" lon="9.370385119691491">
<ele>379.4</ele>
<time>2024-05-12T08:07:30Z</time>
</trkpt>
<trkpt lat="49.51811973005533" lon="9.37042803503573">
<ele>379.8</ele>
<time>2024-05-12T08:07:31Z</time>
</trkpt>
<trkpt lat="49.51812358573079" lon="9.370472878217695">
<ele>380.4</ele>
<time>2024-05-12T08:07:32Z</time>
</trkpt>
<trkpt lat="49.51812744140625" lon="9.370518643409014">
<ele>380.8</ele>
<time>2024-05-12T08:07:33Z</time>
</trkpt>
<trkpt lat="49.51812744140625" lon="9.370561558753252">
<ele>381.2</ele>
<time>2024-05-12T08:07:34Z</time>
</trkpt>
<trkpt lat="49.51813121326268" lon="9.370601624250412">
<ele>381.8</ele>
<time>2024-05-12T08:07:35Z</time>
</trkpt>
<trkpt lat="49.51813121326268" lon="9.370641689747572">
<ele>382.2</ele>
<time>2024-05-12T08:07:36Z</time>
</trkpt>
<trkpt lat="49.51813121326268" lon="9.370677899569271">
<ele>382.8</ele>
<time>2024-05-12T08:07:37Z</time>
</trkpt>
<trkpt lat="49.518135068938136" lon="9.370717043057084">
<ele>383.4</ele>
<time>2024-05-12T08:07:38Z</time>
</trkpt>
<trkpt lat="49.518135068938136" lon="9.370755180716516">
<ele>383.8</ele>
<time>2024-05-12T08:07:39Z</time>
</trkpt>
<trkpt lat="49.51813884079456" lon="9.370795246213676">
<ele>384.2</ele>
<time>2024-05-12T08:07:40Z</time>
</trkpt>
<trkpt lat="49.51814269647002" lon="9.370835227891805">
<ele>384.8</ele>
<time>2024-05-12T08:07:41Z</time>
</trkpt>
<trkpt lat="49.51814646832645" lon="9.370873449370263">
<ele>385.2</ele>
<time>2024-05-12T08:07:42Z</time>
</trkpt>
<trkpt lat="49.51815032400191" lon="9.370911587029696">
<ele>385.6</ele>
<time>2024-05-12T08:07:43Z</time>
</trkpt>
<trkpt lat="49.518154095858335" lon="9.370948718860744">
<ele>386</ele>
<time>2024-05-12T08:07:44Z</time>
</trkpt>
<trkpt lat="49.518157951533794" lon="9.370985012501478">
<ele>386.4</ele>
<time>2024-05-12T08:07:45Z</time>
</trkpt>
<trkpt lat="49.518157951533794" lon="9.371023150160909">
<ele>386.8</ele>
<time>2024-05-12T08:07:46Z</time>
</trkpt>
<trkpt lat="49.518157951533794" lon="9.37106036581099">
<ele>387.2</ele>
<time>2024-05-12T08:07:47Z</time>
</trkpt>
<trkpt lat="49.518157951533794" lon="9.371096575632691">
<ele>387.6</ele>
<time>2024-05-12T08:07:48Z</time>
</trkpt>
<trkpt lat="49.51816172339022" lon="9.371133791282771">
<ele>388.2</ele>
<time>2024-05-12T08:07:49Z</time>
</trkpt>
<trkpt lat="49.51816557906568" lon="9.371170001104474">
<ele>388.6</ele>
<time>2024-05-12T08:07:50Z</time>
</trkpt>
<trkpt lat="49.51816935092211" lon="9.371208138763905">
<ele>389</ele>
<time>2024-05-12T08:07:51Z</time>
</trkpt>
<trkpt lat="49.51816935092211" lon="9.371246276423337">
<ele>389.2</ele>
<time>2024-05-12T08:07:52Z</time>
</trkpt>
<trkpt lat="49.51817320659757" lon="9.371285419911146">
<ele>389.6</ele>
<time>2024-05-12T08:07:53Z</time>
</trkpt>
<trkpt lat="49.518176978453994" lon="9.371323557570577">
<ele>390</ele>
<time>2024-05-12T08:07:54Z</time>
</trkpt>
<trkpt lat="49.51818083412945" lon="9.371364545077084">
<ele>390.4</ele>
<time>2024-05-12T08:07:55Z</time>
</trkpt>
<trkpt lat="49.51818083412945" lon="9.371406538411977">
<ele>390.6</ele>
<time>2024-05-12T08:07:56Z</time>
</trkpt>
<trkpt lat="49.51818460598588" lon="9.371446603909137">
<ele>391</ele>
<time>2024-05-12T08:07:57Z</time>
</trkpt>
<trkpt lat="49.51818846166134" lon="9.371486585587265">
<ele>391.2</ele>
<time>2024-05-12T08:07:58Z</time>
</trkpt>
<trkpt lat="49.518192233517766" lon="9.371528578922153">
<ele>391.2</ele>
<time>2024-05-12T08:07:59Z</time>
</trkpt>
<trkpt lat="49.518196089193225" lon="9.37156956642866">
<ele>391.6</ele>
<time>2024-05-12T08:08:00Z</time>
</trkpt>
<trkpt lat="49.51819986104965" lon="9.37161155976355">
<ele>391.8</ele>
<time>2024-05-12T08:08:01Z</time>
</trkpt>
<trkpt lat="49.51819986104965" lon="9.37165355309844">
<ele>392</ele>
<time>2024-05-12T08:08:02Z</time>
</trkpt>
<trkpt lat="49.51819986104965" lon="9.371694540604947">
<ele>392.2</ele>
<time>2024-05-12T08:08:03Z</time>
</trkpt>
<trkpt lat="49.51819986104965" lon="9.371734606102107">
<ele>392.4</ele>
<time>2024-05-12T08:08:04Z</time>
</trkpt>
<trkpt lat="49.51819986104965" lon="9.371773665770888">
<ele>392.6</ele>
<time>2024-05-12T08:08:05Z</time>
</trkpt>
<trkpt lat="49.51819986104965" lon="9.37180995941162">
<ele>392.8</ele>
<time>2024-05-12T08:08:06Z</time>
</trkpt>
<trkpt lat="49.51819986104965" lon="9.37184994108975">
<ele>393.2</ele>
<time>2024-05-12T08:08:07Z</time>
</trkpt>
<trkpt lat="49.51820371672511" lon="9.371892856433988">
<ele>393.4</ele>
<time>2024-05-12T08:08:08Z</time>
</trkpt>
<trkpt lat="49.51820748858154" lon="9.371938705444336">
<ele>393.8</ele>
<time>2024-05-12T08:08:09Z</time>
</trkpt>
<trkpt lat="49.518211344257" lon="9.371983464807272">
<ele>394</ele>
<time>2024-05-12T08:08:10Z</time>
</trkpt>
<trkpt lat="49.518211344257" lon="9.37202638015151">
<ele>394.4</ele>
<time>2024-05-12T08:08:11Z</time>
</trkpt>
<trkpt lat="49.518211344257" lon="9.3720683734864">
<ele>394.6</ele>
<time>2024-05-12T08:08:12Z</time>
</trkpt>
<trkpt lat="49.518215116113424" lon="9.372110366821287">
<ele>394.8</ele>
<time>2024-05-12T08:08:13Z</time>
</trkpt>
<trkpt lat="49.51821897178888" lon="9.372151354327798">
<ele>395.2</ele>
<time>2024-05-12T08:08:14Z</time>
</trkpt>
<trkpt lat="49.51821897178888" lon="9.372193263843656">
<ele>395.4</ele>
<time>2024-05-12T08:08:15Z</time>
</trkpt>
<trkpt lat="49.51822274364531" lon="9.372236179187894">
<ele>395.6</ele>
<time>2024-05-12T08:08:16Z</time>
</trkpt>
<trkpt lat="49.51822274364531" lon="9.372282028198242">
<ele>395.8</ele>
<time>2024-05-12T08:08:17Z</time>
</trkpt>
<trkpt lat="49.51822274364531" lon="9.372326787561178">
<ele>396</ele>
<time>2024-05-12T08:08:18Z</time>
</trkpt>
<trkpt lat="49.51822274364531" lon="9.372371630743146">
<ele>396.2</ele>
<time>2024-05-12T08:08:19Z</time>
</trkpt>
<trkpt lat="49.51822274364531" lon="9.372414546087384">
<ele>396.4</ele>
<time>2024-05-12T08:08:20Z</time>
</trkpt>
<trkpt lat="49.51822274364531" lon="9.372458383440971">
<ele>396.6</ele>
<time>2024-05-12T08:08:21Z</time>
</trkpt>
<trkpt lat="49.51822274364531" lon="9.37250322662294">
<ele>396.8</ele>
<time>2024-05-12T08:08:22Z</time>
</trkpt>
<trkpt lat="49.51822274364531" lon="9.3725432921201">
<ele>397</ele>
<time>2024-05-12T08:08:23Z</time>
</trkpt>
<trkpt lat="49.51822274364531" lon="9.37258335761726">
<ele>397.4</ele>
<time>2024-05-12T08:08:24Z</time>
</trkpt>
<trkpt lat="49.51821897178888" lon="9.37262149527669">
<ele>397.4</ele>
<time>2024-05-12T08:08:25Z</time>
</trkpt>
<trkpt lat="49.51821897178888" lon="9.372665332630277">
<ele>397.6</ele>
<time>2024-05-12T08:08:26Z</time>
</trkpt>
<trkpt lat="49.51821897178888" lon="9.372711181640623">
<ele>397.8</ele>
<time>2024-05-12T08:08:27Z</time>
</trkpt>
<trkpt lat="49.51822274364531" lon="9.372755018994212">
<ele>398.2</ele>
<time>2024-05-12T08:08:28Z</time>
</trkpt>
<trkpt lat="49.51822274364531" lon="9.37279986217618">
<ele>398.4</ele>
<time>2024-05-12T08:08:29Z</time>
</trkpt>
<trkpt lat="49.51822274364531" lon="9.372843699529769">
<ele>398.6</ele>
<time>2024-05-12T08:08:30Z</time>
</trkpt>
<trkpt lat="49.51821897178888" lon="9.372888542711737">
<ele>398.8</ele>
<time>2024-05-12T08:08:31Z</time>
</trkpt>
<trkpt lat="49.51821897178888" lon="9.372933385893704">
<ele>399</ele>
<time>2024-05-12T08:08:32Z</time>
</trkpt>
<trkpt lat="49.518215116113424" lon="9.372982000932096">
<ele>399.2</ele>
<time>2024-05-12T08:08:33Z</time>
</trkpt>
<trkpt lat="49.518215116113424" lon="9.373024916276336">
<ele>399.4</ele>
<time>2024-05-12T08:08:34Z</time>
</trkpt>
<trkpt lat="49.518215116113424" lon="9.373067831620574">
<ele>399.6</ele>
<time>2024-05-12T08:08:35Z</time>
</trkpt>
<trkpt lat="49.518211344257" lon="9.37311166897416">
<ele>399.8</ele>
<time>2024-05-12T08:08:36Z</time>
</trkpt>
<trkpt lat="49.51820748858154" lon="9.373156512156129">
<ele>400</ele>
<time>2024-05-12T08:08:37Z</time>
</trkpt>
<trkpt lat="49.51820371672511" lon="9.373201355338097">
<ele>400.2</ele>
<time>2024-05-12T08:08:38Z</time>
</trkpt>
<trkpt lat="49.51819986104965" lon="9.373248042538762">
<ele>400.2</ele>
<time>2024-05-12T08:08:39Z</time>
</trkpt>
<trkpt lat="49.518192233517766" lon="9.373296657577155">
<ele>400.4</ele>
<time>2024-05-12T08:08:40Z</time>
</trkpt>
<trkpt lat="49.51818846166134" lon="9.373343428596854">
<ele>400.6</ele>
<time>2024-05-12T08:08:41Z</time>
</trkpt>
<trkpt lat="49.51818460598588" lon="9.37339011579752">
<ele>400.6</ele>
<time>2024-05-12T08:08:42Z</time>
</trkpt>
<trkpt lat="49.518176978453994" lon="9.373437808826566">
<ele>400.8</ele>
<time>2024-05-12T08:08:43Z</time>
</trkpt>
<trkpt lat="49.51817320659757" lon="9.373486507683992">
<ele>401</ele>
<time>2024-05-12T08:08:44Z</time>
</trkpt>
<trkpt lat="49.51816557906568" lon="9.373535122722387">
<ele>401</ele>
<time>2024-05-12T08:08:45Z</time>
</trkpt>
<trkpt lat="49.51816172339022" lon="9.373583737760782">
<ele>401.2</ele>
<time>2024-05-12T08:08:46Z</time>
</trkpt>
<trkpt lat="49.518154095858335" lon="9.373631430789828">
<ele>401.2</ele>
<time>2024-05-12T08:08:47Z</time>
</trkpt>
<trkpt lat="49.51814646832645" lon="9.373678201809524">
<ele>401.2</ele>
<time>2024-05-12T08:08:48Z</time>
</trkpt>
<trkpt lat="49.51814269647002" lon="9.37372874468565">
<ele>401.4</ele>
<time>2024-05-12T08:08:49Z</time>
</trkpt>
<trkpt lat="49.518135068938136" lon="9.373781131580472">
<ele>401.6</ele>
<time>2024-05-12T08:08:50Z</time>
</trkpt>
<trkpt lat="49.51813121326268" lon="9.373836452141404">
<ele>401.8</ele>
<time>2024-05-12T08:08:51Z</time>
</trkpt>
<trkpt lat="49.51812744140625" lon="9.373891772702336">
<ele>402</ele>
<time>2024-05-12T08:08:52Z</time>
</trkpt>
<trkpt lat="49.51812358573079" lon="9.373948015272616">
<ele>402</ele>
<time>2024-05-12T08:08:53Z</time>
</trkpt>
<trkpt lat="49.51811973005533" lon="9.37400526367128">
<ele>402.2</ele>
<time>2024-05-12T08:08:54Z</time>
</trkpt>
<trkpt lat="49.518115958198905" lon="9.37406343407929">
<ele>402.2</ele>
<time>2024-05-12T08:08:55Z</time>
</trkpt>
<trkpt lat="49.51810833066702" lon="9.374124454334378">
<ele>402.2</ele>
<time>2024-05-12T08:08:56Z</time>
</trkpt>
<trkpt lat="49.51810447499156" lon="9.374188408255575">
<ele>402.2</ele>
<time>2024-05-12T08:08:57Z</time>
</trkpt>
<trkpt lat="49.518096847459674" lon="9.374251356348395">
<ele>402.4</ele>
<time>2024-05-12T08:08:58Z</time>
</trkpt>
<trkpt lat="49.518096847459674" lon="9.374313298612831">
<ele>402.4</ele>
<time>2024-05-12T08:08:59Z</time>
</trkpt>
<trkpt lat="49.51809307560325" lon="9.374376246705651">
<ele>402.6</ele>
<time>2024-05-12T08:09:00Z</time>
</trkpt>
<trkpt lat="49.51808921992779" lon="9.374440116807818">
<ele>402.8</ele>
<time>2024-05-12T08:09:01Z</time>
</trkpt>
<trkpt lat="49.51808544807136" lon="9.374500215053558">
<ele>402.8</ele>
<time>2024-05-12T08:09:02Z</time>
</trkpt>
<trkpt lat="49.5180815923959" lon="9.374563163146377">
<ele>403</ele>
<time>2024-05-12T08:09:03Z</time>
</trkpt>
<trkpt lat="49.5180815923959" lon="9.374627033248544">
<ele>403</ele>
<time>2024-05-12T08:09:04Z</time>
</trkpt>
<trkpt lat="49.518077820539474" lon="9.374691909179091">
<ele>403.2</ele>
<time>2024-05-12T08:09:05Z</time>
</trkpt>
<trkpt lat="49.51807019300759" lon="9.37475678510964">
<ele>403.2</ele>
<time>2024-05-12T08:09:06Z</time>
</trkpt>
<trkpt lat="49.5180625654757" lon="9.374823505058885">
<ele>403.2</ele>
<time>2024-05-12T08:09:07Z</time>
</trkpt>
<trkpt lat="49.51805870980024" lon="9.374888380989432">
<ele>403.4</ele>
<time>2024-05-12T08:09:08Z</time>
</trkpt>
<trkpt lat="49.518054937943816" lon="9.37495325691998">
<ele>403.2</ele>
<time>2024-05-12T08:09:09Z</time>
</trkpt>
<trkpt lat="49.51804731041193" lon="9.375018049031496">
<ele>403.2</ele>
<time>2024-05-12T08:09:10Z</time>
</trkpt>
<trkpt lat="49.51804345473647" lon="9.375084852799771">
<ele>403.2</ele>
<time>2024-05-12T08:09:11Z</time>
</trkpt>
<trkpt lat="49.518035827204585" lon="9.37514964491129">
<ele>403.2</ele>
<time>2024-05-12T08:09:12Z</time>
</trkpt>
<trkpt lat="49.51803205534816" lon="9.375218376517296">
<ele>403.2</ele>
<time>2024-05-12T08:09:13Z</time>
</trkpt>
<trkpt lat="49.5180281996727" lon="9.37528509646654">
<ele>403.4</ele>
<time>2024-05-12T08:09:14Z</time>
</trkpt>
<trkpt lat="49.51802057214081" lon="9.375349972397087">
<ele>403.4</ele>
<time>2024-05-12T08:09:15Z</time>
</trkpt>
<trkpt lat="49.518016800284386" lon="9.375414848327637">
<ele>403.6</ele>
<time>2024-05-12T08:09:16Z</time>
</trkpt>
<trkpt lat="49.5180091727525" lon="9.375481568276882">
<ele>403.6</ele>
<time>2024-05-12T08:09:17Z</time>
</trkpt>
<trkpt lat="49.51800154522061" lon="9.375550216063855">
<ele>403.8</ele>
<time>2024-05-12T08:09:18Z</time>
</trkpt>
<trkpt lat="49.517997689545155" lon="9.37562171369791">
<ele>403.8</ele>
<time>2024-05-12T08:09:19Z</time>
</trkpt>
<trkpt lat="49.51799391768873" lon="9.375695222988725">
<ele>403.8</ele>
<time>2024-05-12T08:09:20Z</time>
</trkpt>
<trkpt lat="49.51798629015684" lon="9.375768648460507">
<ele>403.8</ele>
<time>2024-05-12T08:09:21Z</time>
</trkpt>
<trkpt lat="49.517978662624955" lon="9.37584207393229">
<ele>403.8</ele>
<time>2024-05-12T08:09:22Z</time>
</trkpt>
<trkpt lat="49.51797103509307" lon="9.375913571566343">
<ele>403.8</ele>
<time>2024-05-12T08:09:23Z</time>
</trkpt>
<trkpt lat="49.51796340756118" lon="9.3759832251817">
<ele>403.6</ele>
<time>2024-05-12T08:09:24Z</time>
</trkpt>
<trkpt lat="49.51795955188573" lon="9.376051872968674">
<ele>403.6</ele>
<time>2024-05-12T08:09:25Z</time>
</trkpt>
<trkpt lat="49.5179557800293" lon="9.37611674889922">
<ele>403.6</ele>
<time>2024-05-12T08:09:26Z</time>
</trkpt>
<trkpt lat="49.51795192435384" lon="9.37617869116366">
<ele>403.8</ele>
<time>2024-05-12T08:09:27Z</time>
</trkpt>
<trkpt lat="49.51794806867838" lon="9.376239711418748">
<ele>403.8</ele>
<time>2024-05-12T08:09:28Z</time>
</trkpt>
<trkpt lat="49.51794044114649" lon="9.376299809664488">
<ele>403.8</ele>
<time>2024-05-12T08:09:29Z</time>
</trkpt>
<trkpt lat="49.517936669290066" lon="9.376361835747955">
<ele>403.6</ele>
<time>2024-05-12T08:09:30Z</time>
</trkpt>
<trkpt lat="49.51793281361461" lon="9.376424783840775">
<ele>403.6</ele>
<time>2024-05-12T08:09:31Z</time>
</trkpt>
<trkpt lat="49.51792518608272" lon="9.376486726105211">
<ele>403.6</ele>
<time>2024-05-12T08:09:32Z</time>
</trkpt>
<trkpt lat="49.517921414226294" lon="9.376549674198031">
<ele>403.6</ele>
<time>2024-05-12T08:09:33Z</time>
</trkpt>
<trkpt lat="49.517917558550835" lon="9.3766117002815">
<ele>403.4</ele>
<time>2024-05-12T08:09:34Z</time>
</trkpt>
<trkpt lat="49.51791378669441" lon="9.376673642545938">
<ele>403.4</ele>
<time>2024-05-12T08:09:35Z</time>
</trkpt>
<trkpt lat="49.51790993101895" lon="9.376734662801027">
<ele>403.4</ele>
<time>2024-05-12T08:09:36Z</time>
</trkpt>
<trkpt lat="49.51790615916252" lon="9.376794761046767">
<ele>403.4</ele>
<time>2024-05-12T08:09:37Z</time>
</trkpt>
<trkpt lat="49.51790230348706" lon="9.376854859292507">
<ele>403.6</ele>
<time>2024-05-12T08:09:38Z</time>
</trkpt>
<trkpt lat="49.517898531630635" lon="9.376914957538249">
<ele>403.8</ele>
<time>2024-05-12T08:09:39Z</time>
</trkpt>
<trkpt lat="49.517894675955176" lon="9.376976899802685">
<ele>403.8</ele>
<time>2024-05-12T08:09:40Z</time>
</trkpt>
<trkpt lat="49.51789090409875" lon="9.377037920057774">
<ele>404</ele>
<time>2024-05-12T08:09:41Z</time>
</trkpt>
<trkpt lat="49.51788704842329" lon="9.377101873978972">
<ele>404</ele>
<time>2024-05-12T08:09:42Z</time>
</trkpt>
<trkpt lat="49.51788327656686" lon="9.37716289423406">
<ele>404.2</ele>
<time>2024-05-12T08:09:43Z</time>
</trkpt>
<trkpt lat="49.51787942089141" lon="9.3772229924798">
<ele>404.2</ele>
<time>2024-05-12T08:09:44Z</time>
</trkpt>
<trkpt lat="49.51787564903498" lon="9.37728309072554">
<ele>404.4</ele>
<time>2024-05-12T08:09:45Z</time>
</trkpt>
<trkpt lat="49.51787179335952" lon="9.377341261133552">
<ele>404.4</ele>
<time>2024-05-12T08:09:46Z</time>
</trkpt>
<trkpt lat="49.51787179335952" lon="9.37740127556026">
<ele>404.4</ele>
<time>2024-05-12T08:09:47Z</time>
</trkpt>
<trkpt lat="49.51786802150309" lon="9.377461373806">
<ele>404.6</ele>
<time>2024-05-12T08:09:48Z</time>
</trkpt>
<trkpt lat="49.51786416582763" lon="9.37751954421401">
<ele>404.6</ele>
<time>2024-05-12T08:09:49Z</time>
</trkpt>
<trkpt lat="49.517856538295746" lon="9.3775787204504">
<ele>404.6</ele>
<time>2024-05-12T08:09:50Z</time>
</trkpt>
<trkpt lat="49.517856538295746" lon="9.37763781286776">
<ele>404.8</ele>
<time>2024-05-12T08:09:51Z</time>
</trkpt>
<trkpt lat="49.51785276643932" lon="9.37769983895123">
<ele>404.8</ele>
<time>2024-05-12T08:09:52Z</time>
</trkpt>
<trkpt lat="49.51784891076386" lon="9.377761781215668">
<ele>405.2</ele>
<time>2024-05-12T08:09:53Z</time>
</trkpt>
<trkpt lat="49.51784513890743" lon="9.377822801470757">
<ele>405.4</ele>
<time>2024-05-12T08:09:54Z</time>
</trkpt>
<trkpt lat="49.51784513890743" lon="9.377888599410651">
<ele>405.4</ele>
<time>2024-05-12T08:09:55Z</time>
</trkpt>
<trkpt lat="49.517841283231974" lon="9.377951547503471">
<ele>405.6</ele>
<time>2024-05-12T08:09:56Z</time>
</trkpt>
<trkpt lat="49.51783751137555" lon="9.37801449559629">
<ele>405.6</ele>
<time>2024-05-12T08:09:57Z</time>
</trkpt>
<trkpt lat="49.51782988384366" lon="9.37807459384203">
<ele>405.8</ele>
<time>2024-05-12T08:09:58Z</time>
</trkpt>
<trkpt lat="49.5178260281682" lon="9.37813377007842">
<ele>405.8</ele>
<time>2024-05-12T08:09:59Z</time>
</trkpt>
<trkpt lat="49.517822256311774" lon="9.378190012648702">
<ele>406</ele>
<time>2024-05-12T08:10:00Z</time>
</trkpt>
<trkpt lat="49.517818400636315" lon="9.378246255218984">
<ele>406.2</ele>
<time>2024-05-12T08:10:01Z</time>
</trkpt>
<trkpt lat="49.51781077310443" lon="9.378305431455374">
<ele>406.4</ele>
<time>2024-05-12T08:10:02Z</time>
</trkpt>
<trkpt lat="49.517807001248" lon="9.378361674025657">
<ele>406.6</ele>
<time>2024-05-12T08:10:03Z</time>
</trkpt>
<trkpt lat="49.51780314557254" lon="9.378417916595936">
<ele>406.8</ele>
<time>2024-05-12T08:10:04Z</time>
</trkpt>
<trkpt lat="49.51779551804066" lon="9.37847130931914">
<ele>407</ele>
<time>2024-05-12T08:10:05Z</time>
</trkpt>
<trkpt lat="49.51779174618423" lon="9.378522858023643">
<ele>407.2</ele>
<time>2024-05-12T08:10:06Z</time>
</trkpt>
<trkpt lat="49.517780262976885" lon="9.378573400899768">
<ele>407.4</ele>
<time>2024-05-12T08:10:07Z</time>
</trkpt>
<trkpt lat="49.517772635445" lon="9.378622015938165">
<ele>407.8</ele>
<time>2024-05-12T08:10:08Z</time>
</trkpt>
<trkpt lat="49.51776500791311" lon="9.37866685912013">
<ele>408</ele>
<time>2024-05-12T08:10:09Z</time>
</trkpt>
<trkpt lat="49.51775352470577" lon="9.378713546320796">
<ele>408.4</ele>
<time>2024-05-12T08:10:10Z</time>
</trkpt>
<trkpt lat="49.51774589717388" lon="9.378758389502764">
<ele>408.6</ele>
<time>2024-05-12T08:10:11Z</time>
</trkpt>
<trkpt lat="49.51773449778557" lon="9.378803232684731">
<ele>408.8</ele>
<time>2024-05-12T08:10:12Z</time>
</trkpt>
<trkpt lat="49.51772301457822" lon="9.3788480758667">
<ele>409</ele>
<time>2024-05-12T08:10:13Z</time>
</trkpt>
<trkpt lat="49.51771161518991" lon="9.378889985382555">
<ele>409.2</ele>
<time>2024-05-12T08:10:14Z</time>
</trkpt>
<trkpt lat="49.517703987658024" lon="9.378934828564525">
<ele>409.6</ele>
<time>2024-05-12T08:10:15Z</time>
</trkpt>
<trkpt lat="49.51769250445068" lon="9.378976821899414">
<ele>410</ele>
<time>2024-05-12T08:10:16Z</time>
</trkpt>
<trkpt lat="49.51768487691879" lon="9.379016803577542">
<ele>410.4</ele>
<time>2024-05-12T08:10:17Z</time>
</trkpt>
<trkpt lat="49.51767347753048" lon="9.379057874903085">
<ele>410.8</ele>
<time>2024-05-12T08:10:18Z</time>
</trkpt>
<trkpt lat="49.517661994323134" lon="9.3791036400944">
<ele>411.2</ele>
<time>2024-05-12T08:10:19Z</time>
</trkpt>
<trkpt lat="49.51765436679125" lon="9.379146555438638">
<ele>411.6</ele>
<time>2024-05-12T08:10:20Z</time>
</trkpt>
<trkpt lat="49.517642967402935" lon="9.379191398620604">
<ele>412</ele>
<time>2024-05-12T08:10:21Z</time>
</trkpt>
<trkpt lat="49.51763148419559" lon="9.379233308136463">
<ele>412.4</ele>
<time>2024-05-12T08:10:22Z</time>
</trkpt>
<trkpt lat="49.51762008480728" lon="9.3792762234807">
<ele>412.8</ele>
<time>2024-05-12T08:10:23Z</time>
</trkpt>
<trkpt lat="49.51761245727539" lon="9.37932014465332">
<ele>413</ele>
<time>2024-05-12T08:10:24Z</time>
</trkpt>
<trkpt lat="49.517600974068046" lon="9.379364904016256">
<ele>413.2</ele>
<time>2024-05-12T08:10:25Z</time>
</trkpt>
<trkpt lat="49.51759334653616" lon="9.379407819360496">
<ele>413.6</ele>
<time>2024-05-12T08:10:26Z</time>
</trkpt>
<trkpt lat="49.51757809147239" lon="9.379453584551811">
<ele>413.8</ele>
<time>2024-05-12T08:10:27Z</time>
</trkpt>
<trkpt lat="49.51756660826504" lon="9.37949842773378">
<ele>414.2</ele>
<time>2024-05-12T08:10:28Z</time>
</trkpt>
<trkpt lat="49.51755520887673" lon="9.379543270915748">
<ele>414.4</ele>
<time>2024-05-12T08:10:29Z</time>
</trkpt>
<trkpt lat="49.517543725669384" lon="9.379589958116412">
<ele>414.8</ele>
<time>2024-05-12T08:10:30Z</time>
</trkpt>
<trkpt lat="49.51753232628107" lon="9.37963480129838">
<ele>415</ele>
<time>2024-05-12T08:10:31Z</time>
</trkpt>
<trkpt lat="49.517520843073726" lon="9.379678722471">
<ele>415.2</ele>
<time>2024-05-12T08:10:32Z</time>
</trkpt>
<trkpt lat="49.51750944368541" lon="9.379721637815235">
<ele>415.4</ele>
<time>2024-05-12T08:10:33Z</time>
</trkpt>
<trkpt lat="49.517501816153526" lon="9.379764553159475">
<ele>415.6</ele>
<time>2024-05-12T08:10:34Z</time>
</trkpt>
<trkpt lat="49.51749033294618" lon="9.379806462675331">
<ele>415.6</ele>
<time>2024-05-12T08:10:35Z</time>
</trkpt>
<trkpt lat="49.51747893355787" lon="9.379850383847952">
<ele>415.8</ele>
<time>2024-05-12T08:10:36Z</time>
</trkpt>
<trkpt lat="49.51747130602598" lon="9.37989137135446">
<ele>415.8</ele>
<time>2024-05-12T08:10:37Z</time>
</trkpt>
<trkpt lat="49.51745982281864" lon="9.379938058555126">
<ele>415.8</ele>
<time>2024-05-12T08:10:38Z</time>
</trkpt>
<trkpt lat="49.51744842343032" lon="9.379982901737094">
<ele>416</ele>
<time>2024-05-12T08:10:39Z</time>
</trkpt>
<trkpt lat="49.51743694022298" lon="9.380029672756791">
<ele>416.2</ele>
<time>2024-05-12T08:10:40Z</time>
</trkpt>
<trkpt lat="49.51742931269109" lon="9.380078287795186">
<ele>416.4</ele>
<time>2024-05-12T08:10:41Z</time>
</trkpt>
<trkpt lat="49.51741782948375" lon="9.38012690283358">
<ele>416.6</ele>
<time>2024-05-12T08:10:42Z</time>
</trkpt>
<trkpt lat="49.517406430095434" lon="9.380171746015549">
<ele>416.8</ele>
<time>2024-05-12T08:10:43Z</time>
</trkpt>
<trkpt lat="49.51739494688809" lon="9.380218433216214">
<ele>417.2</ele>
<time>2024-05-12T08:10:44Z</time>
</trkpt>
<trkpt lat="49.517383547499776" lon="9.380265204235911">
<ele>417.4</ele>
<time>2024-05-12T08:10:45Z</time>
</trkpt>
<trkpt lat="49.51737591996789" lon="9.380311891436577">
<ele>417.8</ele>
<time>2024-05-12T08:10:46Z</time>
</trkpt>
<trkpt lat="49.517364436760545" lon="9.380358662456274">
<ele>418</ele>
<time>2024-05-12T08:10:47Z</time>
</trkpt>
<trkpt lat="49.51735680922866" lon="9.380403505638242">
<ele>418.4</ele>
<time>2024-05-12T08:10:48Z</time>
</trkpt>
<trkpt lat="49.51734155416489" lon="9.380448265001178">
<ele>418.6</ele>
<time>2024-05-12T08:10:49Z</time>
</trkpt>
<trkpt lat="49.517333926633" lon="9.380495036020877">
<ele>418.8</ele>
<time>2024-05-12T08:10:50Z</time>
</trkpt>
<trkpt lat="49.51732252724469" lon="9.380539879202844">
<ele>419</ele>
<time>2024-05-12T08:10:51Z</time>
</trkpt>
<trkpt lat="49.51731104403734" lon="9.38058463856578">
<ele>419.2</ele>
<time>2024-05-12T08:10:52Z</time>
</trkpt>
<trkpt lat="49.51729964464903" lon="9.380629481747746">
<ele>419.4</ele>
<time>2024-05-12T08:10:53Z</time>
</trkpt>
<trkpt lat="49.51728816144168" lon="9.380675246939065">
<ele>419.6</ele>
<time>2024-05-12T08:10:54Z</time>
</trkpt>
<trkpt lat="49.5172805339098" lon="9.38072009012103">
<ele>419.8</ele>
<time>2024-05-12T08:10:55Z</time>
</trkpt>
<trkpt lat="49.51726913452149" lon="9.380763005465267">
<ele>420</ele>
<time>2024-05-12T08:10:56Z</time>
</trkpt>
<trkpt lat="49.51726142317057" lon="9.380807848647237">
<ele>420.2</ele>
<time>2024-05-12T08:10:57Z</time>
</trkpt>
<trkpt lat="49.51725002378225" lon="9.380851686000824">
<ele>420.4</ele>
<time>2024-05-12T08:10:58Z</time>
</trkpt>
<trkpt lat="49.51723854057491" lon="9.380896529182792">
<ele>420.6</ele>
<time>2024-05-12T08:10:59Z</time>
</trkpt>
<trkpt lat="49.517227141186595" lon="9.38094137236476">
<ele>420.8</ele>
<time>2024-05-12T08:11:00Z</time>
</trkpt>
<trkpt lat="49.51721951365471" lon="9.380986131727695">
<ele>421</ele>
<time>2024-05-12T08:11:01Z</time>
</trkpt>
<trkpt lat="49.51720803044736" lon="9.381031980738044">
<ele>421.2</ele>
<time>2024-05-12T08:11:02Z</time>
</trkpt>
<trkpt lat="49.51719663105905" lon="9.38107674010098">
<ele>421.4</ele>
<time>2024-05-12T08:11:03Z</time>
</trkpt>
<trkpt lat="49.51718137599528" lon="9.381123511120675">
<ele>421.6</ele>
<time>2024-05-12T08:11:04Z</time>
</trkpt>
<trkpt lat="49.51716989278793" lon="9.381168354302645">
<ele>421.8</ele>
<time>2024-05-12T08:11:05Z</time>
</trkpt>
<trkpt lat="49.51715849339962" lon="9.381211269646885">
<ele>421.8</ele>
<time>2024-05-12T08:11:06Z</time>
</trkpt>
<trkpt lat="49.51714323833585" lon="9.38125510700047">
<ele>421.8</ele>
<time>2024-05-12T08:11:07Z</time>
</trkpt>
<trkpt lat="49.5171317551285" lon="9.381299950182438">
<ele>422</ele>
<time>2024-05-12T08:11:08Z</time>
</trkpt>
<trkpt lat="49.51712035574019" lon="9.381346637383103">
<ele>422.4</ele>
<time>2024-05-12T08:11:09Z</time>
</trkpt>
<trkpt lat="49.51710510067642" lon="9.381391480565073">
<ele>422.6</ele>
<time>2024-05-12T08:11:10Z</time>
</trkpt>
<trkpt lat="49.51709747314453" lon="9.38143632374704">
<ele>422.6</ele>
<time>2024-05-12T08:11:11Z</time>
</trkpt>
<trkpt lat="49.517085989937186" lon="9.381483010947704">
<ele>423</ele>
<time>2024-05-12T08:11:12Z</time>
</trkpt>
<trkpt lat="49.51707450672984" lon="9.381529781967402">
<ele>423.2</ele>
<time>2024-05-12T08:11:13Z</time>
</trkpt>
<trkpt lat="49.51706310734153" lon="9.381576469168069">
<ele>423.4</ele>
<time>2024-05-12T08:11:14Z</time>
</trkpt>
<trkpt lat="49.51705162413418" lon="9.381625168025494">
<ele>423.4</ele>
<time>2024-05-12T08:11:15Z</time>
</trkpt>
<trkpt lat="49.51703636907041" lon="9.381674705073236">
<ele>423.6</ele>
<time>2024-05-12T08:11:16Z</time>
</trkpt>
<trkpt lat="49.5170249696821" lon="9.381725247949362">
<ele>423.8</ele>
<time>2024-05-12T08:11:17Z</time>
</trkpt>
<trkpt lat="49.51701348647475" lon="9.381774868816136">
<ele>424</ele>
<time>2024-05-12T08:11:18Z</time>
</trkpt>
<trkpt lat="49.51699823141098" lon="9.38182633370161">
<ele>424</ele>
<time>2024-05-12T08:11:19Z</time>
</trkpt>
<trkpt lat="49.51698297634721" lon="9.381875032559035">
<ele>424</ele>
<time>2024-05-12T08:11:20Z</time>
</trkpt>
<trkpt lat="49.51696772128344" lon="9.38192649744451">
<ele>424.2</ele>
<time>2024-05-12T08:11:21Z</time>
</trkpt>
<trkpt lat="49.516952466219664" lon="9.381979890167711">
<ele>424.2</ele>
<time>2024-05-12T08:11:22Z</time>
</trkpt>
<trkpt lat="49.51693721115589" lon="9.382033282890916">
<ele>424.2</ele>
<time>2024-05-12T08:11:23Z</time>
</trkpt>
<trkpt lat="49.51692581176758" lon="9.382088603451848">
<ele>424.2</ele>
<time>2024-05-12T08:11:24Z</time>
</trkpt>
<trkpt lat="49.516910472884774" lon="9.38214199617505">
<ele>424.2</ele>
<time>2024-05-12T08:11:25Z</time>
</trkpt>
<trkpt lat="49.516895217821" lon="9.382194466888905">
<ele>424.2</ele>
<time>2024-05-12T08:11:26Z</time>
</trkpt>
<trkpt lat="49.51687996275723" lon="9.382247859612107">
<ele>424.2</ele>
<time>2024-05-12T08:11:27Z</time>
</trkpt>
<trkpt lat="49.51686856336892" lon="9.38230125233531">
<ele>424.2</ele>
<time>2024-05-12T08:11:28Z</time>
</trkpt>
<trkpt lat="49.516853308305144" lon="9.3823604285717">
<ele>424.2</ele>
<time>2024-05-12T08:11:29Z</time>
</trkpt>
<trkpt lat="49.51683805324137" lon="9.38242337666452">
<ele>424.2</ele>
<time>2024-05-12T08:11:30Z</time>
</trkpt>
<trkpt lat="49.5168227981776" lon="9.382492024451494">
<ele>424.2</ele>
<time>2024-05-12T08:11:31Z</time>
</trkpt>
<trkpt lat="49.51680368743837" lon="9.382568299770355">
<ele>424.2</ele>
<time>2024-05-12T08:11:32Z</time>
</trkpt>
<trkpt lat="49.5167884323746" lon="9.382650358602405">
<ele>424.2</ele>
<time>2024-05-12T08:11:33Z</time>
</trkpt>
<trkpt lat="49.51676554977894" lon="9.3827351834625">
<ele>424</ele>
<time>2024-05-12T08:11:34Z</time>
</trkpt>
<trkpt lat="49.516750294715166" lon="9.382820092141628">
<ele>423.8</ele>
<time>2024-05-12T08:11:35Z</time>
</trkpt>
<trkpt lat="49.516735039651394" lon="9.382907850667834">
<ele>423.8</ele>
<time>2024-05-12T08:11:36Z</time>
</trkpt>
<trkpt lat="49.51671978458762" lon="9.38299845904112">
<ele>423.6</ele>
<time>2024-05-12T08:11:37Z</time>
</trkpt>
<trkpt lat="49.51670830138028" lon="9.38309283927083">
<ele>423.4</ele>
<time>2024-05-12T08:11:38Z</time>
</trkpt>
<trkpt lat="49.51668927446008" lon="9.383188225328922">
<ele>423.2</ele>
<time>2024-05-12T08:11:39Z</time>
</trkpt>
<trkpt lat="49.516674019396305" lon="9.38328830525279">
<ele>423</ele>
<time>2024-05-12T08:11:40Z</time>
</trkpt>
<trkpt lat="49.51665876433253" lon="9.383384697139263">
<ele>422.6</ele>
<time>2024-05-12T08:11:41Z</time>
</trkpt>
<trkpt lat="49.51664350926876" lon="9.383482933044434">
<ele>422.2</ele>
<time>2024-05-12T08:11:42Z</time>
</trkpt>
<trkpt lat="49.51662825420499" lon="9.383573457598686">
<ele>421.8</ele>
<time>2024-05-12T08:11:43Z</time>
</trkpt>
<trkpt lat="49.5166206266731" lon="9.383660294115543">
<ele>421.2</ele>
<time>2024-05-12T08:11:44Z</time>
</trkpt>
<trkpt lat="49.51661677099764" lon="9.383743274956942">
<ele>420.6</ele>
<time>2024-05-12T08:11:45Z</time>
</trkpt>
<trkpt lat="49.51660914346576" lon="9.383828099817038">
<ele>420</ele>
<time>2024-05-12T08:11:46Z</time>
</trkpt>
<trkpt lat="49.51660151593387" lon="9.383919714018704">
<ele>419.4</ele>
<time>2024-05-12T08:11:47Z</time>
</trkpt>
<trkpt lat="49.51659011654556" lon="9.384011244401336">
<ele>418.6</ele>
<time>2024-05-12T08:11:48Z</time>
</trkpt>
<trkpt lat="49.51657863333821" lon="9.384103696793318">
<ele>417.8</ele>
<time>2024-05-12T08:11:49Z</time>
</trkpt>
<trkpt lat="49.51656337827444" lon="9.384201932698488">
<ele>417</ele>
<time>2024-05-12T08:11:50Z</time>
</trkpt>
<trkpt lat="49.51654812321067" lon="9.384306874126196">
<ele>416.4</ele>
<time>2024-05-12T08:11:51Z</time>
</trkpt>
<trkpt lat="49.51654812321067" lon="9.38442036509514">
<ele>415.6</ele>
<time>2024-05-12T08:11:52Z</time>
</trkpt>
<trkpt lat="49.51653664000333" lon="9.384543411433697">
<ele>415</ele>
<time>2024-05-12T08:11:53Z</time>
</trkpt>
<trkpt lat="49.51652524061501" lon="9.38465690240264">
<ele>414.2</ele>
<time>2024-05-12T08:11:54Z</time>
</trkpt>
<trkpt lat="49.516513757407665" lon="9.384771315380933">
<ele>413.6</ele>
<time>2024-05-12T08:11:55Z</time>
</trkpt>
<trkpt lat="49.51650998555124" lon="9.384886734187605">
<ele>413</ele>
<time>2024-05-12T08:11:56Z</time>
</trkpt>
<trkpt lat="49.51650235801935" lon="9.384998297318816">
<ele>412.2</ele>
<time>2024-05-12T08:11:57Z</time>
</trkpt>
<trkpt lat="49.51649087481201" lon="9.38510986045003">
<ele>411.4</ele>
<time>2024-05-12T08:11:58Z</time>
</trkpt>
<trkpt lat="49.51648710295558" lon="9.385219495743511">
<ele>410.4</ele>
<time>2024-05-12T08:11:59Z</time>
</trkpt>
<trkpt lat="49.516475619748235" lon="9.385334914550183">
<ele>409.6</ele>
<time>2024-05-12T08:12:00Z</time>
</trkpt>
<trkpt lat="49.51646799221635" lon="9.385451255366206">
<ele>408.8</ele>
<time>2024-05-12T08:12:01Z</time>
</trkpt>
<trkpt lat="49.516452737152576" lon="9.385575223714111">
<ele>408</ele>
<time>2024-05-12T08:12:02Z</time>
</trkpt>
<trkpt lat="49.51644133776426" lon="9.385693492367864">
<ele>407.2</ele>
<time>2024-05-12T08:12:03Z</time>
</trkpt>
<trkpt lat="49.51642985455692" lon="9.385813688859344">
<ele>406.2</ele>
<time>2024-05-12T08:12:04Z</time>
</trkpt>
<trkpt lat="49.51641082763672" lon="9.385930029675364">
<ele>405</ele>
<time>2024-05-12T08:12:05Z</time>
</trkpt>
<trkpt lat="49.51638786122203" lon="9.386046370491384">
<ele>404</ele>
<time>2024-05-12T08:12:06Z</time>
</trkpt>
<trkpt lat="49.51636497862637" lon="9.386170338839293">
<ele>403</ele>
<time>2024-05-12T08:12:07Z</time>
</trkpt>
<trkpt lat="49.5163306966424" lon="9.386288607493045">
<ele>402</ele>
<time>2024-05-12T08:12:08Z</time>
</trkpt>
<trkpt lat="49.516300186514854" lon="9.386416431516407">
<ele>401.2</ele>
<time>2024-05-12T08:12:09Z</time>
</trkpt>
<trkpt lat="49.516262048855424" lon="9.386540399864316">
<ele>400.2</ele>
<time>2024-05-12T08:12:10Z</time>
</trkpt>
<trkpt lat="49.51622382737696" lon="9.386665290221572">
<ele>399.2</ele>
<time>2024-05-12T08:12:11Z</time>
</trkpt>
<trkpt lat="49.516178062185645" lon="9.38679026439786">
<ele>398.4</ele>
<time>2024-05-12T08:12:12Z</time>
</trkpt>
<trkpt lat="49.51613615266979" lon="9.386910377070308">
<ele>397.4</ele>
<time>2024-05-12T08:12:13Z</time>
</trkpt>
<trkpt lat="49.5160941593349" lon="9.387033423408866">
<ele>396.4</ele>
<time>2024-05-12T08:12:14Z</time>
</trkpt>
<trkpt lat="49.51605216600001" lon="9.387154541909696">
<ele>395.6</ele>
<time>2024-05-12T08:12:15Z</time>
</trkpt>
<trkpt lat="49.51601402834058" lon="9.387278510257602">
<ele>394.6</ele>
<time>2024-05-12T08:12:16Z</time>
</trkpt>
<trkpt lat="49.51597589068115" lon="9.38739962875843">
<ele>393.8</ele>
<time>2024-05-12T08:12:17Z</time>
</trkpt>
<trkpt lat="49.515941608697176" lon="9.387524602934718">
<ele>393</ele>
<time>2024-05-12T08:12:18Z</time>
</trkpt>
<trkpt lat="49.515903471037745" lon="9.387648571282623">
<ele>392.2</ele>
<time>2024-05-12T08:12:19Z</time>
</trkpt>
<trkpt lat="49.51587287709117" lon="9.38777538947761">
<ele>391.4</ele>
<time>2024-05-12T08:12:20Z</time>
</trkpt>
<trkpt lat="49.515842366963625" lon="9.387907907366753">
<ele>390.4</ele>
<time>2024-05-12T08:12:21Z</time>
</trkpt>
<trkpt lat="49.51578897424042" lon="9.388068169355392">
<ele>389.6</ele>
<time>2024-05-12T08:12:22Z</time>
</trkpt>
<trkpt lat="49.515743209049106" lon="9.388201693072917">
<ele>388.8</ele>
<time>2024-05-12T08:12:23Z</time>
</trkpt>
<trkpt lat="49.51571269892156" lon="9.38833136111498">
<ele>387.8</ele>
<time>2024-05-12T08:12:24Z</time>
</trkpt>
<trkpt lat="49.51568596065045" lon="9.388456335291266">
<ele>387</ele>
<time>2024-05-12T08:12:25Z</time>
</trkpt>
<trkpt lat="49.515663078054786" lon="9.388576447963716">
<ele>386</ele>
<time>2024-05-12T08:12:26Z</time>
</trkpt>
<trkpt lat="49.51564782299101" lon="9.388691866770388">
<ele>385.2</ele>
<time>2024-05-12T08:12:27Z</time>
</trkpt>
<trkpt lat="49.51563256792724" lon="9.38880150206387">
<ele>384.4</ele>
<time>2024-05-12T08:12:28Z</time>
</trkpt>
<trkpt lat="49.51561354100704" lon="9.388906443491578">
<ele>383.6</ele>
<time>2024-05-12T08:12:29Z</time>
</trkpt>
<trkpt lat="49.51559443026781" lon="9.389010379090903">
<ele>383</ele>
<time>2024-05-12T08:12:30Z</time>
</trkpt>
<trkpt lat="49.51557540334761" lon="9.389109537005424">
<ele>382.4</ele>
<time>2024-05-12T08:12:31Z</time>
</trkpt>
<trkpt lat="49.51555629260838" lon="9.389209700748324">
<ele>382</ele>
<time>2024-05-12T08:12:32Z</time>
</trkpt>
<trkpt lat="49.51553341001272" lon="9.389311708509922">
<ele>381.4</ele>
<time>2024-05-12T08:12:33Z</time>
</trkpt>
<trkpt lat="49.51550289988518" lon="9.389408100396397">
<ele>381</ele>
<time>2024-05-12T08:12:34Z</time>
</trkpt>
<trkpt lat="49.515468534082174" lon="9.389508180320265">
<ele>380.6</ele>
<time>2024-05-12T08:12:35Z</time>
</trkpt>
<trkpt lat="49.5154342520982" lon="9.389601638540626">
<ele>380</ele>
<time>2024-05-12T08:12:36Z</time>
</trkpt>
<trkpt lat="49.515407513827085" lon="9.389686547219751">
<ele>379.6</ele>
<time>2024-05-12T08:12:37Z</time>
</trkpt>
<trkpt lat="49.51537700369954" lon="9.389776149764655">
<ele>378.8</ele>
<time>2024-05-12T08:12:38Z</time>
</trkpt>
<trkpt lat="49.51534263789654" lon="9.38986675813794">
<ele>378.2</ele>
<time>2024-05-12T08:12:39Z</time>
</trkpt>
<trkpt lat="49.515308355912566" lon="9.389961222186685">
<ele>377.2</ele>
<time>2024-05-12T08:12:40Z</time>
</trkpt>
<trkpt lat="49.515270218253136" lon="9.390061302110553">
<ele>376.4</ele>
<time>2024-05-12T08:12:41Z</time>
</trkpt>
<trkpt lat="49.51523585245013" lon="9.390161465853453">
<ele>375.8</ele>
<time>2024-05-12T08:12:42Z</time>
</trkpt>
<trkpt lat="49.51520148664713" lon="9.390259701758623">
<ele>375</ele>
<time>2024-05-12T08:12:43Z</time>
</trkpt>
<trkpt lat="49.51516720466316" lon="9.390359865501525">
<ele>374</ele>
<time>2024-05-12T08:12:44Z</time>
</trkpt>
<trkpt lat="49.51513669453561" lon="9.390455167740583">
<ele>373.2</ele>
<time>2024-05-12T08:12:45Z</time>
</trkpt>
<trkpt lat="49.515109956264496" lon="9.390551559627056">
<ele>372.6</ele>
<time>2024-05-12T08:12:46Z</time>
</trkpt>
<trkpt lat="49.51508330181241" lon="9.390649795532228">
<ele>371.8</ele>
<time>2024-05-12T08:12:47Z</time>
</trkpt>
<trkpt lat="49.51506041921675" lon="9.390751803293824">
<ele>371.2</ele>
<time>2024-05-12T08:12:48Z</time>
</trkpt>
<trkpt lat="49.515037536621094" lon="9.390851967036724">
<ele>370.4</ele>
<time>2024-05-12T08:12:49Z</time>
</trkpt>
<trkpt lat="49.51501079834998" lon="9.39095489680767">
<ele>369.6</ele>
<time>2024-05-12T08:12:50Z</time>
</trkpt>
<trkpt lat="49.51498028822243" lon="9.39105506055057">
<ele>368.6</ele>
<time>2024-05-12T08:12:51Z</time>
</trkpt>
<trkpt lat="49.514953549951315" lon="9.391151368618011">
<ele>367.6</ele>
<time>2024-05-12T08:12:52Z</time>
</trkpt>
<trkpt lat="49.51492689549923" lon="9.391240049153566">
<ele>366.8</ele>
<time>2024-05-12T08:12:53Z</time>
</trkpt>
<trkpt lat="49.514892529696226" lon="9.391318252310157">
<ele>365.8</ele>
<time>2024-05-12T08:12:54Z</time>
</trkpt>
<trkpt lat="49.5148543920368" lon="9.39139167778194">
<ele>364.8</ele>
<time>2024-05-12T08:12:55Z</time>
</trkpt>
<trkpt lat="49.514816254377365" lon="9.391460409387946">
<ele>363.8</ele>
<time>2024-05-12T08:12:56Z</time>
</trkpt>
<trkpt lat="49.514778116717935" lon="9.391525201499462">
<ele>362.8</ele>
<time>2024-05-12T08:12:57Z</time>
</trkpt>
<trkpt lat="49.514736123383045" lon="9.391583371907473">
<ele>361.8</ele>
<time>2024-05-12T08:12:58Z</time>
</trkpt>
<trkpt lat="49.51469421386719" lon="9.391636848449709">
<ele>361</ele>
<time>2024-05-12T08:12:59Z</time>
</trkpt>
<trkpt lat="49.51464836485684" lon="9.391695018857718">
<ele>360.2</ele>
<time>2024-05-12T08:13:00Z</time>
</trkpt>
<trkpt lat="49.51460645534098" lon="9.39174841158092">
<ele>359.4</ele>
<time>2024-05-12T08:13:01Z</time>
</trkpt>
<trkpt lat="49.51456831768155" lon="9.391799876466392">
<ele>358.6</ele>
<time>2024-05-12T08:13:02Z</time>
</trkpt>
<trkpt lat="49.51453018002212" lon="9.391849497333167">
<ele>358</ele>
<time>2024-05-12T08:13:03Z</time>
</trkpt>
<trkpt lat="49.51449195854366" lon="9.391901968047025">
<ele>357.2</ele>
<time>2024-05-12T08:13:04Z</time>
</trkpt>
<trkpt lat="49.51445767655969" lon="9.391951505094768">
<ele>356.6</ele>
<time>2024-05-12T08:13:05Z</time>
</trkpt>
<trkpt lat="49.51442331075668" lon="9.391996348276734">
<ele>356</ele>
<time>2024-05-12T08:13:06Z</time>
</trkpt>
<trkpt lat="49.51439280062914" lon="9.392038341611624">
<ele>355.4</ele>
<time>2024-05-12T08:13:07Z</time>
</trkpt>
<trkpt lat="49.51436614617705" lon="9.392076479271054">
<ele>354.8</ele>
<time>2024-05-12T08:13:08Z</time>
</trkpt>
<trkpt lat="49.514339407905936" lon="9.392107911407948">
<ele>354.4</ele>
<time>2024-05-12T08:13:09Z</time>
</trkpt>
<trkpt lat="49.51431266963482" lon="9.3921431992203">
<ele>354</ele>
<time>2024-05-12T08:13:10Z</time>
</trkpt>
<trkpt lat="49.51428601518273" lon="9.392171781510116">
<ele>353.6</ele>
<time>2024-05-12T08:13:11Z</time>
</trkpt>
<trkpt lat="49.51425550505519" lon="9.39220044761896">
<ele>353.2</ele>
<time>2024-05-12T08:13:12Z</time>
</trkpt>
<trkpt lat="49.514221139252186" lon="9.392238585278392">
<ele>353</ele>
<time>2024-05-12T08:13:13Z</time>
</trkpt>
<trkpt lat="49.514186857268214" lon="9.392285272479056">
<ele>352.6</ele>
<time>2024-05-12T08:13:14Z</time>
</trkpt>
<trkpt lat="49.51415626332164" lon="9.392343442887068">
<ele>352.4</ele>
<time>2024-05-12T08:13:15Z</time>
</trkpt>
<trkpt lat="49.51413338072598" lon="9.392406390979886">
<ele>352</ele>
<time>2024-05-12T08:13:16Z</time>
</trkpt>
<trkpt lat="49.514106726273894" lon="9.392463639378548">
<ele>351.6</ele>
<time>2024-05-12T08:13:17Z</time>
</trkpt>
<trkpt lat="49.51407236047089" lon="9.392513260245323">
<ele>351.2</ele>
<time>2024-05-12T08:13:18Z</time>
</trkpt>
<trkpt lat="49.51403045095503" lon="9.39255516976118">
<ele>351</ele>
<time>2024-05-12T08:13:19Z</time>
</trkpt>
<trkpt lat="49.513988457620144" lon="9.39257805235684">
<ele>350.6</ele>
<time>2024-05-12T08:13:20Z</time>
</trkpt>
<trkpt lat="49.51393506489694" lon="9.392593307420611">
<ele>350.4</ele>
<time>2024-05-12T08:13:21Z</time>
</trkpt>
<trkpt lat="49.51388167217374" lon="9.392586685717106">
<ele>350</ele>
<time>2024-05-12T08:13:22Z</time>
</trkpt>
<trkpt lat="49.51383205130696" lon="9.392561875283718">
<ele>349.8</ele>
<time>2024-05-12T08:13:23Z</time>
</trkpt>
<trkpt lat="49.51378243044019" lon="9.392530359327791">
<ele>349.4</ele>
<time>2024-05-12T08:13:24Z</time>
</trkpt>
<trkpt lat="49.513729037716985" lon="9.392495155334473">
<ele>349.2</ele>
<time>2024-05-12T08:13:25Z</time>
</trkpt>
<trkpt lat="49.51368327252567" lon="9.392455089837313">
<ele>349</ele>
<time>2024-05-12T08:13:26Z</time>
</trkpt>
<trkpt lat="49.513629879802465" lon="9.392421646043658">
<ele>348.8</ele>
<time>2024-05-12T08:13:27Z</time>
</trkpt>
<trkpt lat="49.51357648707926" lon="9.392388286069036">
<ele>348.6</ele>
<time>2024-05-12T08:13:28Z</time>
</trkpt>
<trkpt lat="49.51352686621249" lon="9.39235869795084">
<ele>348.6</ele>
<time>2024-05-12T08:13:29Z</time>
</trkpt>
<trkpt lat="49.513473473489285" lon="9.392330115661023">
<ele>348.4</ele>
<time>2024-05-12T08:13:30Z</time>
</trkpt>
<trkpt lat="49.51341622509062" lon="9.392305305227636">
<ele>348.4</ele>
<time>2024-05-12T08:13:31Z</time>
</trkpt>
<trkpt lat="49.51336283236742" lon="9.392274795100093">
<ele>348.4</ele>
<time>2024-05-12T08:13:32Z</time>
</trkpt>
<trkpt lat="49.51330181211233" lon="9.392249984666703">
<ele>348.2</ele>
<time>2024-05-12T08:13:33Z</time>
</trkpt>
<trkpt lat="49.51324841938913" lon="9.392216624692082">
<ele>348</ele>
<time>2024-05-12T08:13:34Z</time>
</trkpt>
<trkpt lat="49.51319117099047" lon="9.39218133687973">
<ele>347.8</ele>
<time>2024-05-12T08:13:35Z</time>
</trkpt>
<trkpt lat="49.513133922591805" lon="9.39214705489576">
<ele>347.8</ele>
<time>2024-05-12T08:13:36Z</time>
</trkpt>
<trkpt lat="49.513076758012176" lon="9.3921069893986">
<ele>347.6</ele>
<time>2024-05-12T08:13:37Z</time>
</trkpt>
<trkpt lat="49.51301188208163" lon="9.392069773748515">
<ele>347.4</ele>
<time>2024-05-12T08:13:38Z</time>
</trkpt>
<trkpt lat="49.51294700615108" lon="9.392031636089088">
<ele>347.2</ele>
<time>2024-05-12T08:13:39Z</time>
</trkpt>
<trkpt lat="49.51288598589599" lon="9.391991570591928">
<ele>347.2</ele>
<time>2024-05-12T08:13:40Z</time>
</trkpt>
<trkpt lat="49.51282882131636" lon="9.391955360770226">
<ele>347</ele>
<time>2024-05-12T08:13:41Z</time>
</trkpt>
<trkpt lat="49.5127715729177" lon="9.391916217282414">
<ele>347</ele>
<time>2024-05-12T08:13:42Z</time>
</trkpt>
<trkpt lat="49.51271432451904" lon="9.391881935298445">
<ele>346.8</ele>
<time>2024-05-12T08:13:43Z</time>
</trkpt>
<trkpt lat="49.51265715993941" lon="9.391848491504788">
<ele>346.6</ele>
<time>2024-05-12T08:13:44Z</time>
</trkpt>
<trkpt lat="49.512603683397174" lon="9.391801804304125">
<ele>346.4</ele>
<time>2024-05-12T08:13:45Z</time>
</trkpt>
<trkpt lat="49.512542663142085" lon="9.391756961122155">
<ele>346</ele>
<time>2024-05-12T08:13:46Z</time>
</trkpt>
<trkpt lat="49.512485498562455" lon="9.391701640561225">
<ele>345.6</ele>
<time>2024-05-12T08:13:47Z</time>
</trkpt>
<trkpt lat="49.51243587769568" lon="9.391643470153213">
<ele>345.4</ele>
<time>2024-05-12T08:13:48Z</time>
</trkpt>
<trkpt lat="49.51239011250436" lon="9.391585299745202">
<ele>345</ele>
<time>2024-05-12T08:13:49Z</time>
</trkpt>
<trkpt lat="49.51234049163759" lon="9.391519501805304">
<ele>344.8</ele>
<time>2024-05-12T08:13:50Z</time>
</trkpt>
<trkpt lat="49.51229858212173" lon="9.391460409387946">
<ele>344.4</ele>
<time>2024-05-12T08:13:51Z</time>
</trkpt>
<trkpt lat="49.51225273311138" lon="9.391403160989285">
<ele>344.2</ele>
<time>2024-05-12T08:13:52Z</time>
</trkpt>
<trkpt lat="49.51221082359552" lon="9.391344990581274">
<ele>344</ele>
<time>2024-05-12T08:13:53Z</time>
</trkpt>
<trkpt lat="49.512168830260634" lon="9.391288748010991">
<ele>343.6</ele>
<time>2024-05-12T08:13:54Z</time>
</trkpt>
<trkpt lat="49.5121306926012" lon="9.39123627729714">
<ele>343.4</ele>
<time>2024-05-12T08:13:55Z</time>
</trkpt>
<trkpt lat="49.5120963267982" lon="9.391188584268091">
<ele>343</ele>
<time>2024-05-12T08:13:56Z</time>
</trkpt>
<trkpt lat="49.512065816670656" lon="9.391148518770931">
<ele>342.8</ele>
<time>2024-05-12T08:13:57Z</time>
</trkpt>
<trkpt lat="49.512027679011226" lon="9.391119936481118">
<ele>342.6</ele>
<time>2024-05-12T08:13:58Z</time>
</trkpt>
<trkpt lat="49.511989541351795" lon="9.391108453273771">
<ele>342.2</ele>
<time>2024-05-12T08:13:59Z</time>
</trkpt>
<trkpt lat="49.511955259367824" lon="9.391108453273771">
<ele>342</ele>
<time>2024-05-12T08:14:00Z</time>
</trkpt>
<trkpt lat="49.51192466542125" lon="9.391131335869431">
<ele>342</ele>
<time>2024-05-12T08:14:01Z</time>
</trkpt>
<trkpt lat="49.51189801096916" lon="9.39117332920432">
<ele>341.8</ele>
<time>2024-05-12T08:14:02Z</time>
</trkpt>
<trkpt lat="49.51188275590539" lon="9.391222950071096">
<ele>341.8</ele>
<time>2024-05-12T08:14:03Z</time>
</trkpt>
<trkpt lat="49.51185601763427" lon="9.391262931749225">
<ele>341.8</ele>
<time>2024-05-12T08:14:04Z</time>
</trkpt>
<trkpt lat="49.5118217356503" lon="9.39127533696592">
<ele>341.6</ele>
<time>2024-05-12T08:14:05Z</time>
</trkpt>
<trkpt lat="49.51178359799087" lon="9.39127533696592">
<ele>341.4</ele>
<time>2024-05-12T08:14:06Z</time>
</trkpt>
<trkpt lat="49.511753004044294" lon="9.391249604523182">
<ele>341.2</ele>
<time>2024-05-12T08:14:07Z</time>
</trkpt>
<trkpt lat="49.51172634959221" lon="9.391206689178944">
<ele>341</ele>
<time>2024-05-12T08:14:08Z</time>
</trkpt>
<trkpt lat="49.51170346699655" lon="9.391157068312168">
<ele>341</ele>
<time>2024-05-12T08:14:09Z</time>
</trkpt>
<trkpt lat="49.51168435625732" lon="9.391101831570268">
<ele>340.8</ele>
<time>2024-05-12T08:14:10Z</time>
</trkpt>
<trkpt lat="49.51166532933712" lon="9.391051288694143">
<ele>340.6</ele>
<time>2024-05-12T08:14:11Z</time>
</trkpt>
<trkpt lat="49.51164244674146" lon="9.391004517674446">
<ele>340.4</ele>
<time>2024-05-12T08:14:12Z</time>
</trkpt>
<trkpt lat="49.511615708470345" lon="9.390961602330208">
<ele>340.2</ele>
<time>2024-05-12T08:14:13Z</time>
</trkpt>
<trkpt lat="49.51158897019923" lon="9.39091868698597">
<ele>340</ele>
<time>2024-05-12T08:14:14Z</time>
</trkpt>
<trkpt lat="49.51156231574714" lon="9.390874849632382">
<ele>339.8</ele>
<time>2024-05-12T08:14:15Z</time>
</trkpt>
<trkpt lat="49.51153943315148" lon="9.390828078612683">
<ele>339.8</ele>
<time>2024-05-12T08:14:16Z</time>
</trkpt>
<trkpt lat="49.511512694880366" lon="9.390773763880134">
<ele>339.6</ele>
<time>2024-05-12T08:14:17Z</time>
</trkpt>
<trkpt lat="49.51148604042828" lon="9.3907184433192">
<ele>339.6</ele>
<time>2024-05-12T08:14:18Z</time>
</trkpt>
<trkpt lat="49.511455530300736" lon="9.390671672299504">
<ele>339.4</ele>
<time>2024-05-12T08:14:19Z</time>
</trkpt>
<trkpt lat="49.51142116449773" lon="9.390626829117537">
<ele>339.4</ele>
<time>2024-05-12T08:14:20Z</time>
</trkpt>
<trkpt lat="49.51137539930642" lon="9.390588691458106">
<ele>339.4</ele>
<time>2024-05-12T08:14:21Z</time>
</trkpt>
<trkpt lat="49.5113296341151" lon="9.390548625960946">
<ele>339.4</ele>
<time>2024-05-12T08:14:22Z</time>
</trkpt>
<trkpt lat="49.51128001324832" lon="9.390515265986323">
<ele>339.4</ele>
<time>2024-05-12T08:14:23Z</time>
</trkpt>
<trkpt lat="49.51122662052512" lon="9.3904819060117">
<ele>339.6</ele>
<time>2024-05-12T08:14:24Z</time>
</trkpt>
<trkpt lat="49.51117322780192" lon="9.390446618199348">
<ele>339.6</ele>
<time>2024-05-12T08:14:25Z</time>
</trkpt>
<trkpt lat="49.51111597940326" lon="9.390415186062455">
<ele>339.6</ele>
<time>2024-05-12T08:14:26Z</time>
</trkpt>
<trkpt lat="49.51105495914817" lon="9.39038367010653">
<ele>339.6</ele>
<time>2024-05-12T08:14:27Z</time>
</trkpt>
<trkpt lat="49.51099393889308" lon="9.390351232141256">
<ele>339.4</ele>
<time>2024-05-12T08:14:28Z</time>
</trkpt>
<trkpt lat="49.51093291863799" lon="9.390319800004365">
<ele>339.6</ele>
<time>2024-05-12T08:14:29Z</time>
</trkpt>
<trkpt lat="49.51087181456387" lon="9.390288284048438">
<ele>339.6</ele>
<time>2024-05-12T08:14:30Z</time>
</trkpt>
<trkpt lat="49.510807022452354" lon="9.390252996236086">
<ele>339.4</ele>
<time>2024-05-12T08:14:31Z</time>
</trkpt>
<trkpt lat="49.51073829084635" lon="9.390218714252114">
<ele>339.4</ele>
<time>2024-05-12T08:14:32Z</time>
</trkpt>
<trkpt lat="49.51066964305937" lon="9.390191975980995">
<ele>339.4</ele>
<time>2024-05-12T08:14:33Z</time>
</trkpt>
<trkpt lat="49.5106009952724" lon="9.390163393691182">
<ele>339.2</ele>
<time>2024-05-12T08:14:34Z</time>
</trkpt>
<trkpt lat="49.51052849180997" lon="9.390136655420063">
<ele>339.2</ele>
<time>2024-05-12T08:14:35Z</time>
</trkpt>
<trkpt lat="49.51045984402299" lon="9.390114778652787">
<ele>339</ele>
<time>2024-05-12T08:14:36Z</time>
</trkpt>
<trkpt lat="49.510387340560555" lon="9.390092818066478">
<ele>339</ele>
<time>2024-05-12T08:14:37Z</time>
</trkpt>
<trkpt lat="49.51031869277358" lon="9.390073707327248">
<ele>338.8</ele>
<time>2024-05-12T08:14:38Z</time>
</trkpt>
<trkpt lat="49.510250044986606" lon="9.390053674578668">
<ele>338.8</ele>
<time>2024-05-12T08:14:39Z</time>
</trkpt>
<trkpt lat="49.51018139719963" lon="9.390036575496197">
<ele>338.6</ele>
<time>2024-05-12T08:14:40Z</time>
</trkpt>
<trkpt lat="49.510112749412656" lon="9.390020314604044">
<ele>338.6</ele>
<time>2024-05-12T08:14:41Z</time>
</trkpt>
<trkpt lat="49.51004787348211" lon="9.390003131702542">
<ele>338.4</ele>
<time>2024-05-12T08:14:42Z</time>
</trkpt>
<trkpt lat="49.50997922569513" lon="9.38998787663877">
<ele>338.2</ele>
<time>2024-05-12T08:14:43Z</time>
</trkpt>
<trkpt lat="49.509914349764585" lon="9.389971699565647">
<ele>338</ele>
<time>2024-05-12T08:14:44Z</time>
</trkpt>
<trkpt lat="49.50984947383404" lon="9.389956444501877">
<ele>337.8</ele>
<time>2024-05-12T08:14:45Z</time>
</trkpt>
<trkpt lat="49.50978845357895" lon="9.389940183609724">
<ele>337.6</ele>
<time>2024-05-12T08:14:46Z</time>
</trkpt>
<trkpt lat="49.50972366146743" lon="9.389923084527254">
<ele>337.4</ele>
<time>2024-05-12T08:14:47Z</time>
</trkpt>
<trkpt lat="49.50966641306877" lon="9.389904895797372">
<ele>337.2</ele>
<time>2024-05-12T08:14:48Z</time>
</trkpt>
<trkpt lat="49.509601537138224" lon="9.3898896407336">
<ele>337</ele>
<time>2024-05-12T08:14:49Z</time>
</trkpt>
<trkpt lat="49.509540516883135" lon="9.38986960798502">
<ele>336.8</ele>
<time>2024-05-12T08:14:50Z</time>
</trkpt>
<trkpt lat="49.509479496628046" lon="9.38985150307417">
<ele>336.6</ele>
<time>2024-05-12T08:14:51Z</time>
</trkpt>
<trkpt lat="49.5094146206975" lon="9.389835326001048">
<ele>336.4</ele>
<time>2024-05-12T08:14:52Z</time>
</trkpt>
<trkpt lat="49.50934974476695" lon="9.389816215261815">
<ele>336.4</ele>
<time>2024-05-12T08:14:53Z</time>
</trkpt>
<trkpt lat="49.509284952655435" lon="9.389796182513235">
<ele>336.2</ele>
<time>2024-05-12T08:14:54Z</time>
</trkpt>
<trkpt lat="49.509223932400346" lon="9.389780005440116">
<ele>336</ele>
<time>2024-05-12T08:14:55Z</time>
</trkpt>
<trkpt lat="49.5091590564698" lon="9.389764750376344">
<ele>335.8</ele>
<time>2024-05-12T08:14:56Z</time>
</trkpt>
<trkpt lat="49.50909803621471" lon="9.389749495312572">
<ele>335.6</ele>
<time>2024-05-12T08:14:57Z</time>
</trkpt>
<trkpt lat="49.50903316028416" lon="9.38973323442042">
<ele>335.6</ele>
<time>2024-05-12T08:14:58Z</time>
</trkpt>
<trkpt lat="49.508968284353614" lon="9.389715129509568">
<ele>335.4</ele>
<time>2024-05-12T08:14:59Z</time>
</trkpt>
<trkpt lat="49.508907264098525" lon="9.389697946608068">
<ele>335.2</ele>
<time>2024-05-12T08:15:00Z</time>
</trkpt>
<trkpt lat="49.50884238816798" lon="9.389683697372677">
<ele>335.2</ele>
<time>2024-05-12T08:15:01Z</time>
</trkpt>
<trkpt lat="49.508773740381" lon="9.389664586633444">
<ele>335</ele>
<time>2024-05-12T08:15:02Z</time>
</trkpt>
<trkpt lat="49.508712720125914" lon="9.389646481722592">
<ele>335</ele>
<time>2024-05-12T08:15:03Z</time>
</trkpt>
<trkpt lat="49.508647844195366" lon="9.389628376811745">
<ele>335</ele>
<time>2024-05-12T08:15:04Z</time>
</trkpt>
<trkpt lat="49.50857919640839" lon="9.389610271900892">
<ele>335</ele>
<time>2024-05-12T08:15:05Z</time>
</trkpt>
<trkpt lat="49.508510548621416" lon="9.38959116116166">
<ele>335</ele>
<time>2024-05-12T08:15:06Z</time>
</trkpt>
<trkpt lat="49.50844190083444" lon="9.38957305625081">
<ele>334.8</ele>
<time>2024-05-12T08:15:07Z</time>
</trkpt>
<trkpt lat="49.50837702490389" lon="9.389552101492882">
<ele>334.8</ele>
<time>2024-05-12T08:15:08Z</time>
</trkpt>
<trkpt lat="49.50830837711692" lon="9.389532068744302">
<ele>334.8</ele>
<time>2024-05-12T08:15:09Z</time>
</trkpt>
<trkpt lat="49.508239729329944" lon="9.38951681368053">
<ele>334.8</ele>
<time>2024-05-12T08:15:10Z</time>
</trkpt>
<trkpt lat="49.50817485339939" lon="9.389506336301563">
<ele>334.6</ele>
<time>2024-05-12T08:15:11Z</time>
</trkpt>
<trkpt lat="49.50810620561242" lon="9.38949292525649">
<ele>334.6</ele>
<time>2024-05-12T08:15:12Z</time>
</trkpt>
<trkpt lat="49.50804518535733" lon="9.38947482034564">
<ele>334.4</ele>
<time>2024-05-12T08:15:13Z</time>
</trkpt>
<trkpt lat="49.50798408128321" lon="9.38945478759706">
<ele>334.4</ele>
<time>2024-05-12T08:15:14Z</time>
</trkpt>
<trkpt lat="49.507919289171696" lon="9.389439532533288">
<ele>334.2</ele>
<time>2024-05-12T08:15:15Z</time>
</trkpt>
<trkpt lat="49.507862040773034" lon="9.389421427622436">
<ele>334.2</ele>
<time>2024-05-12T08:15:16Z</time>
</trkpt>
<trkpt lat="49.507801020517945" lon="9.389406172558663">
<ele>334.2</ele>
<time>2024-05-12T08:15:17Z</time>
</trkpt>
<trkpt lat="49.50774000026286" lon="9.389389911666512">
<ele>334</ele>
<time>2024-05-12T08:15:18Z</time>
</trkpt>
<trkpt lat="49.50767898000777" lon="9.389373734593391">
<ele>334</ele>
<time>2024-05-12T08:15:19Z</time>
</trkpt>
<trkpt lat="49.50761410407722" lon="9.38935847952962">
<ele>333.8</ele>
<time>2024-05-12T08:15:20Z</time>
</trkpt>
<trkpt lat="49.50755308382213" lon="9.389343224465849">
<ele>333.8</ele>
<time>2024-05-12T08:15:21Z</time>
</trkpt>
<trkpt lat="49.50749206356704" lon="9.389333669096231">
<ele>333.6</ele>
<time>2024-05-12T08:15:22Z</time>
</trkpt>
<trkpt lat="49.50743481516838" lon="9.38931841403246">
<ele>333.4</ele>
<time>2024-05-12T08:15:23Z</time>
</trkpt>
<trkpt lat="49.50737756676972" lon="9.389305086806417">
<ele>333.4</ele>
<time>2024-05-12T08:15:24Z</time>
</trkpt>
<trkpt lat="49.50732040219009" lon="9.389289831742644">
<ele>333.2</ele>
<time>2024-05-12T08:15:25Z</time>
</trkpt>
<trkpt lat="49.50725929811597" lon="9.389280276373029">
<ele>333.2</ele>
<time>2024-05-12T08:15:26Z</time>
</trkpt>
<trkpt lat="49.50719827786088" lon="9.389265021309257">
<ele>333</ele>
<time>2024-05-12T08:15:27Z</time>
</trkpt>
<trkpt lat="49.50714111328125" lon="9.389247838407757">
<ele>333</ele>
<time>2024-05-12T08:15:28Z</time>
</trkpt>
<trkpt lat="49.50708000920713" lon="9.389233589172363">
<ele>333</ele>
<time>2024-05-12T08:15:29Z</time>
</trkpt>
<trkpt lat="49.50701898895204" lon="9.38921825028956">
<ele>333</ele>
<time>2024-05-12T08:15:30Z</time>
</trkpt>
<trkpt lat="49.50695796869695" lon="9.389202995225787">
<ele>333</ele>
<time>2024-05-12T08:15:31Z</time>
</trkpt>
<trkpt lat="49.50688932090998" lon="9.389188745990396">
<ele>333</ele>
<time>2024-05-12T08:15:32Z</time>
</trkpt>
<trkpt lat="49.50682830065489" lon="9.389173490926623">
<ele>333</ele>
<time>2024-05-12T08:15:33Z</time>
</trkpt>
<trkpt lat="49.50676342472434" lon="9.389158235862851">
<ele>333</ele>
<time>2024-05-12T08:15:34Z</time>
</trkpt>
<trkpt lat="49.506694776937366" lon="9.389144824817777">
<ele>333</ele>
<time>2024-05-12T08:15:35Z</time>
</trkpt>
<trkpt lat="49.50662990100682" lon="9.389129569754004">
<ele>332.8</ele>
<time>2024-05-12T08:15:36Z</time>
</trkpt>
<trkpt lat="49.50656502507627" lon="9.389118170365691">
<ele>332.6</ele>
<time>2024-05-12T08:15:37Z</time>
</trkpt>
<trkpt lat="49.50650400482118" lon="9.389101909473538">
<ele>332.6</ele>
<time>2024-05-12T08:15:38Z</time>
</trkpt>
<trkpt lat="49.506439128890634" lon="9.389086654409766">
<ele>332.4</ele>
<time>2024-05-12T08:15:39Z</time>
</trkpt>
<trkpt lat="49.506378108635545" lon="9.389068549498916">
<ele>332.2</ele>
<time>2024-05-12T08:15:40Z</time>
</trkpt>
<trkpt lat="49.50631331652403" lon="9.389051366597414">
<ele>332.2</ele>
<time>2024-05-12T08:15:41Z</time>
</trkpt>
<trkpt lat="49.50625221244991" lon="9.389036111533642">
<ele>332</ele>
<time>2024-05-12T08:15:42Z</time>
</trkpt>
<trkpt lat="49.50618742033839" lon="9.38901993446052">
<ele>331.8</ele>
<time>2024-05-12T08:15:43Z</time>
</trkpt>
<trkpt lat="49.506122544407845" lon="9.389003673568368">
<ele>331.8</ele>
<time>2024-05-12T08:15:44Z</time>
</trkpt>
<trkpt lat="49.5060576684773" lon="9.388988418504596">
<ele>332</ele>
<time>2024-05-12T08:15:45Z</time>
</trkpt>
<trkpt lat="49.50599664822221" lon="9.388973163440824">
<ele>332</ele>
<time>2024-05-12T08:15:46Z</time>
</trkpt>
<trkpt lat="49.50593177229166" lon="9.38896176405251">
<ele>331.8</ele>
<time>2024-05-12T08:15:47Z</time>
</trkpt>
<trkpt lat="49.505866980180144" lon="9.388951286673546">
<ele>331.8</ele>
<time>2024-05-12T08:15:48Z</time>
</trkpt>
<trkpt lat="49.5058021042496" lon="9.388937875628471">
<ele>331.6</ele>
<time>2024-05-12T08:15:49Z</time>
</trkpt>
<trkpt lat="49.50573345646262" lon="9.388924548402429">
<ele>331.6</ele>
<time>2024-05-12T08:15:50Z</time>
</trkpt>
<trkpt lat="49.505668580532074" lon="9.388908371329308">
<ele>331.4</ele>
<time>2024-05-12T08:15:51Z</time>
</trkpt>
<trkpt lat="49.5055999327451" lon="9.388888338580728">
<ele>331.4</ele>
<time>2024-05-12T08:15:52Z</time>
</trkpt>
<trkpt lat="49.50553128495813" lon="9.388868305832148">
<ele>331.2</ele>
<time>2024-05-12T08:15:53Z</time>
</trkpt>
<trkpt lat="49.50546263717115" lon="9.38884542323649">
<ele>331.2</ele>
<time>2024-05-12T08:15:54Z</time>
</trkpt>
<trkpt lat="49.50539390556514" lon="9.388819690793753">
<ele>331</ele>
<time>2024-05-12T08:15:55Z</time>
</trkpt>
<trkpt lat="49.50532148592174" lon="9.388798652216792">
<ele>330.8</ele>
<time>2024-05-12T08:15:56Z</time>
</trkpt>
<trkpt lat="49.50524898245931" lon="9.388778619468212">
<ele>330.8</ele>
<time>2024-05-12T08:15:57Z</time>
</trkpt>
<trkpt lat="49.505172707140446" lon="9.388758586719632">
<ele>330.6</ele>
<time>2024-05-12T08:15:58Z</time>
</trkpt>
<trkpt lat="49.505096431821585" lon="9.388736709952354">
<ele>330.4</ele>
<time>2024-05-12T08:15:59Z</time>
</trkpt>
<trkpt lat="49.505016300827265" lon="9.388716677203774">
<ele>330.2</ele>
<time>2024-05-12T08:16:00Z</time>
</trkpt>
<trkpt lat="49.5049400255084" lon="9.388698572292924">
<ele>330.2</ele>
<time>2024-05-12T08:16:01Z</time>
</trkpt>
<trkpt lat="49.50485989451408" lon="9.388680383563042">
<ele>330</ele>
<time>2024-05-12T08:16:02Z</time>
</trkpt>
<trkpt lat="49.50478739105165" lon="9.388660350814462">
<ele>329.8</ele>
<time>2024-05-12T08:16:03Z</time>
</trkpt>
<trkpt lat="49.504714887589216" lon="9.388641323894262">
<ele>329.6</ele>
<time>2024-05-12T08:16:04Z</time>
</trkpt>
<trkpt lat="49.504642467945814" lon="9.388621291145682">
<ele>329.6</ele>
<time>2024-05-12T08:16:05Z</time>
</trkpt>
<trkpt lat="49.50456996448338" lon="9.38860695809126">
<ele>329.4</ele>
<time>2024-05-12T08:16:06Z</time>
</trkpt>
<trkpt lat="49.504501316696405" lon="9.388601258397102">
<ele>329.4</ele>
<time>2024-05-12T08:16:07Z</time>
</trkpt>
<trkpt lat="49.50443266890943" lon="9.38860695809126">
<ele>329.2</ele>
<time>2024-05-12T08:16:08Z</time>
</trkpt>
<trkpt lat="49.504363937303424" lon="9.388614585623143">
<ele>329</ele>
<time>2024-05-12T08:16:09Z</time>
</trkpt>
<trkpt lat="49.50429914519191" lon="9.388629840686916">
<ele>328.8</ele>
<time>2024-05-12T08:16:10Z</time>
</trkpt>
<trkpt lat="49.50423426926136" lon="9.38864509575069">
<ele>328.6</ele>
<time>2024-05-12T08:16:11Z</time>
</trkpt>
<trkpt lat="49.50416939333081" lon="9.388663284480572">
<ele>328.6</ele>
<time>2024-05-12T08:16:12Z</time>
</trkpt>
<trkpt lat="49.5041046012193" lon="9.388683317229152">
<ele>328.4</ele>
<time>2024-05-12T08:16:13Z</time>
</trkpt>
<trkpt lat="49.504043497145176" lon="9.388701422140002">
<ele>328.2</ele>
<time>2024-05-12T08:16:14Z</time>
</trkpt>
<trkpt lat="49.50398247689009" lon="9.388718605041504">
<ele>328</ele>
<time>2024-05-12T08:16:15Z</time>
</trkpt>
<trkpt lat="49.503921456635" lon="9.388734782114623">
<ele>328</ele>
<time>2024-05-12T08:16:16Z</time>
</trkpt>
<trkpt lat="49.50386420823634" lon="9.388751965016128">
<ele>327.8</ele>
<time>2024-05-12T08:16:17Z</time>
</trkpt>
<trkpt lat="49.503810815513134" lon="9.388772919774055">
<ele>327.8</ele>
<time>2024-05-12T08:16:18Z</time>
</trkpt>
<trkpt lat="49.50376127846539" lon="9.388816757127644">
<ele>327.6</ele>
<time>2024-05-12T08:16:19Z</time>
</trkpt>
<trkpt lat="49.50373454019427" lon="9.388876855373384">
<ele>327.6</ele>
<time>2024-05-12T08:16:20Z</time>
</trkpt>
<trkpt lat="49.5037192851305" lon="9.388956986367702">
<ele>327.4</ele>
<time>2024-05-12T08:16:21Z</time>
</trkpt>
<trkpt lat="49.503715513274074" lon="9.389038039371371">
<ele>327.4</ele>
<time>2024-05-12T08:16:22Z</time>
</trkpt>
<trkpt lat="49.5037192851305" lon="9.389129569754004">
<ele>327.2</ele>
<time>2024-05-12T08:16:23Z</time>
</trkpt>
<trkpt lat="49.5037192851305" lon="9.38921825028956">
<ele>327.2</ele>
<time>2024-05-12T08:16:24Z</time>
</trkpt>
<trkpt lat="49.503715513274074" lon="9.389301231130958">
<ele>327</ele>
<time>2024-05-12T08:16:25Z</time>
</trkpt>
<trkpt lat="49.50369640253484" lon="9.389381362125278">
<ele>327</ele>
<time>2024-05-12T08:16:26Z</time>
</trkpt>
<trkpt lat="49.50366203673184" lon="9.38945285975933">
<ele>327</ele>
<time>2024-05-12T08:16:27Z</time>
</trkpt>
<trkpt lat="49.503612499684095" lon="9.389503402635455">
<ele>327</ele>
<time>2024-05-12T08:16:28Z</time>
</trkpt>
<trkpt lat="49.503555251285434" lon="9.389538690447807">
<ele>327</ele>
<time>2024-05-12T08:16:29Z</time>
</trkpt>
<trkpt lat="49.50349800288677" lon="9.389564506709576">
<ele>327</ele>
<time>2024-05-12T08:16:30Z</time>
</trkpt>
<trkpt lat="49.50344461016357" lon="9.38959308899939">
<ele>327</ele>
<time>2024-05-12T08:16:31Z</time>
</trkpt>
<trkpt lat="49.50338744558394" lon="9.389621671289206">
<ele>327.2</ele>
<time>2024-05-12T08:16:32Z</time>
</trkpt>
<trkpt lat="49.503333969041705" lon="9.389644553884864">
<ele>327.2</ele>
<time>2024-05-12T08:16:33Z</time>
</trkpt>
<trkpt lat="49.50328443199396" lon="9.389668442308905">
<ele>327</ele>
<time>2024-05-12T08:16:34Z</time>
</trkpt>
<trkpt lat="49.503234811127186" lon="9.389695096760988">
<ele>327</ele>
<time>2024-05-12T08:16:35Z</time>
</trkpt>
<trkpt lat="49.50317756272853" lon="9.389726612716911">
<ele>327</ele>
<time>2024-05-12T08:16:36Z</time>
</trkpt>
<trkpt lat="49.50312417000532" lon="9.389755195006728">
<ele>327</ele>
<time>2024-05-12T08:16:37Z</time>
</trkpt>
<trkpt lat="49.503078404814005" lon="9.389782855287194">
<ele>327</ele>
<time>2024-05-12T08:16:38Z</time>
</trkpt>
<trkpt lat="49.50302886776626" lon="9.389815293252468">
<ele>327.2</ele>
<time>2024-05-12T08:16:39Z</time>
</trkpt>
<trkpt lat="49.50298301875591" lon="9.38984865322709">
<ele>327.4</ele>
<time>2024-05-12T08:16:40Z</time>
</trkpt>
<trkpt lat="49.50293725356459" lon="9.389882013201714">
<ele>327.4</ele>
<time>2024-05-12T08:16:41Z</time>
</trkpt>
<trkpt lat="49.50288771651685" lon="9.389915456995368">
<ele>327.6</ele>
<time>2024-05-12T08:16:42Z</time>
</trkpt>
<trkpt lat="49.502841867506504" lon="9.389944961294532">
<ele>327.6</ele>
<time>2024-05-12T08:16:43Z</time>
</trkpt>
<trkpt lat="49.50279610231519" lon="9.389978405088186">
<ele>327.6</ele>
<time>2024-05-12T08:16:44Z</time>
</trkpt>
<trkpt lat="49.50275033712387" lon="9.39000983722508">
<ele>327.6</ele>
<time>2024-05-12T08:16:45Z</time>
</trkpt>
<trkpt lat="49.50270842760801" lon="9.390036575496197">
<ele>327.6</ele>
<time>2024-05-12T08:16:46Z</time>
</trkpt>
<trkpt lat="49.50267020612955" lon="9.390060380101204">
<ele>327.6</ele>
<time>2024-05-12T08:16:47Z</time>
</trkpt>
<trkpt lat="49.50262829661369" lon="9.390078485012054">
<ele>327.6</ele>
<time>2024-05-12T08:16:48Z</time>
</trkpt>
<trkpt lat="49.50259015895426" lon="9.390085190534592">
<ele>327.6</ele>
<time>2024-05-12T08:16:49Z</time>
</trkpt>
<trkpt lat="49.50254816561937" lon="9.390071863308547">
<ele>327.6</ele>
<time>2024-05-12T08:16:50Z</time>
</trkpt>
<trkpt lat="49.50252151116729" lon="9.390031797811387">
<ele>327.6</ele>
<time>2024-05-12T08:16:51Z</time>
</trkpt>
<trkpt lat="49.5024985447526" lon="9.389973627403378">
<ele>327.6</ele>
<time>2024-05-12T08:16:52Z</time>
</trkpt>
<trkpt lat="49.5024795178324" lon="9.389911601319907">
<ele>327.6</ele>
<time>2024-05-12T08:16:53Z</time>
</trkpt>
<trkpt lat="49.50246040709317" lon="9.38984672538936">
<ele>327.6</ele>
<time>2024-05-12T08:16:54Z</time>
</trkpt>
<trkpt lat="49.50243752449751" lon="9.389781933277844">
<ele>327.6</ele>
<time>2024-05-12T08:16:55Z</time>
</trkpt>
<trkpt lat="49.50241849757731" lon="9.389717057347298">
<ele>327.6</ele>
<time>2024-05-12T08:16:56Z</time>
</trkpt>
<trkpt lat="49.50239561498165" lon="9.38965318724513">
<ele>327.6</ele>
<time>2024-05-12T08:16:57Z</time>
</trkpt>
<trkpt lat="49.50237650424242" lon="9.389599794521928">
<ele>327.6</ele>
<time>2024-05-12T08:16:58Z</time>
</trkpt>
<trkpt lat="49.50235747732222" lon="9.389552101492882">
<ele>327.6</ele>
<time>2024-05-12T08:16:59Z</time>
</trkpt>
<trkpt lat="49.50233459472656" lon="9.3895148858428">
<ele>327.4</ele>
<time>2024-05-12T08:17:00Z</time>
</trkpt>
<trkpt lat="49.50231162831187" lon="9.389488147571685">
<ele>327.4</ele>
<time>2024-05-12T08:17:01Z</time>
</trkpt>
<trkpt lat="49.50228497385979" lon="9.389481525868176">
<ele>327.4</ele>
<time>2024-05-12T08:17:02Z</time>
</trkpt>
<trkpt lat="49.502250608056784" lon="9.389512035995722">
<ele>327.2</ele>
<time>2024-05-12T08:17:03Z</time>
</trkpt>
<trkpt lat="49.502208698540926" lon="9.38955495133996">
<ele>327.2</ele>
<time>2024-05-12T08:17:04Z</time>
</trkpt>
<trkpt lat="49.50216670520604" lon="9.389597866684198">
<ele>327</ele>
<time>2024-05-12T08:17:05Z</time>
</trkpt>
<trkpt lat="49.50212094001472" lon="9.389637932181358">
<ele>327</ele>
<time>2024-05-12T08:17:06Z</time>
</trkpt>
<trkpt lat="49.5020751748234" lon="9.389681769534944">
<ele>327</ele>
<time>2024-05-12T08:17:07Z</time>
</trkpt>
<trkpt lat="49.50202940963209" lon="9.389726612716911">
<ele>327</ele>
<time>2024-05-12T08:17:08Z</time>
</trkpt>
<trkpt lat="49.50197978876531" lon="9.389769528061152">
<ele>327</ele>
<time>2024-05-12T08:17:09Z</time>
</trkpt>
<trkpt lat="49.50193779543042" lon="9.38981143757701">
<ele>326.8</ele>
<time>2024-05-12T08:17:10Z</time>
</trkpt>
<trkpt lat="49.501892030239105" lon="9.3898534309119">
<ele>326.8</ele>
<time>2024-05-12T08:17:11Z</time>
</trkpt>
<trkpt lat="49.50185012072325" lon="9.38989156857133">
<ele>326.8</ele>
<time>2024-05-12T08:17:12Z</time>
</trkpt>
<trkpt lat="49.50180812738836" lon="9.38992970623076">
<ele>327</ele>
<time>2024-05-12T08:17:13Z</time>
</trkpt>
<trkpt lat="49.50176613405347" lon="9.389971699565647">
<ele>327</ele>
<time>2024-05-12T08:17:14Z</time>
</trkpt>
<trkpt lat="49.50172422453761" lon="9.390011765062807">
<ele>327</ele>
<time>2024-05-12T08:17:15Z</time>
</trkpt>
<trkpt lat="49.501678459346294" lon="9.390060380101204">
<ele>327.2</ele>
<time>2024-05-12T08:17:16Z</time>
</trkpt>
<trkpt lat="49.501636466011405" lon="9.390111844986675">
<ele>327.2</ele>
<time>2024-05-12T08:17:17Z</time>
</trkpt>
<trkpt lat="49.5016021002084" lon="9.39016817137599">
<ele>327.4</ele>
<time>2024-05-12T08:17:18Z</time>
</trkpt>
<trkpt lat="49.50157159008086" lon="9.390230113640428">
<ele>327.4</ele>
<time>2024-05-12T08:17:19Z</time>
</trkpt>
<trkpt lat="49.50154493562877" lon="9.390293061733246">
<ele>327.4</ele>
<time>2024-05-12T08:17:20Z</time>
</trkpt>
<trkpt lat="49.50152205303311" lon="9.390357937663794">
<ele>327.6</ele>
<time>2024-05-12T08:17:21Z</time>
</trkpt>
<trkpt lat="49.501495314762" lon="9.39042180776596">
<ele>327.6</ele>
<time>2024-05-12T08:17:22Z</time>
</trkpt>
<trkpt lat="49.50147243216634" lon="9.390489533543589">
<ele>327.6</ele>
<time>2024-05-12T08:17:23Z</time>
</trkpt>
<trkpt lat="49.50145332142711" lon="9.390560109168293">
<ele>327.6</ele>
<time>2024-05-12T08:17:24Z</time>
</trkpt>
<trkpt lat="49.501438066363335" lon="9.390631606802344">
<ele>327.6</ele>
<time>2024-05-12T08:17:25Z</time>
</trkpt>
<trkpt lat="49.501419039443135" lon="9.3907012604177">
<ele>327.6</ele>
<time>2024-05-12T08:17:26Z</time>
</trkpt>
<trkpt lat="49.501399928703904" lon="9.390771836042404">
<ele>327.6</ele>
<time>2024-05-12T08:17:27Z</time>
</trkpt>
<trkpt lat="49.501380901783705" lon="9.39083855599165">
<ele>327.4</ele>
<time>2024-05-12T08:17:28Z</time>
</trkpt>
<trkpt lat="49.501361791044474" lon="9.390906281769276">
<ele>327.4</ele>
<time>2024-05-12T08:17:29Z</time>
</trkpt>
<trkpt lat="49.501342764124274" lon="9.39097492955625">
<ele>327.4</ele>
<time>2024-05-12T08:17:30Z</time>
</trkpt>
<trkpt lat="49.50132365338504" lon="9.391043661162255">
<ele>327.2</ele>
<time>2024-05-12T08:17:31Z</time>
</trkpt>
<trkpt lat="49.501296915113926" lon="9.391110381111504">
<ele>327.2</ele>
<time>2024-05-12T08:17:32Z</time>
</trkpt>
<trkpt lat="49.50126640498638" lon="9.39117525704205">
<ele>327.2</ele>
<time>2024-05-12T08:17:33Z</time>
</trkpt>
<trkpt lat="49.50123589485884" lon="9.39123527146876">
<ele>327</ele>
<time>2024-05-12T08:17:34Z</time>
</trkpt>
<trkpt lat="49.501201612874866" lon="9.3912935256958">
<ele>327</ele>
<time>2024-05-12T08:17:35Z</time>
</trkpt>
<trkpt lat="49.501163475215435" lon="9.391347840428352">
<ele>327</ele>
<time>2024-05-12T08:17:36Z</time>
</trkpt>
<trkpt lat="49.501121481880546" lon="9.391400311142206">
<ele>327</ele>
<time>2024-05-12T08:17:37Z</time>
</trkpt>
<trkpt lat="49.501079488545656" lon="9.391445154324174">
<ele>327</ele>
<time>2024-05-12T08:17:38Z</time>
</trkpt>
<trkpt lat="49.50103372335434" lon="9.391488069668412">
<ele>327</ele>
<time>2024-05-12T08:17:39Z</time>
</trkpt>
<trkpt lat="49.50099558569491" lon="9.391532829031348">
<ele>327</ele>
<time>2024-05-12T08:17:40Z</time>
</trkpt>
<trkpt lat="49.50095744803548" lon="9.391581527888777">
<ele>326.8</ele>
<time>2024-05-12T08:17:41Z</time>
</trkpt>
<trkpt lat="49.500923082232475" lon="9.391638692468405">
<ele>326.8</ele>
<time>2024-05-12T08:17:42Z</time>
</trkpt>
<trkpt lat="49.500888800248504" lon="9.391699712723494">
<ele>326.8</ele>
<time>2024-05-12T08:17:43Z</time>
</trkpt>
<trkpt lat="49.50085829012096" lon="9.391756961122155">
<ele>326.6</ele>
<time>2024-05-12T08:17:44Z</time>
</trkpt>
<trkpt lat="49.50083155184984" lon="9.391813203692436">
<ele>326.4</ele>
<time>2024-05-12T08:17:45Z</time>
</trkpt>
<trkpt lat="49.50079726986587" lon="9.391868524253368">
<ele>326.4</ele>
<time>2024-05-12T08:17:46Z</time>
</trkpt>
<trkpt lat="49.50075904838741" lon="9.391922922804952">
<ele>326.2</ele>
<time>2024-05-12T08:17:47Z</time>
</trkpt>
<trkpt lat="49.50072091072798" lon="9.391975393518806">
<ele>326</ele>
<time>2024-05-12T08:17:48Z</time>
</trkpt>
<trkpt lat="49.50068277306855" lon="9.392021158710122">
<ele>325.8</ele>
<time>2024-05-12T08:17:49Z</time>
</trkpt>
<trkpt lat="49.50064463540912" lon="9.39206306822598">
<ele>325.8</ele>
<time>2024-05-12T08:17:50Z</time>
</trkpt>
<trkpt lat="49.50061026960611" lon="9.39210028387606">
<ele>325.6</ele>
<time>2024-05-12T08:17:51Z</time>
</trkpt>
<trkpt lat="49.50057213194668" lon="9.392131799831986">
<ele>325.4</ele>
<time>2024-05-12T08:17:52Z</time>
</trkpt>
<trkpt lat="49.500526366755366" lon="9.3921603821218">
<ele>325.2</ele>
<time>2024-05-12T08:17:53Z</time>
</trkpt>
<trkpt lat="49.50048445723951" lon="9.392191814258696">
<ele>325</ele>
<time>2024-05-12T08:17:54Z</time>
</trkpt>
<trkpt lat="49.50044246390462" lon="9.392226180061698">
<ele>325</ele>
<time>2024-05-12T08:17:55Z</time>
</trkpt>
<trkpt lat="49.50040432624519" lon="9.392268173396587">
<ele>325</ele>
<time>2024-05-12T08:17:56Z</time>
</trkpt>
<trkpt lat="49.500369960442185" lon="9.392312010750176">
<ele>324.8</ele>
<time>2024-05-12T08:17:57Z</time>
</trkpt>
<trkpt lat="49.500331822782755" lon="9.392365403473375">
<ele>324.6</ele>
<time>2024-05-12T08:17:58Z</time>
</trkpt>
<trkpt lat="49.50030131265521" lon="9.392421646043658">
<ele>324.6</ele>
<time>2024-05-12T08:17:59Z</time>
</trkpt>
<trkpt lat="49.500270802527666" lon="9.392470344901083">
<ele>324.4</ele>
<time>2024-05-12T08:18:00Z</time>
</trkpt>
<trkpt lat="49.50024029240012" lon="9.392513260245323">
<ele>324.4</ele>
<time>2024-05-12T08:18:01Z</time>
</trkpt>
<trkpt lat="49.50020978227258" lon="9.392553325742483">
<ele>324.4</ele>
<time>2024-05-12T08:18:02Z</time>
</trkpt>
<trkpt lat="49.500175416469574" lon="9.392588613554835">
<ele>324.2</ele>
<time>2024-05-12T08:18:03Z</time>
</trkpt>
<trkpt lat="49.50013350695371" lon="9.392609568312764">
<ele>324.2</ele>
<time>2024-05-12T08:18:04Z</time>
</trkpt>
<trkpt lat="49.50009151361883" lon="9.392624823376536">
<ele>324</ele>
<time>2024-05-12T08:18:05Z</time>
</trkpt>
<trkpt lat="49.50004189275205" lon="9.392629601061344">
<ele>324</ele>
<time>2024-05-12T08:18:06Z</time>
</trkpt>
<trkpt lat="49.49998850002885" lon="9.392642006278038">
<ele>323.8</ele>
<time>2024-05-12T08:18:07Z</time>
</trkpt>
<trkpt lat="49.499935107305646" lon="9.392653405666351">
<ele>323.6</ele>
<time>2024-05-12T08:18:08Z</time>
</trkpt>
<trkpt lat="49.499877858906984" lon="9.392662039026618">
<ele>323.6</ele>
<time>2024-05-12T08:18:09Z</time>
</trkpt>
<trkpt lat="49.499820694327354" lon="9.392671510577202">
<ele>323.6</ele>
<time>2024-05-12T08:18:10Z</time>
</trkpt>
<trkpt lat="49.49977107346058" lon="9.392680143937469">
<ele>323.4</ele>
<time>2024-05-12T08:18:11Z</time>
</trkpt>
<trkpt lat="49.499717680737376" lon="9.39269539900124">
<ele>323.4</ele>
<time>2024-05-12T08:18:12Z</time>
</trkpt>
<trkpt lat="49.49966428801417" lon="9.39271543174982">
<ele>323.4</ele>
<time>2024-05-12T08:18:13Z</time>
</trkpt>
<trkpt lat="49.4996146671474" lon="9.392733536660671">
<ele>323.2</ele>
<time>2024-05-12T08:18:14Z</time>
</trkpt>
<trkpt lat="49.49956504628062" lon="9.392751641571522">
<ele>323</ele>
<time>2024-05-12T08:18:15Z</time>
</trkpt>
<trkpt lat="49.499519281089306" lon="9.392767902463676">
<ele>323</ele>
<time>2024-05-12T08:18:16Z</time>
</trkpt>
<trkpt lat="49.49946974404156" lon="9.392785001546144">
<ele>322.8</ele>
<time>2024-05-12T08:18:17Z</time>
</trkpt>
<trkpt lat="49.499423978850245" lon="9.392800256609917">
<ele>322.8</ele>
<time>2024-05-12T08:18:18Z</time>
</trkpt>
<trkpt lat="49.49938198551536" lon="9.392811739817262">
<ele>322.8</ele>
<time>2024-05-12T08:18:19Z</time>
</trkpt>
<trkpt lat="49.499343847855926" lon="9.392823139205577">
<ele>322.8</ele>
<time>2024-05-12T08:18:20Z</time>
</trkpt>
<trkpt lat="49.49930948205292" lon="9.39283655025065">
<ele>322.8</ele>
<time>2024-05-12T08:18:21Z</time>
</trkpt>
<trkpt lat="49.49927520006895" lon="9.392845099791884">
<ele>322.6</ele>
<time>2024-05-12T08:18:22Z</time>
</trkpt>
<trkpt lat="49.49924083426595" lon="9.392865132540464">
<ele>322.4</ele>
<time>2024-05-12T08:18:23Z</time>
</trkpt>
<trkpt lat="49.49922172352672" lon="9.392905198037624">
<ele>322.2</ele>
<time>2024-05-12T08:18:24Z</time>
</trkpt>
<trkpt lat="49.49922172352672" lon="9.392956662923098">
<ele>322</ele>
<time>2024-05-12T08:18:25Z</time>
</trkpt>
<trkpt lat="49.499225579202175" lon="9.393010139465332">
<ele>321.8</ele>
<time>2024-05-12T08:18:26Z</time>
</trkpt>
<trkpt lat="49.49923697859049" lon="9.393063532188537">
<ele>321.6</ele>
<time>2024-05-12T08:18:27Z</time>
</trkpt>
<trkpt lat="49.499244689941406" lon="9.393117846921086">
<ele>321.4</ele>
<time>2024-05-12T08:18:28Z</time>
</trkpt>
<trkpt lat="49.499244689941406" lon="9.393177945166826">
<ele>321.2</ele>
<time>2024-05-12T08:18:29Z</time>
</trkpt>
<trkpt lat="49.4992293510586" lon="9.39323041588068">
<ele>321.2</ele>
<time>2024-05-12T08:18:30Z</time>
</trkpt>
<trkpt lat="49.49919506907463" lon="9.39326662570238">
<ele>321.2</ele>
<time>2024-05-12T08:18:31Z</time>
</trkpt>
<trkpt lat="49.49915307573974" lon="9.39328665845096">
<ele>321.2</ele>
<time>2024-05-12T08:18:32Z</time>
</trkpt>
<trkpt lat="49.499103538692" lon="9.393298141658306">
<ele>321.2</ele>
<time>2024-05-12T08:18:33Z</time>
</trkpt>
<trkpt lat="49.49905768968165" lon="9.393315240740776">
<ele>321.2</ele>
<time>2024-05-12T08:18:34Z</time>
</trkpt>
<trkpt lat="49.49901192449033" lon="9.393335273489356">
<ele>321.2</ele>
<time>2024-05-12T08:18:35Z</time>
</trkpt>
<trkpt lat="49.498966159299016" lon="9.393362011760471">
<ele>321.2</ele>
<time>2024-05-12T08:18:36Z</time>
</trkpt>
<trkpt lat="49.49891662225127" lon="9.39338967204094">
<ele>321</ele>
<time>2024-05-12T08:18:37Z</time>
</trkpt>
<trkpt lat="49.49887462891638" lon="9.393418254330754">
<ele>321</ele>
<time>2024-05-12T08:18:38Z</time>
</trkpt>
<trkpt lat="49.49883263558149" lon="9.393451614305375">
<ele>321</ele>
<time>2024-05-12T08:18:39Z</time>
</trkpt>
<trkpt lat="49.49878687039018" lon="9.39348790794611">
<ele>321</ele>
<time>2024-05-12T08:18:40Z</time>
</trkpt>
<trkpt lat="49.49874496087432" lon="9.393525123596191">
<ele>321</ele>
<time>2024-05-12T08:18:41Z</time>
</trkpt>
<trkpt lat="49.49870673939586" lon="9.39354800619185">
<ele>321</ele>
<time>2024-05-12T08:18:42Z</time>
</trkpt>
<trkpt lat="49.49866482988" lon="9.393549850210547">
<ele>321</ele>
<time>2024-05-12T08:18:43Z</time>
</trkpt>
<trkpt lat="49.49863046407699" lon="9.39352797344327">
<ele>321</ele>
<time>2024-05-12T08:18:44Z</time>
</trkpt>
<trkpt lat="49.49860758148134" lon="9.393493607640266">
<ele>321</ele>
<time>2024-05-12T08:18:45Z</time>
</trkpt>
<trkpt lat="49.498592326417565" lon="9.393456391990185">
<ele>321</ele>
<time>2024-05-12T08:18:46Z</time>
</trkpt>
<trkpt lat="49.498573299497366" lon="9.39342873170972">
<ele>321</ele>
<time>2024-05-12T08:18:47Z</time>
</trkpt>
<trkpt lat="49.49854656122625" lon="9.393413476645948">
<ele>321</ele>
<time>2024-05-12T08:18:48Z</time>
</trkpt>
<trkpt lat="49.49851982295513" lon="9.393418254330754">
<ele>321</ele>
<time>2024-05-12T08:18:49Z</time>
</trkpt>
<trkpt lat="49.498493168503046" lon="9.393438287079334">
<ele>321</ele>
<time>2024-05-12T08:18:50Z</time>
</trkpt>
<trkpt lat="49.49846643023193" lon="9.39346686936915">
<ele>320.8</ele>
<time>2024-05-12T08:18:51Z</time>
</trkpt>
<trkpt lat="49.498435920104384" lon="9.393494529649615">
<ele>320.8</ele>
<time>2024-05-12T08:18:52Z</time>
</trkpt>
<trkpt lat="49.4984092656523" lon="9.393521267920732">
<ele>320.6</ele>
<time>2024-05-12T08:18:53Z</time>
</trkpt>
<trkpt lat="49.49837867170572" lon="9.39354800619185">
<ele>320.4</ele>
<time>2024-05-12T08:18:54Z</time>
</trkpt>
<trkpt lat="49.498355789110065" lon="9.393573738634586">
<ele>320.4</ele>
<time>2024-05-12T08:18:55Z</time>
</trkpt>
<trkpt lat="49.49832150712609" lon="9.393600393086672">
<ele>320.2</ele>
<time>2024-05-12T08:18:56Z</time>
</trkpt>
<trkpt lat="49.498294768854976" lon="9.39362520352006">
<ele>320.2</ele>
<time>2024-05-12T08:18:57Z</time>
</trkpt>
<trkpt lat="49.49826811440289" lon="9.393650013953447">
<ele>320</ele>
<time>2024-05-12T08:18:58Z</time>
</trkpt>
<trkpt lat="49.498237604275346" lon="9.393676752224565">
<ele>320</ele>
<time>2024-05-12T08:18:59Z</time>
</trkpt>
<trkpt lat="49.49820701032877" lon="9.39370340667665">
<ele>320</ele>
<time>2024-05-12T08:19:00Z</time>
</trkpt>
<trkpt lat="49.49818035587669" lon="9.393731988966463">
<ele>319.8</ele>
<time>2024-05-12T08:19:01Z</time>
</trkpt>
<trkpt lat="49.49815361760557" lon="9.393756799399853">
<ele>319.8</ele>
<time>2024-05-12T08:19:02Z</time>
</trkpt>
<trkpt lat="49.49812696315348" lon="9.39378353767097">
<ele>319.6</ele>
<time>2024-05-12T08:19:03Z</time>
</trkpt>
<trkpt lat="49.49810408055782" lon="9.3938044924289">
<ele>319.6</ele>
<time>2024-05-12T08:19:04Z</time>
</trkpt>
<trkpt lat="49.498081197962165" lon="9.39382360316813">
<ele>319.6</ele>
<time>2024-05-12T08:19:05Z</time>
</trkpt>
<trkpt lat="49.49805831536651" lon="9.393839780241253">
<ele>319.6</ele>
<time>2024-05-12T08:19:06Z</time>
</trkpt>
<trkpt lat="49.498043060302734" lon="9.393855035305023">
<ele>319.6</ele>
<time>2024-05-12T08:19:07Z</time>
</trkpt>
<trkpt lat="49.49802772141993" lon="9.393868446350098">
<ele>319.8</ele>
<time>2024-05-12T08:19:08Z</time>
</trkpt>
<trkpt lat="49.49800869449973" lon="9.39388177357614">
<ele>319.8</ele>
<time>2024-05-12T08:19:09Z</time>
</trkpt>
<trkpt lat="49.49799343943596" lon="9.393893172964454">
<ele>319.8</ele>
<time>2024-05-12T08:19:10Z</time>
</trkpt>
<trkpt lat="49.49797818437219" lon="9.3939046561718">
<ele>319.8</ele>
<time>2024-05-12T08:19:11Z</time>
</trkpt>
<trkpt lat="49.49795907363296" lon="9.393919911235573">
<ele>320</ele>
<time>2024-05-12T08:19:12Z</time>
</trkpt>
<trkpt lat="49.49794381856918" lon="9.39393994398415">
<ele>320.2</ele>
<time>2024-05-12T08:19:13Z</time>
</trkpt>
<trkpt lat="49.497924791648984" lon="9.393968526273966">
<ele>320.2</ele>
<time>2024-05-12T08:19:14Z</time>
</trkpt>
<trkpt lat="49.497901909053326" lon="9.393993336707354">
<ele>320.4</ele>
<time>2024-05-12T08:19:15Z</time>
</trkpt>
<trkpt lat="49.49787902645767" lon="9.394016219303012">
<ele>320.6</ele>
<time>2024-05-12T08:19:16Z</time>
</trkpt>
<trkpt lat="49.49785606004298" lon="9.394035330042245">
<ele>320.6</ele>
<time>2024-05-12T08:19:17Z</time>
</trkpt>
<trkpt lat="49.49783703312278" lon="9.394053434953094">
<ele>320.8</ele>
<time>2024-05-12T08:19:18Z</time>
</trkpt>
<trkpt lat="49.497821778059006" lon="9.394073467701674">
<ele>320.8</ele>
<time>2024-05-12T08:19:19Z</time>
</trkpt>
<trkpt lat="49.49780652299523" lon="9.394091572612524">
<ele>321</ele>
<time>2024-05-12T08:19:20Z</time>
</trkpt>
<trkpt lat="49.49779503978789" lon="9.394109677523376">
<ele>321</ele>
<time>2024-05-12T08:19:21Z</time>
</trkpt>
<trkpt lat="49.49777215719223" lon="9.394131638109684">
<ele>321</ele>
<time>2024-05-12T08:19:22Z</time>
</trkpt>
<trkpt lat="49.49774927459657" lon="9.394149743020536">
<ele>321</ele>
<time>2024-05-12T08:19:23Z</time>
</trkpt>
<trkpt lat="49.497726392000914" lon="9.3941602203995">
<ele>321</ele>
<time>2024-05-12T08:19:24Z</time>
</trkpt>
<trkpt lat="49.497703509405255" lon="9.394167847931383">
<ele>321</ele>
<time>2024-05-12T08:19:25Z</time>
</trkpt>
<trkpt lat="49.49767677113414" lon="9.394169775769114">
<ele>320.8</ele>
<time>2024-05-12T08:19:26Z</time>
</trkpt>
<trkpt lat="49.49765011668205" lon="9.394167847931383">
<ele>320.6</ele>
<time>2024-05-12T08:19:27Z</time>
</trkpt>
<trkpt lat="49.497623378410935" lon="9.394167847931383">
<ele>320.4</ele>
<time>2024-05-12T08:19:28Z</time>
</trkpt>
<trkpt lat="49.49759672395885" lon="9.394174553453922">
<ele>320.4</ele>
<time>2024-05-12T08:19:29Z</time>
</trkpt>
<trkpt lat="49.49756998568773" lon="9.394189808517694">
<ele>320.2</ele>
<time>2024-05-12T08:19:30Z</time>
</trkpt>
<trkpt lat="49.49754333123565" lon="9.394209841266274">
<ele>320</ele>
<time>2024-05-12T08:19:31Z</time>
</trkpt>
<trkpt lat="49.49752036482096" lon="9.394231718033552">
<ele>320</ele>
<time>2024-05-12T08:19:32Z</time>
</trkpt>
<trkpt lat="49.4974974822253" lon="9.394251750782132">
<ele>320</ele>
<time>2024-05-12T08:19:33Z</time>
</trkpt>
<trkpt lat="49.49747082777321" lon="9.39427848905325">
<ele>319.8</ele>
<time>2024-05-12T08:19:34Z</time>
</trkpt>
<trkpt lat="49.497444089502096" lon="9.394308077171443">
<ele>319.8</ele>
<time>2024-05-12T08:19:35Z</time>
</trkpt>
<trkpt lat="49.49741357937455" lon="9.394339509308338">
<ele>319.8</ele>
<time>2024-05-12T08:19:36Z</time>
</trkpt>
<trkpt lat="49.49738306924701" lon="9.394371947273612">
<ele>319.8</ele>
<time>2024-05-12T08:19:37Z</time>
</trkpt>
<trkpt lat="49.497348703444" lon="9.394405307248237">
<ele>319.8</ele>
<time>2024-05-12T08:19:38Z</time>
</trkpt>
<trkpt lat="49.49731442146003" lon="9.394443444907663">
<ele>319.8</ele>
<time>2024-05-12T08:19:39Z</time>
</trkpt>
<trkpt lat="49.49728391133249" lon="9.39447496086359">
<ele>319.8</ele>
<time>2024-05-12T08:19:40Z</time>
</trkpt>
<trkpt lat="49.497253401204944" lon="9.394503543153403">
<ele>320</ele>
<time>2024-05-12T08:19:41Z</time>
</trkpt>
<trkpt lat="49.49721526354551" lon="9.394530281424522">
<ele>320</ele>
<time>2024-05-12T08:19:42Z</time>
</trkpt>
<trkpt lat="49.49717704206705" lon="9.394561713561416">
<ele>320.2</ele>
<time>2024-05-12T08:19:43Z</time>
</trkpt>
<trkpt lat="49.49713890440762" lon="9.39459029585123">
<ele>320.2</ele>
<time>2024-05-12T08:19:44Z</time>
</trkpt>
<trkpt lat="49.49710076674819" lon="9.394621811807156">
<ele>320.4</ele>
<time>2024-05-12T08:19:45Z</time>
</trkpt>
<trkpt lat="49.49706262908876" lon="9.394655171781778">
<ele>320.4</ele>
<time>2024-05-12T08:19:46Z</time>
</trkpt>
<trkpt lat="49.497013092041016" lon="9.394676126539707">
<ele>320.4</ele>
<time>2024-05-12T08:19:47Z</time>
</trkpt>
<trkpt lat="49.496971098706126" lon="9.394695237278938">
<ele>320.4</ele>
<time>2024-05-12T08:19:48Z</time>
</trkpt>
<trkpt lat="49.49692533351481" lon="9.394713342189789">
<ele>320.6</ele>
<time>2024-05-12T08:19:49Z</time>
</trkpt>
<trkpt lat="49.49687956832349" lon="9.39473144710064">
<ele>320.6</ele>
<time>2024-05-12T08:19:50Z</time>
</trkpt>
<trkpt lat="49.496833719313145" lon="9.394758185371757">
<ele>320.6</ele>
<time>2024-05-12T08:19:51Z</time>
</trkpt>
<trkpt lat="49.49679180979729" lon="9.394778218120337">
<ele>320.6</ele>
<time>2024-05-12T08:19:52Z</time>
</trkpt>
<trkpt lat="49.4967498164624" lon="9.394798250868917">
<ele>320.4</ele>
<time>2024-05-12T08:19:53Z</time>
</trkpt>
<trkpt lat="49.496715534478426" lon="9.394820211455226">
<ele>320.4</ele>
<time>2024-05-12T08:19:54Z</time>
</trkpt>
<trkpt lat="49.496677396818995" lon="9.394844938069582">
<ele>320.4</ele>
<time>2024-05-12T08:19:55Z</time>
</trkpt>
<trkpt lat="49.496635403484106" lon="9.39486974850297">
<ele>320.2</ele>
<time>2024-05-12T08:19:56Z</time>
</trkpt>
<trkpt lat="49.49659341014922" lon="9.394894558936356">
<ele>320.2</ele>
<time>2024-05-12T08:19:57Z</time>
</trkpt>
<trkpt lat="49.496559128165245" lon="9.394921297207476">
<ele>320.4</ele>
<time>2024-05-12T08:19:58Z</time>
</trkpt>
<trkpt lat="49.49652476236224" lon="9.39494987949729">
<ele>320.4</ele>
<time>2024-05-12T08:19:59Z</time>
</trkpt>
<trkpt lat="49.49648662470281" lon="9.394981311634185">
<ele>320.4</ele>
<time>2024-05-12T08:20:00Z</time>
</trkpt>
<trkpt lat="49.49645611457527" lon="9.395013749599457">
<ele>320.4</ele>
<time>2024-05-12T08:20:01Z</time>
</trkpt>
<trkpt lat="49.49642174877226" lon="9.395043337717652">
<ele>320.4</ele>
<time>2024-05-12T08:20:02Z</time>
</trkpt>
<trkpt lat="49.49638746678829" lon="9.395076697692277">
<ele>320.4</ele>
<time>2024-05-12T08:20:03Z</time>
</trkpt>
<trkpt lat="49.49635695666075" lon="9.395111985504627">
<ele>320.4</ele>
<time>2024-05-12T08:20:04Z</time>
</trkpt>
<trkpt lat="49.496322590857744" lon="9.395148195326328">
<ele>320.4</ele>
<time>2024-05-12T08:20:05Z</time>
</trkpt>
<trkpt lat="49.49628822505474" lon="9.39518641680479">
<ele>320.4</ele>
<time>2024-05-12T08:20:06Z</time>
</trkpt>
<trkpt lat="49.4962577149272" lon="9.39522639848292">
<ele>320.6</ele>
<time>2024-05-12T08:20:07Z</time>
</trkpt>
<trkpt lat="49.496223432943225" lon="9.39526646398008">
<ele>320.6</ele>
<time>2024-05-12T08:20:08Z</time>
</trkpt>
<trkpt lat="49.49618906714022" lon="9.39530652947724">
<ele>320.6</ele>
<time>2024-05-12T08:20:09Z</time>
</trkpt>
<trkpt lat="49.49615478515625" lon="9.395351372659206">
<ele>320.6</ele>
<time>2024-05-12T08:20:10Z</time>
</trkpt>
<trkpt lat="49.49612041935325" lon="9.395398059859872">
<ele>320.6</ele>
<time>2024-05-12T08:20:11Z</time>
</trkpt>
<trkpt lat="49.49608605355024" lon="9.39544198103249">
<ele>320.6</ele>
<time>2024-05-12T08:20:12Z</time>
</trkpt>
<trkpt lat="49.49605177156627" lon="9.395484896376727">
<ele>320.6</ele>
<time>2024-05-12T08:20:13Z</time>
</trkpt>
<trkpt lat="49.49601740576327" lon="9.395526805892588">
<ele>320.6</ele>
<time>2024-05-12T08:20:14Z</time>
</trkpt>
<trkpt lat="49.49599075131118" lon="9.395567877218127">
<ele>320.6</ele>
<time>2024-05-12T08:20:15Z</time>
</trkpt>
<trkpt lat="49.495964013040066" lon="9.395611714571714">
<ele>320.6</ele>
<time>2024-05-12T08:20:16Z</time>
</trkpt>
<trkpt lat="49.49594113044441" lon="9.395656557753682">
<ele>320.6</ele>
<time>2024-05-12T08:20:17Z</time>
</trkpt>
<trkpt lat="49.495925875380635" lon="9.39570140093565">
<ele>320.6</ele>
<time>2024-05-12T08:20:18Z</time>
</trkpt>
<trkpt lat="49.49591439217329" lon="9.395750015974045">
<ele>320.6</ele>
<time>2024-05-12T08:20:19Z</time>
</trkpt>
<trkpt lat="49.49590676464141" lon="9.395805336534975">
<ele>320.6</ele>
<time>2024-05-12T08:20:20Z</time>
</trkpt>
<trkpt lat="49.49590676464141" lon="9.395865434780715">
<ele>320.6</ele>
<time>2024-05-12T08:20:21Z</time>
</trkpt>
<trkpt lat="49.49590676464141" lon="9.395926455035806">
<ele>320.6</ele>
<time>2024-05-12T08:20:22Z</time>
</trkpt>
<trkpt lat="49.49590676464141" lon="9.395991247147322">
<ele>320.6</ele>
<time>2024-05-12T08:20:23Z</time>
</trkpt>
<trkpt lat="49.49591062031686" lon="9.39605712890625">
<ele>320.8</ele>
<time>2024-05-12T08:20:24Z</time>
</trkpt>
<trkpt lat="49.49591824784875" lon="9.39611814916134">
<ele>320.6</ele>
<time>2024-05-12T08:20:25Z</time>
</trkpt>
<trkpt lat="49.495922019705176" lon="9.396180091425776">
<ele>320.6</ele>
<time>2024-05-12T08:20:26Z</time>
</trkpt>
<trkpt lat="49.49592964723706" lon="9.396243039518597">
<ele>320.4</ele>
<time>2024-05-12T08:20:27Z</time>
</trkpt>
<trkpt lat="49.49593350291252" lon="9.396306909620762">
<ele>320.4</ele>
<time>2024-05-12T08:20:28Z</time>
</trkpt>
<trkpt lat="49.49593727476895" lon="9.396374635398388">
<ele>320.4</ele>
<time>2024-05-12T08:20:29Z</time>
</trkpt>
<trkpt lat="49.49594113044441" lon="9.396446216851473">
<ele>320.4</ele>
<time>2024-05-12T08:20:30Z</time>
</trkpt>
<trkpt lat="49.495944902300835" lon="9.396518636494877">
<ele>320.4</ele>
<time>2024-05-12T08:20:31Z</time>
</trkpt>
<trkpt lat="49.495948757976294" lon="9.396591139957309">
<ele>320.4</ele>
<time>2024-05-12T08:20:32Z</time>
</trkpt>
<trkpt lat="49.49595638550818" lon="9.396663643419744">
<ele>320.6</ele>
<time>2024-05-12T08:20:33Z</time>
</trkpt>
<trkpt lat="49.49596015736461" lon="9.396733213216066">
<ele>320.6</ele>
<time>2024-05-12T08:20:34Z</time>
</trkpt>
<trkpt lat="49.49596778489649" lon="9.396802866831422">
<ele>320.6</ele>
<time>2024-05-12T08:20:35Z</time>
</trkpt>
<trkpt lat="49.49597164057195" lon="9.396873442456126">
<ele>320.6</ele>
<time>2024-05-12T08:20:36Z</time>
</trkpt>
<trkpt lat="49.49597541242838" lon="9.396940162405372">
<ele>320.8</ele>
<time>2024-05-12T08:20:37Z</time>
</trkpt>
<trkpt lat="49.4959831237793" lon="9.397007888182998">
<ele>320.8</ele>
<time>2024-05-12T08:20:38Z</time>
</trkpt>
<trkpt lat="49.49598689563573" lon="9.397076535969973">
<ele>321</ele>
<time>2024-05-12T08:20:39Z</time>
</trkpt>
<trkpt lat="49.49599837884307" lon="9.39714333973825">
<ele>321</ele>
<time>2024-05-12T08:20:40Z</time>
</trkpt>
<trkpt lat="49.496006006374955" lon="9.397212909534574">
<ele>320.8</ele>
<time>2024-05-12T08:20:41Z</time>
</trkpt>
<trkpt lat="49.496006006374955" lon="9.397283485159278">
<ele>320.8</ele>
<time>2024-05-12T08:20:42Z</time>
</trkpt>
<trkpt lat="49.49599837884307" lon="9.397351210936904">
<ele>320.8</ele>
<time>2024-05-12T08:20:43Z</time>
</trkpt>
<trkpt lat="49.4959831237793" lon="9.3974170088768">
<ele>320.8</ele>
<time>2024-05-12T08:20:44Z</time>
</trkpt>
<trkpt lat="49.495964013040066" lon="9.397481884807348">
<ele>320.6</ele>
<time>2024-05-12T08:20:45Z</time>
</trkpt>
<trkpt lat="49.49593727476895" lon="9.397544832900168">
<ele>320.6</ele>
<time>2024-05-12T08:20:46Z</time>
</trkpt>
<trkpt lat="49.49590676464141" lon="9.397606775164604">
<ele>320.6</ele>
<time>2024-05-12T08:20:47Z</time>
</trkpt>
<trkpt lat="49.49588011018932" lon="9.397667879238725">
<ele>320.6</ele>
<time>2024-05-12T08:20:48Z</time>
</trkpt>
<trkpt lat="49.495849600061774" lon="9.397727893665431">
<ele>320.6</ele>
<time>2024-05-12T08:20:49Z</time>
</trkpt>
<trkpt lat="49.49581523425877" lon="9.397787991911173">
<ele>320.6</ele>
<time>2024-05-12T08:20:50Z</time>
</trkpt>
<trkpt lat="49.495788495987654" lon="9.397846162319183">
<ele>320.6</ele>
<time>2024-05-12T08:20:51Z</time>
</trkpt>
<trkpt lat="49.49575421400368" lon="9.397908188402653">
<ele>320.6</ele>
<time>2024-05-12T08:20:52Z</time>
</trkpt>
<trkpt lat="49.49572370387614" lon="9.397968286648393">
<ele>320.6</ele>
<time>2024-05-12T08:20:53Z</time>
</trkpt>
<trkpt lat="49.49569319374859" lon="9.398024529218674">
<ele>320.6</ele>
<time>2024-05-12T08:20:54Z</time>
</trkpt>
<trkpt lat="49.49566268362105" lon="9.398083621636031">
<ele>320.6</ele>
<time>2024-05-12T08:20:55Z</time>
</trkpt>
<trkpt lat="49.49563208967447" lon="9.398143719881771">
<ele>320.6</ele>
<time>2024-05-12T08:20:56Z</time>
</trkpt>
<trkpt lat="49.49560543522239" lon="9.398206667974591">
<ele>320.6</ele>
<time>2024-05-12T08:20:57Z</time>
</trkpt>
<trkpt lat="49.49557492509484" lon="9.39826961606741">
<ele>320.6</ele>
<time>2024-05-12T08:20:58Z</time>
</trkpt>
<trkpt lat="49.495548186823726" lon="9.398333486169577">
<ele>320.6</ele>
<time>2024-05-12T08:20:59Z</time>
</trkpt>
<trkpt lat="49.49551767669618" lon="9.398398362100124">
<ele>320.6</ele>
<time>2024-05-12T08:21:00Z</time>
</trkpt>
<trkpt lat="49.495491022244096" lon="9.398463238030672">
<ele>320.8</ele>
<time>2024-05-12T08:21:01Z</time>
</trkpt>
<trkpt lat="49.49546813964844" lon="9.398528030142188">
<ele>320.8</ele>
<time>2024-05-12T08:21:02Z</time>
</trkpt>
<trkpt lat="49.49544517323375" lon="9.398591984063389">
<ele>320.6</ele>
<time>2024-05-12T08:21:03Z</time>
</trkpt>
<trkpt lat="49.495433773845434" lon="9.398654932156203">
<ele>320.6</ele>
<time>2024-05-12T08:21:04Z</time>
</trkpt>
<trkpt lat="49.49542229063809" lon="9.39872165210545">
<ele>320.6</ele>
<time>2024-05-12T08:21:05Z</time>
</trkpt>
<trkpt lat="49.4954146631062" lon="9.398788372054696">
<ele>320.6</ele>
<time>2024-05-12T08:21:06Z</time>
</trkpt>
<trkpt lat="49.495410891249776" lon="9.398858025670052">
<ele>320.6</ele>
<time>2024-05-12T08:21:07Z</time>
</trkpt>
<trkpt lat="49.495410891249776" lon="9.398926673457026">
<ele>320.6</ele>
<time>2024-05-12T08:21:08Z</time>
</trkpt>
<trkpt lat="49.4954146631062" lon="9.398993477225304">
<ele>320.6</ele>
<time>2024-05-12T08:21:09Z</time>
</trkpt>
<trkpt lat="49.49542614631355" lon="9.399056425318122">
<ele>320.6</ele>
<time>2024-05-12T08:21:10Z</time>
</trkpt>
<trkpt lat="49.49544140137732" lon="9.39911643974483">
<ele>320.6</ele>
<time>2024-05-12T08:21:11Z</time>
</trkpt>
<trkpt lat="49.49545665644109" lon="9.39917653799057">
<ele>320.8</ele>
<time>2024-05-12T08:21:12Z</time>
</trkpt>
<trkpt lat="49.49547576718032" lon="9.399232864379885">
<ele>320.8</ele>
<time>2024-05-12T08:21:13Z</time>
</trkpt>
<trkpt lat="49.495491022244096" lon="9.399288101121783">
<ele>320.8</ele>
<time>2024-05-12T08:21:14Z</time>
</trkpt>
<trkpt lat="49.49550627730787" lon="9.399332944303753">
<ele>321</ele>
<time>2024-05-12T08:21:15Z</time>
</trkpt>
<trkpt lat="49.495510049164295" lon="9.399379715323448">
<ele>321</ele>
<time>2024-05-12T08:21:16Z</time>
</trkpt>
<trkpt lat="49.49550242163241" lon="9.399430258199573">
<ele>321</ele>
<time>2024-05-12T08:21:17Z</time>
</trkpt>
<trkpt lat="49.49547953903675" lon="9.399481723085046">
<ele>321.2</ele>
<time>2024-05-12T08:21:18Z</time>
</trkpt>
<trkpt lat="49.495449028909206" lon="9.39953327178955">
<ele>321.2</ele>
<time>2024-05-12T08:21:19Z</time>
</trkpt>
<trkpt lat="49.49541851878166" lon="9.399586664512752">
<ele>321.2</ele>
<time>2024-05-12T08:21:20Z</time>
</trkpt>
<trkpt lat="49.49538038112223" lon="9.399636201560496">
<ele>321.2</ele>
<time>2024-05-12T08:21:21Z</time>
</trkpt>
<trkpt lat="49.4953422434628" lon="9.399684900417924">
<ele>321.2</ele>
<time>2024-05-12T08:21:22Z</time>
</trkpt>
<trkpt lat="49.49530410580337" lon="9.39973158761859">
<ele>321.2</ele>
<time>2024-05-12T08:21:23Z</time>
</trkpt>
<trkpt lat="49.49526211246848" lon="9.399776430800555">
<ele>321</ele>
<time>2024-05-12T08:21:24Z</time>
</trkpt>
<trkpt lat="49.49522774666548" lon="9.399823118001224">
<ele>321</ele>
<time>2024-05-12T08:21:25Z</time>
</trkpt>
<trkpt lat="49.495193464681506" lon="9.39987181685865">
<ele>320.8</ele>
<time>2024-05-12T08:21:26Z</time>
</trkpt>
<trkpt lat="49.4951590988785" lon="9.399921353906391">
<ele>320.8</ele>
<time>2024-05-12T08:21:27Z</time>
</trkpt>
<trkpt lat="49.49512481689453" lon="9.399971896782516">
<ele>320.6</ele>
<time>2024-05-12T08:21:28Z</time>
</trkpt>
<trkpt lat="49.49508659541607" lon="9.400021517649291">
<ele>320.6</ele>
<time>2024-05-12T08:21:29Z</time>
</trkpt>
<trkpt lat="49.49504845775664" lon="9.40006636083126">
<ele>320.4</ele>
<time>2024-05-12T08:21:30Z</time>
</trkpt>
<trkpt lat="49.49501032009721" lon="9.400116903707383">
<ele>320.4</ele>
<time>2024-05-12T08:21:31Z</time>
</trkpt>
<trkpt lat="49.49497218243778" lon="9.400166440755129">
<ele>320.4</ele>
<time>2024-05-12T08:21:32Z</time>
</trkpt>
<trkpt lat="49.49494167231023" lon="9.400216983631251">
<ele>320.6</ele>
<time>2024-05-12T08:21:33Z</time>
</trkpt>
<trkpt lat="49.4949035346508" lon="9.400266604498029">
<ele>320.6</ele>
<time>2024-05-12T08:21:34Z</time>
</trkpt>
<trkpt lat="49.4948691688478" lon="9.400319997221231">
<ele>320.6</ele>
<time>2024-05-12T08:21:35Z</time>
</trkpt>
<trkpt lat="49.49483103118837" lon="9.400376239791512">
<ele>320.8</ele>
<time>2024-05-12T08:21:36Z</time>
</trkpt>
<trkpt lat="49.4947967492044" lon="9.400428710505366">
<ele>320.8</ele>
<time>2024-05-12T08:21:37Z</time>
</trkpt>
<trkpt lat="49.494762383401394" lon="9.400480259209871">
<ele>320.8</ele>
<time>2024-05-12T08:21:38Z</time>
</trkpt>
<trkpt lat="49.49472801759839" lon="9.400531724095345">
<ele>321</ele>
<time>2024-05-12T08:21:39Z</time>
</trkpt>
<trkpt lat="49.494697507470846" lon="9.400587044656277">
<ele>321</ele>
<time>2024-05-12T08:21:40Z</time>
</trkpt>
<trkpt lat="49.494663225486875" lon="9.400645215064287">
<ele>321.2</ele>
<time>2024-05-12T08:21:41Z</time>
</trkpt>
<trkpt lat="49.49463271535933" lon="9.400705313310027">
<ele>321</ele>
<time>2024-05-12T08:21:42Z</time>
</trkpt>
<trkpt lat="49.494602121412754" lon="9.400765411555769">
<ele>321.2</ele>
<time>2024-05-12T08:21:43Z</time>
</trkpt>
<trkpt lat="49.49457161128521" lon="9.400823581963778">
<ele>321.2</ele>
<time>2024-05-12T08:21:44Z</time>
</trkpt>
<trkpt lat="49.49453732930124" lon="9.400886530056596">
<ele>321.2</ele>
<time>2024-05-12T08:21:45Z</time>
</trkpt>
<trkpt lat="49.494506819173694" lon="9.400951322168112">
<ele>321.2</ele>
<time>2024-05-12T08:21:46Z</time>
</trkpt>
<trkpt lat="49.494480080902576" lon="9.401018125936387">
<ele>321.2</ele>
<time>2024-05-12T08:21:47Z</time>
</trkpt>
<trkpt lat="49.49444957077503" lon="9.401081996038556">
<ele>321.4</ele>
<time>2024-05-12T08:21:48Z</time>
</trkpt>
<trkpt lat="49.49441906064749" lon="9.401144944131374">
<ele>321.4</ele>
<time>2024-05-12T08:21:49Z</time>
</trkpt>
<trkpt lat="49.49438855051994" lon="9.401209820061922">
<ele>321.2</ele>
<time>2024-05-12T08:21:50Z</time>
</trkpt>
<trkpt lat="49.494365667924285" lon="9.401278467848895">
<ele>321.2</ele>
<time>2024-05-12T08:21:51Z</time>
</trkpt>
<trkpt lat="49.49433892965317" lon="9.401345187798142">
<ele>321.2</ele>
<time>2024-05-12T08:21:52Z</time>
</trkpt>
<trkpt lat="49.49431227520108" lon="9.40140813589096">
<ele>321.2</ele>
<time>2024-05-12T08:21:53Z</time>
</trkpt>
<trkpt lat="49.49428176507354" lon="9.40147208981216">
<ele>321.2</ele>
<time>2024-05-12T08:21:54Z</time>
</trkpt>
<trkpt lat="49.49425117112696" lon="9.40153026022017">
<ele>321</ele>
<time>2024-05-12T08:21:55Z</time>
</trkpt>
<trkpt lat="49.49421303346753" lon="9.401586502790453">
<ele>321</ele>
<time>2024-05-12T08:21:56Z</time>
</trkpt>
<trkpt lat="49.4941748958081" lon="9.401643751189113">
<ele>320.8</ele>
<time>2024-05-12T08:21:57Z</time>
</trkpt>
<trkpt lat="49.49413675814867" lon="9.401696138083937">
<ele>320.6</ele>
<time>2024-05-12T08:21:58Z</time>
</trkpt>
<trkpt lat="49.4941024761647" lon="9.40174668096006">
<ele>320.4</ele>
<time>2024-05-12T08:21:59Z</time>
</trkpt>
<trkpt lat="49.49406425468624" lon="9.401795379817486">
<ele>320.2</ele>
<time>2024-05-12T08:22:00Z</time>
</trkpt>
<trkpt lat="49.494029972702265" lon="9.401842067018151">
<ele>320.2</ele>
<time>2024-05-12T08:22:01Z</time>
</trkpt>
<trkpt lat="49.49399560689926" lon="9.401891687884929">
<ele>320.2</ele>
<time>2024-05-12T08:22:02Z</time>
</trkpt>
<trkpt lat="49.49396132491529" lon="9.401940302923322">
<ele>320.2</ele>
<time>2024-05-12T08:22:03Z</time>
</trkpt>
<trkpt lat="49.49392318725586" lon="9.40198707394302">
<ele>320.2</ele>
<time>2024-05-12T08:22:04Z</time>
</trkpt>
<trkpt lat="49.493888821452856" lon="9.402032839134336">
<ele>320.2</ele>
<time>2024-05-12T08:22:05Z</time>
</trkpt>
<trkpt lat="49.493850683793426" lon="9.402079526335">
<ele>320.4</ele>
<time>2024-05-12T08:22:06Z</time>
</trkpt>
<trkpt lat="49.493808690458536" lon="9.40212151966989">
<ele>320.4</ele>
<time>2024-05-12T08:22:07Z</time>
</trkpt>
<trkpt lat="49.493770552799106" lon="9.402156807482244">
<ele>320.4</ele>
<time>2024-05-12T08:22:08Z</time>
</trkpt>
<trkpt lat="49.493728559464216" lon="9.402183461934328">
<ele>320.2</ele>
<time>2024-05-12T08:22:09Z</time>
</trkpt>
<trkpt lat="49.4936827942729" lon="9.402208272367716">
<ele>320.2</ele>
<time>2024-05-12T08:22:10Z</time>
</trkpt>
<trkpt lat="49.49363325722515" lon="9.402228305116296">
<ele>320.2</ele>
<time>2024-05-12T08:22:11Z</time>
</trkpt>
<trkpt lat="49.49358363635838" lon="9.402235010638831">
<ele>320.2</ele>
<time>2024-05-12T08:22:12Z</time>
</trkpt>
<trkpt lat="49.493537871167064" lon="9.402233082801104">
<ele>320.4</ele>
<time>2024-05-12T08:22:13Z</time>
</trkpt>
<trkpt lat="49.49348825030029" lon="9.402224533259869">
<ele>320.4</ele>
<time>2024-05-12T08:22:14Z</time>
</trkpt>
<trkpt lat="49.493434857577085" lon="9.402213050052524">
<ele>320.4</ele>
<time>2024-05-12T08:22:15Z</time>
</trkpt>
<trkpt lat="49.49338523671031" lon="9.4021987169981">
<ele>320.4</ele>
<time>2024-05-12T08:22:16Z</time>
</trkpt>
<trkpt lat="49.49333947151899" lon="9.402183461934328">
<ele>320.2</ele>
<time>2024-05-12T08:22:17Z</time>
</trkpt>
<trkpt lat="49.49328993447125" lon="9.402170134708284">
<ele>320.2</ele>
<time>2024-05-12T08:22:18Z</time>
</trkpt>
<trkpt lat="49.493240313604474" lon="9.402154879644511">
<ele>320.2</ele>
<time>2024-05-12T08:22:19Z</time>
</trkpt>
<trkpt lat="49.49319454841316" lon="9.402145324274898">
<ele>320.2</ele>
<time>2024-05-12T08:22:20Z</time>
</trkpt>
<trkpt lat="49.49314492754638" lon="9.402134846895931">
<ele>320.2</ele>
<time>2024-05-12T08:22:21Z</time>
</trkpt>
<trkpt lat="49.49309539049864" lon="9.402125291526318">
<ele>320.2</ele>
<time>2024-05-12T08:22:22Z</time>
</trkpt>
<trkpt lat="49.49304576963186" lon="9.40211959183216">
<ele>320.4</ele>
<time>2024-05-12T08:22:23Z</time>
</trkpt>
<trkpt lat="49.49299237690866" lon="9.40212151966989">
<ele>320.4</ele>
<time>2024-05-12T08:22:24Z</time>
</trkpt>
<trkpt lat="49.49293898418546" lon="9.402130069211124">
<ele>320.4</ele>
<time>2024-05-12T08:22:25Z</time>
</trkpt>
<trkpt lat="49.49288550764322" lon="9.402138702571392">
<ele>320.6</ele>
<time>2024-05-12T08:22:26Z</time>
</trkpt>
<trkpt lat="49.49283597059548" lon="9.402146330103278">
<ele>320.6</ele>
<time>2024-05-12T08:22:27Z</time>
</trkpt>
<trkpt lat="49.4927863497287" lon="9.402154879644511">
<ele>320.6</ele>
<time>2024-05-12T08:22:28Z</time>
</trkpt>
<trkpt lat="49.49273681268096" lon="9.402165357023478">
<ele>320.6</ele>
<time>2024-05-12T08:22:29Z</time>
</trkpt>
<trkpt lat="49.492687191814184" lon="9.40218161791563">
<ele>320.8</ele>
<time>2024-05-12T08:22:30Z</time>
</trkpt>
<trkpt lat="49.49264142662287" lon="9.40220165066421">
<ele>320.8</ele>
<time>2024-05-12T08:22:31Z</time>
</trkpt>
<trkpt lat="49.49259943328798" lon="9.402223527431488">
<ele>320.8</ele>
<time>2024-05-12T08:22:32Z</time>
</trkpt>
<trkpt lat="49.49255366809666" lon="9.402246410027146">
<ele>321</ele>
<time>2024-05-12T08:22:33Z</time>
</trkpt>
<trkpt lat="49.492507902905345" lon="9.402271220460534">
<ele>321</ele>
<time>2024-05-12T08:22:34Z</time>
</trkpt>
<trkpt lat="49.49246213771403" lon="9.40229695290327">
<ele>321</ele>
<time>2024-05-12T08:22:35Z</time>
</trkpt>
<trkpt lat="49.49241637252271" lon="9.402323691174388">
<ele>321.2</ele>
<time>2024-05-12T08:22:36Z</time>
</trkpt>
<trkpt lat="49.49237052351236" lon="9.402351351454854">
<ele>321.4</ele>
<time>2024-05-12T08:22:37Z</time>
</trkpt>
<trkpt lat="49.49232475832105" lon="9.402379933744667">
<ele>321.6</ele>
<time>2024-05-12T08:22:38Z</time>
</trkpt>
<trkpt lat="49.49228284880519" lon="9.402409521862864">
<ele>321.6</ele>
<time>2024-05-12T08:22:39Z</time>
</trkpt>
<trkpt lat="49.49223708361387" lon="9.40243810415268">
<ele>321.8</ele>
<time>2024-05-12T08:22:40Z</time>
</trkpt>
<trkpt lat="49.49219509027898" lon="9.402469620108604">
<ele>322</ele>
<time>2024-05-12T08:22:41Z</time>
</trkpt>
<trkpt lat="49.49214932508767" lon="9.402506751939654">
<ele>322</ele>
<time>2024-05-12T08:22:42Z</time>
</trkpt>
<trkpt lat="49.49210355989635" lon="9.402543045580387">
<ele>322.2</ele>
<time>2024-05-12T08:22:43Z</time>
</trkpt>
<trkpt lat="49.49205779470503" lon="9.402580261230469">
<ele>322.2</ele>
<time>2024-05-12T08:22:44Z</time>
</trkpt>
<trkpt lat="49.492011945694685" lon="9.402613621205091">
<ele>322.4</ele>
<time>2024-05-12T08:22:45Z</time>
</trkpt>
<trkpt lat="49.49196618050337" lon="9.402647903189065">
<ele>322.4</ele>
<time>2024-05-12T08:22:46Z</time>
</trkpt>
<trkpt lat="49.491916643455625" lon="9.402681346982718">
<ele>322.6</ele>
<time>2024-05-12T08:22:47Z</time>
</trkpt>
<trkpt lat="49.49187087826431" lon="9.40271470695734">
<ele>322.8</ele>
<time>2024-05-12T08:22:48Z</time>
</trkpt>
<trkpt lat="49.49182502925396" lon="9.402748066931965">
<ele>323</ele>
<time>2024-05-12T08:22:49Z</time>
</trkpt>
<trkpt lat="49.49177926406264" lon="9.402783354744315">
<ele>323</ele>
<time>2024-05-12T08:22:50Z</time>
</trkpt>
<trkpt lat="49.491733498871326" lon="9.402821492403746">
<ele>323</ele>
<time>2024-05-12T08:22:51Z</time>
</trkpt>
<trkpt lat="49.49168773368001" lon="9.402858708053827">
<ele>323</ele>
<time>2024-05-12T08:22:52Z</time>
</trkpt>
<trkpt lat="49.491638112813234" lon="9.402894917875528">
<ele>323</ele>
<time>2024-05-12T08:22:53Z</time>
</trkpt>
<trkpt lat="49.49159620329738" lon="9.40293020568788">
<ele>323</ele>
<time>2024-05-12T08:22:54Z</time>
</trkpt>
<trkpt lat="49.4915465824306" lon="9.402963565662503">
<ele>323</ele>
<time>2024-05-12T08:22:55Z</time>
</trkpt>
<trkpt lat="49.49150458909571" lon="9.403003631159663">
<ele>322.8</ele>
<time>2024-05-12T08:22:56Z</time>
</trkpt>
<trkpt lat="49.49145505204797" lon="9.403044618666172">
<ele>322.8</ele>
<time>2024-05-12T08:22:57Z</time>
</trkpt>
<trkpt lat="49.49140928685665" lon="9.40308661200106">
<ele>322.8</ele>
<time>2024-05-12T08:22:58Z</time>
</trkpt>
<trkpt lat="49.49135966598987" lon="9.40312667749822">
<ele>322.8</ele>
<time>2024-05-12T08:22:59Z</time>
</trkpt>
<trkpt lat="49.4913100451231" lon="9.40316674299538">
<ele>322.6</ele>
<time>2024-05-12T08:23:00Z</time>
</trkpt>
<trkpt lat="49.49126050807536" lon="9.403204880654812">
<ele>322.6</ele>
<time>2024-05-12T08:23:01Z</time>
</trkpt>
<trkpt lat="49.49121088720858" lon="9.403242096304892">
<ele>322.6</ele>
<time>2024-05-12T08:23:02Z</time>
</trkpt>
<trkpt lat="49.491161266341805" lon="9.403280233964324">
<ele>322.6</ele>
<time>2024-05-12T08:23:03Z</time>
</trkpt>
<trkpt lat="49.49111172929406" lon="9.403316443786023">
<ele>322.6</ele>
<time>2024-05-12T08:23:04Z</time>
</trkpt>
<trkpt lat="49.491062108427286" lon="9.403351731598375">
<ele>322.4</ele>
<time>2024-05-12T08:23:05Z</time>
</trkpt>
<trkpt lat="49.49101634323597" lon="9.403387941420078">
<ele>322.4</ele>
<time>2024-05-12T08:23:06Z</time>
</trkpt>
<trkpt lat="49.490966722369194" lon="9.403428006917238">
<ele>322.2</ele>
<time>2024-05-12T08:23:07Z</time>
</trkpt>
<trkpt lat="49.49092095717788" lon="9.40346522256732">
<ele>322.2</ele>
<time>2024-05-12T08:23:08Z</time>
</trkpt>
<trkpt lat="49.49087519198656" lon="9.40350336022675">
<ele>322</ele>
<time>2024-05-12T08:23:09Z</time>
</trkpt>
<trkpt lat="49.490825571119785" lon="9.403539653867483">
<ele>321.8</ele>
<time>2024-05-12T08:23:10Z</time>
</trkpt>
<trkpt lat="49.49077980592847" lon="9.403576785698531">
<ele>321.8</ele>
<time>2024-05-12T08:23:11Z</time>
</trkpt>
<trkpt lat="49.49073789641261" lon="9.403612073510883">
<ele>321.6</ele>
<time>2024-05-12T08:23:12Z</time>
</trkpt>
<trkpt lat="49.490688275545835" lon="9.403648367151618">
<ele>321.6</ele>
<time>2024-05-12T08:23:13Z</time>
</trkpt>
<trkpt lat="49.490646282210946" lon="9.40368457697332">
<ele>321.4</ele>
<time>2024-05-12T08:23:14Z</time>
</trkpt>
<trkpt lat="49.49060051701963" lon="9.4037217926234">
<ele>321.2</ele>
<time>2024-05-12T08:23:15Z</time>
</trkpt>
<trkpt lat="49.49055475182831" lon="9.403755152598023">
<ele>321.2</ele>
<time>2024-05-12T08:23:16Z</time>
</trkpt>
<trkpt lat="49.49050898663699" lon="9.403791362419724">
<ele>321.2</ele>
<time>2024-05-12T08:23:17Z</time>
</trkpt>
<trkpt lat="49.49046322144568" lon="9.403828578069806">
<ele>321.2</ele>
<time>2024-05-12T08:23:18Z</time>
</trkpt>
<trkpt lat="49.49041745625436" lon="9.403861938044429">
<ele>321.2</ele>
<time>2024-05-12T08:23:19Z</time>
</trkpt>
<trkpt lat="49.49037169106305" lon="9.403896303847432">
<ele>321.4</ele>
<time>2024-05-12T08:23:20Z</time>
</trkpt>
<trkpt lat="49.49032969772816" lon="9.403933519497514">
<ele>321.4</ele>
<time>2024-05-12T08:23:21Z</time>
</trkpt>
<trkpt lat="49.49028393253684" lon="9.403968807309866">
<ele>321.4</ele>
<time>2024-05-12T08:23:22Z</time>
</trkpt>
<trkpt lat="49.49024193920195" lon="9.404003089293838">
<ele>321.4</ele>
<time>2024-05-12T08:23:23Z</time>
</trkpt>
<trkpt lat="49.49020002968609" lon="9.40403837710619">
<ele>321.4</ele>
<time>2024-05-12T08:23:24Z</time>
</trkpt>
<trkpt lat="49.4901580363512" lon="9.404071737080812">
<ele>321.4</ele>
<time>2024-05-12T08:23:25Z</time>
</trkpt>
<trkpt lat="49.490116043016315" lon="9.404103253036736">
<ele>321.6</ele>
<time>2024-05-12T08:23:26Z</time>
</trkpt>
<trkpt lat="49.49007790535688" lon="9.40413468517363">
<ele>321.6</ele>
<time>2024-05-12T08:23:27Z</time>
</trkpt>
<trkpt lat="49.49003976769745" lon="9.404168128967283">
<ele>321.6</ele>
<time>2024-05-12T08:23:28Z</time>
</trkpt>
<trkpt lat="49.49000163003802" lon="9.404201488941908">
<ele>321.6</ele>
<time>2024-05-12T08:23:29Z</time>
</trkpt>
<trkpt lat="49.48996349237859" lon="9.40423484891653">
<ele>321.6</ele>
<time>2024-05-12T08:23:30Z</time>
</trkpt>
<trkpt lat="49.48992535471916" lon="9.40427298657596">
<ele>321.6</ele>
<time>2024-05-12T08:23:31Z</time>
</trkpt>
<trkpt lat="49.48988721705973" lon="9.40431497991085">
<ele>321.6</ele>
<time>2024-05-12T08:23:32Z</time>
</trkpt>
<trkpt lat="49.4898490794003" lon="9.40435504540801">
<ele>321.8</ele>
<time>2024-05-12T08:23:33Z</time>
</trkpt>
<trkpt lat="49.48981094174087" lon="9.404397960752249">
<ele>321.8</ele>
<time>2024-05-12T08:23:34Z</time>
</trkpt>
<trkpt lat="49.48977272026241" lon="9.404444647952914">
<ele>322</ele>
<time>2024-05-12T08:23:35Z</time>
</trkpt>
<trkpt lat="49.48973843827844" lon="9.404491418972611">
<ele>322</ele>
<time>2024-05-12T08:23:36Z</time>
</trkpt>
<trkpt lat="49.489700300619006" lon="9.404540034011006">
<ele>322</ele>
<time>2024-05-12T08:23:37Z</time>
</trkpt>
<trkpt lat="49.489665934816" lon="9.40458957105875">
<ele>322</ele>
<time>2024-05-12T08:23:38Z</time>
</trkpt>
<trkpt lat="49.48962779715657" lon="9.404638269916177">
<ele>322</ele>
<time>2024-05-12T08:23:39Z</time>
</trkpt>
<trkpt lat="49.48959343135357" lon="9.40468780696392">
<ele>322.2</ele>
<time>2024-05-12T08:23:40Z</time>
</trkpt>
<trkpt lat="49.48955529369414" lon="9.404736505821347">
<ele>322.2</ele>
<time>2024-05-12T08:23:41Z</time>
</trkpt>
<trkpt lat="49.48951715603471" lon="9.40478797070682">
<ele>322.4</ele>
<time>2024-05-12T08:23:42Z</time>
</trkpt>
<trkpt lat="49.48947901837528" lon="9.404836585745215">
<ele>322.4</ele>
<time>2024-05-12T08:23:43Z</time>
</trkpt>
<trkpt lat="49.48944088071585" lon="9.404886206611993">
<ele>322.4</ele>
<time>2024-05-12T08:23:44Z</time>
</trkpt>
<trkpt lat="49.48939888738096" lon="9.404934821650386">
<ele>322.4</ele>
<time>2024-05-12T08:23:45Z</time>
</trkpt>
<trkpt lat="49.48936074972153" lon="9.40498637035489">
<ele>322.4</ele>
<time>2024-05-12T08:23:46Z</time>
</trkpt>
<trkpt lat="49.4893226120621" lon="9.405037835240364">
<ele>322.4</ele>
<time>2024-05-12T08:23:47Z</time>
</trkpt>
<trkpt lat="49.489284474402666" lon="9.405091227963569">
<ele>322.4</ele>
<time>2024-05-12T08:23:48Z</time>
</trkpt>
<trkpt lat="49.48924633674323" lon="9.4051465485245">
<ele>322.4</ele>
<time>2024-05-12T08:23:49Z</time>
</trkpt>
<trkpt lat="49.489204343408346" lon="9.405198097229004">
<ele>322.4</ele>
<time>2024-05-12T08:23:50Z</time>
</trkpt>
<trkpt lat="49.48916243389249" lon="9.405251489952208">
<ele>322.4</ele>
<time>2024-05-12T08:23:51Z</time>
</trkpt>
<trkpt lat="49.48912429623306" lon="9.40530488267541">
<ele>322.4</ele>
<time>2024-05-12T08:23:52Z</time>
</trkpt>
<trkpt lat="49.48908607475459" lon="9.40536020323634">
<ele>322.4</ele>
<time>2024-05-12T08:23:53Z</time>
</trkpt>
<trkpt lat="49.48904416523874" lon="9.405414517968891">
<ele>322.4</ele>
<time>2024-05-12T08:23:54Z</time>
</trkpt>
<trkpt lat="49.48900602757931" lon="9.405469838529823">
<ele>322.4</ele>
<time>2024-05-12T08:23:55Z</time>
</trkpt>
<trkpt lat="49.48896403424442" lon="9.405525159090756">
<ele>322.4</ele>
<time>2024-05-12T08:23:56Z</time>
</trkpt>
<trkpt lat="49.48892204090953" lon="9.40557662397623">
<ele>322.4</ele>
<time>2024-05-12T08:23:57Z</time>
</trkpt>
<trkpt lat="49.48888013139367" lon="9.405628172680736">
<ele>322.4</ele>
<time>2024-05-12T08:23:58Z</time>
</trkpt>
<trkpt lat="49.48884199373424" lon="9.40567871555686">
<ele>322.4</ele>
<time>2024-05-12T08:23:59Z</time>
</trkpt>
<trkpt lat="49.48880000039935" lon="9.405730180442331">
<ele>322.6</ele>
<time>2024-05-12T08:24:00Z</time>
</trkpt>
<trkpt lat="49.48876186273992" lon="9.405781729146838">
<ele>322.6</ele>
<time>2024-05-12T08:24:01Z</time>
</trkpt>
<trkpt lat="49.48872372508049" lon="9.40583512187004">
<ele>322.6</ele>
<time>2024-05-12T08:24:02Z</time>
</trkpt>
<trkpt lat="49.48868558742106" lon="9.405888514593244">
<ele>322.8</ele>
<time>2024-05-12T08:24:03Z</time>
</trkpt>
<trkpt lat="49.48864744976163" lon="9.405939979478717">
<ele>322.8</ele>
<time>2024-05-12T08:24:04Z</time>
</trkpt>
<trkpt lat="49.48860545642674" lon="9.405989600345492">
<ele>322.8</ele>
<time>2024-05-12T08:24:05Z</time>
</trkpt>
<trkpt lat="49.48856731876731" lon="9.406040143221617">
<ele>322.8</ele>
<time>2024-05-12T08:24:06Z</time>
</trkpt>
<trkpt lat="49.48852918110788" lon="9.406087836250665">
<ele>322.8</ele>
<time>2024-05-12T08:24:07Z</time>
</trkpt>
<trkpt lat="49.48848718777299" lon="9.40613360144198">
<ele>322.8</ele>
<time>2024-05-12T08:24:08Z</time>
</trkpt>
<trkpt lat="49.48844527825713" lon="9.406174588948488">
<ele>322.6</ele>
<time>2024-05-12T08:24:09Z</time>
</trkpt>
<trkpt lat="49.48840328492224" lon="9.4062137324363">
<ele>322.6</ele>
<time>2024-05-12T08:24:10Z</time>
</trkpt>
<trkpt lat="49.488357519730926" lon="9.406248014420273">
<ele>322.8</ele>
<time>2024-05-12T08:24:11Z</time>
</trkpt>
<trkpt lat="49.48831175453961" lon="9.406279530376196">
<ele>322.8</ele>
<time>2024-05-12T08:24:12Z</time>
</trkpt>
<trkpt lat="49.48826213367283" lon="9.40631289035082">
<ele>323</ele>
<time>2024-05-12T08:24:13Z</time>
</trkpt>
<trkpt lat="49.48821636848152" lon="9.406345328316092">
<ele>323</ele>
<time>2024-05-12T08:24:14Z</time>
</trkpt>
<trkpt lat="49.488162975758314" lon="9.406378688290715">
<ele>323.2</ele>
<time>2024-05-12T08:24:15Z</time>
</trkpt>
<trkpt lat="49.48810958303511" lon="9.40641020424664">
<ele>323.2</ele>
<time>2024-05-12T08:24:16Z</time>
</trkpt>
<trkpt lat="49.48805610649288" lon="9.406443564221265">
<ele>323</ele>
<time>2024-05-12T08:24:17Z</time>
</trkpt>
<trkpt lat="49.488002713769674" lon="9.406476924195886">
<ele>323</ele>
<time>2024-05-12T08:24:18Z</time>
</trkpt>
<trkpt lat="49.48795317672193" lon="9.406510284170508">
<ele>323</ele>
<time>2024-05-12T08:24:19Z</time>
</trkpt>
<trkpt lat="49.487899700179696" lon="9.406541800126432">
<ele>323</ele>
<time>2024-05-12T08:24:20Z</time>
</trkpt>
<trkpt lat="49.48785016313195" lon="9.406573232263328">
<ele>323.2</ele>
<time>2024-05-12T08:24:21Z</time>
</trkpt>
<trkpt lat="49.48780054226518" lon="9.406604748219252">
<ele>323.2</ele>
<time>2024-05-12T08:24:22Z</time>
</trkpt>
<trkpt lat="49.48775477707386" lon="9.406635258346796">
<ele>323.2</ele>
<time>2024-05-12T08:24:23Z</time>
</trkpt>
<trkpt lat="49.487705156207085" lon="9.406664846464992">
<ele>323.2</ele>
<time>2024-05-12T08:24:24Z</time>
</trkpt>
<trkpt lat="49.48765561915934" lon="9.406696278601885">
<ele>323.2</ele>
<time>2024-05-12T08:24:25Z</time>
</trkpt>
<trkpt lat="49.487609853968024" lon="9.40672678872943">
<ele>323</ele>
<time>2024-05-12T08:24:26Z</time>
</trkpt>
<trkpt lat="49.48756400495768" lon="9.406753527000546">
<ele>323</ele>
<time>2024-05-12T08:24:27Z</time>
</trkpt>
<trkpt lat="49.48751823976636" lon="9.406780181452632">
<ele>322.8</ele>
<time>2024-05-12T08:24:28Z</time>
</trkpt>
<trkpt lat="49.4874763302505" lon="9.406807841733098">
<ele>322.8</ele>
<time>2024-05-12T08:24:29Z</time>
</trkpt>
<trkpt lat="49.487430565059185" lon="9.406838351860642">
<ele>322.6</ele>
<time>2024-05-12T08:24:30Z</time>
</trkpt>
<trkpt lat="49.48738471604884" lon="9.406867017969487">
<ele>322.6</ele>
<time>2024-05-12T08:24:31Z</time>
</trkpt>
<trkpt lat="49.48734280653298" lon="9.406896522268651">
<ele>322.4</ele>
<time>2024-05-12T08:24:32Z</time>
</trkpt>
<trkpt lat="49.4872931856662" lon="9.406927032396196">
<ele>322.4</ele>
<time>2024-05-12T08:24:33Z</time>
</trkpt>
<trkpt lat="49.487251276150346" lon="9.406956620514393">
<ele>322.2</ele>
<time>2024-05-12T08:24:34Z</time>
</trkpt>
<trkpt lat="49.48720165528357" lon="9.406985202804208">
<ele>322.2</ele>
<time>2024-05-12T08:24:35Z</time>
</trkpt>
<trkpt lat="49.48716351762414" lon="9.407011941075323">
<ele>322.2</ele>
<time>2024-05-12T08:24:36Z</time>
</trkpt>
<trkpt lat="49.48711775243282" lon="9.40704152919352">
<ele>322.2</ele>
<time>2024-05-12T08:24:37Z</time>
</trkpt>
<trkpt lat="49.487075759097934" lon="9.407070111483335">
<ele>322.2</ele>
<time>2024-05-12T08:24:38Z</time>
</trkpt>
<trkpt lat="49.48703376576304" lon="9.407094921916723">
<ele>322.4</ele>
<time>2024-05-12T08:24:39Z</time>
</trkpt>
<trkpt lat="49.48699185624719" lon="9.407119732350113">
<ele>322.6</ele>
<time>2024-05-12T08:24:40Z</time>
</trkpt>
<trkpt lat="49.4869498629123" lon="9.407143536955118">
<ele>322.6</ele>
<time>2024-05-12T08:24:41Z</time>
</trkpt>
<trkpt lat="49.48691172525287" lon="9.407168347388506">
<ele>322.8</ele>
<time>2024-05-12T08:24:42Z</time>
</trkpt>
<trkpt lat="49.48686973191798" lon="9.407193157821894">
<ele>323</ele>
<time>2024-05-12T08:24:43Z</time>
</trkpt>
<trkpt lat="49.48683159425855" lon="9.40721981227398">
<ele>323.2</ele>
<time>2024-05-12T08:24:44Z</time>
</trkpt>
<trkpt lat="49.48679345659912" lon="9.407244622707369">
<ele>323.2</ele>
<time>2024-05-12T08:24:45Z</time>
</trkpt>
<trkpt lat="49.486759174615145" lon="9.407268511131406">
<ele>323.4</ele>
<time>2024-05-12T08:24:46Z</time>
</trkpt>
<trkpt lat="49.48672480881214" lon="9.407290387898684">
<ele>323.6</ele>
<time>2024-05-12T08:24:47Z</time>
</trkpt>
<trkpt lat="49.48668667115271" lon="9.407311426475644">
<ele>323.6</ele>
<time>2024-05-12T08:24:48Z</time>
</trkpt>
<trkpt lat="49.48664853349328" lon="9.407333303242922">
<ele>323.8</ele>
<time>2024-05-12T08:24:49Z</time>
</trkpt>
<trkpt lat="49.48661039583385" lon="9.40735618583858">
<ele>324</ele>
<time>2024-05-12T08:24:50Z</time>
</trkpt>
<trkpt lat="49.48657603003085" lon="9.40738007426262">
<ele>324.2</ele>
<time>2024-05-12T08:24:51Z</time>
</trkpt>
<trkpt lat="49.486537892371416" lon="9.407404884696009">
<ele>324.4</ele>
<time>2024-05-12T08:24:52Z</time>
</trkpt>
<trkpt lat="49.486499754711986" lon="9.407428689301014">
<ele>324.4</ele>
<time>2024-05-12T08:24:53Z</time>
</trkpt>
<trkpt lat="49.486461617052555" lon="9.407453499734402">
<ele>324.6</ele>
<time>2024-05-12T08:24:54Z</time>
</trkpt>
<trkpt lat="49.486423479393125" lon="9.40748023800552">
<ele>324.8</ele>
<time>2024-05-12T08:24:55Z</time>
</trkpt>
<trkpt lat="49.48638911359012" lon="9.407504964619877">
<ele>324.8</ele>
<time>2024-05-12T08:24:56Z</time>
</trkpt>
<trkpt lat="49.48635474778712" lon="9.407529775053264">
<ele>325</ele>
<time>2024-05-12T08:24:57Z</time>
</trkpt>
<trkpt lat="49.48631661012769" lon="9.407551735639572">
<ele>325</ele>
<time>2024-05-12T08:24:58Z</time>
</trkpt>
<trkpt lat="49.48628232814371" lon="9.407573696225882">
<ele>325.2</ele>
<time>2024-05-12T08:24:59Z</time>
</trkpt>
<trkpt lat="49.48624796234071" lon="9.40759657882154">
<ele>325.4</ele>
<time>2024-05-12T08:25:00Z</time>
</trkpt>
<trkpt lat="49.48621368035674" lon="9.407620383426549">
<ele>325.4</ele>
<time>2024-05-12T08:25:01Z</time>
</trkpt>
<trkpt lat="49.48617931455374" lon="9.407643266022204">
<ele>325.4</ele>
<time>2024-05-12T08:25:02Z</time>
</trkpt>
<trkpt lat="49.486144948750734" lon="9.407663298770784">
<ele>325.6</ele>
<time>2024-05-12T08:25:03Z</time>
</trkpt>
<trkpt lat="49.48611066676676" lon="9.407685259357097">
<ele>325.6</ele>
<time>2024-05-12T08:25:04Z</time>
</trkpt>
<trkpt lat="49.48607630096376" lon="9.407705292105677">
<ele>325.6</ele>
<time>2024-05-12T08:25:05Z</time>
</trkpt>
<trkpt lat="49.48604201897979" lon="9.40771476365626">
<ele>325.8</ele>
<time>2024-05-12T08:25:06Z</time>
</trkpt>
<trkpt lat="49.48601142503321" lon="9.407699508592486">
<ele>325.8</ele>
<time>2024-05-12T08:25:07Z</time>
</trkpt>
<trkpt lat="49.48598091490567" lon="9.407663298770784">
<ele>325.8</ele>
<time>2024-05-12T08:25:08Z</time>
</trkpt>
<trkpt lat="49.48595803231001" lon="9.407605128362777">
<ele>326</ele>
<time>2024-05-12T08:25:09Z</time>
</trkpt>
<trkpt lat="49.48593514971435" lon="9.4075364805758">
<ele>326</ele>
<time>2024-05-12T08:25:10Z</time>
</trkpt>
<trkpt lat="49.485908495262265" lon="9.40745634958148">
<ele>326.2</ele>
<time>2024-05-12T08:25:11Z</time>
</trkpt>
<trkpt lat="49.48588175699115" lon="9.40737621858716">
<ele>326.2</ele>
<time>2024-05-12T08:25:12Z</time>
</trkpt>
<trkpt lat="49.48585510253906" lon="9.40729709342122">
<ele>326.2</ele>
<time>2024-05-12T08:25:13Z</time>
</trkpt>
<trkpt lat="49.485824508592486" lon="9.407213190570474">
<ele>326</ele>
<time>2024-05-12T08:25:14Z</time>
</trkpt>
<trkpt lat="49.4857978541404" lon="9.407131131738424">
<ele>325.8</ele>
<time>2024-05-12T08:25:15Z</time>
</trkpt>
<trkpt lat="49.48576734401286" lon="9.407050078734756">
<ele>325.6</ele>
<time>2024-05-12T08:25:16Z</time>
</trkpt>
<trkpt lat="49.48573683388531" lon="9.406966175884008">
<ele>325.2</ele>
<time>2024-05-12T08:25:17Z</time>
</trkpt>
<trkpt lat="49.485710095614195" lon="9.406887972727418">
<ele>325</ele>
<time>2024-05-12T08:25:18Z</time>
</trkpt>
<trkpt lat="49.48568344116211" lon="9.406809769570827">
<ele>324.6</ele>
<time>2024-05-12T08:25:19Z</time>
</trkpt>
<trkpt lat="49.48565670289099" lon="9.406731566414235">
<ele>324.4</ele>
<time>2024-05-12T08:25:20Z</time>
</trkpt>
<trkpt lat="49.485629964619875" lon="9.40664858557284">
<ele>324</ele>
<time>2024-05-12T08:25:21Z</time>
</trkpt>
<trkpt lat="49.48560331016779" lon="9.406564682722092">
<ele>323.6</ele>
<time>2024-05-12T08:25:22Z</time>
</trkpt>
<trkpt lat="49.48557657189667" lon="9.406484551727772">
<ele>323.4</ele>
<time>2024-05-12T08:25:23Z</time>
</trkpt>
<trkpt lat="49.485553689301014" lon="9.406412048265338">
<ele>323</ele>
<time>2024-05-12T08:25:24Z</time>
</trkpt>
<trkpt lat="49.48553080670536" lon="9.406343400478365">
<ele>322.6</ele>
<time>2024-05-12T08:25:25Z</time>
</trkpt>
<trkpt lat="49.4855079241097" lon="9.406274752691388">
<ele>322.2</ele>
<time>2024-05-12T08:25:26Z</time>
</trkpt>
<trkpt lat="49.48548504151404" lon="9.40620987676084">
<ele>321.8</ele>
<time>2024-05-12T08:25:27Z</time>
</trkpt>
<trkpt lat="49.48546215891838" lon="9.406149862334132">
<ele>321.4</ele>
<time>2024-05-12T08:25:28Z</time>
</trkpt>
<trkpt lat="49.48544304817915" lon="9.40609353594482">
<ele>321</ele>
<time>2024-05-12T08:25:29Z</time>
</trkpt>
<trkpt lat="49.48542016558349" lon="9.406038215383887">
<ele>320.4</ele>
<time>2024-05-12T08:25:30Z</time>
</trkpt>
<trkpt lat="49.48540113866329" lon="9.405984822660685">
<ele>319.8</ele>
<time>2024-05-12T08:25:31Z</time>
</trkpt>
<trkpt lat="49.485374400392175" lon="9.40593620762229">
<ele>319.4</ele>
<time>2024-05-12T08:25:32Z</time>
</trkpt>
<trkpt lat="49.4853401184082" lon="9.405901841819286">
<ele>318.8</ele>
<time>2024-05-12T08:25:33Z</time>
</trkpt>
<trkpt lat="49.48530189692974" lon="9.405879965052009">
<ele>318.2</ele>
<time>2024-05-12T08:25:34Z</time>
</trkpt>
<trkpt lat="49.485256131738424" lon="9.40589706413448">
<ele>317.6</ele>
<time>2024-05-12T08:25:35Z</time>
</trkpt>
<trkpt lat="49.48521422222257" lon="9.405924724414945">
<ele>317.2</ele>
<time>2024-05-12T08:25:36Z</time>
</trkpt>
<trkpt lat="49.48516074568033" lon="9.405971495434642">
<ele>316.6</ele>
<time>2024-05-12T08:25:37Z</time>
</trkpt>
<trkpt lat="49.48510735295713" lon="9.406011560931802">
<ele>316</ele>
<time>2024-05-12T08:25:38Z</time>
</trkpt>
<trkpt lat="49.48505396023393" lon="9.406049698591232">
<ele>315.6</ele>
<time>2024-05-12T08:25:39Z</time>
</trkpt>
<trkpt lat="49.48500056751072" lon="9.406087836250665">
<ele>315.4</ele>
<time>2024-05-12T08:25:40Z</time>
</trkpt>
<trkpt lat="49.48494717478752" lon="9.406125051900744">
<ele>315</ele>
<time>2024-05-12T08:25:41Z</time>
</trkpt>
<trkpt lat="49.484901409596205" lon="9.406163189560177">
<ele>314.8</ele>
<time>2024-05-12T08:25:42Z</time>
</trkpt>
<trkpt lat="49.48485178872943" lon="9.406198477372527">
<ele>314.6</ele>
<time>2024-05-12T08:25:43Z</time>
</trkpt>
<trkpt lat="49.484802167862654" lon="9.406234687194228">
<ele>314.4</ele>
<time>2024-05-12T08:25:44Z</time>
</trkpt>
<trkpt lat="49.48474877513945" lon="9.40627282485366">
<ele>314.2</ele>
<time>2024-05-12T08:25:45Z</time>
</trkpt>
<trkpt lat="49.48469923809171" lon="9.40631004050374">
<ele>314</ele>
<time>2024-05-12T08:25:46Z</time>
</trkpt>
<trkpt lat="49.48464961722493" lon="9.40634625032544">
<ele>313.8</ele>
<time>2024-05-12T08:25:47Z</time>
</trkpt>
<trkpt lat="49.48459999635816" lon="9.406383465975525">
<ele>313.8</ele>
<time>2024-05-12T08:25:48Z</time>
</trkpt>
<trkpt lat="49.48454660363495" lon="9.406421603634952">
<ele>313.6</ele>
<time>2024-05-12T08:25:49Z</time>
</trkpt>
<trkpt lat="49.48450083844364" lon="9.406457897275686">
<ele>313.4</ele>
<time>2024-05-12T08:25:50Z</time>
</trkpt>
<trkpt lat="49.484447445720434" lon="9.406495029106736">
<ele>313.4</ele>
<time>2024-05-12T08:25:51Z</time>
</trkpt>
<trkpt lat="49.48439782485366" lon="9.406531322747467">
<ele>313.2</ele>
<time>2024-05-12T08:25:52Z</time>
</trkpt>
<trkpt lat="49.484348287805915" lon="9.406571388244627">
<ele>313.2</ele>
<time>2024-05-12T08:25:53Z</time>
</trkpt>
<trkpt lat="49.48429866693914" lon="9.406610447913408">
<ele>313</ele>
<time>2024-05-12T08:25:54Z</time>
</trkpt>
<trkpt lat="49.48425290174782" lon="9.40664665773511">
<ele>313</ele>
<time>2024-05-12T08:25:55Z</time>
</trkpt>
<trkpt lat="49.48420328088105" lon="9.40668479539454">
<ele>312.8</ele>
<time>2024-05-12T08:25:56Z</time>
</trkpt>
<trkpt lat="49.4841537438333" lon="9.406723016873002">
<ele>312.8</ele>
<time>2024-05-12T08:25:57Z</time>
</trkpt>
<trkpt lat="49.48410412296653" lon="9.40676492638886">
<ele>312.8</ele>
<time>2024-05-12T08:25:58Z</time>
</trkpt>
<trkpt lat="49.48405450209975" lon="9.40680499188602">
<ele>312.8</ele>
<time>2024-05-12T08:25:59Z</time>
</trkpt>
<trkpt lat="49.48400496505201" lon="9.40684505738318">
<ele>312.8</ele>
<time>2024-05-12T08:26:00Z</time>
</trkpt>
<trkpt lat="49.48395534418523" lon="9.40688319504261">
<ele>312.8</ele>
<time>2024-05-12T08:26:01Z</time>
</trkpt>
<trkpt lat="49.48390957899392" lon="9.40692326053977">
<ele>312.8</ele>
<time>2024-05-12T08:26:02Z</time>
</trkpt>
<trkpt lat="49.48385995812714" lon="9.406959470361471">
<ele>312.8</ele>
<time>2024-05-12T08:26:03Z</time>
</trkpt>
<trkpt lat="49.4838104210794" lon="9.406998613849282">
<ele>312.8</ele>
<time>2024-05-12T08:26:04Z</time>
</trkpt>
<trkpt lat="49.48376457206905" lon="9.407036751508713">
<ele>312.8</ele>
<time>2024-05-12T08:26:05Z</time>
</trkpt>
<trkpt lat="49.483715035021305" lon="9.407072961330414">
<ele>312.8</ele>
<time>2024-05-12T08:26:06Z</time>
</trkpt>
<trkpt lat="49.48366541415453" lon="9.407110176980495">
<ele>312.8</ele>
<time>2024-05-12T08:26:07Z</time>
</trkpt>
<trkpt lat="49.483615793287754" lon="9.407146386802197">
<ele>312.6</ele>
<time>2024-05-12T08:26:08Z</time>
</trkpt>
<trkpt lat="49.48357002809644" lon="9.407183602452278">
<ele>312.6</ele>
<time>2024-05-12T08:26:09Z</time>
</trkpt>
<trkpt lat="49.48352426290512" lon="9.4072169624269">
<ele>312.4</ele>
<time>2024-05-12T08:26:10Z</time>
</trkpt>
<trkpt lat="49.48347849771381" lon="9.407250322401524">
<ele>312.2</ele>
<time>2024-05-12T08:26:11Z</time>
</trkpt>
<trkpt lat="49.483436504378915" lon="9.407281838357449">
<ele>312.2</ele>
<time>2024-05-12T08:26:12Z</time>
</trkpt>
<trkpt lat="49.48338696733117" lon="9.407315198332071">
<ele>312</ele>
<time>2024-05-12T08:26:13Z</time>
</trkpt>
<trkpt lat="49.483341202139854" lon="9.407348558306694">
<ele>312</ele>
<time>2024-05-12T08:26:14Z</time>
</trkpt>
<trkpt lat="49.48329158127308" lon="9.407382002100348">
<ele>312</ele>
<time>2024-05-12T08:26:15Z</time>
</trkpt>
<trkpt lat="49.48324581608176" lon="9.407415362074971">
<ele>312.2</ele>
<time>2024-05-12T08:26:16Z</time>
</trkpt>
<trkpt lat="49.483200050890446" lon="9.407448722049594">
<ele>312.2</ele>
<time>2024-05-12T08:26:17Z</time>
</trkpt>
<trkpt lat="49.48315043002367" lon="9.40748023800552">
<ele>312.2</ele>
<time>2024-05-12T08:26:18Z</time>
</trkpt>
<trkpt lat="49.483100809156895" lon="9.407507814466952">
<ele>312.2</ele>
<time>2024-05-12T08:26:19Z</time>
</trkpt>
<trkpt lat="49.48305504396558" lon="9.40753455273807">
<ele>312.2</ele>
<time>2024-05-12T08:26:20Z</time>
</trkpt>
<trkpt lat="49.483001651242375" lon="9.407561291009188">
<ele>312.4</ele>
<time>2024-05-12T08:26:21Z</time>
</trkpt>
<trkpt lat="49.48295588605106" lon="9.407587945461271">
<ele>312.4</ele>
<time>2024-05-12T08:26:22Z</time>
</trkpt>
<trkpt lat="49.482902493327856" lon="9.407611833885312">
<ele>312.4</ele>
<time>2024-05-12T08:26:23Z</time>
</trkpt>
<trkpt lat="49.48284910060465" lon="9.40763471648097">
<ele>312.4</ele>
<time>2024-05-12T08:26:24Z</time>
</trkpt>
<trkpt lat="49.48279570788145" lon="9.407658521085978">
<ele>312.4</ele>
<time>2024-05-12T08:26:25Z</time>
</trkpt>
<trkpt lat="49.482746087014675" lon="9.407683331519364">
<ele>312.4</ele>
<time>2024-05-12T08:26:26Z</time>
</trkpt>
<trkpt lat="49.4826964661479" lon="9.407710069790484">
<ele>312.4</ele>
<time>2024-05-12T08:26:27Z</time>
</trkpt>
<trkpt lat="49.48264692910016" lon="9.407738652080296">
<ele>312.4</ele>
<time>2024-05-12T08:26:28Z</time>
</trkpt>
<trkpt lat="49.48260116390884" lon="9.407759606838226">
<ele>312.6</ele>
<time>2024-05-12T08:26:29Z</time>
</trkpt>
<trkpt lat="49.482551543042064" lon="9.407779639586806">
<ele>312.6</ele>
<time>2024-05-12T08:26:30Z</time>
</trkpt>
<trkpt lat="49.48250192217529" lon="9.407799672335386">
<ele>312.6</ele>
<time>2024-05-12T08:26:31Z</time>
</trkpt>
<trkpt lat="49.482452385127544" lon="9.407819705083966">
<ele>312.6</ele>
<time>2024-05-12T08:26:32Z</time>
</trkpt>
<trkpt lat="49.48240276426077" lon="9.407843509688972">
<ele>312.6</ele>
<time>2024-05-12T08:26:33Z</time>
</trkpt>
<trkpt lat="49.48235314339399" lon="9.40786832012236">
<ele>312.6</ele>
<time>2024-05-12T08:26:34Z</time>
</trkpt>
<trkpt lat="49.48230737820268" lon="9.40789120271802">
<ele>312.6</ele>
<time>2024-05-12T08:26:35Z</time>
</trkpt>
<trkpt lat="49.48225784115493" lon="9.407915091142058">
<ele>312.6</ele>
<time>2024-05-12T08:26:36Z</time>
</trkpt>
<trkpt lat="49.48220822028816" lon="9.407937973737717">
<ele>312.6</ele>
<time>2024-05-12T08:26:37Z</time>
</trkpt>
<trkpt lat="49.48215859942138" lon="9.407963706180452">
<ele>312.6</ele>
<time>2024-05-12T08:26:38Z</time>
</trkpt>
<trkpt lat="49.48210520669818" lon="9.40798851661384">
<ele>312.6</ele>
<time>2024-05-12T08:26:39Z</time>
</trkpt>
<trkpt lat="49.48205558583141" lon="9.408015171065928">
<ele>312.6</ele>
<time>2024-05-12T08:26:40Z</time>
</trkpt>
<trkpt lat="49.4820021931082" lon="9.408039981499314">
<ele>312.6</ele>
<time>2024-05-12T08:26:41Z</time>
</trkpt>
<trkpt lat="49.481948800385" lon="9.408062864094973">
<ele>312.6</ele>
<time>2024-05-12T08:26:42Z</time>
</trkpt>
<trkpt lat="49.48189917951822" lon="9.408086752519011">
<ele>312.6</ele>
<time>2024-05-12T08:26:43Z</time>
</trkpt>
<trkpt lat="49.48184964247048" lon="9.40810862928629">
<ele>312.6</ele>
<time>2024-05-12T08:26:44Z</time>
</trkpt>
<trkpt lat="49.4818000216037" lon="9.40812966786325">
<ele>312.6</ele>
<time>2024-05-12T08:26:45Z</time>
</trkpt>
<trkpt lat="49.48175048455596" lon="9.408155400305986">
<ele>312.6</ele>
<time>2024-05-12T08:26:46Z</time>
</trkpt>
<trkpt lat="49.48170463554561" lon="9.408180210739374">
<ele>312.6</ele>
<time>2024-05-12T08:26:47Z</time>
</trkpt>
<trkpt lat="49.48165124282241" lon="9.408203093335032">
<ele>312.6</ele>
<time>2024-05-12T08:26:48Z</time>
</trkpt>
<trkpt lat="49.481601705774665" lon="9.408225053921342">
<ele>312.6</ele>
<time>2024-05-12T08:26:49Z</time>
</trkpt>
<trkpt lat="49.48154822923243" lon="9.408249780535698">
<ele>312.6</ele>
<time>2024-05-12T08:26:50Z</time>
</trkpt>
<trkpt lat="49.48149869218469" lon="9.408278446644545">
<ele>312.4</ele>
<time>2024-05-12T08:26:51Z</time>
</trkpt>
<trkpt lat="49.48144529946149" lon="9.408303257077932">
<ele>312.4</ele>
<time>2024-05-12T08:26:52Z</time>
</trkpt>
<trkpt lat="49.48139567859471" lon="9.40832513384521">
<ele>312.2</ele>
<time>2024-05-12T08:26:53Z</time>
</trkpt>
<trkpt lat="49.481342285871506" lon="9.408349944278598">
<ele>312.2</ele>
<time>2024-05-12T08:26:54Z</time>
</trkpt>
<trkpt lat="49.4812888931483" lon="9.408374754711986">
<ele>312</ele>
<time>2024-05-12T08:26:55Z</time>
</trkpt>
<trkpt lat="49.481243127956986" lon="9.408398559316993">
<ele>312</ele>
<time>2024-05-12T08:26:56Z</time>
</trkpt>
<trkpt lat="49.48118965141475" lon="9.40842336975038">
<ele>311.8</ele>
<time>2024-05-12T08:26:57Z</time>
</trkpt>
<trkpt lat="49.48113625869155" lon="9.40844625234604">
<ele>311.8</ele>
<time>2024-05-12T08:26:58Z</time>
</trkpt>
<trkpt lat="49.48108286596835" lon="9.408470140770078">
<ele>311.8</ele>
<time>2024-05-12T08:26:59Z</time>
</trkpt>
<trkpt lat="49.48103324510157" lon="9.408494867384434">
<ele>311.8</ele>
<time>2024-05-12T08:27:00Z</time>
</trkpt>
<trkpt lat="49.48097985237837" lon="9.408519677817822">
<ele>311.8</ele>
<time>2024-05-12T08:27:01Z</time>
</trkpt>
<trkpt lat="49.480926459655166" lon="9.40854641608894">
<ele>311.8</ele>
<time>2024-05-12T08:27:02Z</time>
</trkpt>
<trkpt lat="49.48087306693196" lon="9.408573070541024">
<ele>311.8</ele>
<time>2024-05-12T08:27:03Z</time>
</trkpt>
<trkpt lat="49.48082344606519" lon="9.40859980881214">
<ele>311.8</ele>
<time>2024-05-12T08:27:04Z</time>
</trkpt>
<trkpt lat="49.48077390901744" lon="9.408623613417149">
<ele>311.8</ele>
<time>2024-05-12T08:27:05Z</time>
</trkpt>
<trkpt lat="49.48072428815067" lon="9.408648423850536">
<ele>311.6</ele>
<time>2024-05-12T08:27:06Z</time>
</trkpt>
<trkpt lat="49.48067852295935" lon="9.408670384436846">
<ele>311.6</ele>
<time>2024-05-12T08:27:07Z</time>
</trkpt>
<trkpt lat="49.48063652962446" lon="9.408691339194776">
<ele>311.6</ele>
<time>2024-05-12T08:27:08Z</time>
</trkpt>
<trkpt lat="49.480590764433146" lon="9.408711371943356">
<ele>311.6</ele>
<time>2024-05-12T08:27:09Z</time>
</trkpt>
<trkpt lat="49.48054499924183" lon="9.408729476854203">
<ele>311.8</ele>
<time>2024-05-12T08:27:10Z</time>
</trkpt>
<trkpt lat="49.48049923405051" lon="9.408738110214472">
<ele>311.8</ele>
<time>2024-05-12T08:27:11Z</time>
</trkpt>
<trkpt lat="49.48044961318374" lon="9.408738110214472">
<ele>311.8</ele>
<time>2024-05-12T08:27:12Z</time>
</trkpt>
<trkpt lat="49.48040007613599" lon="9.408736182376742">
<ele>312</ele>
<time>2024-05-12T08:27:13Z</time>
</trkpt>
<trkpt lat="49.48034659959376" lon="9.408729476854203">
<ele>312</ele>
<time>2024-05-12T08:27:14Z</time>
</trkpt>
<trkpt lat="49.48029320687056" lon="9.40872000530362">
<ele>312</ele>
<time>2024-05-12T08:27:15Z</time>
</trkpt>
<trkpt lat="49.480236042290926" lon="9.408711371943356">
<ele>312</ele>
<time>2024-05-12T08:27:16Z</time>
</trkpt>
<trkpt lat="49.480178793892264" lon="9.408704750239847">
<ele>311.8</ele>
<time>2024-05-12T08:27:17Z</time>
</trkpt>
<trkpt lat="49.4801215454936" lon="9.408711371943356">
<ele>311.6</ele>
<time>2024-05-12T08:27:18Z</time>
</trkpt>
<trkpt lat="49.480060525238514" lon="9.408729476854203">
<ele>311.6</ele>
<time>2024-05-12T08:27:19Z</time>
</trkpt>
<trkpt lat="49.48000327683985" lon="9.408753365278244">
<ele>311.4</ele>
<time>2024-05-12T08:27:20Z</time>
</trkpt>
<trkpt lat="49.47994611226022" lon="9.40878001973033">
<ele>311.4</ele>
<time>2024-05-12T08:27:21Z</time>
</trkpt>
<trkpt lat="49.47989271953702" lon="9.408813463523984">
<ele>311.2</ele>
<time>2024-05-12T08:27:22Z</time>
</trkpt>
<trkpt lat="49.479839242994785" lon="9.4088420458138">
<ele>311.2</ele>
<time>2024-05-12T08:27:23Z</time>
</trkpt>
<trkpt lat="49.479782078415155" lon="9.408868784084916">
<ele>311</ele>
<time>2024-05-12T08:27:24Z</time>
</trkpt>
<trkpt lat="49.479724830016494" lon="9.408896444365382">
<ele>311</ele>
<time>2024-05-12T08:27:25Z</time>
</trkpt>
<trkpt lat="49.47967143729329" lon="9.408925026655195">
<ele>310.8</ele>
<time>2024-05-12T08:27:26Z</time>
</trkpt>
<trkpt lat="49.47961804457009" lon="9.408951681107284">
<ele>310.8</ele>
<time>2024-05-12T08:27:27Z</time>
</trkpt>
<trkpt lat="49.47956842370331" lon="9.408974647521973">
<ele>310.8</ele>
<time>2024-05-12T08:27:28Z</time>
</trkpt>
<trkpt lat="49.47951888665557" lon="9.40899652428925">
<ele>310.8</ele>
<time>2024-05-12T08:27:29Z</time>
</trkpt>
<trkpt lat="49.47947303764522" lon="9.40901655703783">
<ele>310.8</ele>
<time>2024-05-12T08:27:30Z</time>
</trkpt>
<trkpt lat="49.47942350059748" lon="9.409031812101604">
<ele>310.6</ele>
<time>2024-05-12T08:27:31Z</time>
</trkpt>
<trkpt lat="49.479370107874274" lon="9.409049917012451">
<ele>310.6</ele>
<time>2024-05-12T08:27:32Z</time>
</trkpt>
<trkpt lat="49.47931663133204" lon="9.409069949761031">
<ele>310.4</ele>
<time>2024-05-12T08:27:33Z</time>
</trkpt>
<trkpt lat="49.47926323860884" lon="9.409099537879229">
<ele>310.4</ele>
<time>2024-05-12T08:27:34Z</time>
</trkpt>
<trkpt lat="49.47920607402921" lon="9.409125270321963">
<ele>310.2</ele>
<time>2024-05-12T08:27:35Z</time>
</trkpt>
<trkpt lat="49.47914496995509" lon="9.409148152917624">
<ele>310.2</ele>
<time>2024-05-12T08:27:36Z</time>
</trkpt>
<trkpt lat="49.47908017784357" lon="9.409172963351011">
<ele>310.2</ele>
<time>2024-05-12T08:27:37Z</time>
</trkpt>
<trkpt lat="49.47901530191302" lon="9.409199701622128">
<ele>310.2</ele>
<time>2024-05-12T08:27:38Z</time>
</trkpt>
<trkpt lat="49.478954281657934" lon="9.409223506227136">
<ele>310.2</ele>
<time>2024-05-12T08:27:39Z</time>
</trkpt>
<trkpt lat="49.478893261402845" lon="9.409248316660523">
<ele>310</ele>
<time>2024-05-12T08:27:40Z</time>
</trkpt>
<trkpt lat="49.47883224114776" lon="9.409271199256182">
<ele>310</ele>
<time>2024-05-12T08:27:41Z</time>
</trkpt>
<trkpt lat="49.478774992749095" lon="9.409290309995413">
<ele>309.8</ele>
<time>2024-05-12T08:27:42Z</time>
</trkpt>
<trkpt lat="49.47871011681855" lon="9.409301709383726">
<ele>309.8</ele>
<time>2024-05-12T08:27:43Z</time>
</trkpt>
<trkpt lat="49.47864532470703" lon="9.409303637221456">
<ele>309.6</ele>
<time>2024-05-12T08:27:44Z</time>
</trkpt>
<trkpt lat="49.47858044877648" lon="9.409303637221456">
<ele>309.6</ele>
<time>2024-05-12T08:27:45Z</time>
</trkpt>
<trkpt lat="49.478515572845936" lon="9.409301709383726">
<ele>309.6</ele>
<time>2024-05-12T08:27:46Z</time>
</trkpt>
<trkpt lat="49.47845069691539" lon="9.4092979375273">
<ele>309.4</ele>
<time>2024-05-12T08:27:47Z</time>
</trkpt>
<trkpt lat="49.4783896766603" lon="9.409296931698918">
<ele>309.4</ele>
<time>2024-05-12T08:27:48Z</time>
</trkpt>
<trkpt lat="49.47832488454878" lon="9.409291232004762">
<ele>309.4</ele>
<time>2024-05-12T08:27:49Z</time>
</trkpt>
<trkpt lat="49.47826378047466" lon="9.409286454319954">
<ele>309.4</ele>
<time>2024-05-12T08:27:50Z</time>
</trkpt>
<trkpt lat="49.478202760219574" lon="9.409281676635146">
<ele>309.2</ele>
<time>2024-05-12T08:27:51Z</time>
</trkpt>
<trkpt lat="49.47813796810806" lon="9.40927790477872">
<ele>309.2</ele>
<time>2024-05-12T08:27:52Z</time>
</trkpt>
<trkpt lat="49.47807686403394" lon="9.40927505493164">
<ele>309.2</ele>
<time>2024-05-12T08:27:53Z</time>
</trkpt>
<trkpt lat="49.47801584377885" lon="9.409273127093911">
<ele>309.2</ele>
<time>2024-05-12T08:27:54Z</time>
</trkpt>
<trkpt lat="49.47795482352376" lon="9.409270277246833">
<ele>309.2</ele>
<time>2024-05-12T08:27:55Z</time>
</trkpt>
<trkpt lat="49.4778975751251" lon="9.409268349409103">
<ele>309.2</ele>
<time>2024-05-12T08:27:56Z</time>
</trkpt>
<trkpt lat="49.47784041054547" lon="9.409264493733644">
<ele>309.2</ele>
<time>2024-05-12T08:27:57Z</time>
</trkpt>
<trkpt lat="49.47778316214681" lon="9.40925787203014">
<ele>309</ele>
<time>2024-05-12T08:27:58Z</time>
</trkpt>
<trkpt lat="49.47772214189172" lon="9.409253094345331">
<ele>309</ele>
<time>2024-05-12T08:27:59Z</time>
</trkpt>
<trkpt lat="49.477664893493056" lon="9.409251166507602">
<ele>308.8</ele>
<time>2024-05-12T08:28:00Z</time>
</trkpt>
<trkpt lat="49.477607645094395" lon="9.409250244498253">
<ele>308.8</ele>
<time>2024-05-12T08:28:01Z</time>
</trkpt>
<trkpt lat="49.477550480514765" lon="9.409253094345331">
<ele>308.8</ele>
<time>2024-05-12T08:28:02Z</time>
</trkpt>
<trkpt lat="49.4774932321161" lon="9.40925502218306">
<ele>308.8</ele>
<time>2024-05-12T08:28:03Z</time>
</trkpt>
<trkpt lat="49.4774398393929" lon="9.409256866201758">
<ele>308.8</ele>
<time>2024-05-12T08:28:04Z</time>
</trkpt>
<trkpt lat="49.47738259099424" lon="9.409259716048837">
<ele>308.8</ele>
<time>2024-05-12T08:28:05Z</time>
</trkpt>
<trkpt lat="49.47732919827104" lon="9.409259716048837">
<ele>308.6</ele>
<time>2024-05-12T08:28:06Z</time>
</trkpt>
<trkpt lat="49.477272033691406" lon="9.40925787203014">
<ele>308.6</ele>
<time>2024-05-12T08:28:07Z</time>
</trkpt>
<trkpt lat="49.477214785292745" lon="9.40925502218306">
<ele>308.6</ele>
<time>2024-05-12T08:28:08Z</time>
</trkpt>
<trkpt lat="49.47716139256954" lon="9.409248316660523">
<ele>308.6</ele>
<time>2024-05-12T08:28:09Z</time>
</trkpt>
<trkpt lat="49.47710799984634" lon="9.409241611137986">
<ele>308.6</ele>
<time>2024-05-12T08:28:10Z</time>
</trkpt>
<trkpt lat="49.477054523304105" lon="9.409225434064863">
<ele>308.6</ele>
<time>2024-05-12T08:28:11Z</time>
</trkpt>
<trkpt lat="49.4770011305809" lon="9.409199701622128">
<ele>308.6</ele>
<time>2024-05-12T08:28:12Z</time>
</trkpt>
<trkpt lat="49.47695159353316" lon="9.409165335819123">
<ele>308.6</ele>
<time>2024-05-12T08:28:13Z</time>
</trkpt>
<trkpt lat="49.47690197266638" lon="9.409119570627809">
<ele>308.6</ele>
<time>2024-05-12T08:28:14Z</time>
</trkpt>
<trkpt lat="49.47685235179961" lon="9.409071877598764">
<ele>308.4</ele>
<time>2024-05-12T08:28:15Z</time>
</trkpt>
<trkpt lat="49.47680281475186" lon="9.409025190398095">
<ele>308.4</ele>
<time>2024-05-12T08:28:16Z</time>
</trkpt>
<trkpt lat="49.47675319388509" lon="9.40898034721613">
<ele>308.2</ele>
<time>2024-05-12T08:28:17Z</time>
</trkpt>
<trkpt lat="49.476699801161885" lon="9.40894028171897">
<ele>308</ele>
<time>2024-05-12T08:28:18Z</time>
</trkpt>
<trkpt lat="49.47665018029511" lon="9.408901138231158">
<ele>307.8</ele>
<time>2024-05-12T08:28:19Z</time>
</trkpt>
<trkpt lat="49.476600643247366" lon="9.408869706094263">
<ele>307.8</ele>
<time>2024-05-12T08:28:20Z</time>
</trkpt>
<trkpt lat="49.47654716670513" lon="9.408842967823148">
<ele>307.6</ele>
<time>2024-05-12T08:28:21Z</time>
</trkpt>
<trkpt lat="49.47649762965739" lon="9.40882201306522">
<ele>307.6</ele>
<time>2024-05-12T08:28:22Z</time>
</trkpt>
<trkpt lat="49.47645186446607" lon="9.408804830163715">
<ele>307.6</ele>
<time>2024-05-12T08:28:23Z</time>
</trkpt>
<trkpt lat="49.47639461606741" lon="9.40880298614502">
<ele>307.6</ele>
<time>2024-05-12T08:28:24Z</time>
</trkpt>
<trkpt lat="49.47633736766875" lon="9.408808685839176">
<ele>307.8</ele>
<time>2024-05-12T08:28:25Z</time>
</trkpt>
<trkpt lat="49.47628020308912" lon="9.40882201306522">
<ele>307.8</ele>
<time>2024-05-12T08:28:26Z</time>
</trkpt>
<trkpt lat="49.47622672654688" lon="9.40884011797607">
<ele>307.8</ele>
<time>2024-05-12T08:28:27Z</time>
</trkpt>
<trkpt lat="49.47617333382368" lon="9.408864928409455">
<ele>307.8</ele>
<time>2024-05-12T08:28:28Z</time>
</trkpt>
<trkpt lat="49.47611994110048" lon="9.408893510699272">
<ele>307.8</ele>
<time>2024-05-12T08:28:29Z</time>
</trkpt>
<trkpt lat="49.476066548377275" lon="9.408925026655195">
<ele>308</ele>
<time>2024-05-12T08:28:30Z</time>
</trkpt>
<trkpt lat="49.4760169275105" lon="9.40895645879209">
<ele>308</ele>
<time>2024-05-12T08:28:31Z</time>
</trkpt>
<trkpt lat="49.47596739046275" lon="9.40899459645152">
<ele>308</ele>
<time>2024-05-12T08:28:32Z</time>
</trkpt>
<trkpt lat="49.47592162527144" lon="9.40903466194868">
<ele>308</ele>
<time>2024-05-12T08:28:33Z</time>
</trkpt>
<trkpt lat="49.475868148729205" lon="9.40907472744584">
<ele>308</ele>
<time>2024-05-12T08:28:34Z</time>
</trkpt>
<trkpt lat="49.47581861168146" lon="9.40911672078073">
<ele>308</ele>
<time>2024-05-12T08:28:35Z</time>
</trkpt>
<trkpt lat="49.475772846490145" lon="9.40915485844016">
<ele>308</ele>
<time>2024-05-12T08:28:36Z</time>
</trkpt>
<trkpt lat="49.47572708129883" lon="9.409198695793748">
<ele>308.2</ele>
<time>2024-05-12T08:28:37Z</time>
</trkpt>
<trkpt lat="49.47568123228848" lon="9.409244460985065">
<ele>308.2</ele>
<time>2024-05-12T08:28:38Z</time>
</trkpt>
<trkpt lat="49.47563546709716" lon="9.409290309995413">
<ele>308.2</ele>
<time>2024-05-12T08:28:39Z</time>
</trkpt>
<trkpt lat="49.47558970190585" lon="9.409333225339653">
<ele>308</ele>
<time>2024-05-12T08:28:40Z</time>
</trkpt>
<trkpt lat="49.47554008103907" lon="9.409379912540317">
<ele>308</ele>
<time>2024-05-12T08:28:41Z</time>
</trkpt>
<trkpt lat="49.47549817152321" lon="9.409422827884557">
<ele>308</ele>
<time>2024-05-12T08:28:42Z</time>
</trkpt>
<trkpt lat="49.4754524063319" lon="9.409469598904252">
<ele>307.8</ele>
<time>2024-05-12T08:28:43Z</time>
</trkpt>
<trkpt lat="49.47540664114058" lon="9.409516286104918">
<ele>307.8</ele>
<time>2024-05-12T08:28:44Z</time>
</trkpt>
<trkpt lat="49.47536464780569" lon="9.409564901143312">
<ele>307.6</ele>
<time>2024-05-12T08:28:45Z</time>
</trkpt>
<trkpt lat="49.4753226544708" lon="9.40961360000074">
<ele>307.6</ele>
<time>2024-05-12T08:28:46Z</time>
</trkpt>
<trkpt lat="49.475276889279485" lon="9.409661293029783">
<ele>307.4</ele>
<time>2024-05-12T08:28:47Z</time>
</trkpt>
<trkpt lat="49.47523497976363" lon="9.40970798023045">
<ele>307.4</ele>
<time>2024-05-12T08:28:48Z</time>
</trkpt>
<trkpt lat="49.47518913075328" lon="9.409754751250148">
<ele>307.4</ele>
<time>2024-05-12T08:28:49Z</time>
</trkpt>
<trkpt lat="49.47514336556196" lon="9.409801438450812">
<ele>307.4</ele>
<time>2024-05-12T08:28:50Z</time>
</trkpt>
<trkpt lat="49.47509382851422" lon="9.409850053489208">
<ele>307.2</ele>
<time>2024-05-12T08:28:51Z</time>
</trkpt>
<trkpt lat="49.4750480633229" lon="9.409894896671176">
<ele>307</ele>
<time>2024-05-12T08:28:52Z</time>
</trkpt>
<trkpt lat="49.47500221431255" lon="9.409938734024765">
<ele>307</ele>
<time>2024-05-12T08:28:53Z</time>
</trkpt>
<trkpt lat="49.47496407665312" lon="9.409979805350304">
<ele>307</ele>
<time>2024-05-12T08:28:54Z</time>
</trkpt>
<trkpt lat="49.474922167137265" lon="9.41002171486616">
<ele>307</ele>
<time>2024-05-12T08:28:55Z</time>
</trkpt>
<trkpt lat="49.474880173802376" lon="9.41006370820105">
<ele>306.8</ele>
<time>2024-05-12T08:28:56Z</time>
</trkpt>
<trkpt lat="49.474838180467486" lon="9.41010469570756">
<ele>306.8</ele>
<time>2024-05-12T08:28:57Z</time>
</trkpt>
<trkpt lat="49.474800042808056" lon="9.41014476120472">
<ele>306.8</ele>
<time>2024-05-12T08:28:58Z</time>
</trkpt>
<trkpt lat="49.4747581332922" lon="9.41018482670188">
<ele>306.8</ele>
<time>2024-05-12T08:28:59Z</time>
</trkpt>
<trkpt lat="49.47471999563277" lon="9.41022296436131">
<ele>306.8</ele>
<time>2024-05-12T08:29:00Z</time>
</trkpt>
<trkpt lat="49.474681774154305" lon="9.410258252173662">
<ele>306.8</ele>
<time>2024-05-12T08:29:01Z</time>
</trkpt>
<trkpt lat="49.47465126402676" lon="9.410291612148283">
<ele>306.8</ele>
<time>2024-05-12T08:29:02Z</time>
</trkpt>
<trkpt lat="49.47462075389922" lon="9.410326899960635">
<ele>306.8</ele>
<time>2024-05-12T08:29:03Z</time>
</trkpt>
<trkpt lat="49.47459787130356" lon="9.41036126576364">
<ele>306.8</ele>
<time>2024-05-12T08:29:04Z</time>
</trkpt>
<trkpt lat="49.474567361176014" lon="9.410403175279498">
<ele>306.8</ele>
<time>2024-05-12T08:29:05Z</time>
</trkpt>
<trkpt lat="49.47453685104847" lon="9.410443240776658">
<ele>306.8</ele>
<time>2024-05-12T08:29:06Z</time>
</trkpt>
<trkpt lat="49.474506340920925" lon="9.410474756732585">
<ele>306.8</ele>
<time>2024-05-12T08:29:07Z</time>
</trkpt>
<trkpt lat="49.47447960264981" lon="9.410503339022398">
<ele>306.8</ele>
<time>2024-05-12T08:29:08Z</time>
</trkpt>
<trkpt lat="49.47445294819772" lon="9.410528149455786">
<ele>306.8</ele>
<time>2024-05-12T08:29:09Z</time>
</trkpt>
<trkpt lat="49.47441858239472" lon="9.41053862683475">
<ele>306.8</ele>
<time>2024-05-12T08:29:10Z</time>
</trkpt>
<trkpt lat="49.47438430041075" lon="9.410526221618056">
<ele>307</ele>
<time>2024-05-12T08:29:11Z</time>
</trkpt>
<trkpt lat="49.47435756213963" lon="9.410492861643434">
<ele>306.8</ele>
<time>2024-05-12T08:29:12Z</time>
</trkpt>
<trkpt lat="49.47433467954397" lon="9.410449946299195">
<ele>306.6</ele>
<time>2024-05-12T08:29:13Z</time>
</trkpt>
<trkpt lat="49.47431556880474" lon="9.4104013312608">
<ele>306.6</ele>
<time>2024-05-12T08:29:14Z</time>
</trkpt>
<trkpt lat="49.47429654188454" lon="9.410349782556295">
<ele>306.4</ele>
<time>2024-05-12T08:29:15Z</time>
</trkpt>
<trkpt lat="49.47427743114531" lon="9.410291612148283">
<ele>306.2</ele>
<time>2024-05-12T08:29:16Z</time>
</trkpt>
<trkpt lat="49.47425840422511" lon="9.410233441740274">
<ele>306.2</ele>
<time>2024-05-12T08:29:17Z</time>
</trkpt>
<trkpt lat="49.47424314916134" lon="9.410178121179342">
<ele>306</ele>
<time>2024-05-12T08:29:18Z</time>
</trkpt>
<trkpt lat="49.47422789409757" lon="9.41012280061841">
<ele>305.8</ele>
<time>2024-05-12T08:29:19Z</time>
</trkpt>
<trkpt lat="49.474212639033794" lon="9.410071335732937">
<ele>305.6</ele>
<time>2024-05-12T08:29:20Z</time>
</trkpt>
<trkpt lat="49.47419352829456" lon="9.41002171486616">
<ele>305.6</ele>
<time>2024-05-12T08:29:21Z</time>
</trkpt>
<trkpt lat="49.47417827323079" lon="9.409970249980688">
<ele>305.4</ele>
<time>2024-05-12T08:29:22Z</time>
</trkpt>
<trkpt lat="49.47415916249156" lon="9.409918785095217">
<ele>305.2</ele>
<time>2024-05-12T08:29:23Z</time>
</trkpt>
<trkpt lat="49.47414390742779" lon="9.40986631438136">
<ele>305</ele>
<time>2024-05-12T08:29:24Z</time>
</trkpt>
<trkpt lat="49.474128652364016" lon="9.409816693514584">
<ele>305</ele>
<time>2024-05-12T08:29:25Z</time>
</trkpt>
<trkpt lat="49.4741172529757" lon="9.40976707264781">
<ele>304.8</ele>
<time>2024-05-12T08:29:26Z</time>
</trkpt>
<trkpt lat="49.47410576976836" lon="9.409725163131952">
<ele>304.8</ele>
<time>2024-05-12T08:29:27Z</time>
</trkpt>
<trkpt lat="49.47409437038005" lon="9.40968794748187">
<ele>304.6</ele>
<time>2024-05-12T08:29:28Z</time>
</trkpt>
<trkpt lat="49.4740828871727" lon="9.409660287201405">
<ele>304.6</ele>
<time>2024-05-12T08:29:29Z</time>
</trkpt>
<trkpt lat="49.474071487784386" lon="9.409634554758668">
<ele>304.4</ele>
<time>2024-05-12T08:29:30Z</time>
</trkpt>
<trkpt lat="49.4740638602525" lon="9.40960974432528">
<ele>304.4</ele>
<time>2024-05-12T08:29:31Z</time>
</trkpt>
<trkpt lat="49.47405623272061" lon="9.4095897115767">
<ele>304.2</ele>
<time>2024-05-12T08:29:32Z</time>
</trkpt>
<trkpt lat="49.47403712198138" lon="9.409566828981042">
<ele>304.2</ele>
<time>2024-05-12T08:29:33Z</time>
</trkpt>
<trkpt lat="49.47401809506118" lon="9.409544868394732">
<ele>304</ele>
<time>2024-05-12T08:29:34Z</time>
</trkpt>
<trkpt lat="49.473991356790066" lon="9.409535396844149">
<ele>304</ele>
<time>2024-05-12T08:29:35Z</time>
</trkpt>
<trkpt lat="49.47396847419441" lon="9.409538246691229">
<ele>304</ele>
<time>2024-05-12T08:29:36Z</time>
</trkpt>
<trkpt lat="49.47393410839141" lon="9.409566828981042">
<ele>304</ele>
<time>2024-05-12T08:29:37Z</time>
</trkpt>
<trkpt lat="49.47390745393932" lon="9.409603038802745">
<ele>303.8</ele>
<time>2024-05-12T08:29:38Z</time>
</trkpt>
<trkpt lat="49.473876943811774" lon="9.409645032137632">
<ele>303.8</ele>
<time>2024-05-12T08:29:39Z</time>
</trkpt>
<trkpt lat="49.47384257800877" lon="9.409683169797065">
<ele>303.8</ele>
<time>2024-05-12T08:29:40Z</time>
</trkpt>
<trkpt lat="49.47380821220577" lon="9.409721307456492">
<ele>303.8</ele>
<time>2024-05-12T08:29:41Z</time>
</trkpt>
<trkpt lat="49.47377770207822" lon="9.409759445115924">
<ele>303.8</ele>
<time>2024-05-12T08:29:42Z</time>
</trkpt>
<trkpt lat="49.47374719195068" lon="9.409799510613084">
<ele>303.8</ele>
<time>2024-05-12T08:29:43Z</time>
</trkpt>
<trkpt lat="49.473716681823134" lon="9.409841503947971">
<ele>303.8</ele>
<time>2024-05-12T08:29:44Z</time>
</trkpt>
<trkpt lat="49.47368239983916" lon="9.40988534130156">
<ele>303.8</ele>
<time>2024-05-12T08:29:45Z</time>
</trkpt>
<trkpt lat="49.47364803403616" lon="9.409930184483528">
<ele>303.8</ele>
<time>2024-05-12T08:29:46Z</time>
</trkpt>
<trkpt lat="49.47360989637673" lon="9.409976955503224">
<ele>303.8</ele>
<time>2024-05-12T08:29:47Z</time>
</trkpt>
<trkpt lat="49.473575530573726" lon="9.41002649255097">
<ele>303.8</ele>
<time>2024-05-12T08:29:48Z</time>
</trkpt>
<trkpt lat="49.473541248589754" lon="9.410077035427094">
<ele>303.8</ele>
<time>2024-05-12T08:29:49Z</time>
</trkpt>
<trkpt lat="49.47350311093032" lon="9.410126656293867">
<ele>303.8</ele>
<time>2024-05-12T08:29:50Z</time>
</trkpt>
<trkpt lat="49.47346488945186" lon="9.410176277160645">
<ele>303.8</ele>
<time>2024-05-12T08:29:51Z</time>
</trkpt>
<trkpt lat="49.47342675179243" lon="9.410226820036767">
<ele>303.8</ele>
<time>2024-05-12T08:29:52Z</time>
</trkpt>
<trkpt lat="49.47339246980846" lon="9.410273507237434">
<ele>303.8</ele>
<time>2024-05-12T08:29:53Z</time>
</trkpt>
<trkpt lat="49.47335433214903" lon="9.410320278257132">
<ele>303.8</ele>
<time>2024-05-12T08:29:54Z</time>
</trkpt>
<trkpt lat="49.47331233881414" lon="9.410365037620068">
<ele>303.8</ele>
<time>2024-05-12T08:29:55Z</time>
</trkpt>
<trkpt lat="49.47326657362282" lon="9.410411808639765">
<ele>304</ele>
<time>2024-05-12T08:29:56Z</time>
</trkpt>
<trkpt lat="49.47322458028793" lon="9.41045950166881">
<ele>304</ele>
<time>2024-05-12T08:29:57Z</time>
</trkpt>
<trkpt lat="49.4731864426285" lon="9.410501411184669">
<ele>304</ele>
<time>2024-05-12T08:29:58Z</time>
</trkpt>
<trkpt lat="49.473140677437186" lon="9.410546254366636">
<ele>304</ele>
<time>2024-05-12T08:29:59Z</time>
</trkpt>
<trkpt lat="49.47309491224587" lon="9.410592019557953">
<ele>304</ele>
<time>2024-05-12T08:30:00Z</time>
</trkpt>
<trkpt lat="49.47305291891098" lon="9.410634934902191">
<ele>304.2</ele>
<time>2024-05-12T08:30:01Z</time>
</trkpt>
<trkpt lat="49.473007153719664" lon="9.410675000399351">
<ele>304.2</ele>
<time>2024-05-12T08:30:02Z</time>
</trkpt>
<trkpt lat="49.472965160384774" lon="9.410710288211703">
<ele>304.4</ele>
<time>2024-05-12T08:30:03Z</time>
</trkpt>
<trkpt lat="49.47292325086892" lon="9.410743648186326">
<ele>304.4</ele>
<time>2024-05-12T08:30:04Z</time>
</trkpt>
<trkpt lat="49.472885113209486" lon="9.41077994182706">
<ele>304.4</ele>
<time>2024-05-12T08:30:05Z</time>
</trkpt>
<trkpt lat="49.4728431198746" lon="9.410813301801682">
<ele>304.4</ele>
<time>2024-05-12T08:30:06Z</time>
</trkpt>
<trkpt lat="49.47280112653971" lon="9.410844733938577">
<ele>304.4</ele>
<time>2024-05-12T08:30:07Z</time>
</trkpt>
<trkpt lat="49.47275921702385" lon="9.41087817773223">
<ele>304.4</ele>
<time>2024-05-12T08:30:08Z</time>
</trkpt>
<trkpt lat="49.47271722368896" lon="9.41091530956328">
<ele>304.4</ele>
<time>2024-05-12T08:30:09Z</time>
</trkpt>
<trkpt lat="49.4726753141731" lon="9.410951603204012">
<ele>304.4</ele>
<time>2024-05-12T08:30:10Z</time>
</trkpt>
<trkpt lat="49.47263332083821" lon="9.410986891016364">
<ele>304.6</ele>
<time>2024-05-12T08:30:11Z</time>
</trkpt>
<trkpt lat="49.472587555646896" lon="9.411018323153256">
<ele>304.6</ele>
<time>2024-05-12T08:30:12Z</time>
</trkpt>
<trkpt lat="49.47254179045558" lon="9.41105361096561">
<ele>304.6</ele>
<time>2024-05-12T08:30:13Z</time>
</trkpt>
<trkpt lat="49.47249979712069" lon="9.41108982078731">
<ele>304.6</ele>
<time>2024-05-12T08:30:14Z</time>
</trkpt>
<trkpt lat="49.472454031929374" lon="9.411123264580963">
<ele>304.8</ele>
<time>2024-05-12T08:30:15Z</time>
</trkpt>
<trkpt lat="49.47240826673806" lon="9.411156624555588">
<ele>304.8</ele>
<time>2024-05-12T08:30:16Z</time>
</trkpt>
<trkpt lat="49.47236627340317" lon="9.41118805669248">
<ele>304.8</ele>
<time>2024-05-12T08:30:17Z</time>
</trkpt>
<trkpt lat="49.47232050821185" lon="9.411223344504831">
<ele>304.8</ele>
<time>2024-05-12T08:30:18Z</time>
</trkpt>
<trkpt lat="49.47227851487696" lon="9.411256788298488">
<ele>304.8</ele>
<time>2024-05-12T08:30:19Z</time>
</trkpt>
<trkpt lat="49.472236605361104" lon="9.41128822043538">
<ele>305</ele>
<time>2024-05-12T08:30:20Z</time>
</trkpt>
<trkpt lat="49.47219084016979" lon="9.411321580410004">
<ele>305</ele>
<time>2024-05-12T08:30:21Z</time>
</trkpt>
<trkpt lat="49.4721488468349" lon="9.411356868222356">
<ele>305</ele>
<time>2024-05-12T08:30:22Z</time>
</trkpt>
<trkpt lat="49.47210685350001" lon="9.411395005881786">
<ele>304.8</ele>
<time>2024-05-12T08:30:23Z</time>
</trkpt>
<trkpt lat="49.47206494398415" lon="9.411433143541217">
<ele>304.8</ele>
<time>2024-05-12T08:30:24Z</time>
</trkpt>
<trkpt lat="49.472019178792834" lon="9.411473209038377">
<ele>304.8</ele>
<time>2024-05-12T08:30:25Z</time>
</trkpt>
<trkpt lat="49.471977185457945" lon="9.411513274535537">
<ele>304.6</ele>
<time>2024-05-12T08:30:26Z</time>
</trkpt>
<trkpt lat="49.471939047798514" lon="9.411551412194967">
<ele>304.4</ele>
<time>2024-05-12T08:30:27Z</time>
</trkpt>
<trkpt lat="49.4718932826072" lon="9.411595333367586">
<ele>304.4</ele>
<time>2024-05-12T08:30:28Z</time>
</trkpt>
<trkpt lat="49.47185514494777" lon="9.411642020568252">
<ele>304.2</ele>
<time>2024-05-12T08:30:29Z</time>
</trkpt>
<trkpt lat="49.47181315161288" lon="9.411687785759568">
<ele>304.2</ele>
<time>2024-05-12T08:30:30Z</time>
</trkpt>
<trkpt lat="49.47177115827799" lon="9.411738328635693">
<ele>304.2</ele>
<time>2024-05-12T08:30:31Z</time>
</trkpt>
<trkpt lat="49.47172924876213" lon="9.41178317181766">
<ele>304.2</ele>
<time>2024-05-12T08:30:32Z</time>
</trkpt>
<trkpt lat="49.4716911111027" lon="9.411834636703134">
<ele>304.2</ele>
<time>2024-05-12T08:30:33Z</time>
</trkpt>
<trkpt lat="49.47164911776781" lon="9.41188140772283">
<ele>304.2</ele>
<time>2024-05-12T08:30:34Z</time>
</trkpt>
<trkpt lat="49.47160720825195" lon="9.411930022761226">
<ele>304.2</ele>
<time>2024-05-12T08:30:35Z</time>
</trkpt>
<trkpt lat="49.47157284244895" lon="9.411979643628">
<ele>304.2</ele>
<time>2024-05-12T08:30:36Z</time>
</trkpt>
<trkpt lat="49.47153847664595" lon="9.412034964188932">
<ele>304.2</ele>
<time>2024-05-12T08:30:37Z</time>
</trkpt>
<trkpt lat="49.4715079665184" lon="9.412088356912136">
<ele>304.2</ele>
<time>2024-05-12T08:30:38Z</time>
</trkpt>
<trkpt lat="49.47147745639086" lon="9.412143677473068">
<ele>304.4</ele>
<time>2024-05-12T08:30:39Z</time>
</trkpt>
<trkpt lat="49.47144694626331" lon="9.41219799220562">
<ele>304.4</ele>
<time>2024-05-12T08:30:40Z</time>
</trkpt>
<trkpt lat="49.47141643613577" lon="9.412251468747854">
<ele>304.4</ele>
<time>2024-05-12T08:30:41Z</time>
</trkpt>
<trkpt lat="49.471385926008224" lon="9.412308633327484">
<ele>304.4</ele>
<time>2024-05-12T08:30:42Z</time>
</trkpt>
<trkpt lat="49.47135541588068" lon="9.412364959716797">
<ele>304.6</ele>
<time>2024-05-12T08:30:43Z</time>
</trkpt>
<trkpt lat="49.47132105007768" lon="9.41241835244">
<ele>304.8</ele>
<time>2024-05-12T08:30:44Z</time>
</trkpt>
<trkpt lat="49.47127914056182" lon="9.412469817325473">
<ele>304.8</ele>
<time>2024-05-12T08:30:45Z</time>
</trkpt>
<trkpt lat="49.47124091908336" lon="9.412520360201595">
<ele>305</ele>
<time>2024-05-12T08:30:46Z</time>
</trkpt>
<trkpt lat="49.471206637099385" lon="9.412568053230643">
<ele>305</ele>
<time>2024-05-12T08:30:47Z</time>
</trkpt>
<trkpt lat="49.47117612697184" lon="9.412618596106768">
<ele>305</ele>
<time>2024-05-12T08:30:48Z</time>
</trkpt>
<trkpt lat="49.47114938870072" lon="9.41267006099224">
<ele>305</ele>
<time>2024-05-12T08:30:49Z</time>
</trkpt>
<trkpt lat="49.47111887857318" lon="9.412716832011938">
<ele>305</ele>
<time>2024-05-12T08:30:50Z</time>
</trkpt>
<trkpt lat="49.471088368445635" lon="9.412764525040984">
<ele>305</ele>
<time>2024-05-12T08:30:51Z</time>
</trkpt>
<trkpt lat="49.47106163017452" lon="9.4128102902323">
<ele>305.2</ele>
<time>2024-05-12T08:30:52Z</time>
</trkpt>
<trkpt lat="49.47103112004697" lon="9.41285127773881">
<ele>305.4</ele>
<time>2024-05-12T08:30:53Z</time>
</trkpt>
<trkpt lat="49.47100060991943" lon="9.41289134323597">
<ele>305.4</ele>
<time>2024-05-12T08:30:54Z</time>
</trkpt>
<trkpt lat="49.47097395546734" lon="9.412935180589557">
<ele>305.6</ele>
<time>2024-05-12T08:30:55Z</time>
</trkpt>
<trkpt lat="49.470951072871685" lon="9.412976251915095">
<ele>305.6</ele>
<time>2024-05-12T08:30:56Z</time>
</trkpt>
<trkpt lat="49.470931962132454" lon="9.413016317412255">
<ele>305.8</ele>
<time>2024-05-12T08:30:57Z</time>
</trkpt>
<trkpt lat="49.4709090795368" lon="9.413055377081037">
<ele>305.8</ele>
<time>2024-05-12T08:30:58Z</time>
</trkpt>
<trkpt lat="49.47088619694114" lon="9.413096364587544">
<ele>305.8</ele>
<time>2024-05-12T08:30:59Z</time>
</trkpt>
<trkpt lat="49.47086331434548" lon="9.413143135607244">
<ele>305.8</ele>
<time>2024-05-12T08:31:00Z</time>
</trkpt>
<trkpt lat="49.47084043174982" lon="9.413191750645638">
<ele>305.8</ele>
<time>2024-05-12T08:31:01Z</time>
</trkpt>
<trkpt lat="49.47082517668605" lon="9.41324321553111">
<ele>305.8</ele>
<time>2024-05-12T08:31:02Z</time>
</trkpt>
<trkpt lat="49.47080992162227" lon="9.413298536092045">
<ele>305.8</ele>
<time>2024-05-12T08:31:03Z</time>
</trkpt>
<trkpt lat="49.47080606594682" lon="9.413358634337785">
<ele>305.8</ele>
<time>2024-05-12T08:31:04Z</time>
</trkpt>
<trkpt lat="49.47080992162227" lon="9.413416804745792">
<ele>305.8</ele>
<time>2024-05-12T08:31:05Z</time>
</trkpt>
<trkpt lat="49.47082517668605" lon="9.413474975153804">
<ele>305.6</ele>
<time>2024-05-12T08:31:06Z</time>
</trkpt>
<trkpt lat="49.47084420360625" lon="9.413528367877008">
<ele>305.6</ele>
<time>2024-05-12T08:31:07Z</time>
</trkpt>
<trkpt lat="49.470867086201906" lon="9.41358368843794">
<ele>305.6</ele>
<time>2024-05-12T08:31:08Z</time>
</trkpt>
<trkpt lat="49.47088234126568" lon="9.413648564368486">
<ele>305.4</ele>
<time>2024-05-12T08:31:09Z</time>
</trkpt>
<trkpt lat="49.47088619694114" lon="9.413715284317732">
<ele>305.4</ele>
<time>2024-05-12T08:31:10Z</time>
</trkpt>
<trkpt lat="49.47088234126568" lon="9.413784937933087">
<ele>305.4</ele>
<time>2024-05-12T08:31:11Z</time>
</trkpt>
<trkpt lat="49.47087471373379" lon="9.413853585720062">
<ele>305.2</ele>
<time>2024-05-12T08:31:12Z</time>
</trkpt>
<trkpt lat="49.47085568681359" lon="9.413923239335418">
<ele>305.2</ele>
<time>2024-05-12T08:31:13Z</time>
</trkpt>
<trkpt lat="49.47084043174982" lon="9.413991887122393">
<ele>305.2</ele>
<time>2024-05-12T08:31:14Z</time>
</trkpt>
<trkpt lat="49.47082517668605" lon="9.414058607071638">
<ele>305.2</ele>
<time>2024-05-12T08:31:15Z</time>
</trkpt>
<trkpt lat="49.47080992162227" lon="9.414126332849264">
<ele>305.2</ele>
<time>2024-05-12T08:31:16Z</time>
</trkpt>
<trkpt lat="49.470790810883045" lon="9.414190286770465">
<ele>305</ele>
<time>2024-05-12T08:31:17Z</time>
</trkpt>
<trkpt lat="49.470771783962846" lon="9.41425323486328">
<ele>305</ele>
<time>2024-05-12T08:31:18Z</time>
</trkpt>
<trkpt lat="49.470756528899074" lon="9.414316099137068">
<ele>305</ele>
<time>2024-05-12T08:31:19Z</time>
</trkpt>
<trkpt lat="49.47074119001627" lon="9.414380053058268">
<ele>305</ele>
<time>2024-05-12T08:31:20Z</time>
</trkpt>
<trkpt lat="49.4707259349525" lon="9.414443001151083">
<ele>305</ele>
<time>2024-05-12T08:31:21Z</time>
</trkpt>
<trkpt lat="49.47070305235684" lon="9.414504943415524">
<ele>305</ele>
<time>2024-05-12T08:31:22Z</time>
</trkpt>
<trkpt lat="49.47068402543664" lon="9.41456981934607">
<ele>305</ele>
<time>2024-05-12T08:31:23Z</time>
</trkpt>
<trkpt lat="49.47066491469741" lon="9.414633689448236">
<ele>305</ele>
<time>2024-05-12T08:31:24Z</time>
</trkpt>
<trkpt lat="49.47064588777721" lon="9.414699487388134">
<ele>305</ele>
<time>2024-05-12T08:31:25Z</time>
</trkpt>
<trkpt lat="49.47063063271344" lon="9.414763441309333">
<ele>305</ele>
<time>2024-05-12T08:31:26Z</time>
</trkpt>
<trkpt lat="49.470615377649665" lon="9.414828233420849">
<ele>305</ele>
<time>2024-05-12T08:31:27Z</time>
</trkpt>
<trkpt lat="49.470596266910434" lon="9.414893109351397">
<ele>305</ele>
<time>2024-05-12T08:31:28Z</time>
</trkpt>
<trkpt lat="49.470577239990234" lon="9.414957985281944">
<ele>305</ele>
<time>2024-05-12T08:31:29Z</time>
</trkpt>
<trkpt lat="49.470558129251" lon="9.41502378322184">
<ele>305</ele>
<time>2024-05-12T08:31:30Z</time>
</trkpt>
<trkpt lat="49.470535246655345" lon="9.415088575333357">
<ele>305</ele>
<time>2024-05-12T08:31:31Z</time>
</trkpt>
<trkpt lat="49.470516135916114" lon="9.415148673579097">
<ele>305</ele>
<time>2024-05-12T08:31:32Z</time>
</trkpt>
<trkpt lat="49.470497108995914" lon="9.415206843987107">
<ele>305</ele>
<time>2024-05-12T08:31:33Z</time>
</trkpt>
<trkpt lat="49.47047799825668" lon="9.41526317037642">
<ele>305.2</ele>
<time>2024-05-12T08:31:34Z</time>
</trkpt>
<trkpt lat="49.47045897133648" lon="9.415314635261891">
<ele>305.2</ele>
<time>2024-05-12T08:31:35Z</time>
</trkpt>
<trkpt lat="49.470436088740826" lon="9.415363250300288">
<ele>305.4</ele>
<time>2024-05-12T08:31:36Z</time>
</trkpt>
<trkpt lat="49.47040935046971" lon="9.415410021319984">
<ele>305.6</ele>
<time>2024-05-12T08:31:37Z</time>
</trkpt>
<trkpt lat="49.47038261219859" lon="9.415452936664224">
<ele>305.8</ele>
<time>2024-05-12T08:31:38Z</time>
</trkpt>
<trkpt lat="49.470355957746506" lon="9.41549962386489">
<ele>306</ele>
<time>2024-05-12T08:31:39Z</time>
</trkpt>
<trkpt lat="49.47032921947539" lon="9.415546394884586">
<ele>306.4</ele>
<time>2024-05-12T08:31:40Z</time>
</trkpt>
<trkpt lat="49.4703025650233" lon="9.415588304400444">
<ele>306.6</ele>
<time>2024-05-12T08:31:41Z</time>
</trkpt>
<trkpt lat="49.47027205489576" lon="9.415624598041177">
<ele>306.8</ele>
<time>2024-05-12T08:31:42Z</time>
</trkpt>
<trkpt lat="49.47024531662464" lon="9.4156579580158">
<ele>307.2</ele>
<time>2024-05-12T08:31:43Z</time>
</trkpt>
<trkpt lat="49.4702148064971" lon="9.415686540305614">
<ele>307.6</ele>
<time>2024-05-12T08:31:44Z</time>
</trkpt>
<trkpt lat="49.47018806822598" lon="9.415710428729652">
<ele>307.8</ele>
<time>2024-05-12T08:31:45Z</time>
</trkpt>
<trkpt lat="49.470161413773894" lon="9.415733311325312">
<ele>308.2</ele>
<time>2024-05-12T08:31:46Z</time>
</trkpt>
<trkpt lat="49.47013853117824" lon="9.415761893615128">
<ele>308.6</ele>
<time>2024-05-12T08:31:47Z</time>
</trkpt>
<trkpt lat="49.47010416537523" lon="9.415779998525975">
<ele>309</ele>
<time>2024-05-12T08:31:48Z</time>
</trkpt>
<trkpt lat="49.47006988339126" lon="9.41579818725586">
<ele>309.4</ele>
<time>2024-05-12T08:31:49Z</time>
</trkpt>
<trkpt lat="49.4700316619128" lon="9.415813442319632">
<ele>309.8</ele>
<time>2024-05-12T08:31:50Z</time>
</trkpt>
<trkpt lat="49.46998975239694" lon="9.415826769545674">
<ele>310</ele>
<time>2024-05-12T08:31:51Z</time>
</trkpt>
<trkpt lat="49.46994775906205" lon="9.415838168933988">
<ele>310.4</ele>
<time>2024-05-12T08:31:52Z</time>
</trkpt>
<trkpt lat="49.469905849546194" lon="9.415846802294254">
<ele>310.6</ele>
<time>2024-05-12T08:31:53Z</time>
</trkpt>
<trkpt lat="49.469863856211305" lon="9.41585535183549">
<ele>311</ele>
<time>2024-05-12T08:31:54Z</time>
</trkpt>
<trkpt lat="49.4698294904083" lon="9.41585535183549">
<ele>311.2</ele>
<time>2024-05-12T08:31:55Z</time>
</trkpt>
<trkpt lat="49.46979135274887" lon="9.41585535183549">
<ele>311.4</ele>
<time>2024-05-12T08:31:56Z</time>
</trkpt>
<trkpt lat="49.46975321508944" lon="9.415851579979062">
<ele>311.6</ele>
<time>2024-05-12T08:31:57Z</time>
</trkpt>
<trkpt lat="49.46971893310547" lon="9.415846802294254">
<ele>311.8</ele>
<time>2024-05-12T08:31:58Z</time>
</trkpt>
<trkpt lat="49.46968071162701" lon="9.415838168933988">
<ele>312</ele>
<time>2024-05-12T08:31:59Z</time>
</trkpt>
<trkpt lat="49.469642573967576" lon="9.415829619392753">
<ele>312.4</ele>
<time>2024-05-12T08:32:00Z</time>
</trkpt>
<trkpt lat="49.4696082919836" lon="9.415821991860868">
<ele>312.6</ele>
<time>2024-05-12T08:32:01Z</time>
</trkpt>
<trkpt lat="49.469570154324174" lon="9.415808664634824">
<ele>313</ele>
<time>2024-05-12T08:32:02Z</time>
</trkpt>
<trkpt lat="49.46953193284571" lon="9.415789553895593">
<ele>313.2</ele>
<time>2024-05-12T08:32:03Z</time>
</trkpt>
<trkpt lat="49.46949379518628" lon="9.41577622666955">
<ele>313.4</ele>
<time>2024-05-12T08:32:04Z</time>
</trkpt>
<trkpt lat="49.46945951320231" lon="9.415762899443507">
<ele>313.6</ele>
<time>2024-05-12T08:32:05Z</time>
</trkpt>
<trkpt lat="49.46942137554288" lon="9.415749488398433">
<ele>313.8</ele>
<time>2024-05-12T08:32:06Z</time>
</trkpt>
<trkpt lat="49.46938323788345" lon="9.41573808901012">
<ele>313.8</ele>
<time>2024-05-12T08:32:07Z</time>
</trkpt>
<trkpt lat="49.469345016404986" lon="9.415728533640504">
<ele>314</ele>
<time>2024-05-12T08:32:08Z</time>
</trkpt>
<trkpt lat="49.469310734421015" lon="9.415719984099267">
<ele>314.2</ele>
<time>2024-05-12T08:32:09Z</time>
</trkpt>
<trkpt lat="49.46927636861801" lon="9.415713278576732">
<ele>314.4</ele>
<time>2024-05-12T08:32:10Z</time>
</trkpt>
<trkpt lat="49.46924208663404" lon="9.415708500891924">
<ele>314.6</ele>
<time>2024-05-12T08:32:11Z</time>
</trkpt>
<trkpt lat="49.46920394897461" lon="9.415704645216463">
<ele>314.8</ele>
<time>2024-05-12T08:32:12Z</time>
</trkpt>
<trkpt lat="49.469169583171606" lon="9.415703723207116">
<ele>314.8</ele>
<time>2024-05-12T08:32:13Z</time>
</trkpt>
<trkpt lat="49.4691352173686" lon="9.415708500891924">
<ele>315</ele>
<time>2024-05-12T08:32:14Z</time>
</trkpt>
<trkpt lat="49.46909707970917" lon="9.41571520641446">
<ele>315.2</ele>
<time>2024-05-12T08:32:15Z</time>
</trkpt>
<trkpt lat="49.46906656958163" lon="9.415723755955696">
<ele>315.2</ele>
<time>2024-05-12T08:32:16Z</time>
</trkpt>
<trkpt lat="49.469032287597656" lon="9.41573523916304">
<ele>315.4</ele>
<time>2024-05-12T08:32:17Z</time>
</trkpt>
<trkpt lat="49.46900169365108" lon="9.415751416236162">
<ele>315.6</ele>
<time>2024-05-12T08:32:18Z</time>
</trkpt>
<trkpt lat="49.46896741166711" lon="9.415771448984742">
<ele>315.6</ele>
<time>2024-05-12T08:32:19Z</time>
</trkpt>
<trkpt lat="49.468933045864105" lon="9.415789553895593">
<ele>315.6</ele>
<time>2024-05-12T08:32:20Z</time>
</trkpt>
<trkpt lat="49.468898763880134" lon="9.415813442319632">
<ele>315.8</ele>
<time>2024-05-12T08:32:21Z</time>
</trkpt>
<trkpt lat="49.46886825375259" lon="9.41583632491529">
<ele>315.8</ele>
<time>2024-05-12T08:32:22Z</time>
</trkpt>
<trkpt lat="49.468833887949586" lon="9.415862979367375">
<ele>315.8</ele>
<time>2024-05-12T08:32:23Z</time>
</trkpt>
<trkpt lat="49.46880337782204" lon="9.41589348949492">
<ele>315.8</ele>
<time>2024-05-12T08:32:24Z</time>
</trkpt>
<trkpt lat="49.4687728676945" lon="9.415927855297925">
<ele>316</ele>
<time>2024-05-12T08:32:25Z</time>
</trkpt>
<trkpt lat="49.46874235756695" lon="9.415960293263195">
<ele>316</ele>
<time>2024-05-12T08:32:26Z</time>
</trkpt>
<trkpt lat="49.46871184743941" lon="9.41599365323782">
<ele>316</ele>
<time>2024-05-12T08:32:27Z</time>
</trkpt>
<trkpt lat="49.46868510916829" lon="9.41602986305952">
<ele>316.2</ele>
<time>2024-05-12T08:32:28Z</time>
</trkpt>
<trkpt lat="49.468658370897174" lon="9.416068000718951">
<ele>316.2</ele>
<time>2024-05-12T08:32:29Z</time>
</trkpt>
<trkpt lat="49.46863171644509" lon="9.416108066216111">
<ele>316.4</ele>
<time>2024-05-12T08:32:30Z</time>
</trkpt>
<trkpt lat="49.46860497817397" lon="9.416150059551">
<ele>316.4</ele>
<time>2024-05-12T08:32:31Z</time>
</trkpt>
<trkpt lat="49.46858209557831" lon="9.41619205288589">
<ele>316.4</ele>
<time>2024-05-12T08:32:32Z</time>
</trkpt>
<trkpt lat="49.468559212982655" lon="9.4162330403924">
<ele>316.6</ele>
<time>2024-05-12T08:32:33Z</time>
</trkpt>
<trkpt lat="49.46853255853057" lon="9.416276877745986">
<ele>316.6</ele>
<time>2024-05-12T08:32:34Z</time>
</trkpt>
<trkpt lat="49.46851344779134" lon="9.416321720927954">
<ele>316.8</ele>
<time>2024-05-12T08:32:35Z</time>
</trkpt>
<trkpt lat="49.46849056519568" lon="9.41636840812862">
<ele>317</ele>
<time>2024-05-12T08:32:36Z</time>
</trkpt>
<trkpt lat="49.46847145445645" lon="9.416417106986046">
<ele>317.2</ele>
<time>2024-05-12T08:32:37Z</time>
</trkpt>
<trkpt lat="49.46845619939267" lon="9.416462872177362">
<ele>317.4</ele>
<time>2024-05-12T08:32:38Z</time>
</trkpt>
<trkpt lat="49.46843331679702" lon="9.416513415053489">
<ele>317.6</ele>
<time>2024-05-12T08:32:39Z</time>
</trkpt>
<trkpt lat="49.46842568926513" lon="9.41656295210123">
<ele>317.8</ele>
<time>2024-05-12T08:32:40Z</time>
</trkpt>
<trkpt lat="49.468418061733246" lon="9.416614500805736">
<ele>318</ele>
<time>2024-05-12T08:32:41Z</time>
</trkpt>
<trkpt lat="49.46839903481305" lon="9.41666697151959">
<ele>318.2</ele>
<time>2024-05-12T08:32:42Z</time>
</trkpt>
<trkpt lat="49.4683875516057" lon="9.41672128625214">
<ele>318.4</ele>
<time>2024-05-12T08:32:43Z</time>
</trkpt>
<trkpt lat="49.468379924073815" lon="9.416776606813071">
<ele>318.8</ele>
<time>2024-05-12T08:32:44Z</time>
</trkpt>
<trkpt lat="49.4683685246855" lon="9.416832849383354">
<ele>319</ele>
<time>2024-05-12T08:32:45Z</time>
</trkpt>
<trkpt lat="49.468360897153616" lon="9.416886325925589">
<ele>319.2</ele>
<time>2024-05-12T08:32:46Z</time>
</trkpt>
<trkpt lat="49.46835704147816" lon="9.41694349050522">
<ele>319.4</ele>
<time>2024-05-12T08:32:47Z</time>
</trkpt>
<trkpt lat="49.46835326962173" lon="9.417001660913227">
<ele>319.6</ele>
<time>2024-05-12T08:32:48Z</time>
</trkpt>
<trkpt lat="49.46834564208984" lon="9.417057987302542">
<ele>319.8</ele>
<time>2024-05-12T08:32:49Z</time>
</trkpt>
<trkpt lat="49.46834564208984" lon="9.417113224044442">
<ele>320.2</ele>
<time>2024-05-12T08:32:50Z</time>
</trkpt>
<trkpt lat="49.468341786414385" lon="9.417169550433757">
<ele>320.4</ele>
<time>2024-05-12T08:32:51Z</time>
</trkpt>
<trkpt lat="49.468341786414385" lon="9.417226715013385">
<ele>320.6</ele>
<time>2024-05-12T08:32:52Z</time>
</trkpt>
<trkpt lat="49.468341786414385" lon="9.417284885421395">
<ele>321</ele>
<time>2024-05-12T08:32:53Z</time>
</trkpt>
<trkpt lat="49.468341786414385" lon="9.417343139648438">
<ele>321.2</ele>
<time>2024-05-12T08:32:54Z</time>
</trkpt>
<trkpt lat="49.468341786414385" lon="9.417401310056448">
<ele>321.4</ele>
<time>2024-05-12T08:32:55Z</time>
</trkpt>
<trkpt lat="49.46834564208984" lon="9.417460402473807">
<ele>321.6</ele>
<time>2024-05-12T08:32:56Z</time>
</trkpt>
<trkpt lat="49.46834941394627" lon="9.417516645044088">
<ele>321.8</ele>
<time>2024-05-12T08:32:57Z</time>
</trkpt>
<trkpt lat="49.46835326962173" lon="9.41757196560502">
<ele>322</ele>
<time>2024-05-12T08:32:58Z</time>
</trkpt>
<trkpt lat="49.46835704147816" lon="9.417626364156604">
<ele>322.2</ele>
<time>2024-05-12T08:32:59Z</time>
</trkpt>
<trkpt lat="49.468360897153616" lon="9.417681684717536">
<ele>322.4</ele>
<time>2024-05-12T08:33:00Z</time>
</trkpt>
<trkpt lat="49.4683685246855" lon="9.41773507744074">
<ele>322.6</ele>
<time>2024-05-12T08:33:01Z</time>
</trkpt>
<trkpt lat="49.46837615221739" lon="9.417784614488482">
<ele>322.8</ele>
<time>2024-05-12T08:33:02Z</time>
</trkpt>
<trkpt lat="49.468383779749274" lon="9.41783331334591">
<ele>323</ele>
<time>2024-05-12T08:33:03Z</time>
</trkpt>
<trkpt lat="49.46839517913759" lon="9.417881928384304">
<ele>323.4</ele>
<time>2024-05-12T08:33:04Z</time>
</trkpt>
<trkpt lat="49.46840666234493" lon="9.417926771566272">
<ele>323.6</ele>
<time>2024-05-12T08:33:05Z</time>
</trkpt>
<trkpt lat="49.46841043420136" lon="9.417973458766935">
<ele>323.8</ele>
<time>2024-05-12T08:33:06Z</time>
</trkpt>
<trkpt lat="49.46841428987682" lon="9.418013524264095">
<ele>324</ele>
<time>2024-05-12T08:33:07Z</time>
</trkpt>
<trkpt lat="49.46841428987682" lon="9.4180478900671">
<ele>324.2</ele>
<time>2024-05-12T08:33:08Z</time>
</trkpt>
<trkpt lat="49.46840666234493" lon="9.418080328032374">
<ele>324.4</ele>
<time>2024-05-12T08:33:09Z</time>
</trkpt>
<trkpt lat="49.468402806669474" lon="9.418109832331538">
<ele>324.6</ele>
<time>2024-05-12T08:33:10Z</time>
</trkpt>
<trkpt lat="49.46839517913759" lon="9.41814512014389">
<ele>324.8</ele>
<time>2024-05-12T08:33:11Z</time>
</trkpt>
<trkpt lat="49.46839140728116" lon="9.418174708262086">
<ele>325</ele>
<time>2024-05-12T08:33:12Z</time>
</trkpt>
<trkpt lat="49.468383779749274" lon="9.418208068236709">
<ele>325.2</ele>
<time>2024-05-12T08:33:13Z</time>
</trkpt>
<trkpt lat="49.46837615221739" lon="9.41824335604906">
<ele>325.4</ele>
<time>2024-05-12T08:33:14Z</time>
</trkpt>
<trkpt lat="49.4683685246855" lon="9.418279565870762">
<ele>325.6</ele>
<time>2024-05-12T08:33:15Z</time>
</trkpt>
<trkpt lat="49.468360897153616" lon="9.418316781520844">
<ele>325.8</ele>
<time>2024-05-12T08:33:16Z</time>
</trkpt>
<trkpt lat="49.46834564208984" lon="9.418357769027352">
<ele>325.8</ele>
<time>2024-05-12T08:33:17Z</time>
</trkpt>
<trkpt lat="49.46833030320704" lon="9.4184036180377">
<ele>326</ele>
<time>2024-05-12T08:33:18Z</time>
</trkpt>
<trkpt lat="49.46831504814327" lon="9.418450305238366">
<ele>326</ele>
<time>2024-05-12T08:33:19Z</time>
</trkpt>
<trkpt lat="49.468303648754954" lon="9.418499926105142">
<ele>325.8</ele>
<time>2024-05-12T08:33:20Z</time>
</trkpt>
<trkpt lat="49.46829216554761" lon="9.418558096513152">
<ele>325.8</ele>
<time>2024-05-12T08:33:21Z</time>
</trkpt>
<trkpt lat="49.46828453801572" lon="9.418611489236357">
<ele>325.8</ele>
<time>2024-05-12T08:33:22Z</time>
</trkpt>
<trkpt lat="49.468280766159296" lon="9.418668737635016">
<ele>325.8</ele>
<time>2024-05-12T08:33:23Z</time>
</trkpt>
<trkpt lat="49.46827313862741" lon="9.418724980205296">
<ele>325.8</ele>
<time>2024-05-12T08:33:24Z</time>
</trkpt>
<trkpt lat="49.468261655420065" lon="9.418781222775578">
<ele>326</ele>
<time>2024-05-12T08:33:25Z</time>
</trkpt>
<trkpt lat="49.46824640035629" lon="9.41883847117424">
<ele>326</ele>
<time>2024-05-12T08:33:26Z</time>
</trkpt>
<trkpt lat="49.46822737343609" lon="9.418891863897445">
<ele>326</ele>
<time>2024-05-12T08:33:27Z</time>
</trkpt>
<trkpt lat="49.46820826269686" lon="9.418943328782916">
<ele>326</ele>
<time>2024-05-12T08:33:28Z</time>
</trkpt>
<trkpt lat="49.46818160824478" lon="9.418992027640344">
<ele>326</ele>
<time>2024-05-12T08:33:29Z</time>
</trkpt>
<trkpt lat="49.46815864183009" lon="9.419038714841008">
<ele>326</ele>
<time>2024-05-12T08:33:30Z</time>
</trkpt>
<trkpt lat="49.46812813170254" lon="9.419084480032325">
<ele>326</ele>
<time>2024-05-12T08:33:31Z</time>
</trkpt>
<trkpt lat="49.46810147725046" lon="9.419131251052022">
<ele>326</ele>
<time>2024-05-12T08:33:32Z</time>
</trkpt>
<trkpt lat="49.46807096712291" lon="9.419179866090415">
<ele>326</ele>
<time>2024-05-12T08:33:33Z</time>
</trkpt>
<trkpt lat="49.46804045699537" lon="9.419224709272385">
<ele>326</ele>
<time>2024-05-12T08:33:34Z</time>
</trkpt>
<trkpt lat="49.468009946867824" lon="9.419266618788242">
<ele>326</ele>
<time>2024-05-12T08:33:35Z</time>
</trkpt>
<trkpt lat="49.46797172538936" lon="9.419306684285402">
<ele>326</ele>
<time>2024-05-12T08:33:36Z</time>
</trkpt>
<trkpt lat="49.46793744340539" lon="9.419342977926137">
<ele>326.2</ele>
<time>2024-05-12T08:33:37Z</time>
</trkpt>
<trkpt lat="49.46790307760239" lon="9.419376337900758">
<ele>326.2</ele>
<time>2024-05-12T08:33:38Z</time>
</trkpt>
<trkpt lat="49.46786493994296" lon="9.419404920190573">
<ele>326.4</ele>
<time>2024-05-12T08:33:39Z</time>
</trkpt>
<trkpt lat="49.467826802283525" lon="9.419427802786233">
<ele>326.6</ele>
<time>2024-05-12T08:33:40Z</time>
</trkpt>
<trkpt lat="49.46779243648052" lon="9.419443057850003">
<ele>326.6</ele>
<time>2024-05-12T08:33:41Z</time>
</trkpt>
<trkpt lat="49.46775429882109" lon="9.419453619048">
<ele>326.8</ele>
<time>2024-05-12T08:33:42Z</time>
</trkpt>
<trkpt lat="49.46772001683712" lon="9.419454541057348">
<ele>326.8</ele>
<time>2024-05-12T08:33:43Z</time>
</trkpt>
<trkpt lat="49.46768187917769" lon="9.419461246579884">
<ele>327</ele>
<time>2024-05-12T08:33:44Z</time>
</trkpt>
<trkpt lat="49.4676398858428" lon="9.419465018436313">
<ele>327.4</ele>
<time>2024-05-12T08:33:45Z</time>
</trkpt>
<trkpt lat="49.46760174818337" lon="9.41946979612112">
<ele>327.6</ele>
<time>2024-05-12T08:33:46Z</time>
</trkpt>
<trkpt lat="49.46756361052394" lon="9.419474573805928">
<ele>327.8</ele>
<time>2024-05-12T08:33:47Z</time>
</trkpt>
<trkpt lat="49.46752547286451" lon="9.419478345662355">
<ele>328</ele>
<time>2024-05-12T08:33:48Z</time>
</trkpt>
<trkpt lat="49.46748733520508" lon="9.419480273500085">
<ele>328.4</ele>
<time>2024-05-12T08:33:49Z</time>
</trkpt>
<trkpt lat="49.467449113726616" lon="9.419481195509434">
<ele>328.6</ele>
<time>2024-05-12T08:33:50Z</time>
</trkpt>
<trkpt lat="49.467410976067185" lon="9.4194898288697">
<ele>329</ele>
<time>2024-05-12T08:33:51Z</time>
</trkpt>
<trkpt lat="49.467376694083214" lon="9.419496534392238">
<ele>329.2</ele>
<time>2024-05-12T08:33:52Z</time>
</trkpt>
<trkpt lat="49.46733855642378" lon="9.419501228258014">
<ele>329.6</ele>
<time>2024-05-12T08:33:53Z</time>
</trkpt>
<trkpt lat="49.46730033494532" lon="9.419507933780553">
<ele>330</ele>
<time>2024-05-12T08:33:54Z</time>
</trkpt>
<trkpt lat="49.46725842542946" lon="9.419518411159515">
<ele>330.2</ele>
<time>2024-05-12T08:33:55Z</time>
</trkpt>
<trkpt lat="49.46722028777003" lon="9.419521261006594">
<ele>330.6</ele>
<time>2024-05-12T08:33:56Z</time>
</trkpt>
<trkpt lat="49.46718977764249" lon="9.419525116682053">
<ele>331</ele>
<time>2024-05-12T08:33:57Z</time>
</trkpt>
<trkpt lat="49.467159267514944" lon="9.41952989436686">
<ele>331.4</ele>
<time>2024-05-12T08:33:58Z</time>
</trkpt>
<trkpt lat="49.46713252924383" lon="9.419536516070366">
<ele>331.6</ele>
<time>2024-05-12T08:33:59Z</time>
</trkpt>
<trkpt lat="49.46710579097271" lon="9.419541293755174">
<ele>332</ele>
<time>2024-05-12T08:34:00Z</time>
</trkpt>
<trkpt lat="49.467075280845165" lon="9.419545149430633">
<ele>332.2</ele>
<time>2024-05-12T08:34:01Z</time>
</trkpt>
<trkpt lat="49.46704477071762" lon="9.41954992711544">
<ele>332.4</ele>
<time>2024-05-12T08:34:02Z</time>
</trkpt>
<trkpt lat="49.46701426059008" lon="9.419556548818946">
<ele>332.8</ele>
<time>2024-05-12T08:34:03Z</time>
</trkpt>
<trkpt lat="49.466979978606105" lon="9.41956995986402">
<ele>332.8</ele>
<time>2024-05-12T08:34:04Z</time>
</trkpt>
<trkpt lat="49.46694938465953" lon="9.41958613693714">
<ele>333</ele>
<time>2024-05-12T08:34:05Z</time>
</trkpt>
<trkpt lat="49.466918874531984" lon="9.419598542153835">
<ele>333.2</ele>
<time>2024-05-12T08:34:06Z</time>
</trkpt>
<trkpt lat="49.46688836440444" lon="9.41961287520826">
<ele>333.4</ele>
<time>2024-05-12T08:34:07Z</time>
</trkpt>
<trkpt lat="49.46685022674501" lon="9.419618574902415">
<ele>333.6</ele>
<time>2024-05-12T08:34:08Z</time>
</trkpt>
<trkpt lat="49.466819716617465" lon="9.419625280424953">
<ele>333.8</ele>
<time>2024-05-12T08:34:09Z</time>
</trkpt>
<trkpt lat="49.466781578958035" lon="9.419636679813266">
<ele>334</ele>
<time>2024-05-12T08:34:10Z</time>
</trkpt>
<trkpt lat="49.46674344129861" lon="9.419658640399575">
<ele>334.2</ele>
<time>2024-05-12T08:34:11Z</time>
</trkpt>
<trkpt lat="49.46670530363917" lon="9.419678673148155">
<ele>334.2</ele>
<time>2024-05-12T08:34:12Z</time>
</trkpt>
<trkpt lat="49.46667479351163" lon="9.419692000374198">
<ele>334.4</ele>
<time>2024-05-12T08:34:13Z</time>
</trkpt>
<trkpt lat="49.466644283384085" lon="9.41970633342862">
<ele>334.6</ele>
<time>2024-05-12T08:34:14Z</time>
</trkpt>
<trkpt lat="49.46660991758108" lon="9.419721588492392">
<ele>334.8</ele>
<time>2024-05-12T08:34:15Z</time>
</trkpt>
<trkpt lat="49.46658317930997" lon="9.419738687574863">
<ele>335</ele>
<time>2024-05-12T08:34:16Z</time>
</trkpt>
<trkpt lat="49.46655652485788" lon="9.41974639892578">
<ele>335</ele>
<time>2024-05-12T08:34:17Z</time>
</trkpt>
<trkpt lat="49.46652978658676" lon="9.419759726151824">
<ele>335.2</ele>
<time>2024-05-12T08:34:18Z</time>
</trkpt>
<trkpt lat="49.46650313213467" lon="9.419770203530788">
<ele>335.4</ele>
<time>2024-05-12T08:34:19Z</time>
</trkpt>
<trkpt lat="49.46647262200713" lon="9.419781602919102">
<ele>335.4</ele>
<time>2024-05-12T08:34:20Z</time>
</trkpt>
<trkpt lat="49.466442028060555" lon="9.419793086126449">
<ele>335.6</ele>
<time>2024-05-12T08:34:21Z</time>
</trkpt>
<trkpt lat="49.466403890401125" lon="9.419810269027948">
<ele>335.6</ele>
<time>2024-05-12T08:34:22Z</time>
</trkpt>
<trkpt lat="49.46636198088527" lon="9.419821668416262">
<ele>335.8</ele>
<time>2024-05-12T08:34:23Z</time>
</trkpt>
<trkpt lat="49.46631998755038" lon="9.419839857146144">
<ele>336</ele>
<time>2024-05-12T08:34:24Z</time>
</trkpt>
<trkpt lat="49.46627422235906" lon="9.41986651159823">
<ele>336</ele>
<time>2024-05-12T08:34:25Z</time>
</trkpt>
<trkpt lat="49.466228457167745" lon="9.419895093888044">
<ele>336.2</ele>
<time>2024-05-12T08:34:26Z</time>
</trkpt>
<trkpt lat="49.466186463832855" lon="9.419917054474354">
<ele>336.6</ele>
<time>2024-05-12T08:34:27Z</time>
</trkpt>
<trkpt lat="49.466148326173425" lon="9.419938009232284">
<ele>336.8</ele>
<time>2024-05-12T08:34:28Z</time>
</trkpt>
<trkpt lat="49.466110188513994" lon="9.419961897656322">
<ele>337</ele>
<time>2024-05-12T08:34:29Z</time>
</trkpt>
<trkpt lat="49.46607582271099" lon="9.41998478025198">
<ele>337.2</ele>
<time>2024-05-12T08:34:30Z</time>
</trkpt>
<trkpt lat="49.46604154072702" lon="9.42000481300056">
<ele>337.4</ele>
<time>2024-05-12T08:34:31Z</time>
</trkpt>
<trkpt lat="49.46600340306759" lon="9.42002291791141">
<ele>337.6</ele>
<time>2024-05-12T08:34:32Z</time>
</trkpt>
<trkpt lat="49.46597289294005" lon="9.420048650354149">
<ele>337.6</ele>
<time>2024-05-12T08:34:33Z</time>
</trkpt>
<trkpt lat="49.46593852713704" lon="9.420068683102729">
<ele>337.8</ele>
<time>2024-05-12T08:34:34Z</time>
</trkpt>
<trkpt lat="49.46590416133404" lon="9.42008494399488">
<ele>338</ele>
<time>2024-05-12T08:34:35Z</time>
</trkpt>
<trkpt lat="49.46587365120649" lon="9.420100199058652">
<ele>338</ele>
<time>2024-05-12T08:34:36Z</time>
</trkpt>
<trkpt lat="49.46584699675441" lon="9.420114448294044">
<ele>338.2</ele>
<time>2024-05-12T08:34:37Z</time>
</trkpt>
<trkpt lat="49.46581648662686" lon="9.420131631195543">
<ele>338.4</ele>
<time>2024-05-12T08:34:38Z</time>
</trkpt>
<trkpt lat="49.46578212082386" lon="9.420153591781856">
<ele>338.4</ele>
<time>2024-05-12T08:34:39Z</time>
</trkpt>
<trkpt lat="49.46575161069632" lon="9.420176474377511">
<ele>338.6</ele>
<time>2024-05-12T08:34:40Z</time>
</trkpt>
<trkpt lat="49.46572110056877" lon="9.420203128829598">
<ele>338.6</ele>
<time>2024-05-12T08:34:41Z</time>
</trkpt>
<trkpt lat="49.46568673476577" lon="9.420227939262986">
<ele>338.8</ele>
<time>2024-05-12T08:34:42Z</time>
</trkpt>
<trkpt lat="49.4656524527818" lon="9.420254677534103">
<ele>338.8</ele>
<time>2024-05-12T08:34:43Z</time>
</trkpt>
<trkpt lat="49.46561808697879" lon="9.42028040997684">
<ele>338.8</ele>
<time>2024-05-12T08:34:44Z</time>
</trkpt>
<trkpt lat="49.46558372117579" lon="9.420303292572498">
<ele>338.8</ele>
<time>2024-05-12T08:34:45Z</time>
</trkpt>
<trkpt lat="49.46554943919182" lon="9.420328103005886">
<ele>339</ele>
<time>2024-05-12T08:34:46Z</time>
</trkpt>
<trkpt lat="49.465518929064274" lon="9.4203566852957">
<ele>339</ele>
<time>2024-05-12T08:34:47Z</time>
</trkpt>
<trkpt lat="49.46548841893673" lon="9.42037956789136">
<ele>339.2</ele>
<time>2024-05-12T08:34:48Z</time>
</trkpt>
<trkpt lat="49.465454053133726" lon="9.420394822955132">
<ele>339.4</ele>
<time>2024-05-12T08:34:49Z</time>
</trkpt>
<trkpt lat="49.46542739868164" lon="9.420413011685014">
<ele>339.6</ele>
<time>2024-05-12T08:34:50Z</time>
</trkpt>
<trkpt lat="49.465396804735065" lon="9.420434888452291">
<ele>339.8</ele>
<time>2024-05-12T08:34:51Z</time>
</trkpt>
<trkpt lat="49.46537015028298" lon="9.42045877687633">
<ele>340</ele>
<time>2024-05-12T08:34:52Z</time>
</trkpt>
<trkpt lat="49.46534341201186" lon="9.42047880962491">
<ele>340.2</ele>
<time>2024-05-12T08:34:53Z</time>
</trkpt>
<trkpt lat="49.46531290188432" lon="9.420501692220569">
<ele>340.4</ele>
<time>2024-05-12T08:34:54Z</time>
</trkpt>
<trkpt lat="49.46529001928866" lon="9.420521724969149">
<ele>340.6</ele>
<time>2024-05-12T08:34:55Z</time>
</trkpt>
<trkpt lat="49.465263364836574" lon="9.42053982988">
<ele>340.6</ele>
<time>2024-05-12T08:34:56Z</time>
</trkpt>
<trkpt lat="49.465236626565456" lon="9.420564640313389">
<ele>340.8</ele>
<time>2024-05-12T08:34:57Z</time>
</trkpt>
<trkpt lat="49.46520611643791" lon="9.420593222603202">
<ele>340.8</ele>
<time>2024-05-12T08:34:58Z</time>
</trkpt>
<trkpt lat="49.465179378166795" lon="9.42061996087432">
<ele>341</ele>
<time>2024-05-12T08:34:59Z</time>
</trkpt>
<trkpt lat="49.46515649557114" lon="9.420642843469976">
<ele>341</ele>
<time>2024-05-12T08:35:00Z</time>
</trkpt>
<trkpt lat="49.46513361297548" lon="9.420662876218556">
<ele>341</ele>
<time>2024-05-12T08:35:01Z</time>
</trkpt>
<trkpt lat="49.46511458605528" lon="9.420682825148106">
<ele>341.2</ele>
<time>2024-05-12T08:35:02Z</time>
</trkpt>
<trkpt lat="49.46508784778416" lon="9.420706713572145">
<ele>341.4</ele>
<time>2024-05-12T08:35:03Z</time>
</trkpt>
<trkpt lat="49.46505733765662" lon="9.420729596167805">
<ele>341.4</ele>
<time>2024-05-12T08:35:04Z</time>
</trkpt>
<trkpt lat="49.46502682752907" lon="9.42075633443892">
<ele>341.6</ele>
<time>2024-05-12T08:35:05Z</time>
</trkpt>
<trkpt lat="49.46498483419418" lon="9.420786844566464">
<ele>341.6</ele>
<time>2024-05-12T08:35:06Z</time>
</trkpt>
<trkpt lat="49.4649581797421" lon="9.420823054388164">
<ele>341.6</ele>
<time>2024-05-12T08:35:07Z</time>
</trkpt>
<trkpt lat="49.46492004208267" lon="9.420863119885324">
<ele>341.4</ele>
<time>2024-05-12T08:35:08Z</time>
</trkpt>
<trkpt lat="49.46487042121589" lon="9.42091366276145">
<ele>341.4</ele>
<time>2024-05-12T08:35:09Z</time>
</trkpt>
<trkpt lat="49.46483228355646" lon="9.420963283628224">
<ele>341.4</ele>
<time>2024-05-12T08:35:10Z</time>
</trkpt>
<trkpt lat="49.46479029022157" lon="9.421003265306354">
<ele>341.4</ele>
<time>2024-05-12T08:35:11Z</time>
</trkpt>
<trkpt lat="49.46473304182291" lon="9.421052886173127">
<ele>341.4</ele>
<time>2024-05-12T08:35:12Z</time>
</trkpt>
<trkpt lat="49.46467587724328" lon="9.421103429049252">
<ele>341.2</ele>
<time>2024-05-12T08:35:13Z</time>
</trkpt>
<trkpt lat="49.46462248452008" lon="9.421153049916027">
<ele>341</ele>
<time>2024-05-12T08:35:14Z</time>
</trkpt>
<trkpt lat="49.464569091796875" lon="9.421193115413187">
<ele>341</ele>
<time>2024-05-12T08:35:15Z</time>
</trkpt>
<trkpt lat="49.46451561525464" lon="9.421236952766776">
<ele>340.6</ele>
<time>2024-05-12T08:35:16Z</time>
</trkpt>
<trkpt lat="49.46446985006333" lon="9.421279868111014">
<ele>340.4</ele>
<time>2024-05-12T08:35:17Z</time>
</trkpt>
<trkpt lat="49.46442031301558" lon="9.42132655531168">
<ele>340.2</ele>
<time>2024-05-12T08:35:18Z</time>
</trkpt>
<trkpt lat="49.464366836473346" lon="9.421382881700993">
<ele>339.8</ele>
<time>2024-05-12T08:35:19Z</time>
</trkpt>
<trkpt lat="49.46430967189371" lon="9.421438202261925">
<ele>339.6</ele>
<time>2024-05-12T08:35:20Z</time>
</trkpt>
<trkpt lat="49.46426005102694" lon="9.421493522822855">
<ele>339.2</ele>
<time>2024-05-12T08:35:21Z</time>
</trkpt>
<trkpt lat="49.46420665830374" lon="9.421547837555408">
<ele>338.8</ele>
<time>2024-05-12T08:35:22Z</time>
</trkpt>
<trkpt lat="49.464153265580535" lon="9.4216070137918">
<ele>338.2</ele>
<time>2024-05-12T08:35:23Z</time>
</trkpt>
<trkpt lat="49.46409601718187" lon="9.421673733741043">
<ele>337.8</ele>
<time>2024-05-12T08:35:24Z</time>
</trkpt>
<trkpt lat="49.46403876878321" lon="9.421739531680942">
<ele>337.2</ele>
<time>2024-05-12T08:35:25Z</time>
</trkpt>
<trkpt lat="49.46398160420358" lon="9.42180633544922">
<ele>336.6</ele>
<time>2024-05-12T08:35:26Z</time>
</trkpt>
<trkpt lat="49.46392821148038" lon="9.421866349875929">
<ele>335.8</ele>
<time>2024-05-12T08:35:27Z</time>
</trkpt>
<trkpt lat="49.463874734938145" lon="9.421935081481934">
<ele>335.2</ele>
<time>2024-05-12T08:35:28Z</time>
</trkpt>
<trkpt lat="49.46380994282663" lon="9.422010350972414">
<ele>334.6</ele>
<time>2024-05-12T08:35:29Z</time>
</trkpt>
<trkpt lat="49.46374892257154" lon="9.422082854434848">
<ele>333.8</ele>
<time>2024-05-12T08:35:30Z</time>
</trkpt>
<trkpt lat="49.46369930170477" lon="9.422153430059552">
<ele>333.2</ele>
<time>2024-05-12T08:35:31Z</time>
</trkpt>
<trkpt lat="49.46364968083799" lon="9.422223083674908">
<ele>332.6</ele>
<time>2024-05-12T08:35:32Z</time>
</trkpt>
<trkpt lat="49.46360391564667" lon="9.422293659299612">
<ele>332</ele>
<time>2024-05-12T08:35:33Z</time>
</trkpt>
<trkpt lat="49.46356577798724" lon="9.422365156933663">
<ele>331.4</ele>
<time>2024-05-12T08:35:34Z</time>
</trkpt>
<trkpt lat="49.46353141218424" lon="9.422434726729987">
<ele>330.8</ele>
<time>2024-05-12T08:35:35Z</time>
</trkpt>
<trkpt lat="49.463500902056694" lon="9.42249197512865">
<ele>330.2</ele>
<time>2024-05-12T08:35:36Z</time>
</trkpt>
<trkpt lat="49.463481875136495" lon="9.42253204062581">
<ele>329.6</ele>
<time>2024-05-12T08:35:37Z</time>
</trkpt>
<trkpt lat="49.46346276439726" lon="9.422566406428814">
<ele>329</ele>
<time>2024-05-12T08:35:38Z</time>
</trkpt>
<trkpt lat="49.463439881801605" lon="9.422604544088244">
<ele>328.6</ele>
<time>2024-05-12T08:35:39Z</time>
</trkpt>
<trkpt lat="49.46342462673783" lon="9.422643603757024">
<ele>328</ele>
<time>2024-05-12T08:35:40Z</time>
</trkpt>
<trkpt lat="49.46341322734952" lon="9.422675119712949">
<ele>327.6</ele>
<time>2024-05-12T08:35:41Z</time>
</trkpt>
<trkpt lat="49.463401744142175" lon="9.422695152461529">
<ele>327</ele>
<time>2024-05-12T08:35:42Z</time>
</trkpt>
<trkpt lat="49.46339411661029" lon="9.42271325737238">
<ele>326.6</ele>
<time>2024-05-12T08:35:43Z</time>
</trkpt>
<trkpt lat="49.46339411661029" lon="9.422717029228806">
<ele>326.2</ele>
<time>2024-05-12T08:35:44Z</time>
</trkpt>
<trkpt lat="49.46339034475386" lon="9.422721806913614">
<ele>325.6</ele>
<time>2024-05-12T08:35:45Z</time>
</trkpt>
<trkpt lat="49.46339411661029" lon="9.422718035057189">
<ele>325.2</ele>
<time>2024-05-12T08:35:46Z</time>
</trkpt>
<trkpt lat="49.46339034475386" lon="9.422719879075885">
<ele>325</ele>
<time>2024-05-12T08:35:47Z</time>
</trkpt>
<trkpt lat="49.46339034475386" lon="9.422721806913614">
<ele>324.6</ele>
<time>2024-05-12T08:35:48Z</time>
</trkpt>
<trkpt lat="49.46339034475386" lon="9.422723734751344">
<ele>324.4</ele>
<time>2024-05-12T08:35:49Z</time>
</trkpt>
<trkpt lat="49.4633864890784" lon="9.422723734751344">
<ele>324.2</ele>
<time>2024-05-12T08:35:50Z</time>
</trkpt>
<trkpt lat="49.4633864890784" lon="9.422724656760693">
<ele>324.2</ele>
<time>2024-05-12T08:35:51Z</time>
</trkpt>
<trkpt lat="49.4633864890784" lon="9.422726584598422">
<ele>324</ele>
<time>2024-05-12T08:35:58Z</time>
</trkpt>
<trkpt lat="49.4633864890784" lon="9.422728512436152">
<ele>323.8</ele>
<time>2024-05-12T08:36:00Z</time>
</trkpt>
<trkpt lat="49.4633864890784" lon="9.42273044027388">
<ele>323.6</ele>
<time>2024-05-12T08:36:06Z</time>
</trkpt>
<trkpt lat="49.4633864890784" lon="9.422728512436152">
<ele>323.2</ele>
<time>2024-05-12T08:36:10Z</time>
</trkpt>
<trkpt lat="49.4633864890784" lon="9.422726584598422">
<ele>323</ele>
<time>2024-05-12T08:36:11Z</time>
</trkpt>
<trkpt lat="49.4633864890784" lon="9.422728512436152">
<ele>322.8</ele>
<time>2024-05-12T08:36:18Z</time>
</trkpt>
<trkpt lat="49.463382717221975" lon="9.42273136228323">
<ele>322.6</ele>
<time>2024-05-12T08:36:21Z</time>
</trkpt>
<trkpt lat="49.4633864890784" lon="9.42273044027388">
<ele>322.4</ele>
<time>2024-05-12T08:36:22Z</time>
</trkpt>
<trkpt lat="49.4633864890784" lon="9.42273136228323">
<ele>322.2</ele>
<time>2024-05-12T08:36:23Z</time>
</trkpt>
<trkpt lat="49.4633864890784" lon="9.42273044027388">
<ele>322.2</ele>
<time>2024-05-12T08:36:26Z</time>
</trkpt>
<trkpt lat="49.46339034475386" lon="9.42273044027388">
<ele>322</ele>
<time>2024-05-12T08:36:27Z</time>
</trkpt>
<trkpt lat="49.46339034475386" lon="9.422728512436152">
<ele>321.8</ele>
<time>2024-05-12T08:36:28Z</time>
</trkpt>
<trkpt lat="49.46339034475386" lon="9.422726584598422">
<ele>321.8</ele>
<time>2024-05-12T08:36:31Z</time>
</trkpt>
<trkpt lat="49.46339034475386" lon="9.422723734751344">
<ele>321.8</ele>
<time>2024-05-12T08:36:32Z</time>
</trkpt>
<trkpt lat="49.46339411661029" lon="9.422723734751344">
<ele>321.6</ele>
<time>2024-05-12T08:36:37Z</time>
</trkpt>
<trkpt lat="49.46339411661029" lon="9.422724656760693">
<ele>321.6</ele>
<time>2024-05-12T08:36:40Z</time>
</trkpt>
<trkpt lat="49.46339411661029" lon="9.422726584598422">
<ele>321.6</ele>
<time>2024-05-12T08:36:44Z</time>
</trkpt>
<trkpt lat="49.46339411661029" lon="9.422728512436152">
<ele>321.6</ele>
<time>2024-05-12T08:36:47Z</time>
</trkpt>
<trkpt lat="49.46339411661029" lon="9.422726584598422">
<ele>321.6</ele>
<time>2024-05-12T08:36:53Z</time>
</trkpt>
<trkpt lat="49.46339411661029" lon="9.422724656760693">
<ele>321.6</ele>
<time>2024-05-12T08:36:54Z</time>
</trkpt>
<trkpt lat="49.46339411661029" lon="9.422723734751344">
<ele>321.6</ele>
<time>2024-05-12T08:36:55Z</time>
</trkpt>
<trkpt lat="49.46339034475386" lon="9.422724656760693">
<ele>321.6</ele>
<time>2024-05-12T08:36:57Z</time>
</trkpt>
<trkpt lat="49.46339034475386" lon="9.422728512436152">
<ele>321.8</ele>
<time>2024-05-12T08:37:00Z</time>
</trkpt>
<trkpt lat="49.4633864890784" lon="9.42273044027388">
<ele>321.8</ele>
<time>2024-05-12T08:37:01Z</time>
</trkpt>
<trkpt lat="49.4633864890784" lon="9.422728512436152">
<ele>321.8</ele>
<time>2024-05-12T08:37:03Z</time>
</trkpt>
<trkpt lat="49.4633864890784" lon="9.422726584598422">
<ele>321.8</ele>
<time>2024-05-12T08:37:04Z</time>
</trkpt>
<trkpt lat="49.4633864890784" lon="9.422728512436152">
<ele>321.8</ele>
<time>2024-05-12T08:37:08Z</time>
</trkpt>
<trkpt lat="49.46339034475386" lon="9.422728512436152">
<ele>321.8</ele>
<time>2024-05-12T08:37:09Z</time>
</trkpt>
<trkpt lat="49.4633864890784" lon="9.422728512436152">
<ele>321.8</ele>
<time>2024-05-12T08:37:10Z</time>
</trkpt>
<trkpt lat="49.4633864890784" lon="9.42273044027388">
<ele>321.8</ele>
<time>2024-05-12T08:37:11Z</time>
</trkpt>
<trkpt lat="49.463382717221975" lon="9.42273136228323">
<ele>322</ele>
<time>2024-05-12T08:37:16Z</time>
</trkpt>
<trkpt lat="49.46337508969009" lon="9.422737061977386">
<ele>322</ele>
<time>2024-05-12T08:37:17Z</time>
</trkpt>
<trkpt lat="49.4633674621582" lon="9.42275139503181">
<ele>322</ele>
<time>2024-05-12T08:37:18Z</time>
</trkpt>
<trkpt lat="49.463359750807285" lon="9.422768577933311">
<ele>322</ele>
<time>2024-05-12T08:37:19Z</time>
</trkpt>
<trkpt lat="49.46334835141897" lon="9.422788610681891">
<ele>322</ele>
<time>2024-05-12T08:37:20Z</time>
</trkpt>
<trkpt lat="49.4633330963552" lon="9.42280956543982">
<ele>322</ele>
<time>2024-05-12T08:37:21Z</time>
</trkpt>
<trkpt lat="49.46331784129143" lon="9.422833370044827">
<ele>322</ele>
<time>2024-05-12T08:37:22Z</time>
</trkpt>
<trkpt lat="49.4632987305522" lon="9.422855330631135">
<ele>322</ele>
<time>2024-05-12T08:37:23Z</time>
</trkpt>
<trkpt lat="49.463279703632" lon="9.422871507704258">
<ele>322</ele>
<time>2024-05-12T08:37:24Z</time>
</trkpt>
<trkpt lat="49.46325296536088" lon="9.42288969643414">
<ele>322</ele>
<time>2024-05-12T08:37:25Z</time>
</trkpt>
<trkpt lat="49.46323393844068" lon="9.42290679551661">
<ele>322</ele>
<time>2024-05-12T08:37:26Z</time>
</trkpt>
<trkpt lat="49.46321868337691" lon="9.422924984246492">
<ele>322</ele>
<time>2024-05-12T08:37:27Z</time>
</trkpt>
<trkpt lat="49.463203428313136" lon="9.422941161319612">
<ele>322.2</ele>
<time>2024-05-12T08:37:28Z</time>
</trkpt>
<trkpt lat="49.463184317573905" lon="9.422960272058845">
<ele>322.2</ele>
<time>2024-05-12T08:37:29Z</time>
</trkpt>
<trkpt lat="49.46316906251013" lon="9.422976449131966">
<ele>322.4</ele>
<time>2024-05-12T08:37:30Z</time>
</trkpt>
<trkpt lat="49.46315380744636" lon="9.422996481880546">
<ele>322.6</ele>
<time>2024-05-12T08:37:31Z</time>
</trkpt>
<trkpt lat="49.46313469670713" lon="9.423016514629126">
<ele>322.6</ele>
<time>2024-05-12T08:37:32Z</time>
</trkpt>
<trkpt lat="49.46311181411147" lon="9.423031769692898">
<ele>322.8</ele>
<time>2024-05-12T08:37:33Z</time>
</trkpt>
<trkpt lat="49.4630965590477" lon="9.423051802441478">
<ele>322.8</ele>
<time>2024-05-12T08:37:34Z</time>
</trkpt>
<trkpt lat="49.46307367645204" lon="9.423073763027787">
<ele>323</ele>
<time>2024-05-12T08:37:35Z</time>
</trkpt>
<trkpt lat="49.46305464953184" lon="9.423089940100908">
<ele>323.2</ele>
<time>2024-05-12T08:37:36Z</time>
</trkpt>
<trkpt lat="49.46303176693618" lon="9.42310519516468">
<ele>323.4</ele>
<time>2024-05-12T08:37:37Z</time>
</trkpt>
<trkpt lat="49.46301642805338" lon="9.423121372237802">
<ele>323.4</ele>
<time>2024-05-12T08:37:38Z</time>
</trkpt>
<trkpt lat="49.46299354545772" lon="9.423136711120604">
<ele>323.6</ele>
<time>2024-05-12T08:37:39Z</time>
</trkpt>
<trkpt lat="49.46297451853752" lon="9.423141404986382">
<ele>323.6</ele>
<time>2024-05-12T08:37:40Z</time>
</trkpt>
<trkpt lat="49.46295163594186" lon="9.423151966184378">
<ele>323.8</ele>
<time>2024-05-12T08:37:41Z</time>
</trkpt>
<trkpt lat="49.46293252520263" lon="9.4231681432575">
<ele>324</ele>
<time>2024-05-12T08:37:42Z</time>
</trkpt>
<trkpt lat="49.46291349828243" lon="9.423183398321273">
<ele>324.2</ele>
<time>2024-05-12T08:37:43Z</time>
</trkpt>
<trkpt lat="49.4628943875432" lon="9.423190103843808">
<ele>324.4</ele>
<time>2024-05-12T08:37:44Z</time>
</trkpt>
<trkpt lat="49.46287150494754" lon="9.42320150323212">
<ele>324.8</ele>
<time>2024-05-12T08:37:45Z</time>
</trkpt>
<trkpt lat="49.46286010555923" lon="9.423212986439466">
<ele>325</ele>
<time>2024-05-12T08:37:46Z</time>
</trkpt>
<trkpt lat="49.46283713914454" lon="9.42322631366551">
<ele>325.2</ele>
<time>2024-05-12T08:37:47Z</time>
</trkpt>
<trkpt lat="49.46281811222434" lon="9.423239640891552">
<ele>325.6</ele>
<time>2024-05-12T08:37:48Z</time>
</trkpt>
<trkpt lat="49.462806629016995" lon="9.42326160147786">
<ele>325.8</ele>
<time>2024-05-12T08:37:49Z</time>
</trkpt>
<trkpt lat="49.46279522962868" lon="9.42326160147786">
<ele>326.2</ele>
<time>2024-05-12T08:37:50Z</time>
</trkpt>
<trkpt lat="49.4627876020968" lon="9.423270151019096">
<ele>326.4</ele>
<time>2024-05-12T08:37:51Z</time>
</trkpt>
<trkpt lat="49.46277611888945" lon="9.423276856541634">
<ele>326.8</ele>
<time>2024-05-12T08:37:52Z</time>
</trkpt>
<trkpt lat="49.46274560876191" lon="9.423290183767676">
<ele>327</ele>
<time>2024-05-12T08:37:53Z</time>
</trkpt>
<trkpt lat="49.46271509863436" lon="9.423290183767676">
<ele>327.4</ele>
<time>2024-05-12T08:37:54Z</time>
</trkpt>
<trkpt lat="49.46269607171416" lon="9.423294961452484">
<ele>327.8</ele>
<time>2024-05-12T08:37:55Z</time>
</trkpt>
<trkpt lat="49.46267696097493" lon="9.42330166697502">
<ele>328.2</ele>
<time>2024-05-12T08:37:56Z</time>
</trkpt>
<trkpt lat="49.4626388233155" lon="9.42334458231926">
<ele>328.4</ele>
<time>2024-05-12T08:37:57Z</time>
</trkpt>
<trkpt lat="49.46260831318796" lon="9.423373164609076">
<ele>328.8</ele>
<time>2024-05-12T08:37:58Z</time>
</trkpt>
<trkpt lat="49.46257780306041" lon="9.42340183071792">
<ele>329.2</ele>
<time>2024-05-12T08:37:59Z</time>
</trkpt>
<trkpt lat="49.462554920464754" lon="9.423418007791042">
<ele>329.8</ele>
<time>2024-05-12T08:38:00Z</time>
</trkpt>
<trkpt lat="49.46252818219364" lon="9.42342471331358">
<ele>330.2</ele>
<time>2024-05-12T08:38:01Z</time>
</trkpt>
<trkpt lat="49.46250144392252" lon="9.42344374023378">
<ele>330.6</ele>
<time>2024-05-12T08:38:02Z</time>
</trkpt>
<trkpt lat="49.462474789470434" lon="9.423451367765663">
<ele>331</ele>
<time>2024-05-12T08:38:03Z</time>
</trkpt>
<trkpt lat="49.46244805119932" lon="9.423468550667168">
<ele>331.4</ele>
<time>2024-05-12T08:38:04Z</time>
</trkpt>
<trkpt lat="49.46242139674723" lon="9.423489505425096">
<ele>331.8</ele>
<time>2024-05-12T08:38:05Z</time>
</trkpt>
<trkpt lat="49.4623832590878" lon="9.423524793237448">
<ele>332.4</ele>
<time>2024-05-12T08:38:06Z</time>
</trkpt>
<trkpt lat="49.46236037649214" lon="9.423553459346294">
<ele>332.8</ele>
<time>2024-05-12T08:38:07Z</time>
</trkpt>
<trkpt lat="49.46233749389648" lon="9.423584891483188">
<ele>333.2</ele>
<time>2024-05-12T08:38:08Z</time>
</trkpt>
<trkpt lat="49.462314527481794" lon="9.423611629754305">
<ele>333.6</ele>
<time>2024-05-12T08:38:09Z</time>
</trkpt>
<trkpt lat="49.46228787302971" lon="9.42364021204412">
<ele>334.2</ele>
<time>2024-05-12T08:38:10Z</time>
</trkpt>
<trkpt lat="49.46226499043405" lon="9.423653539270164">
<ele>334.6</ele>
<time>2024-05-12T08:38:11Z</time>
</trkpt>
<trkpt lat="49.46223825216293" lon="9.423666950315235">
<ele>335</ele>
<time>2024-05-12T08:38:12Z</time>
</trkpt>
<trkpt lat="49.46221159771085" lon="9.423683127388358">
<ele>335.4</ele>
<time>2024-05-12T08:38:13Z</time>
</trkpt>
<trkpt lat="49.4621810875833" lon="9.4236964546144">
<ele>336</ele>
<time>2024-05-12T08:38:14Z</time>
</trkpt>
<trkpt lat="49.46215049363673" lon="9.423723192885518">
<ele>336.4</ele>
<time>2024-05-12T08:38:15Z</time>
</trkpt>
<trkpt lat="49.46212383918464" lon="9.42373652011156">
<ele>336.8</ele>
<time>2024-05-12T08:38:16Z</time>
</trkpt>
<trkpt lat="49.462097100913525" lon="9.423753703013062">
<ele>337.2</ele>
<time>2024-05-12T08:38:17Z</time>
</trkpt>
<trkpt lat="49.46208184584975" lon="9.423771807923911">
<ele>337.6</ele>
<time>2024-05-12T08:38:18Z</time>
</trkpt>
<trkpt lat="49.46205519139767" lon="9.423791840672491">
<ele>338</ele>
<time>2024-05-12T08:38:19Z</time>
</trkpt>
<trkpt lat="49.46202845312655" lon="9.423809945583344">
<ele>338.4</ele>
<time>2024-05-12T08:38:20Z</time>
</trkpt>
<trkpt lat="49.462001798674464" lon="9.423826206475496">
<ele>338.8</ele>
<time>2024-05-12T08:38:21Z</time>
</trkpt>
<trkpt lat="49.46197506040335" lon="9.42383861169219">
<ele>339.2</ele>
<time>2024-05-12T08:38:22Z</time>
</trkpt>
<trkpt lat="49.46195217780769" lon="9.423848083242774">
<ele>339.6</ele>
<time>2024-05-12T08:38:23Z</time>
</trkpt>
<trkpt lat="49.46193692274392" lon="9.423863338306546">
<ele>339.8</ele>
<time>2024-05-12T08:38:24Z</time>
</trkpt>
<trkpt lat="49.461917812004685" lon="9.423866271972656">
<ele>340.2</ele>
<time>2024-05-12T08:38:25Z</time>
</trkpt>
<trkpt lat="49.46189492940903" lon="9.423878593370318">
<ele>340.6</ele>
<time>2024-05-12T08:38:26Z</time>
</trkpt>
<trkpt lat="49.461883530020714" lon="9.423878593370318">
<ele>340.8</ele>
<time>2024-05-12T08:38:27Z</time>
</trkpt>
<trkpt lat="49.46187590248883" lon="9.423883371055126">
<ele>341.2</ele>
<time>2024-05-12T08:38:28Z</time>
</trkpt>
<trkpt lat="49.461860647425056" lon="9.423890076577663">
<ele>341.6</ele>
<time>2024-05-12T08:38:29Z</time>
</trkpt>
<trkpt lat="49.461841536685824" lon="9.423905331641436">
<ele>341.8</ele>
<time>2024-05-12T08:38:30Z</time>
</trkpt>
<trkpt lat="49.46181479841471" lon="9.423928214237094">
<ele>342.2</ele>
<time>2024-05-12T08:38:31Z</time>
</trkpt>
<trkpt lat="49.46176903322339" lon="9.423956796526909">
<ele>342.6</ele>
<time>2024-05-12T08:38:32Z</time>
</trkpt>
<trkpt lat="49.46172712370753" lon="9.423971129581332">
<ele>342.8</ele>
<time>2024-05-12T08:38:33Z</time>
</trkpt>
<trkpt lat="49.46169661357999" lon="9.423990240320563">
<ele>343.2</ele>
<time>2024-05-12T08:38:34Z</time>
</trkpt>
<trkpt lat="49.46167750284076" lon="9.42399786785245">
<ele>343.6</ele>
<time>2024-05-12T08:38:35Z</time>
</trkpt>
<trkpt lat="49.46164699271321" lon="9.424004489555957">
<ele>343.8</ele>
<time>2024-05-12T08:38:36Z</time>
</trkpt>
<trkpt lat="49.46163550950587" lon="9.424006417393684">
<ele>344.2</ele>
<time>2024-05-12T08:38:37Z</time>
</trkpt>
<trkpt lat="49.46160499937832" lon="9.42401790060103">
<ele>344.4</ele>
<time>2024-05-12T08:38:38Z</time>
</trkpt>
<trkpt lat="49.46157071739435" lon="9.42401790060103">
<ele>344.8</ele>
<time>2024-05-12T08:38:39Z</time>
</trkpt>
<trkpt lat="49.46154020726681" lon="9.424016894772649">
<ele>345</ele>
<time>2024-05-12T08:38:40Z</time>
</trkpt>
<trkpt lat="49.46150206960738" lon="9.424030221998692">
<ele>345.2</ele>
<time>2024-05-12T08:38:41Z</time>
</trkpt>
<trkpt lat="49.461467703804374" lon="9.4240349996835">
<ele>345.6</ele>
<time>2024-05-12T08:38:42Z</time>
</trkpt>
<trkpt lat="49.46143333800137" lon="9.42403793334961">
<ele>345.8</ele>
<time>2024-05-12T08:38:43Z</time>
</trkpt>
<trkpt lat="49.461406683549285" lon="9.424043633043766">
<ele>346</ele>
<time>2024-05-12T08:38:44Z</time>
</trkpt>
<trkpt lat="49.46139142848551" lon="9.424048410728574">
<ele>346.4</ele>
<time>2024-05-12T08:38:45Z</time>
</trkpt>
<trkpt lat="49.461368545889854" lon="9.424056960269809">
<ele>346.6</ele>
<time>2024-05-12T08:38:46Z</time>
</trkpt>
<trkpt lat="49.46133803576231" lon="9.424059810116889">
<ele>346.8</ele>
<time>2024-05-12T08:38:47Z</time>
</trkpt>
<trkpt lat="49.46131129749119" lon="9.424061737954617">
<ele>347.2</ele>
<time>2024-05-12T08:38:48Z</time>
</trkpt>
<trkpt lat="49.46128078736365" lon="9.424064587801697">
<ele>347.4</ele>
<time>2024-05-12T08:38:49Z</time>
</trkpt>
<trkpt lat="49.461250277236104" lon="9.424070287495852">
<ele>347.4</ele>
<time>2024-05-12T08:38:50Z</time>
</trkpt>
<trkpt lat="49.46121976710856" lon="9.42407506518066">
<ele>347.8</ele>
<time>2024-05-12T08:38:51Z</time>
</trkpt>
<trkpt lat="49.461189256981015" lon="9.424077915027738">
<ele>348</ele>
<time>2024-05-12T08:38:52Z</time>
</trkpt>
<trkpt lat="49.46115489117801" lon="9.424077915027738">
<ele>348.2</ele>
<time>2024-05-12T08:38:53Z</time>
</trkpt>
<trkpt lat="49.46112438105047" lon="9.424077915027738">
<ele>348.4</ele>
<time>2024-05-12T08:38:54Z</time>
</trkpt>
<trkpt lat="49.46109764277935" lon="9.424084620550277">
<ele>348.8</ele>
<time>2024-05-12T08:38:55Z</time>
</trkpt>
<trkpt lat="49.461067132651806" lon="9.424086548388004">
<ele>349</ele>
<time>2024-05-12T08:38:56Z</time>
</trkpt>
<trkpt lat="49.46103662252426" lon="9.424101803451777">
<ele>349</ele>
<time>2024-05-12T08:38:57Z</time>
</trkpt>
<trkpt lat="49.46100611239672" lon="9.424119908362629">
<ele>349.2</ele>
<time>2024-05-12T08:38:58Z</time>
</trkpt>
<trkpt lat="49.46097945794463" lon="9.42413323558867">
<ele>349.4</ele>
<time>2024-05-12T08:38:59Z</time>
</trkpt>
<trkpt lat="49.460948863998055" lon="9.424138013273478">
<ele>349.4</ele>
<time>2024-05-12T08:39:00Z</time>
</trkpt>
<trkpt lat="49.46091835387051" lon="9.424146646633744">
<ele>349.6</ele>
<time>2024-05-12T08:39:01Z</time>
</trkpt>
<trkpt lat="49.460891699418426" lon="9.424161901697516">
<ele>349.6</ele>
<time>2024-05-12T08:39:02Z</time>
</trkpt>
<trkpt lat="49.460872588679194" lon="9.424180006608369">
<ele>349.8</ele>
<time>2024-05-12T08:39:03Z</time>
</trkpt>
<trkpt lat="49.460853561758995" lon="9.424189561977984">
<ele>350</ele>
<time>2024-05-12T08:39:04Z</time>
</trkpt>
<trkpt lat="49.46083445101976" lon="9.424201883375645">
<ele>350.2</ele>
<time>2024-05-12T08:39:05Z</time>
</trkpt>
<trkpt lat="49.460811568424106" lon="9.424221916124225">
<ele>350.6</ele>
<time>2024-05-12T08:39:06Z</time>
</trkpt>
<trkpt lat="49.46078868582845" lon="9.424240104854109">
<ele>350.8</ele>
<time>2024-05-12T08:39:07Z</time>
</trkpt>
<trkpt lat="49.46076580323279" lon="9.424258209764956">
<ele>351.2</ele>
<time>2024-05-12T08:39:08Z</time>
</trkpt>
<trkpt lat="49.46073906496167" lon="9.424276314675808">
<ele>351.4</ele>
<time>2024-05-12T08:39:09Z</time>
</trkpt>
<trkpt lat="49.460712410509586" lon="9.42429156973958">
<ele>351.6</ele>
<time>2024-05-12T08:39:10Z</time>
</trkpt>
<trkpt lat="49.46068190038204" lon="9.42430967465043">
<ele>351.8</ele>
<time>2024-05-12T08:39:11Z</time>
</trkpt>
<trkpt lat="49.4606513902545" lon="9.424326857551932">
<ele>351.8</ele>
<time>2024-05-12T08:39:12Z</time>
</trkpt>
<trkpt lat="49.46062465198338" lon="9.424346890300512">
<ele>352</ele>
<time>2024-05-12T08:39:13Z</time>
</trkpt>
<trkpt lat="49.46059791371226" lon="9.4243717007339">
<ele>352.2</ele>
<time>2024-05-12T08:39:14Z</time>
</trkpt>
<trkpt lat="49.46056740358472" lon="9.424400283023717">
<ele>352.2</ele>
<time>2024-05-12T08:39:15Z</time>
</trkpt>
<trkpt lat="49.460536893457174" lon="9.424423165619372">
<ele>352.4</ele>
<time>2024-05-12T08:39:16Z</time>
</trkpt>
<trkpt lat="49.4605216383934" lon="9.424443198367952">
<ele>352.6</ele>
<time>2024-05-12T08:39:17Z</time>
</trkpt>
<trkpt lat="49.46049498394132" lon="9.424465158954265">
<ele>352.8</ele>
<time>2024-05-12T08:39:18Z</time>
</trkpt>
<trkpt lat="49.46046447381377" lon="9.42448996938765">
<ele>352.8</ele>
<time>2024-05-12T08:39:19Z</time>
</trkpt>
<trkpt lat="49.46044150739908" lon="9.424511846154928">
<ele>353</ele>
<time>2024-05-12T08:39:20Z</time>
</trkpt>
<trkpt lat="49.46041099727154" lon="9.424532884731889">
<ele>353</ele>
<time>2024-05-12T08:39:21Z</time>
</trkpt>
<trkpt lat="49.460376715287566" lon="9.424546211957932">
<ele>353</ele>
<time>2024-05-12T08:39:22Z</time>
</trkpt>
<trkpt lat="49.46034620516002" lon="9.424552917480469">
<ele>353.2</ele>
<time>2024-05-12T08:39:23Z</time>
</trkpt>
<trkpt lat="49.46031569503248" lon="9.424566244706511">
<ele>353.2</ele>
<time>2024-05-12T08:39:24Z</time>
</trkpt>
<trkpt lat="49.46028518490493" lon="9.424581499770284">
<ele>353.2</ele>
<time>2024-05-12T08:39:25Z</time>
</trkpt>
<trkpt lat="49.46025081910193" lon="9.424596754834056">
<ele>353.2</ele>
<time>2024-05-12T08:39:26Z</time>
</trkpt>
<trkpt lat="49.460216453298926" lon="9.42460815422237">
<ele>353.2</ele>
<time>2024-05-12T08:39:27Z</time>
</trkpt>
<trkpt lat="49.46018979884684" lon="9.42462533712387">
<ele>353</ele>
<time>2024-05-12T08:39:28Z</time>
</trkpt>
<trkpt lat="49.46015543304384" lon="9.42464536987245">
<ele>353</ele>
<time>2024-05-12T08:39:29Z</time>
</trkpt>
<trkpt lat="49.460121151059866" lon="9.42467018030584">
<ele>352.8</ele>
<time>2024-05-12T08:39:30Z</time>
</trkpt>
<trkpt lat="49.46008678525686" lon="9.42469021305442">
<ele>352.8</ele>
<time>2024-05-12T08:39:31Z</time>
</trkpt>
<trkpt lat="49.46005627512932" lon="9.42470354028046">
<ele>352.8</ele>
<time>2024-05-12T08:39:32Z</time>
</trkpt>
<trkpt lat="49.4600295368582" lon="9.424717873334885">
<ele>352.8</ele>
<time>2024-05-12T08:39:33Z</time>
</trkpt>
<trkpt lat="49.460002882406116" lon="9.424735056236386">
<ele>352.8</ele>
<time>2024-05-12T08:39:34Z</time>
</trkpt>
<trkpt lat="49.45997237227857" lon="9.424753161147237">
<ele>352.6</ele>
<time>2024-05-12T08:39:35Z</time>
</trkpt>
<trkpt lat="49.459945634007454" lon="9.424771266058087">
<ele>352.6</ele>
<time>2024-05-12T08:39:36Z</time>
</trkpt>
<trkpt lat="49.45993037894368" lon="9.42478459328413">
<ele>352.4</ele>
<time>2024-05-12T08:39:37Z</time>
</trkpt>
<trkpt lat="49.45992275141179" lon="9.424790376797318">
<ele>352.2</ele>
<time>2024-05-12T08:39:38Z</time>
</trkpt>
<trkpt lat="49.45991889573634" lon="9.424790376797318">
<ele>352.2</ele>
<time>2024-05-12T08:39:40Z</time>
</trkpt>
<trkpt lat="49.45991889573634" lon="9.424788448959587">
<ele>352</ele>
<time>2024-05-12T08:39:41Z</time>
</trkpt>
<trkpt lat="49.45991512387991" lon="9.42478652112186">
<ele>352</ele>
<time>2024-05-12T08:39:42Z</time>
</trkpt>
<trkpt lat="49.45991126820445" lon="9.424788448959587">
<ele>351.8</ele>
<time>2024-05-12T08:39:43Z</time>
</trkpt>
<trkpt lat="49.45990749634802" lon="9.424791298806667">
<ele>351.8</ele>
<time>2024-05-12T08:39:44Z</time>
</trkpt>
<trkpt lat="49.459903640672565" lon="9.424796998500824">
<ele>351.6</ele>
<time>2024-05-12T08:39:45Z</time>
</trkpt>
<trkpt lat="49.45989601314068" lon="9.424799848347902">
<ele>351.6</ele>
<time>2024-05-12T08:39:46Z</time>
</trkpt>
<trkpt lat="49.45988838560879" lon="9.424801776185632">
<ele>351.6</ele>
<time>2024-05-12T08:39:47Z</time>
</trkpt>
<trkpt lat="49.459884613752365" lon="9.424801776185632">
<ele>351.6</ele>
<time>2024-05-12T08:39:48Z</time>
</trkpt>
<trkpt lat="49.459884613752365" lon="9.42480370402336">
<ele>351.4</ele>
<time>2024-05-12T08:39:50Z</time>
</trkpt>
<trkpt lat="49.459880758076906" lon="9.42480370402336">
<ele>351.4</ele>
<time>2024-05-12T08:39:56Z</time>
</trkpt>
<trkpt lat="49.459880758076906" lon="9.42480462603271">
<ele>351.4</ele>
<time>2024-05-12T08:40:02Z</time>
</trkpt>
<trkpt lat="49.45987698622048" lon="9.42480462603271">
<ele>351.2</ele>
<time>2024-05-12T08:40:04Z</time>
</trkpt>
<trkpt lat="49.45987698622048" lon="9.42480655387044">
<ele>351.2</ele>
<time>2024-05-12T08:40:05Z</time>
</trkpt>
<trkpt lat="49.45987698622048" lon="9.424808481708167">
<ele>351</ele>
<time>2024-05-12T08:40:08Z</time>
</trkpt>
<trkpt lat="49.45987313054502" lon="9.424810409545898">
<ele>351</ele>
<time>2024-05-12T08:40:13Z</time>
</trkpt>
<trkpt lat="49.45987313054502" lon="9.424808481708167">
<ele>351</ele>
<time>2024-05-12T08:40:23Z</time>
</trkpt>
<trkpt lat="49.45987313054502" lon="9.424810409545898">
<ele>351</ele>
<time>2024-05-12T08:40:25Z</time>
</trkpt>
<trkpt lat="49.45987313054502" lon="9.424811331555247">
<ele>351</ele>
<time>2024-05-12T08:40:30Z</time>
</trkpt>
<trkpt lat="49.45987313054502" lon="9.424810409545898">
<ele>351</ele>
<time>2024-05-12T08:40:36Z</time>
</trkpt>
<trkpt lat="49.45987313054502" lon="9.424811331555247">
<ele>351</ele>
<time>2024-05-12T08:40:39Z</time>
</trkpt>
<trkpt lat="49.45987313054502" lon="9.424810409545898">
<ele>351</ele>
<time>2024-05-12T08:41:06Z</time>
</trkpt>
<trkpt lat="49.45987313054502" lon="9.424808481708167">
<ele>351</ele>
<time>2024-05-12T08:41:09Z</time>
</trkpt>
<trkpt lat="49.45986935868859" lon="9.424808481708167">
<ele>350.8</ele>
<time>2024-05-12T08:41:21Z</time>
</trkpt>
<trkpt lat="49.45986935868859" lon="9.42480655387044">
<ele>350.8</ele>
<time>2024-05-12T08:41:27Z</time>
</trkpt>
<trkpt lat="49.45986935868859" lon="9.424808481708167">
<ele>350.8</ele>
<time>2024-05-12T08:41:30Z</time>
</trkpt>
<trkpt lat="49.45986935868859" lon="9.424810409545898">
<ele>350.8</ele>
<time>2024-05-12T08:41:31Z</time>
</trkpt>
<trkpt lat="49.459865503013134" lon="9.424810409545898">
<ele>350.8</ele>
<time>2024-05-12T08:41:32Z</time>
</trkpt>
<trkpt lat="49.459865503013134" lon="9.424808481708167">
<ele>350.8</ele>
<time>2024-05-12T08:41:45Z</time>
</trkpt>
<trkpt lat="49.459865503013134" lon="9.42480655387044">
<ele>350.8</ele>
<time>2024-05-12T08:41:49Z</time>
</trkpt>
<trkpt lat="49.45986173115671" lon="9.42480462603271">
<ele>350.8</ele>
<time>2024-05-12T08:41:54Z</time>
</trkpt>
<trkpt lat="49.45985410362482" lon="9.424799848347902">
<ele>350.8</ele>
<time>2024-05-12T08:41:55Z</time>
</trkpt>
<trkpt lat="49.45984262041747" lon="9.424790376797318">
<ele>350.8</ele>
<time>2024-05-12T08:41:56Z</time>
</trkpt>
<trkpt lat="49.45982359349728" lon="9.42478459328413">
<ele>350.8</ele>
<time>2024-05-12T08:41:57Z</time>
</trkpt>
<trkpt lat="49.45979685522616" lon="9.424777971580625">
<ele>350.8</ele>
<time>2024-05-12T08:41:58Z</time>
</trkpt>
<trkpt lat="49.45975871756673" lon="9.424776965752244">
<ele>350.8</ele>
<time>2024-05-12T08:41:59Z</time>
</trkpt>
<trkpt lat="49.459724351763725" lon="9.424776965752244">
<ele>350.8</ele>
<time>2024-05-12T08:42:00Z</time>
</trkpt>
<trkpt lat="49.45967858657241" lon="9.424770344048738">
<ele>350.8</ele>
<time>2024-05-12T08:42:01Z</time>
</trkpt>
<trkpt lat="49.45963282138109" lon="9.4247636385262">
<ele>350.6</ele>
<time>2024-05-12T08:42:02Z</time>
</trkpt>
<trkpt lat="49.459590911865234" lon="9.424759782850742">
<ele>350.6</ele>
<time>2024-05-12T08:42:03Z</time>
</trkpt>
<trkpt lat="49.459545062854886" lon="9.424759782850742">
<ele>350.6</ele>
<time>2024-05-12T08:42:04Z</time>
</trkpt>
<trkpt lat="49.45949552580714" lon="9.424759782850742">
<ele>350.4</ele>
<time>2024-05-12T08:42:05Z</time>
</trkpt>
<trkpt lat="49.459449760615826" lon="9.424761710688472">
<ele>350.4</ele>
<time>2024-05-12T08:42:06Z</time>
</trkpt>
<trkpt lat="49.45941153913736" lon="9.424756933003664">
<ele>350.4</ele>
<time>2024-05-12T08:42:07Z</time>
</trkpt>
<trkpt lat="49.459369629621506" lon="9.424753161147237">
<ele>350.4</ele>
<time>2024-05-12T08:42:08Z</time>
</trkpt>
<trkpt lat="49.459331491962075" lon="9.4247464556247">
<ele>350.4</ele>
<time>2024-05-12T08:42:09Z</time>
</trkpt>
<trkpt lat="49.459293354302645" lon="9.42474360577762">
<ele>350.6</ele>
<time>2024-05-12T08:42:10Z</time>
</trkpt>
<trkpt lat="49.459251360967755" lon="9.424739833921194">
<ele>350.6</ele>
<time>2024-05-12T08:42:11Z</time>
</trkpt>
<trkpt lat="49.459213223308325" lon="9.424736900255084">
<ele>350.6</ele>
<time>2024-05-12T08:42:12Z</time>
</trkpt>
<trkpt lat="49.459175085648894" lon="9.424733128398657">
<ele>350.8</ele>
<time>2024-05-12T08:42:13Z</time>
</trkpt>
<trkpt lat="49.45914071984589" lon="9.424728350713847">
<ele>350.8</ele>
<time>2024-05-12T08:42:14Z</time>
</trkpt>
<trkpt lat="49.45911020971835" lon="9.42472357302904">
<ele>350.8</ele>
<time>2024-05-12T08:42:15Z</time>
</trkpt>
<trkpt lat="49.4590796995908" lon="9.424717873334885">
<ele>350.8</ele>
<time>2024-05-12T08:42:16Z</time>
</trkpt>
<trkpt lat="49.4590453337878" lon="9.424715023487806">
<ele>350.8</ele>
<time>2024-05-12T08:42:17Z</time>
</trkpt>
<trkpt lat="49.45901105180383" lon="9.424713095650077">
<ele>350.8</ele>
<time>2024-05-12T08:42:18Z</time>
</trkpt>
<trkpt lat="49.4589729141444" lon="9.424711167812347">
<ele>350.6</ele>
<time>2024-05-12T08:42:19Z</time>
</trkpt>
<trkpt lat="49.458934776484966" lon="9.424711167812347">
<ele>350.6</ele>
<time>2024-05-12T08:42:20Z</time>
</trkpt>
<trkpt lat="49.45890426635742" lon="9.424711167812347">
<ele>350.4</ele>
<time>2024-05-12T08:42:21Z</time>
</trkpt>
<trkpt lat="49.45886990055442" lon="9.424710245803">
<ele>350.4</ele>
<time>2024-05-12T08:42:22Z</time>
</trkpt>
<trkpt lat="49.458839390426874" lon="9.424710245803">
<ele>350.4</ele>
<time>2024-05-12T08:42:23Z</time>
</trkpt>
<trkpt lat="49.45880502462387" lon="9.424708317965267">
<ele>350.4</ele>
<time>2024-05-12T08:42:24Z</time>
</trkpt>
<trkpt lat="49.458778370171785" lon="9.424708317965267">
<ele>350.4</ele>
<time>2024-05-12T08:42:25Z</time>
</trkpt>
<trkpt lat="49.45875163190067" lon="9.424710245803">
<ele>350.6</ele>
<time>2024-05-12T08:42:26Z</time>
</trkpt>
<trkpt lat="49.45872112177312" lon="9.424711167812347">
<ele>350.6</ele>
<time>2024-05-12T08:42:27Z</time>
</trkpt>
<trkpt lat="49.45869438350201" lon="9.424713095650077">
<ele>350.6</ele>
<time>2024-05-12T08:42:28Z</time>
</trkpt>
<trkpt lat="49.458660101518035" lon="9.424716867506504">
<ele>350.6</ele>
<time>2024-05-12T08:42:29Z</time>
</trkpt>
<trkpt lat="49.45862959139049" lon="9.424717873334885">
<ele>350.8</ele>
<time>2024-05-12T08:42:30Z</time>
</trkpt>
<trkpt lat="49.45859145373106" lon="9.42472357302904">
<ele>351</ele>
<time>2024-05-12T08:42:31Z</time>
</trkpt>
<trkpt lat="49.4585532322526" lon="9.42472642287612">
<ele>351</ele>
<time>2024-05-12T08:42:32Z</time>
</trkpt>
<trkpt lat="49.45851509459317" lon="9.42473027855158">
<ele>351.2</ele>
<time>2024-05-12T08:42:33Z</time>
</trkpt>
<trkpt lat="49.45848458446562" lon="9.424735056236386">
<ele>351.4</ele>
<time>2024-05-12T08:42:34Z</time>
</trkpt>
<trkpt lat="49.45844644680619" lon="9.424739833921194">
<ele>351.4</ele>
<time>2024-05-12T08:42:35Z</time>
</trkpt>
<trkpt lat="49.45841216482222" lon="9.424748383462427">
<ele>351.6</ele>
<time>2024-05-12T08:42:36Z</time>
</trkpt>
<trkpt lat="49.45837779901922" lon="9.424756933003664">
<ele>351.6</ele>
<time>2024-05-12T08:42:37Z</time>
</trkpt>
<trkpt lat="49.458343433216214" lon="9.42476648837328">
<ele>351.8</ele>
<time>2024-05-12T08:42:38Z</time>
</trkpt>
<trkpt lat="49.45831292308867" lon="9.424781743437052">
<ele>351.8</ele>
<time>2024-05-12T08:42:39Z</time>
</trkpt>
<trkpt lat="49.458282412961125" lon="9.424801776185632">
<ele>352</ele>
<time>2024-05-12T08:42:40Z</time>
</trkpt>
<trkpt lat="49.45825190283358" lon="9.42482465878129">
<ele>352</ele>
<time>2024-05-12T08:42:41Z</time>
</trkpt>
<trkpt lat="49.45822139270604" lon="9.424850391224028">
<ele>352</ele>
<time>2024-05-12T08:42:42Z</time>
</trkpt>
<trkpt lat="49.45818702690303" lon="9.424881907179952">
<ele>352.2</ele>
<time>2024-05-12T08:42:43Z</time>
</trkpt>
<trkpt lat="49.45815274491906" lon="9.424913339316843">
<ele>352.4</ele>
<time>2024-05-12T08:42:44Z</time>
</trkpt>
<trkpt lat="49.45812223479152" lon="9.4249467831105">
<ele>352.6</ele>
<time>2024-05-12T08:42:45Z</time>
</trkpt>
<trkpt lat="49.45809172466397" lon="9.4249829929322">
<ele>352.6</ele>
<time>2024-05-12T08:42:46Z</time>
</trkpt>
<trkpt lat="49.458064986392856" lon="9.42502305842936">
<ele>352.8</ele>
<time>2024-05-12T08:42:47Z</time>
</trkpt>
<trkpt lat="49.458026848733425" lon="9.425064967945218">
<ele>353</ele>
<time>2024-05-12T08:42:48Z</time>
</trkpt>
<trkpt lat="49.457988711073995" lon="9.425109811127186">
<ele>353.2</ele>
<time>2024-05-12T08:42:49Z</time>
</trkpt>
<trkpt lat="49.45795057341456" lon="9.42515842616558">
<ele>353.4</ele>
<time>2024-05-12T08:42:50Z</time>
</trkpt>
<trkpt lat="49.457912435755134" lon="9.425208047032356">
<ele>353.6</ele>
<time>2024-05-12T08:42:51Z</time>
</trkpt>
<trkpt lat="49.45787044242024" lon="9.42525858990848">
<ele>353.8</ele>
<time>2024-05-12T08:42:52Z</time>
</trkpt>
<trkpt lat="49.457828449085355" lon="9.425310054793954">
<ele>354</ele>
<time>2024-05-12T08:42:53Z</time>
</trkpt>
<trkpt lat="49.4577865395695" lon="9.425363531336188">
<ele>354.2</ele>
<time>2024-05-12T08:42:54Z</time>
</trkpt>
<trkpt lat="49.45774077437818" lon="9.425416924059393">
<ele>354.2</ele>
<time>2024-05-12T08:42:55Z</time>
</trkpt>
<trkpt lat="49.45769492536783" lon="9.425471238791944">
<ele>354.4</ele>
<time>2024-05-12T08:42:56Z</time>
</trkpt>
<trkpt lat="49.45764916017651" lon="9.425533264875412">
<ele>354.4</ele>
<time>2024-05-12T08:42:57Z</time>
</trkpt>
<trkpt lat="49.45759962312877" lon="9.425602834671736">
<ele>354.4</ele>
<time>2024-05-12T08:42:58Z</time>
</trkpt>
<trkpt lat="49.457550002262" lon="9.425680115818976">
<ele>354.4</ele>
<time>2024-05-12T08:42:59Z</time>
</trkpt>
<trkpt lat="49.457496609538794" lon="9.425765024498103">
<ele>354.4</ele>
<time>2024-05-12T08:43:00Z</time>
</trkpt>
<trkpt lat="49.45744321681559" lon="9.425846999511124">
<ele>354.2</ele>
<time>2024-05-12T08:43:01Z</time>
</trkpt>
<trkpt lat="49.45738596841693" lon="9.42593190819025">
<ele>354.2</ele>
<time>2024-05-12T08:43:02Z</time>
</trkpt>
<trkpt lat="49.45732872001827" lon="9.426021510735154">
<ele>354</ele>
<time>2024-05-12T08:43:03Z</time>
</trkpt>
<trkpt lat="49.45727155543864" lon="9.426108347252011">
<ele>354</ele>
<time>2024-05-12T08:43:04Z</time>
</trkpt>
<trkpt lat="49.45721053518355" lon="9.426197027787566">
<ele>353.8</ele>
<time>2024-05-12T08:43:05Z</time>
</trkpt>
<trkpt lat="49.457157058641315" lon="9.426289480179548">
<ele>353.6</ele>
<time>2024-05-12T08:43:06Z</time>
</trkpt>
<trkpt lat="49.457099894061685" lon="9.426391571760178">
<ele>353.4</ele>
<time>2024-05-12T08:43:07Z</time>
</trkpt>
<trkpt lat="49.45705027319491" lon="9.426489807665348">
<ele>353.2</ele>
<time>2024-05-12T08:43:08Z</time>
</trkpt>
<trkpt lat="49.457000652328134" lon="9.426587037742138">
<ele>353</ele>
<time>2024-05-12T08:43:09Z</time>
</trkpt>
<trkpt lat="49.45695488713682" lon="9.42668334580958">
<ele>352.8</ele>
<time>2024-05-12T08:43:10Z</time>
</trkpt>
<trkpt lat="49.4569091219455" lon="9.426776804029942">
<ele>352.6</ele>
<time>2024-05-12T08:43:11Z</time>
</trkpt>
<trkpt lat="49.45686721242964" lon="9.426864562556148">
<ele>352.2</ele>
<time>2024-05-12T08:43:12Z</time>
</trkpt>
<trkpt lat="49.45682521909475" lon="9.426951399073005">
<ele>352</ele>
<time>2024-05-12T08:43:13Z</time>
</trkpt>
<trkpt lat="49.456783225759864" lon="9.4270362239331">
<ele>351.8</ele>
<time>2024-05-12T08:43:14Z</time>
</trkpt>
<trkpt lat="49.456741316244006" lon="9.42711828276515">
<ele>351.4</ele>
<time>2024-05-12T08:43:15Z</time>
</trkpt>
<trkpt lat="49.45669555105269" lon="9.427200257778168">
<ele>351.2</ele>
<time>2024-05-12T08:43:16Z</time>
</trkpt>
<trkpt lat="49.45664970204234" lon="9.427276533097029">
<ele>351</ele>
<time>2024-05-12T08:43:17Z</time>
</trkpt>
<trkpt lat="49.45660779252648" lon="9.427346186712384">
<ele>350.8</ele>
<time>2024-05-12T08:43:18Z</time>
</trkpt>
<trkpt lat="49.45656202733517" lon="9.427408212795854">
<ele>350.8</ele>
<time>2024-05-12T08:43:19Z</time>
</trkpt>
<trkpt lat="49.45652003400028" lon="9.427463449537754">
<ele>350.6</ele>
<time>2024-05-12T08:43:20Z</time>
</trkpt>
<trkpt lat="49.45647426880896" lon="9.42751499824226">
<ele>350.6</ele>
<time>2024-05-12T08:43:21Z</time>
</trkpt>
<trkpt lat="49.45643227547407" lon="9.427564619109036">
<ele>350.4</ele>
<time>2024-05-12T08:43:22Z</time>
</trkpt>
<trkpt lat="49.456386510282755" lon="9.42761323414743">
<ele>350.4</ele>
<time>2024-05-12T08:43:23Z</time>
</trkpt>
<trkpt lat="49.4563446007669" lon="9.427657071501017">
<ele>350.4</ele>
<time>2024-05-12T08:43:24Z</time>
</trkpt>
<trkpt lat="49.45629497990012" lon="9.427699986845257">
<ele>350.4</ele>
<time>2024-05-12T08:43:25Z</time>
</trkpt>
<trkpt lat="49.456249214708805" lon="9.427741980180144">
<ele>350.4</ele>
<time>2024-05-12T08:43:26Z</time>
</trkpt>
<trkpt lat="49.45619959384203" lon="9.427782967686651">
<ele>350.6</ele>
<time>2024-05-12T08:43:27Z</time>
</trkpt>
<trkpt lat="49.45615382865071" lon="9.427824961021544">
<ele>350.6</ele>
<time>2024-05-12T08:43:28Z</time>
</trkpt>
<trkpt lat="49.45610806345939" lon="9.427861170843244">
<ele>350.8</ele>
<time>2024-05-12T08:43:29Z</time>
</trkpt>
<trkpt lat="49.45605844259262" lon="9.427900314331056">
<ele>350.8</ele>
<time>2024-05-12T08:43:30Z</time>
</trkpt>
<trkpt lat="49.456012677401304" lon="9.427934596315026">
<ele>351</ele>
<time>2024-05-12T08:43:31Z</time>
</trkpt>
<trkpt lat="49.45596305653453" lon="9.4279670342803">
<ele>351</ele>
<time>2024-05-12T08:43:32Z</time>
</trkpt>
<trkpt lat="49.455913519486785" lon="9.427998466417192">
<ele>351.2</ele>
<time>2024-05-12T08:43:33Z</time>
</trkpt>
<trkpt lat="49.45586389862001" lon="9.428031910210848">
<ele>351.2</ele>
<time>2024-05-12T08:43:34Z</time>
</trkpt>
<trkpt lat="49.45581050589681" lon="9.42806527018547">
<ele>351.2</ele>
<time>2024-05-12T08:43:35Z</time>
</trkpt>
<trkpt lat="49.455753257498145" lon="9.428101480007172">
<ele>351.2</ele>
<time>2024-05-12T08:43:36Z</time>
</trkpt>
<trkpt lat="49.45569986477494" lon="9.428136767819524">
<ele>351.2</ele>
<time>2024-05-12T08:43:37Z</time>
</trkpt>
<trkpt lat="49.45564647205174" lon="9.428172055631876">
<ele>351.2</ele>
<time>2024-05-12T08:43:38Z</time>
</trkpt>
<trkpt lat="49.45559307932854" lon="9.4282035715878">
<ele>351.4</ele>
<time>2024-05-12T08:43:39Z</time>
</trkpt>
<trkpt lat="49.455539686605334" lon="9.428236931562424">
<ele>351.4</ele>
<time>2024-05-12T08:43:40Z</time>
</trkpt>
<trkpt lat="49.45548629388213" lon="9.428270291537046">
<ele>351.4</ele>
<time>2024-05-12T08:43:41Z</time>
</trkpt>
<trkpt lat="49.4554328173399" lon="9.42830365151167">
<ele>351.6</ele>
<time>2024-05-12T08:43:42Z</time>
</trkpt>
<trkpt lat="49.455379424616694" lon="9.42834371700883">
<ele>351.6</ele>
<time>2024-05-12T08:43:43Z</time>
</trkpt>
<trkpt lat="49.45532603189349" lon="9.42838185466826">
<ele>351.6</ele>
<time>2024-05-12T08:43:44Z</time>
</trkpt>
<trkpt lat="49.45526878349483" lon="9.42841999232769">
<ele>351.6</ele>
<time>2024-05-12T08:43:45Z</time>
</trkpt>
<trkpt lat="49.45520776323974" lon="9.428456285968425">
<ele>351.6</ele>
<time>2024-05-12T08:43:46Z</time>
</trkpt>
<trkpt lat="49.45514674298465" lon="9.428493417799473">
<ele>351.6</ele>
<time>2024-05-12T08:43:47Z</time>
</trkpt>
<trkpt lat="49.455081867054105" lon="9.428533483296633">
<ele>351.4</ele>
<time>2024-05-12T08:43:48Z</time>
</trkpt>
<trkpt lat="49.45501707494259" lon="9.428571620956063">
<ele>351.4</ele>
<time>2024-05-12T08:43:49Z</time>
</trkpt>
<trkpt lat="49.45495219901204" lon="9.42860120907426">
<ele>351.2</ele>
<time>2024-05-12T08:43:50Z</time>
</trkpt>
<trkpt lat="49.45488732308149" lon="9.428631719201803">
<ele>351.2</ele>
<time>2024-05-12T08:43:51Z</time>
</trkpt>
<trkpt lat="49.45481490343809" lon="9.42865845747292">
<ele>351</ele>
<time>2024-05-12T08:43:52Z</time>
</trkpt>
<trkpt lat="49.454746171832085" lon="9.42868041805923">
<ele>350.8</ele>
<time>2024-05-12T08:43:53Z</time>
</trkpt>
<trkpt lat="49.454669896513224" lon="9.428703300654888">
<ele>350.4</ele>
<time>2024-05-12T08:43:54Z</time>
</trkpt>
<trkpt lat="49.45459362119436" lon="9.42872140556574">
<ele>350</ele>
<time>2024-05-12T08:43:55Z</time>
</trkpt>
<trkpt lat="49.4545173458755" lon="9.42873666062951">
<ele>349.6</ele>
<time>2024-05-12T08:43:56Z</time>
</trkpt>
<trkpt lat="49.45444107055664" lon="9.428752837702632">
<ele>349.2</ele>
<time>2024-05-12T08:43:57Z</time>
</trkpt>
<trkpt lat="49.45436093956232" lon="9.428772870451212">
<ele>348.8</ele>
<time>2024-05-12T08:43:58Z</time>
</trkpt>
<trkpt lat="49.45428466424346" lon="9.428798602893949">
<ele>348.2</ele>
<time>2024-05-12T08:43:59Z</time>
</trkpt>
<trkpt lat="49.45420830510557" lon="9.428832968696952">
<ele>347.8</ele>
<time>2024-05-12T08:44:00Z</time>
</trkpt>
<trkpt lat="49.454132029786706" lon="9.428870184347034">
<ele>347.2</ele>
<time>2024-05-12T08:44:01Z</time>
</trkpt>
<trkpt lat="49.454055754467845" lon="9.4289168715477">
<ele>346.6</ele>
<time>2024-05-12T08:44:02Z</time>
</trkpt>
<trkpt lat="49.45398325100541" lon="9.428966492414474">
<ele>346</ele>
<time>2024-05-12T08:44:03Z</time>
</trkpt>
<trkpt lat="49.45390697568655" lon="9.429021812975408">
<ele>345.4</ele>
<time>2024-05-12T08:44:04Z</time>
</trkpt>
<trkpt lat="49.45383447222411" lon="9.429078055545688">
<ele>344.8</ele>
<time>2024-05-12T08:44:05Z</time>
</trkpt>
<trkpt lat="49.453758196905255" lon="9.429136225953698">
<ele>344.4</ele>
<time>2024-05-12T08:44:06Z</time>
</trkpt>
<trkpt lat="49.453678065910935" lon="9.429198252037168">
<ele>343.8</ele>
<time>2024-05-12T08:44:07Z</time>
</trkpt>
<trkpt lat="49.453601790592074" lon="9.429261200129986">
<ele>343.2</ele>
<time>2024-05-12T08:44:08Z</time>
</trkpt>
<trkpt lat="49.453521659597754" lon="9.429325070232151">
<ele>342.8</ele>
<time>2024-05-12T08:44:09Z</time>
</trkpt>
<trkpt lat="49.453441612422466" lon="9.429388018324971">
<ele>342.2</ele>
<time>2024-05-12T08:44:10Z</time>
</trkpt>
<trkpt lat="49.453361481428146" lon="9.429448116570711">
<ele>341.6</ele>
<time>2024-05-12T08:44:11Z</time>
</trkpt>
<trkpt lat="49.453285206109285" lon="9.42950528115034">
<ele>341.2</ele>
<time>2024-05-12T08:44:12Z</time>
</trkpt>
<trkpt lat="49.45320121943951" lon="9.429561607539654">
<ele>340.6</ele>
<time>2024-05-12T08:44:13Z</time>
</trkpt>
<trkpt lat="49.45311354473233" lon="9.429623549804091">
<ele>340</ele>
<time>2024-05-12T08:44:14Z</time>
</trkpt>
<trkpt lat="49.45303718559444" lon="9.429679792374372">
<ele>339.6</ele>
<time>2024-05-12T08:44:15Z</time>
</trkpt>
<trkpt lat="49.45296091027558" lon="9.429735112935305">
<ele>339</ele>
<time>2024-05-12T08:44:16Z</time>
</trkpt>
<trkpt lat="49.45287700742483" lon="9.42978473380208">
<ele>338.4</ele>
<time>2024-05-12T08:44:17Z</time>
</trkpt>
<trkpt lat="49.45279310457408" lon="9.429833348840477">
<ele>337.8</ele>
<time>2024-05-12T08:44:18Z</time>
</trkpt>
<trkpt lat="49.45270534604788" lon="9.42988489754498">
<ele>337.2</ele>
<time>2024-05-12T08:44:19Z</time>
</trkpt>
<trkpt lat="49.452613815665245" lon="9.429938290268185">
<ele>336.6</ele>
<time>2024-05-12T08:44:20Z</time>
</trkpt>
<trkpt lat="49.452529828995466" lon="9.429993610829117">
<ele>336</ele>
<time>2024-05-12T08:44:21Z</time>
</trkpt>
<trkpt lat="49.45243829861283" lon="9.430047925561666">
<ele>335.4</ele>
<time>2024-05-12T08:44:22Z</time>
</trkpt>
<trkpt lat="49.4523467682302" lon="9.43009846843779">
<ele>335</ele>
<time>2024-05-12T08:44:23Z</time>
</trkpt>
<trkpt lat="49.45225523784757" lon="9.430148089304566">
<ele>334.4</ele>
<time>2024-05-12T08:44:24Z</time>
</trkpt>
<trkpt lat="49.452159851789474" lon="9.43019670434296">
<ele>333.8</ele>
<time>2024-05-12T08:44:25Z</time>
</trkpt>
<trkpt lat="49.452060693874955" lon="9.430252024903892">
<ele>333.2</ele>
<time>2024-05-12T08:44:26Z</time>
</trkpt>
<trkpt lat="49.45195768028498" lon="9.430305417627096">
<ele>332.4</ele>
<time>2024-05-12T08:44:27Z</time>
</trkpt>
<trkpt lat="49.45183555595577" lon="9.430363588035108">
<ele>331.8</ele>
<time>2024-05-12T08:44:28Z</time>
</trkpt>
<trkpt lat="49.45173639804125" lon="9.430415136739612">
<ele>331.4</ele>
<time>2024-05-12T08:44:29Z</time>
</trkpt>
<trkpt lat="49.4516181293875" lon="9.430448496714234">
<ele>330.8</ele>
<time>2024-05-12T08:44:30Z</time>
</trkpt>
<trkpt lat="49.45151134394109" lon="9.430491412058473">
<ele>330.2</ele>
<time>2024-05-12T08:44:31Z</time>
</trkpt>
<trkpt lat="49.45140070281923" lon="9.430540027096868">
<ele>329.6</ele>
<time>2024-05-12T08:44:32Z</time>
</trkpt>
<trkpt lat="49.45129391737282" lon="9.430582942441106">
<ele>328.8</ele>
<time>2024-05-12T08:44:33Z</time>
</trkpt>
<trkpt lat="49.45118713192642" lon="9.430642118677495">
<ele>328.2</ele>
<time>2024-05-12T08:44:34Z</time>
</trkpt>
<trkpt lat="49.45108411833644" lon="9.430705066770315">
<ele>327.6</ele>
<time>2024-05-12T08:44:35Z</time>
</trkpt>
<trkpt lat="49.45100784301758" lon="9.430783269926906">
<ele>326.8</ele>
<time>2024-05-12T08:44:36Z</time>
</trkpt>
<trkpt lat="49.45092771202326" lon="9.43083473481238">
<ele>326.2</ele>
<time>2024-05-12T08:44:37Z</time>
</trkpt>
<trkpt lat="49.45085906423628" lon="9.430886199697852">
<ele>325.8</ele>
<time>2024-05-12T08:44:38Z</time>
</trkpt>
<trkpt lat="49.45078656077385" lon="9.43093489855528">
<ele>325.2</ele>
<time>2024-05-12T08:44:39Z</time>
</trkpt>
<trkpt lat="49.4507216848433" lon="9.430985441431403">
<ele>324.6</ele>
<time>2024-05-12T08:44:40Z</time>
</trkpt>
<trkpt lat="49.450656808912754" lon="9.43103120662272">
<ele>324.2</ele>
<time>2024-05-12T08:44:41Z</time>
</trkpt>
<trkpt lat="49.45058816112578" lon="9.43107127211988">
<ele>323.8</ele>
<time>2024-05-12T08:44:42Z</time>
</trkpt>
<trkpt lat="49.45052714087069" lon="9.43111033178866">
<ele>323.4</ele>
<time>2024-05-12T08:44:43Z</time>
</trkpt>
<trkpt lat="49.45046989247203" lon="9.43114846944809">
<ele>323.2</ele>
<time>2024-05-12T08:44:44Z</time>
</trkpt>
<trkpt lat="49.450416499748826" lon="9.431175207719209">
<ele>323</ele>
<time>2024-05-12T08:44:45Z</time>
</trkpt>
<trkpt lat="49.45035547949374" lon="9.431200018152596">
<ele>322.8</ele>
<time>2024-05-12T08:44:46Z</time>
</trkpt>
<trkpt lat="49.45029823109507" lon="9.431220050901176">
<ele>322.4</ele>
<time>2024-05-12T08:44:47Z</time>
</trkpt>
<trkpt lat="49.45024483837187" lon="9.431233378127216">
<ele>322.2</ele>
<time>2024-05-12T08:44:48Z</time>
</trkpt>
<trkpt lat="49.45018767379224" lon="9.43124670535326">
<ele>322.2</ele>
<time>2024-05-12T08:44:49Z</time>
</trkpt>
<trkpt lat="49.45013042539358" lon="9.431255338713529">
<ele>322</ele>
<time>2024-05-12T08:44:50Z</time>
</trkpt>
<trkpt lat="49.45007703267038" lon="9.431262966245413">
<ele>322</ele>
<time>2024-05-12T08:44:51Z</time>
</trkpt>
<trkpt lat="49.45003126747906" lon="9.43126673810184">
<ele>322</ele>
<time>2024-05-12T08:44:52Z</time>
</trkpt>
<trkpt lat="49.44998164661229" lon="9.431262966245413">
<ele>322.2</ele>
<time>2024-05-12T08:44:53Z</time>
</trkpt>
<trkpt lat="49.44993588142097" lon="9.431260032579305">
<ele>322.2</ele>
<time>2024-05-12T08:44:54Z</time>
</trkpt>
<trkpt lat="49.44989011622965" lon="9.431242933496833">
<ele>322.4</ele>
<time>2024-05-12T08:44:55Z</time>
</trkpt>
<trkpt lat="49.44984812289477" lon="9.431215273216369">
<ele>322.6</ele>
<time>2024-05-12T08:44:56Z</time>
</trkpt>
<trkpt lat="49.44980235770345" lon="9.431177135556936">
<ele>322.6</ele>
<time>2024-05-12T08:44:57Z</time>
</trkpt>
<trkpt lat="49.44975659251213" lon="9.431126592680812">
<ele>322.8</ele>
<time>2024-05-12T08:44:58Z</time>
</trkpt>
<trkpt lat="49.4497184548527" lon="9.431064566597342">
<ele>323</ele>
<time>2024-05-12T08:44:59Z</time>
</trkpt>
<trkpt lat="49.44967646151781" lon="9.430999690666797">
<ele>323.2</ele>
<time>2024-05-12T08:45:00Z</time>
</trkpt>
<trkpt lat="49.44964217953384" lon="9.430928193032742">
<ele>323.4</ele>
<time>2024-05-12T08:45:01Z</time>
</trkpt>
<trkpt lat="49.44960018619895" lon="9.430848062038422">
<ele>323.4</ele>
<time>2024-05-12T08:45:02Z</time>
</trkpt>
<trkpt lat="49.44956582039595" lon="9.430763237178326">
<ele>323.6</ele>
<time>2024-05-12T08:45:03Z</time>
</trkpt>
<trkpt lat="49.44952768273651" lon="9.43067162297666">
<ele>323.6</ele>
<time>2024-05-12T08:45:04Z</time>
</trkpt>
<trkpt lat="49.449493400752544" lon="9.4305763207376">
<ele>323.6</ele>
<time>2024-05-12T08:45:05Z</time>
</trkpt>
<trkpt lat="49.44945517927408" lon="9.430479928851128">
<ele>323.4</ele>
<time>2024-05-12T08:45:06Z</time>
</trkpt>
<trkpt lat="49.44942089729011" lon="9.430381692945955">
<ele>323.2</ele>
<time>2024-05-12T08:45:07Z</time>
</trkpt>
<trkpt lat="49.44938275963068" lon="9.430283540859818">
<ele>323.2</ele>
<time>2024-05-12T08:45:08Z</time>
</trkpt>
<trkpt lat="49.44934462197125" lon="9.430188154801726">
<ele>323</ele>
<time>2024-05-12T08:45:09Z</time>
</trkpt>
<trkpt lat="49.44930262863636" lon="9.43009846843779">
<ele>322.6</ele>
<time>2024-05-12T08:45:10Z</time>
</trkpt>
<trkpt lat="49.44925686344504" lon="9.430013643577697">
<ele>322.4</ele>
<time>2024-05-12T08:45:11Z</time>
</trkpt>
<trkpt lat="49.44921109825373" lon="9.429936362430452">
<ele>322</ele>
<time>2024-05-12T08:45:12Z</time>
</trkpt>
<trkpt lat="49.44916147738695" lon="9.429860087111592">
<ele>321.8</ele>
<time>2024-05-12T08:45:13Z</time>
</trkpt>
<trkpt lat="49.449119567871094" lon="9.42978858947754">
<ele>321.8</ele>
<time>2024-05-12T08:45:14Z</time>
</trkpt>
<trkpt lat="49.44907757453621" lon="9.429719857871532">
<ele>321.6</ele>
<time>2024-05-12T08:45:15Z</time>
</trkpt>
<trkpt lat="49.449039436876774" lon="9.429641654714942">
<ele>321.4</ele>
<time>2024-05-12T08:45:16Z</time>
</trkpt>
<trkpt lat="49.44900507107377" lon="9.429554902017117">
<ele>321.2</ele>
<time>2024-05-12T08:45:17Z</time>
</trkpt>
<trkpt lat="49.44896693341434" lon="9.429468149319291">
<ele>321</ele>
<time>2024-05-12T08:45:18Z</time>
</trkpt>
<trkpt lat="49.44892879575491" lon="9.429381312802434">
<ele>320.6</ele>
<time>2024-05-12T08:45:19Z</time>
</trkpt>
<trkpt lat="49.44888680242002" lon="9.42930981516838">
<ele>320.4</ele>
<time>2024-05-12T08:45:20Z</time>
</trkpt>
<trkpt lat="49.44884489290416" lon="9.429256422445178">
<ele>320</ele>
<time>2024-05-12T08:45:21Z</time>
</trkpt>
<trkpt lat="49.44879150018096" lon="9.429222056642176">
<ele>319.6</ele>
<time>2024-05-12T08:45:22Z</time>
</trkpt>
<trkpt lat="49.4487342517823" lon="9.429203029721975">
<ele>319.4</ele>
<time>2024-05-12T08:45:23Z</time>
</trkpt>
<trkpt lat="49.44866937585175" lon="9.42919540219009">
<ele>319.2</ele>
<time>2024-05-12T08:45:24Z</time>
</trkpt>
<trkpt lat="49.44860835559666" lon="9.429196324199438">
<ele>318.8</ele>
<time>2024-05-12T08:45:25Z</time>
</trkpt>
<trkpt lat="49.44855496287346" lon="9.42921157926321">
<ele>318.6</ele>
<time>2024-05-12T08:45:26Z</time>
</trkpt>
<trkpt lat="49.448501570150256" lon="9.429220128804443">
<ele>318.4</ele>
<time>2024-05-12T08:45:27Z</time>
</trkpt>
<trkpt lat="49.44844817742705" lon="9.429226834326982">
<ele>318.4</ele>
<time>2024-05-12T08:45:28Z</time>
</trkpt>
<trkpt lat="49.448402328416705" lon="9.42923353984952">
<ele>318.2</ele>
<time>2024-05-12T08:45:29Z</time>
</trkpt>
<trkpt lat="49.44835279136896" lon="9.429240161553023">
<ele>318.2</ele>
<time>2024-05-12T08:45:30Z</time>
</trkpt>
<trkpt lat="49.4482955429703" lon="9.429236389696598">
<ele>318</ele>
<time>2024-05-12T08:45:31Z</time>
</trkpt>
<trkpt lat="49.44824977777898" lon="9.429226834326982">
<ele>318</ele>
<time>2024-05-12T08:45:32Z</time>
</trkpt>
<trkpt lat="49.44819638505578" lon="9.429206801578404">
<ele>318</ele>
<time>2024-05-12T08:45:33Z</time>
</trkpt>
<trkpt lat="49.448150619864464" lon="9.429186768829824">
<ele>318</ele>
<time>2024-05-12T08:45:34Z</time>
</trkpt>
<trkpt lat="49.44810485467315" lon="9.42917151376605">
<ele>318</ele>
<time>2024-05-12T08:45:35Z</time>
</trkpt>
<trkpt lat="49.44804375059903" lon="9.429156258702278">
<ele>318</ele>
<time>2024-05-12T08:45:36Z</time>
</trkpt>
<trkpt lat="49.4479865860194" lon="9.429146703332664">
<ele>318</ele>
<time>2024-05-12T08:45:37Z</time>
</trkpt>
<trkpt lat="49.44792556576431" lon="9.42913144826889">
<ele>318</ele>
<time>2024-05-12T08:45:38Z</time>
</trkpt>
<trkpt lat="49.447872089222074" lon="9.429116193205118">
<ele>318.2</ele>
<time>2024-05-12T08:45:39Z</time>
</trkpt>
<trkpt lat="49.44782255217433" lon="9.429102865979075">
<ele>318.4</ele>
<time>2024-05-12T08:45:40Z</time>
</trkpt>
<trkpt lat="49.44776915945113" lon="9.42909523844719">
<ele>318.4</ele>
<time>2024-05-12T08:45:41Z</time>
</trkpt>
<trkpt lat="49.44771568290889" lon="9.429084761068223">
<ele>318.6</ele>
<time>2024-05-12T08:45:42Z</time>
</trkpt>
<trkpt lat="49.44766229018569" lon="9.42907135002315">
<ele>318.8</ele>
<time>2024-05-12T08:45:43Z</time>
</trkpt>
<trkpt lat="49.44760512560606" lon="9.4290532451123">
<ele>318.8</ele>
<time>2024-05-12T08:45:44Z</time>
</trkpt>
<trkpt lat="49.447551649063826" lon="9.429031368345022">
<ele>319</ele>
<time>2024-05-12T08:45:45Z</time>
</trkpt>
<trkpt lat="49.44749448448419" lon="9.42901317961514">
<ele>319</ele>
<time>2024-05-12T08:45:46Z</time>
</trkpt>
<trkpt lat="49.44742960855365" lon="9.428999852389095">
<ele>319.2</ele>
<time>2024-05-12T08:45:47Z</time>
</trkpt>
<trkpt lat="49.4473647326231" lon="9.428990297019482">
<ele>319.2</ele>
<time>2024-05-12T08:45:48Z</time>
</trkpt>
<trkpt lat="49.44730756804347" lon="9.428981747478248">
<ele>319.4</ele>
<time>2024-05-12T08:45:49Z</time>
</trkpt>
<trkpt lat="49.44724654778838" lon="9.428971270099282">
<ele>319.4</ele>
<time>2024-05-12T08:45:50Z</time>
</trkpt>
<trkpt lat="49.44718929938972" lon="9.42895693704486">
<ele>319.4</ele>
<time>2024-05-12T08:45:51Z</time>
</trkpt>
<trkpt lat="49.44712827913463" lon="9.42893791012466">
<ele>319.6</ele>
<time>2024-05-12T08:45:52Z</time>
</trkpt>
<trkpt lat="49.44706725887954" lon="9.428921649232509">
<ele>319.6</ele>
<time>2024-05-12T08:45:53Z</time>
</trkpt>
<trkpt lat="49.44701001048088" lon="9.428905472159386">
<ele>319.6</ele>
<time>2024-05-12T08:45:54Z</time>
</trkpt>
<trkpt lat="49.44694513455033" lon="9.428883511573076">
<ele>319.6</ele>
<time>2024-05-12T08:45:55Z</time>
</trkpt>
<trkpt lat="49.44688411429525" lon="9.428865406662226">
<ele>319.6</ele>
<time>2024-05-12T08:45:56Z</time>
</trkpt>
<trkpt lat="49.446823094040155" lon="9.428846295922996">
<ele>319.6</ele>
<time>2024-05-12T08:45:57Z</time>
</trkpt>
<trkpt lat="49.44675821810961" lon="9.428826263174416">
<ele>319.6</ele>
<time>2024-05-12T08:45:58Z</time>
</trkpt>
<trkpt lat="49.44669334217906" lon="9.428812013939025">
<ele>319.4</ele>
<time>2024-05-12T08:45:59Z</time>
</trkpt>
<trkpt lat="49.446624694392085" lon="9.42880153656006">
<ele>319.4</ele>
<time>2024-05-12T08:46:00Z</time>
</trkpt>
<trkpt lat="49.44655990228057" lon="9.42879675887525">
<ele>319.2</ele>
<time>2024-05-12T08:46:01Z</time>
</trkpt>
<trkpt lat="49.44649117067456" lon="9.42879483103752">
<ele>319.2</ele>
<time>2024-05-12T08:46:02Z</time>
</trkpt>
<trkpt lat="49.44642252288759" lon="9.42879483103752">
<ele>319</ele>
<time>2024-05-12T08:46:03Z</time>
</trkpt>
<trkpt lat="49.44635387510061" lon="9.42879960872233">
<ele>318.8</ele>
<time>2024-05-12T08:46:04Z</time>
</trkpt>
<trkpt lat="49.446288999170065" lon="9.428805308416486">
<ele>318.6</ele>
<time>2024-05-12T08:46:05Z</time>
</trkpt>
<trkpt lat="49.44622420705855" lon="9.428810086101294">
<ele>318.6</ele>
<time>2024-05-12T08:46:06Z</time>
</trkpt>
<trkpt lat="49.44616310298443" lon="9.42881679162383">
<ele>318.4</ele>
<time>2024-05-12T08:46:07Z</time>
</trkpt>
<trkpt lat="49.44609831087291" lon="9.428830118849874">
<ele>318.2</ele>
<time>2024-05-12T08:46:08Z</time>
</trkpt>
<trkpt lat="49.446037290617824" lon="9.428845373913646">
<ele>318</ele>
<time>2024-05-12T08:46:09Z</time>
</trkpt>
<trkpt lat="49.4459761865437" lon="9.428863478824496">
<ele>317.8</ele>
<time>2024-05-12T08:46:10Z</time>
</trkpt>
<trkpt lat="49.44591139443219" lon="9.428879655897616">
<ele>317.6</ele>
<time>2024-05-12T08:46:11Z</time>
</trkpt>
<trkpt lat="49.44585029035807" lon="9.428901616483929">
<ele>317.4</ele>
<time>2024-05-12T08:46:12Z</time>
</trkpt>
<trkpt lat="49.44579312577844" lon="9.428930282592772">
<ele>317</ele>
<time>2024-05-12T08:46:13Z</time>
</trkpt>
<trkpt lat="49.44573210552335" lon="9.428959786891935">
<ele>316.8</ele>
<time>2024-05-12T08:46:14Z</time>
</trkpt>
<trkpt lat="49.44567862898111" lon="9.428991302847862">
<ele>316.4</ele>
<time>2024-05-12T08:46:15Z</time>
</trkpt>
<trkpt lat="49.44562523625791" lon="9.429028434678912">
<ele>316.2</ele>
<time>2024-05-12T08:46:16Z</time>
</trkpt>
<trkpt lat="49.445579471066594" lon="9.429068500176072">
<ele>316</ele>
<time>2024-05-12T08:46:17Z</time>
</trkpt>
<trkpt lat="49.44553370587528" lon="9.429102865979075">
<ele>315.6</ele>
<time>2024-05-12T08:46:18Z</time>
</trkpt>
<trkpt lat="49.44549171254039" lon="9.42913144826889">
<ele>315.4</ele>
<time>2024-05-12T08:46:19Z</time>
</trkpt>
<trkpt lat="49.44544217549264" lon="9.42915148101747">
<ele>315</ele>
<time>2024-05-12T08:46:20Z</time>
</trkpt>
<trkpt lat="49.44539641030133" lon="9.429162964224815">
<ele>314.8</ele>
<time>2024-05-12T08:46:21Z</time>
</trkpt>
<trkpt lat="49.4453582726419" lon="9.42917151376605">
<ele>314.4</ele>
<time>2024-05-12T08:46:22Z</time>
</trkpt>
<trkpt lat="49.445320051163435" lon="9.429168663918972">
<ele>314.2</ele>
<time>2024-05-12T08:46:23Z</time>
</trkpt>
<trkpt lat="49.44527051411569" lon="9.42915148101747">
<ele>313.8</ele>
<time>2024-05-12T08:46:24Z</time>
</trkpt>
<trkpt lat="49.44523614831269" lon="9.42911334335804">
<ele>313.6</ele>
<time>2024-05-12T08:46:25Z</time>
</trkpt>
<trkpt lat="49.44520563818514" lon="9.429061878472568">
<ele>313.2</ele>
<time>2024-05-12T08:46:26Z</time>
</trkpt>
<trkpt lat="49.445182755589485" lon="9.428999852389095">
<ele>313</ele>
<time>2024-05-12T08:46:27Z</time>
</trkpt>
<trkpt lat="49.44515987299383" lon="9.428928354755044">
<ele>312.8</ele>
<time>2024-05-12T08:46:28Z</time>
</trkpt>
<trkpt lat="49.44513313472271" lon="9.428850151598454">
<ele>312.6</ele>
<time>2024-05-12T08:46:29Z</time>
</trkpt>
<trkpt lat="49.445102624595165" lon="9.428771948441865">
<ele>312.4</ele>
<time>2024-05-12T08:46:30Z</time>
</trkpt>
<trkpt lat="49.44507597014308" lon="9.428689889609814">
<ele>312</ele>
<time>2024-05-12T08:46:31Z</time>
</trkpt>
<trkpt lat="49.445045460015535" lon="9.428607914596796">
<ele>311.8</ele>
<time>2024-05-12T08:46:32Z</time>
</trkpt>
<trkpt lat="49.44501109421253" lon="9.428523005917668">
<ele>311.6</ele>
<time>2024-05-12T08:46:33Z</time>
</trkpt>
<trkpt lat="49.44496910087764" lon="9.42844002507627">
<ele>311.2</ele>
<time>2024-05-12T08:46:34Z</time>
</trkpt>
<trkpt lat="49.44491570815444" lon="9.428358050063252">
<ele>311</ele>
<time>2024-05-12T08:46:35Z</time>
</trkpt>
<trkpt lat="49.44485854357481" lon="9.428290324285626">
<ele>310.6</ele>
<time>2024-05-12T08:46:36Z</time>
</trkpt>
<trkpt lat="49.44479366764426" lon="9.428230226039886">
<ele>310.2</ele>
<time>2024-05-12T08:46:37Z</time>
</trkpt>
<trkpt lat="49.444728791713715" lon="9.428176833316684">
<ele>309.8</ele>
<time>2024-05-12T08:46:38Z</time>
</trkpt>
<trkpt lat="49.444671627134085" lon="9.428131990134716">
<ele>309.4</ele>
<time>2024-05-12T08:46:39Z</time>
</trkpt>
<trkpt lat="49.44461052305997" lon="9.428090080618858">
<ele>309.2</ele>
<time>2024-05-12T08:46:40Z</time>
</trkpt>
<trkpt lat="49.444549502804875" lon="9.42804523743689">
<ele>308.8</ele>
<time>2024-05-12T08:46:41Z</time>
</trkpt>
<trkpt lat="49.44448848254979" lon="9.428000394254925">
<ele>308.4</ele>
<time>2024-05-12T08:46:42Z</time>
</trkpt>
<trkpt lat="49.444431234151125" lon="9.427954629063606">
<ele>308</ele>
<time>2024-05-12T08:46:43Z</time>
</trkpt>
<trkpt lat="49.44437784142792" lon="9.42790693603456">
<ele>307.6</ele>
<time>2024-05-12T08:46:44Z</time>
</trkpt>
<trkpt lat="49.44431682117283" lon="9.427858320996163">
<ele>307.2</ele>
<time>2024-05-12T08:46:45Z</time>
</trkpt>
<trkpt lat="49.444251945242286" lon="9.427820183336737">
<ele>306.6</ele>
<time>2024-05-12T08:46:46Z</time>
</trkpt>
<trkpt lat="49.44418329745531" lon="9.427791517227888">
<ele>306</ele>
<time>2024-05-12T08:46:47Z</time>
</trkpt>
<trkpt lat="49.44412227720022" lon="9.427775340154769">
<ele>305.4</ele>
<time>2024-05-12T08:46:48Z</time>
</trkpt>
<trkpt lat="49.44406888447702" lon="9.427775340154769">
<ele>304.8</ele>
<time>2024-05-12T08:46:49Z</time>
</trkpt>
<trkpt lat="49.44401926361024" lon="9.427791517227888">
<ele>304.2</ele>
<time>2024-05-12T08:46:50Z</time>
</trkpt>
<trkpt lat="49.44396587088704" lon="9.427815405651929">
<ele>303.6</ele>
<time>2024-05-12T08:46:51Z</time>
</trkpt>
<trkpt lat="49.443920105695724" lon="9.427838288247584">
<ele>303.2</ele>
<time>2024-05-12T08:46:52Z</time>
</trkpt>
<trkpt lat="49.44387048482895" lon="9.427860248833897">
<ele>302.4</ele>
<time>2024-05-12T08:46:53Z</time>
</trkpt>
<trkpt lat="49.44382471963763" lon="9.427878353744743">
<ele>301.8</ele>
<time>2024-05-12T08:46:54Z</time>
</trkpt>
<trkpt lat="49.44378272630274" lon="9.42790693603456">
<ele>301.2</ele>
<time>2024-05-12T08:46:55Z</time>
</trkpt>
<trkpt lat="49.443736961111426" lon="9.42792981863022">
<ele>300.6</ele>
<time>2024-05-12T08:46:56Z</time>
</trkpt>
<trkpt lat="49.44369505159557" lon="9.427947923541067">
<ele>300</ele>
<time>2024-05-12T08:46:57Z</time>
</trkpt>
<trkpt lat="49.44365691393614" lon="9.42796317860484">
<ele>299.4</ele>
<time>2024-05-12T08:46:58Z</time>
</trkpt>
<trkpt lat="49.44361492060125" lon="9.427981367334723">
<ele>298.8</ele>
<time>2024-05-12T08:46:59Z</time>
</trkpt>
<trkpt lat="49.44357678294182" lon="9.427996622398496">
<ele>298.2</ele>
<time>2024-05-12T08:47:00Z</time>
</trkpt>
<trkpt lat="49.44353864528239" lon="9.428008021786807">
<ele>297.4</ele>
<time>2024-05-12T08:47:01Z</time>
</trkpt>
<trkpt lat="49.44350050762296" lon="9.428018499165772">
<ele>296.6</ele>
<time>2024-05-12T08:47:02Z</time>
</trkpt>
<trkpt lat="49.443466141819954" lon="9.42802520468831">
<ele>295.8</ele>
<time>2024-05-12T08:47:03Z</time>
</trkpt>
<trkpt lat="49.44342037662864" lon="9.428031910210848">
<ele>295</ele>
<time>2024-05-12T08:47:04Z</time>
</trkpt>
<trkpt lat="49.44337838329375" lon="9.428034760057926">
<ele>294.2</ele>
<time>2024-05-12T08:47:05Z</time>
</trkpt>
<trkpt lat="49.443324990570545" lon="9.42804615944624">
<ele>293.2</ele>
<time>2024-05-12T08:47:06Z</time>
</trkpt>
<trkpt lat="49.44327159784734" lon="9.42806527018547">
<ele>292.2</ele>
<time>2024-05-12T08:47:07Z</time>
</trkpt>
<trkpt lat="49.44322197698057" lon="9.42808530293405">
<ele>291.4</ele>
<time>2024-05-12T08:47:08Z</time>
</trkpt>
<trkpt lat="49.443187694996595" lon="9.428094858303666">
<ele>290.8</ele>
<time>2024-05-12T08:47:09Z</time>
</trkpt>
<trkpt lat="49.44316095672548" lon="9.428094858303666">
<ele>290.4</ele>
<time>2024-05-12T08:47:10Z</time>
</trkpt>
<trkpt lat="49.44313807412982" lon="9.428092930465937">
<ele>290</ele>
<time>2024-05-12T08:47:11Z</time>
</trkpt>
<trkpt lat="49.44311519153416" lon="9.428088152781129">
<ele>289.6</ele>
<time>2024-05-12T08:47:12Z</time>
</trkpt>
<trkpt lat="49.44308845326304" lon="9.42808530293405">
<ele>289.2</ele>
<time>2024-05-12T08:47:13Z</time>
</trkpt>
<trkpt lat="49.4430579431355" lon="9.4280862249434">
<ele>289</ele>
<time>2024-05-12T08:47:14Z</time>
</trkpt>
<trkpt lat="49.44301603361964" lon="9.4280862249434">
<ele>288.6</ele>
<time>2024-05-12T08:47:15Z</time>
</trkpt>
<trkpt lat="49.44297404028475" lon="9.428090080618858">
<ele>288.4</ele>
<time>2024-05-12T08:47:16Z</time>
</trkpt>
<trkpt lat="49.44293204694986" lon="9.428094858303666">
<ele>288</ele>
<time>2024-05-12T08:47:17Z</time>
</trkpt>
<trkpt lat="49.44288628175855" lon="9.428101480007172">
<ele>287.8</ele>
<time>2024-05-12T08:47:18Z</time>
</trkpt>
<trkpt lat="49.44284051656723" lon="9.428110113367438">
<ele>287.6</ele>
<time>2024-05-12T08:47:19Z</time>
</trkpt>
<trkpt lat="49.442790979519486" lon="9.428114891052246">
<ele>287.4</ele>
<time>2024-05-12T08:47:20Z</time>
</trkpt>
<trkpt lat="49.44274513050914" lon="9.428119584918022">
<ele>287.2</ele>
<time>2024-05-12T08:47:21Z</time>
</trkpt>
<trkpt lat="49.442691737785935" lon="9.42812629044056">
<ele>287</ele>
<time>2024-05-12T08:47:22Z</time>
</trkpt>
<trkpt lat="49.442634573206306" lon="9.428138695657251">
<ele>286.8</ele>
<time>2024-05-12T08:47:23Z</time>
</trkpt>
<trkpt lat="49.442573469132185" lon="9.428150095045568">
<ele>286.6</ele>
<time>2024-05-12T08:47:24Z</time>
</trkpt>
<trkpt lat="49.442512448877096" lon="9.42816350609064">
<ele>286.4</ele>
<time>2024-05-12T08:47:25Z</time>
</trkpt>
<trkpt lat="49.44245905615389" lon="9.428178761154411">
<ele>286.2</ele>
<time>2024-05-12T08:47:26Z</time>
</trkpt>
<trkpt lat="49.44240180775523" lon="9.4281863886863">
<ele>286.2</ele>
<time>2024-05-12T08:47:27Z</time>
</trkpt>
<trkpt lat="49.44234841503203" lon="9.428196866065264">
<ele>286</ele>
<time>2024-05-12T08:47:28Z</time>
</trkpt>
<trkpt lat="49.44228739477694" lon="9.42820642143488">
<ele>286</ele>
<time>2024-05-12T08:47:29Z</time>
</trkpt>
<trkpt lat="49.44222637452185" lon="9.428213043138385">
<ele>285.8</ele>
<time>2024-05-12T08:47:30Z</time>
</trkpt>
<trkpt lat="49.44215772673488" lon="9.428217820823193">
<ele>285.6</ele>
<time>2024-05-12T08:47:31Z</time>
</trkpt>
<trkpt lat="49.44206996820867" lon="9.428228298202155">
<ele>285.4</ele>
<time>2024-05-12T08:47:32Z</time>
</trkpt>
<trkpt lat="49.44197843782604" lon="9.42824648693204">
<ele>285.2</ele>
<time>2024-05-12T08:47:33Z</time>
</trkpt>
<trkpt lat="49.441883051767945" lon="9.428268363699315">
<ele>284.8</ele>
<time>2024-05-12T08:47:34Z</time>
</trkpt>
<trkpt lat="49.44178003817797" lon="9.428308429196475">
<ele>284.6</ele>
<time>2024-05-12T08:47:35Z</time>
</trkpt>
<trkpt lat="49.441688507795334" lon="9.428339945152402">
<ele>284.4</ele>
<time>2024-05-12T08:47:36Z</time>
</trkpt>
<trkpt lat="49.44157786667347" lon="9.428380010649562">
<ele>284.2</ele>
<time>2024-05-12T08:47:37Z</time>
</trkpt>
<trkpt lat="49.44149010814726" lon="9.428411442786455">
<ele>283.8</ele>
<time>2024-05-12T08:47:38Z</time>
</trkpt>
<trkpt lat="49.44139857776463" lon="9.428413370624185">
<ele>283.4</ele>
<time>2024-05-12T08:47:39Z</time>
</trkpt>
<trkpt lat="49.441307047382" lon="9.428413370624185">
<ele>283.2</ele>
<time>2024-05-12T08:47:40Z</time>
</trkpt>
<trkpt lat="49.44122314453125" lon="9.428441952914">
<ele>282.8</ele>
<time>2024-05-12T08:47:41Z</time>
</trkpt>
<trkpt lat="49.44113538600504" lon="9.428462907671928">
<ele>282.6</ele>
<time>2024-05-12T08:47:42Z</time>
</trkpt>
<trkpt lat="49.44105525501072" lon="9.4284781627357">
<ele>282.4</ele>
<time>2024-05-12T08:47:43Z</time>
</trkpt>
<trkpt lat="49.44097897969186" lon="9.428491573780777">
<ele>282.2</ele>
<time>2024-05-12T08:47:44Z</time>
</trkpt>
<trkpt lat="49.440902704373" lon="9.428502973169088">
<ele>282</ele>
<time>2024-05-12T08:47:45Z</time>
</trkpt>
<trkpt lat="49.44083020091057" lon="9.42852208390832">
<ele>281.8</ele>
<time>2024-05-12T08:47:46Z</time>
</trkpt>
<trkpt lat="49.44076155312359" lon="9.428543038666248">
<ele>281.6</ele>
<time>2024-05-12T08:47:47Z</time>
</trkpt>
<trkpt lat="49.440696677193046" lon="9.428566927090287">
<ele>281.4</ele>
<time>2024-05-12T08:47:48Z</time>
</trkpt>
<trkpt lat="49.4406318012625" lon="9.428587881848216">
<ele>281.2</ele>
<time>2024-05-12T08:47:49Z</time>
</trkpt>
<trkpt lat="49.44056315347552" lon="9.42860120907426">
<ele>281</ele>
<time>2024-05-12T08:47:50Z</time>
</trkpt>
<trkpt lat="49.440498277544975" lon="9.428614536300302">
<ele>280.8</ele>
<time>2024-05-12T08:47:51Z</time>
</trkpt>
<trkpt lat="49.440429629758" lon="9.428626941516995">
<ele>280.8</ele>
<time>2024-05-12T08:47:52Z</time>
</trkpt>
<trkpt lat="49.44035712629557" lon="9.42864127457142">
<ele>280.6</ele>
<time>2024-05-12T08:47:53Z</time>
</trkpt>
<trkpt lat="49.440280850976706" lon="9.428663235157728">
<ele>280.6</ele>
<time>2024-05-12T08:47:54Z</time>
</trkpt>
<trkpt lat="49.44019694812596" lon="9.428688045591116">
<ele>280.4</ele>
<time>2024-05-12T08:47:55Z</time>
</trkpt>
<trkpt lat="49.44011681713164" lon="9.428712772205472">
<ele>280.4</ele>
<time>2024-05-12T08:47:56Z</time>
</trkpt>
<trkpt lat="49.44003676995635" lon="9.42873666062951">
<ele>280.2</ele>
<time>2024-05-12T08:47:57Z</time>
</trkpt>
<trkpt lat="49.43995663896203" lon="9.428763315081596">
<ele>280.2</ele>
<time>2024-05-12T08:47:58Z</time>
</trkpt>
<trkpt lat="49.43988036364317" lon="9.428786197677256">
<ele>280</ele>
<time>2024-05-12T08:47:59Z</time>
</trkpt>
<trkpt lat="49.43980400450528" lon="9.428806230425836">
<ele>280</ele>
<time>2024-05-12T08:48:00Z</time>
</trkpt>
<trkpt lat="49.4397353567183" lon="9.428823413327336">
<ele>279.8</ele>
<time>2024-05-12T08:48:01Z</time>
</trkpt>
<trkpt lat="49.43966670893133" lon="9.428841518238189">
<ele>279.8</ele>
<time>2024-05-12T08:48:02Z</time>
</trkpt>
<trkpt lat="49.43959806114435" lon="9.428863478824496">
<ele>279.8</ele>
<time>2024-05-12T08:48:03Z</time>
</trkpt>
<trkpt lat="49.43954081274569" lon="9.428883511573076">
<ele>279.6</ele>
<time>2024-05-12T08:48:04Z</time>
</trkpt>
<trkpt lat="49.43948356434703" lon="9.428899688646196">
<ele>279.6</ele>
<time>2024-05-12T08:48:05Z</time>
</trkpt>
<trkpt lat="49.439430171623826" lon="9.42891494370997">
<ele>279.4</ele>
<time>2024-05-12T08:48:06Z</time>
</trkpt>
<trkpt lat="49.43938440643251" lon="9.428928354755044">
<ele>279.2</ele>
<time>2024-05-12T08:48:07Z</time>
</trkpt>
<trkpt lat="49.43933864124119" lon="9.428939754143356">
<ele>279.2</ele>
<time>2024-05-12T08:48:08Z</time>
</trkpt>
<trkpt lat="49.4392966479063" lon="9.428953165188432">
<ele>279</ele>
<time>2024-05-12T08:48:09Z</time>
</trkpt>
<trkpt lat="49.439254738390446" lon="9.428970264270902">
<ele>278.8</ele>
<time>2024-05-12T08:48:10Z</time>
</trkpt>
<trkpt lat="49.439216600731015" lon="9.428983675315976">
<ele>278.8</ele>
<time>2024-05-12T08:48:11Z</time>
</trkpt>
<trkpt lat="49.439174607396126" lon="9.429001780226828">
<ele>278.8</ele>
<time>2024-05-12T08:48:12Z</time>
</trkpt>
<trkpt lat="49.439136469736695" lon="9.429019885137675">
<ele>278.8</ele>
<time>2024-05-12T08:48:13Z</time>
</trkpt>
<trkpt lat="49.439098332077265" lon="9.429039917886255">
<ele>278.8</ele>
<time>2024-05-12T08:48:14Z</time>
</trkpt>
<trkpt lat="49.43906396627426" lon="9.429061878472568">
<ele>278.8</ele>
<time>2024-05-12T08:48:15Z</time>
</trkpt>
<trkpt lat="49.43903345614672" lon="9.429088532924652">
<ele>278.8</ele>
<time>2024-05-12T08:48:16Z</time>
</trkpt>
<trkpt lat="49.43900294601917" lon="9.42911141552031">
<ele>278.6</ele>
<time>2024-05-12T08:48:17Z</time>
</trkpt>
<trkpt lat="49.43896858021617" lon="9.42913530394435">
<ele>278.6</ele>
<time>2024-05-12T08:48:18Z</time>
</trkpt>
<trkpt lat="49.438938070088625" lon="9.429156258702278">
<ele>278.6</ele>
<time>2024-05-12T08:48:19Z</time>
</trkpt>
<trkpt lat="49.43891141563654" lon="9.42917536944151">
<ele>278.4</ele>
<time>2024-05-12T08:48:20Z</time>
</trkpt>
<trkpt lat="49.43888853304088" lon="9.42919347435236">
<ele>278.2</ele>
<time>2024-05-12T08:48:21Z</time>
</trkpt>
<trkpt lat="49.43886565044522" lon="9.429208729416132">
<ele>278</ele>
<time>2024-05-12T08:48:22Z</time>
</trkpt>
<trkpt lat="49.43884653970599" lon="9.429220128804443">
<ele>277.8</ele>
<time>2024-05-12T08:48:23Z</time>
</trkpt>
<trkpt lat="49.438819885253906" lon="9.42923161201179">
<ele>277.4</ele>
<time>2024-05-12T08:48:24Z</time>
</trkpt>
<trkpt lat="49.438800774514675" lon="9.429243011400104">
<ele>277.2</ele>
<time>2024-05-12T08:48:25Z</time>
</trkpt>
<trkpt lat="49.43878166377544" lon="9.42924971692264">
<ele>277</ele>
<time>2024-05-12T08:48:26Z</time>
</trkpt>
<trkpt lat="49.43876640871167" lon="9.429261200129986">
<ele>276.6</ele>
<time>2024-05-12T08:48:27Z</time>
</trkpt>
<trkpt lat="49.4387511536479" lon="9.42927360534668">
<ele>276.4</ele>
<time>2024-05-12T08:48:28Z</time>
</trkpt>
<trkpt lat="49.43873589858413" lon="9.429285004734991">
<ele>276</ele>
<time>2024-05-12T08:48:29Z</time>
</trkpt>
<trkpt lat="49.438720643520355" lon="9.429298331961036">
<ele>275.8</ele>
<time>2024-05-12T08:48:30Z</time>
</trkpt>
<trkpt lat="49.43870161660016" lon="9.42931174300611">
<ele>275.6</ele>
<time>2024-05-12T08:48:31Z</time>
</trkpt>
<trkpt lat="49.438686361536384" lon="9.429320292547343">
<ele>275.4</ele>
<time>2024-05-12T08:48:32Z</time>
</trkpt>
<trkpt lat="49.43867487832904" lon="9.429323142394423">
<ele>275</ele>
<time>2024-05-12T08:48:33Z</time>
</trkpt>
<trkpt lat="49.438659623265266" lon="9.429325070232151">
<ele>274.8</ele>
<time>2024-05-12T08:48:34Z</time>
</trkpt>
<trkpt lat="49.438640512526035" lon="9.429334625601768">
<ele>274.6</ele>
<time>2024-05-12T08:48:35Z</time>
</trkpt>
<trkpt lat="49.43861762993038" lon="9.429340325295923">
<ele>274.4</ele>
<time>2024-05-12T08:48:36Z</time>
</trkpt>
<trkpt lat="49.43859097547829" lon="9.429347952827811">
<ele>274.4</ele>
<time>2024-05-12T08:48:37Z</time>
</trkpt>
<trkpt lat="49.43856809288263" lon="9.429356502369046">
<ele>274.2</ele>
<time>2024-05-12T08:48:38Z</time>
</trkpt>
<trkpt lat="49.43853758275509" lon="9.429367063567042">
<ele>274.2</ele>
<time>2024-05-12T08:48:39Z</time>
</trkpt>
<trkpt lat="49.43851847201586" lon="9.429374691098928">
<ele>274</ele>
<time>2024-05-12T08:48:40Z</time>
</trkpt>
<trkpt lat="49.4384955894202" lon="9.42938701249659">
<ele>274</ele>
<time>2024-05-12T08:48:41Z</time>
</trkpt>
<trkpt lat="49.43846885114908" lon="9.429393718019128">
<ele>274</ele>
<time>2024-05-12T08:48:42Z</time>
</trkpt>
<trkpt lat="49.43843834102154" lon="9.429398495703936">
<ele>274</ele>
<time>2024-05-12T08:48:43Z</time>
</trkpt>
<trkpt lat="49.43840783089399" lon="9.429405201226473">
<ele>274.2</ele>
<time>2024-05-12T08:48:44Z</time>
</trkpt>
<trkpt lat="49.43837732076645" lon="9.429421378299594">
<ele>274.4</ele>
<time>2024-05-12T08:48:45Z</time>
</trkpt>
<trkpt lat="49.438346810638905" lon="9.429438561201096">
<ele>274.4</ele>
<time>2024-05-12T08:48:46Z</time>
</trkpt>
<trkpt lat="49.43832015618682" lon="9.429456666111946">
<ele>274.8</ele>
<time>2024-05-12T08:48:47Z</time>
</trkpt>
<trkpt lat="49.4382934179157" lon="9.429476698860526">
<ele>275</ele>
<time>2024-05-12T08:48:48Z</time>
</trkpt>
<trkpt lat="49.438266679644585" lon="9.429498659446836">
<ele>275.4</ele>
<time>2024-05-12T08:48:49Z</time>
</trkpt>
<trkpt lat="49.4382400251925" lon="9.429516764357686">
<ele>275.6</ele>
<time>2024-05-12T08:48:50Z</time>
</trkpt>
<trkpt lat="49.43821328692138" lon="9.429534869268537">
<ele>276</ele>
<time>2024-05-12T08:48:51Z</time>
</trkpt>
<trkpt lat="49.4381866324693" lon="9.429546352475882">
<ele>276.2</ele>
<time>2024-05-12T08:48:52Z</time>
</trkpt>
<trkpt lat="49.43815989419818" lon="9.429552052170038">
<ele>276.6</ele>
<time>2024-05-12T08:48:53Z</time>
</trkpt>
<trkpt lat="49.43813701160252" lon="9.429552974179389">
<ele>276.8</ele>
<time>2024-05-12T08:48:54Z</time>
</trkpt>
<trkpt lat="49.43811790086329" lon="9.429546352475882">
<ele>277.2</ele>
<time>2024-05-12T08:48:55Z</time>
</trkpt>
<trkpt lat="49.43810264579952" lon="9.429532019421458">
<ele>277.4</ele>
<time>2024-05-12T08:48:56Z</time>
</trkpt>
<trkpt lat="49.43809501826763" lon="9.429516764357686">
<ele>277.6</ele>
<time>2024-05-12T08:48:57Z</time>
</trkpt>
<trkpt lat="49.438087390735745" lon="9.429498659446836">
<ele>277.8</ele>
<time>2024-05-12T08:48:58Z</time>
</trkpt>
<trkpt lat="49.43808361887932" lon="9.429479548707604">
<ele>278</ele>
<time>2024-05-12T08:48:59Z</time>
</trkpt>
<trkpt lat="49.43808361887932" lon="9.429461443796754">
<ele>278.4</ele>
<time>2024-05-12T08:49:00Z</time>
</trkpt>
<trkpt lat="49.438087390735745" lon="9.429449960589409">
<ele>278.6</ele>
<time>2024-05-12T08:49:01Z</time>
</trkpt>
<trkpt lat="49.43808361887932" lon="9.429433783516288">
<ele>278.8</ele>
<time>2024-05-12T08:49:02Z</time>
</trkpt>
<trkpt lat="49.43807213567197" lon="9.429416600614786">
<ele>279</ele>
<time>2024-05-12T08:49:03Z</time>
</trkpt>
<trkpt lat="49.438053108751774" lon="9.429398495703936">
<ele>279.2</ele>
<time>2024-05-12T08:49:04Z</time>
</trkpt>
<trkpt lat="49.43803399801254" lon="9.429380390793083">
<ele>279.4</ele>
<time>2024-05-12T08:49:05Z</time>
</trkpt>
<trkpt lat="49.438003487885" lon="9.429374691098928">
<ele>279.6</ele>
<time>2024-05-12T08:49:06Z</time>
</trkpt>
<trkpt lat="49.43796535022557" lon="9.429376535117626">
<ele>279.8</ele>
<time>2024-05-12T08:49:07Z</time>
</trkpt>
<trkpt lat="49.437930984422565" lon="9.429383240640163">
<ele>279.8</ele>
<time>2024-05-12T08:49:08Z</time>
</trkpt>
<trkpt lat="49.43789670243859" lon="9.429394640028477">
<ele>280</ele>
<time>2024-05-12T08:49:09Z</time>
</trkpt>
<trkpt lat="49.43786233663559" lon="9.429405201226473">
<ele>280.2</ele>
<time>2024-05-12T08:49:10Z</time>
</trkpt>
<trkpt lat="49.43782805465162" lon="9.429411822929978">
<ele>280.4</ele>
<time>2024-05-12T08:49:11Z</time>
</trkpt>
<trkpt lat="49.437793688848615" lon="9.429418528452516">
<ele>280.4</ele>
<time>2024-05-12T08:49:12Z</time>
</trkpt>
<trkpt lat="49.43775932304561" lon="9.429428083822131">
<ele>280.4</ele>
<time>2024-05-12T08:49:13Z</time>
</trkpt>
<trkpt lat="49.43772504106164" lon="9.429433783516288">
<ele>280.4</ele>
<time>2024-05-12T08:49:14Z</time>
</trkpt>
<trkpt lat="49.43769067525864" lon="9.429438561201096">
<ele>280.4</ele>
<time>2024-05-12T08:49:15Z</time>
</trkpt>
<trkpt lat="49.437656393274665" lon="9.429439483210444">
<ele>280.2</ele>
<time>2024-05-12T08:49:16Z</time>
</trkpt>
<trkpt lat="49.437618255615234" lon="9.429441411048174">
<ele>280.2</ele>
<time>2024-05-12T08:49:17Z</time>
</trkpt>
<trkpt lat="49.43758003413677" lon="9.429439483210444">
<ele>280.2</ele>
<time>2024-05-12T08:49:18Z</time>
</trkpt>
<trkpt lat="49.43754189647734" lon="9.429436633363366">
<ele>280</ele>
<time>2024-05-12T08:49:19Z</time>
</trkpt>
<trkpt lat="49.43750375881791" lon="9.429434705525637">
<ele>280</ele>
<time>2024-05-12T08:49:20Z</time>
</trkpt>
<trkpt lat="49.43746562115848" lon="9.429434705525637">
<ele>280</ele>
<time>2024-05-12T08:49:21Z</time>
</trkpt>
<trkpt lat="49.43742748349905" lon="9.429433783516288">
<ele>280</ele>
<time>2024-05-12T08:49:22Z</time>
</trkpt>
<trkpt lat="49.43739311769605" lon="9.429425233975053">
<ele>280</ele>
<time>2024-05-12T08:49:23Z</time>
</trkpt>
<trkpt lat="49.4373626075685" lon="9.42941282875836">
<ele>280</ele>
<time>2024-05-12T08:49:24Z</time>
</trkpt>
<trkpt lat="49.43732832558453" lon="9.429403273388743">
<ele>279.8</ele>
<time>2024-05-12T08:49:25Z</time>
</trkpt>
<trkpt lat="49.43729395978153" lon="9.429391790181398">
<ele>279.8</ele>
<time>2024-05-12T08:49:26Z</time>
</trkpt>
<trkpt lat="49.43726344965398" lon="9.429383240640163">
<ele>279.8</ele>
<time>2024-05-12T08:49:27Z</time>
</trkpt>
<trkpt lat="49.437221456319094" lon="9.429374691098928">
<ele>279.8</ele>
<time>2024-05-12T08:49:28Z</time>
</trkpt>
<trkpt lat="49.43719094619155" lon="9.429361280053854">
<ele>279.8</ele>
<time>2024-05-12T08:49:29Z</time>
</trkpt>
<trkpt lat="49.43715666420758" lon="9.429347030818462">
<ele>279.6</ele>
<time>2024-05-12T08:49:30Z</time>
</trkpt>
<trkpt lat="49.43711467087269" lon="9.429333619773388">
<ele>279.6</ele>
<time>2024-05-12T08:49:31Z</time>
</trkpt>
<trkpt lat="49.43707653321326" lon="9.429318364709616">
<ele>279.6</ele>
<time>2024-05-12T08:49:32Z</time>
</trkpt>
<trkpt lat="49.43703839555383" lon="9.429303109645844">
<ele>279.6</ele>
<time>2024-05-12T08:49:33Z</time>
</trkpt>
<trkpt lat="49.43699640221894" lon="9.429281232878566">
<ele>279.6</ele>
<time>2024-05-12T08:49:34Z</time>
</trkpt>
<trkpt lat="49.43695826455951" lon="9.429256422445178">
<ele>279.6</ele>
<time>2024-05-12T08:49:35Z</time>
</trkpt>
<trkpt lat="49.43691627122462" lon="9.42922968417406">
<ele>279.6</ele>
<time>2024-05-12T08:49:36Z</time>
</trkpt>
<trkpt lat="49.43687436170876" lon="9.429202023893597">
<ele>279.6</ele>
<time>2024-05-12T08:49:37Z</time>
</trkpt>
<trkpt lat="49.43683622404933" lon="9.42916958592832">
<ele>279.4</ele>
<time>2024-05-12T08:49:38Z</time>
</trkpt>
<trkpt lat="49.43679423071444" lon="9.42913530394435">
<ele>279.4</ele>
<time>2024-05-12T08:49:39Z</time>
</trkpt>
<trkpt lat="49.43675609305501" lon="9.429098088294268">
<ele>279.4</ele>
<time>2024-05-12T08:49:40Z</time>
</trkpt>
<trkpt lat="49.43671795539558" lon="9.429059950634835">
<ele>279.4</ele>
<time>2024-05-12T08:49:41Z</time>
</trkpt>
<trkpt lat="49.43667981773615" lon="9.429017957299948">
<ele>279.4</ele>
<time>2024-05-12T08:49:42Z</time>
</trkpt>
<trkpt lat="49.43663782440126" lon="9.42897504195571">
<ele>279.2</ele>
<time>2024-05-12T08:49:43Z</time>
</trkpt>
<trkpt lat="49.43659968674183" lon="9.428928354755044">
<ele>279.2</ele>
<time>2024-05-12T08:49:44Z</time>
</trkpt>
<trkpt lat="49.43655769340694" lon="9.428879655897616">
<ele>279</ele>
<time>2024-05-12T08:49:45Z</time>
</trkpt>
<trkpt lat="49.43651578389108" lon="9.428830118849874">
<ele>278.8</ele>
<time>2024-05-12T08:49:46Z</time>
</trkpt>
<trkpt lat="49.43647379055619" lon="9.428778570145369">
<ele>278.8</ele>
<time>2024-05-12T08:49:47Z</time>
</trkpt>
<trkpt lat="49.43643565289676" lon="9.428725177422166">
<ele>278.8</ele>
<time>2024-05-12T08:49:48Z</time>
</trkpt>
<trkpt lat="49.43639751523733" lon="9.428668012842536">
<ele>278.6</ele>
<time>2024-05-12T08:49:49Z</time>
</trkpt>
<trkpt lat="49.4363593775779" lon="9.428606908768415">
<ele>278.6</ele>
<time>2024-05-12T08:49:50Z</time>
</trkpt>
<trkpt lat="49.43632123991847" lon="9.428543038666248">
<ele>278.6</ele>
<time>2024-05-12T08:49:51Z</time>
</trkpt>
<trkpt lat="49.43628310225904" lon="9.428476318717005">
<ele>278.4</ele>
<time>2024-05-12T08:49:52Z</time>
</trkpt>
<trkpt lat="49.43624873645604" lon="9.428406665101647">
<ele>278.4</ele>
<time>2024-05-12T08:49:53Z</time>
</trkpt>
<trkpt lat="49.43621437065303" lon="9.428330389782786">
<ele>278.4</ele>
<time>2024-05-12T08:49:54Z</time>
</trkpt>
<trkpt lat="49.43618008866906" lon="9.428255036473274">
<ele>278.4</ele>
<time>2024-05-12T08:49:55Z</time>
</trkpt>
<trkpt lat="49.43614957854152" lon="9.428179683163762">
<ele>278.4</ele>
<time>2024-05-12T08:49:56Z</time>
</trkpt>
<trkpt lat="49.436115212738514" lon="9.428101480007172">
<ele>278.4</ele>
<time>2024-05-12T08:49:57Z</time>
</trkpt>
<trkpt lat="49.43608093075454" lon="9.428020427003505">
<ele>278.4</ele>
<time>2024-05-12T08:49:58Z</time>
</trkpt>
<trkpt lat="49.436050336807966" lon="9.427941301837564">
<ele>278.4</ele>
<time>2024-05-12T08:49:59Z</time>
</trkpt>
<trkpt lat="49.43601982668042" lon="9.427860248833897">
<ele>278.2</ele>
<time>2024-05-12T08:50:00Z</time>
</trkpt>
<trkpt lat="49.435993172228336" lon="9.427776262164116">
<ele>278.2</ele>
<time>2024-05-12T08:50:01Z</time>
</trkpt>
<trkpt lat="49.43597028963268" lon="9.42769143730402">
<ele>278.2</ele>
<time>2024-05-12T08:50:02Z</time>
</trkpt>
<trkpt lat="49.43594355136156" lon="9.427606528624892">
<ele>278</ele>
<time>2024-05-12T08:50:03Z</time>
</trkpt>
<trkpt lat="49.435913041234016" lon="9.427521703764796">
<ele>278</ele>
<time>2024-05-12T08:50:04Z</time>
</trkpt>
<trkpt lat="49.4358863029629" lon="9.42743486724794">
<ele>277.8</ele>
<time>2024-05-12T08:50:05Z</time>
</trkpt>
<trkpt lat="49.435855792835355" lon="9.427350042387843">
<ele>277.6</ele>
<time>2024-05-12T08:50:06Z</time>
</trkpt>
<trkpt lat="49.43582913838327" lon="9.427261278033257">
<ele>277.4</ele>
<time>2024-05-12T08:50:07Z</time>
</trkpt>
<trkpt lat="49.43580240011215" lon="9.427174525335433">
<ele>277.2</ele>
<time>2024-05-12T08:50:08Z</time>
</trkpt>
<trkpt lat="49.43577188998461" lon="9.427084922790527">
<ele>277</ele>
<time>2024-05-12T08:50:09Z</time>
</trkpt>
<trkpt lat="49.43574523553252" lon="9.426995236426592">
<ele>276.8</ele>
<time>2024-05-12T08:50:10Z</time>
</trkpt>
<trkpt lat="49.435714641585946" lon="9.426904628053308">
<ele>276.6</ele>
<time>2024-05-12T08:50:11Z</time>
</trkpt>
<trkpt lat="49.435680359601974" lon="9.426815025508404">
<ele>276.6</ele>
<time>2024-05-12T08:50:12Z</time>
</trkpt>
<trkpt lat="49.43564599379897" lon="9.426728188991548">
<ele>276.4</ele>
<time>2024-05-12T08:50:13Z</time>
</trkpt>
<trkpt lat="49.435611711815" lon="9.42664143629372">
<ele>276.2</ele>
<time>2024-05-12T08:50:14Z</time>
</trkpt>
<trkpt lat="49.43557357415557" lon="9.426553677767515">
<ele>276</ele>
<time>2024-05-12T08:50:15Z</time>
</trkpt>
<trkpt lat="49.43553535267711" lon="9.42646499723196">
<ele>275.8</ele>
<time>2024-05-12T08:50:16Z</time>
</trkpt>
<trkpt lat="49.43549344316125" lon="9.426378244534137">
<ele>275.6</ele>
<time>2024-05-12T08:50:17Z</time>
</trkpt>
<trkpt lat="49.43545530550182" lon="9.426289480179548">
<ele>275.4</ele>
<time>2024-05-12T08:50:18Z</time>
</trkpt>
<trkpt lat="49.43541331216693" lon="9.426204655319452">
<ele>275.2</ele>
<time>2024-05-12T08:50:19Z</time>
</trkpt>
<trkpt lat="49.43537131883204" lon="9.426119746640325">
<ele>274.8</ele>
<time>2024-05-12T08:50:20Z</time>
</trkpt>
<trkpt lat="49.43532555364072" lon="9.426041543483734">
<ele>274.6</ele>
<time>2024-05-12T08:50:21Z</time>
</trkpt>
<trkpt lat="49.43527978844941" lon="9.425963340327144">
<ele>274.2</ele>
<time>2024-05-12T08:50:22Z</time>
</trkpt>
<trkpt lat="49.43523402325809" lon="9.425885137170551">
<ele>274</ele>
<time>2024-05-12T08:50:23Z</time>
</trkpt>
<trkpt lat="49.43518825806677" lon="9.425805089995263">
<ele>273.8</ele>
<time>2024-05-12T08:50:24Z</time>
</trkpt>
<trkpt lat="49.43513486534357" lon="9.425727808848023">
<ele>273.6</ele>
<time>2024-05-12T08:50:25Z</time>
</trkpt>
<trkpt lat="49.435085244476795" lon="9.42565631121397">
<ele>273.2</ele>
<time>2024-05-12T08:50:26Z</time>
</trkpt>
<trkpt lat="49.43503562361002" lon="9.425581879913809">
<ele>273</ele>
<time>2024-05-12T08:50:27Z</time>
</trkpt>
<trkpt lat="49.43498608656227" lon="9.425511304289104">
<ele>272.8</ele>
<time>2024-05-12T08:50:28Z</time>
</trkpt>
<trkpt lat="49.4349364656955" lon="9.42544173449278">
<ele>272.6</ele>
<time>2024-05-12T08:50:29Z</time>
</trkpt>
<trkpt lat="49.43487930111587" lon="9.425374930724502">
<ele>272.2</ele>
<time>2024-05-12T08:50:30Z</time>
</trkpt>
<trkpt lat="49.43482205271721" lon="9.425310054793954">
<ele>272</ele>
<time>2024-05-12T08:50:31Z</time>
</trkpt>
<trkpt lat="49.43476480431855" lon="9.425248112529516">
<ele>271.6</ele>
<time>2024-05-12T08:50:32Z</time>
</trkpt>
<trkpt lat="49.43470378406346" lon="9.425183236598969">
<ele>271.2</ele>
<time>2024-05-12T08:50:33Z</time>
</trkpt>
<trkpt lat="49.4346465356648" lon="9.425118444487453">
<ele>270.8</ele>
<time>2024-05-12T08:50:34Z</time>
</trkpt>
<trkpt lat="49.43458174355328" lon="9.425054490566254">
<ele>270.6</ele>
<time>2024-05-12T08:50:35Z</time>
</trkpt>
<trkpt lat="49.43451686762273" lon="9.424991542473435">
<ele>270.2</ele>
<time>2024-05-12T08:50:36Z</time>
</trkpt>
<trkpt lat="49.434451991692185" lon="9.424928594380615">
<ele>269.8</ele>
<time>2024-05-12T08:50:37Z</time>
</trkpt>
<trkpt lat="49.43439482711256" lon="9.42486472427845">
<ele>269.4</ele>
<time>2024-05-12T08:50:38Z</time>
</trkpt>
<trkpt lat="49.43432995118201" lon="9.42480370402336">
<ele>269.2</ele>
<time>2024-05-12T08:50:39Z</time>
</trkpt>
<trkpt lat="49.434272702783346" lon="9.4247464556247">
<ele>268.8</ele>
<time>2024-05-12T08:50:40Z</time>
</trkpt>
<trkpt lat="49.43421553820371" lon="9.424696918576956">
<ele>268.6</ele>
<time>2024-05-12T08:50:41Z</time>
</trkpt>
<trkpt lat="49.43416206166148" lon="9.424652075394988">
<ele>268.2</ele>
<time>2024-05-12T08:50:42Z</time>
</trkpt>
<trkpt lat="49.43410489708185" lon="9.424612009897828">
<ele>267.8</ele>
<time>2024-05-12T08:50:43Z</time>
</trkpt>
<trkpt lat="49.43404387682676" lon="9.424574794247746">
<ele>267.6</ele>
<time>2024-05-12T08:50:44Z</time>
</trkpt>
<trkpt lat="49.43398277275264" lon="9.424543362110851">
<ele>267.4</ele>
<time>2024-05-12T08:50:45Z</time>
</trkpt>
<trkpt lat="49.433921752497554" lon="9.424514696002008">
<ele>267</ele>
<time>2024-05-12T08:50:46Z</time>
</trkpt>
<trkpt lat="49.433860732242465" lon="9.424493741244078">
<ele>266.8</ele>
<time>2024-05-12T08:50:47Z</time>
</trkpt>
<trkpt lat="49.4338034838438" lon="9.424474714323878">
<ele>266.4</ele>
<time>2024-05-12T08:50:48Z</time>
</trkpt>
<trkpt lat="49.43373869173229" lon="9.424461303278804">
<ele>266</ele>
<time>2024-05-12T08:50:49Z</time>
</trkpt>
<trkpt lat="49.4336776714772" lon="9.42444990389049">
<ele>265.8</ele>
<time>2024-05-12T08:50:50Z</time>
</trkpt>
<trkpt lat="49.43361656740308" lon="9.424443198367952">
<ele>265.4</ele>
<time>2024-05-12T08:50:51Z</time>
</trkpt>
<trkpt lat="49.43355940282345" lon="9.424438420683146">
<ele>265.2</ele>
<time>2024-05-12T08:50:52Z</time>
</trkpt>
<trkpt lat="49.43349838256836" lon="9.424434648826718">
<ele>264.6</ele>
<time>2024-05-12T08:50:53Z</time>
</trkpt>
<trkpt lat="49.43343727849424" lon="9.42443179897964">
<ele>264.4</ele>
<time>2024-05-12T08:50:54Z</time>
</trkpt>
<trkpt lat="49.43337625823915" lon="9.424433642998338">
<ele>264</ele>
<time>2024-05-12T08:50:55Z</time>
</trkpt>
<trkpt lat="49.43331523798406" lon="9.424425093457105">
<ele>263.6</ele>
<time>2024-05-12T08:50:56Z</time>
</trkpt>
<trkpt lat="49.43325036205351" lon="9.42441176623106">
<ele>263.4</ele>
<time>2024-05-12T08:50:57Z</time>
</trkpt>
<trkpt lat="49.43318171426654" lon="9.424398355185986">
<ele>263.2</ele>
<time>2024-05-12T08:50:58Z</time>
</trkpt>
<trkpt lat="49.43311306647957" lon="9.424381256103516">
<ele>262.8</ele>
<time>2024-05-12T08:50:59Z</time>
</trkpt>
<trkpt lat="49.43304056301713" lon="9.424364995211365">
<ele>262.4</ele>
<time>2024-05-12T08:51:00Z</time>
</trkpt>
<trkpt lat="49.432968059554696" lon="9.424346890300512">
<ele>262.2</ele>
<time>2024-05-12T08:51:01Z</time>
</trkpt>
<trkpt lat="49.432891784235835" lon="9.42432777956128">
<ele>261.799</ele>
<time>2024-05-12T08:51:02Z</time>
</trkpt>
<trkpt lat="49.432815508916974" lon="9.42431160248816">
<ele>261.4</ele>
<time>2024-05-12T08:51:03Z</time>
</trkpt>
<trkpt lat="49.43274300545454" lon="9.42429542541504">
<ele>261</ele>
<time>2024-05-12T08:51:04Z</time>
</trkpt>
<trkpt lat="49.43266295827925" lon="9.424284864217045">
<ele>260.6</ele>
<time>2024-05-12T08:51:05Z</time>
</trkpt>
<trkpt lat="49.43258282728493" lon="9.424278242513536">
<ele>260.2</ele>
<time>2024-05-12T08:51:06Z</time>
</trkpt>
<trkpt lat="49.43250269629061" lon="9.42427539266646">
<ele>259.799</ele>
<time>2024-05-12T08:51:07Z</time>
</trkpt>
<trkpt lat="49.43242642097175" lon="9.424276314675808">
<ele>259.6</ele>
<time>2024-05-12T08:51:08Z</time>
</trkpt>
<trkpt lat="49.43234628997743" lon="9.424283020198343">
<ele>259.2</ele>
<time>2024-05-12T08:51:09Z</time>
</trkpt>
<trkpt lat="49.432273786515" lon="9.424286792054772">
<ele>258.799</ele>
<time>2024-05-12T08:51:10Z</time>
</trkpt>
<trkpt lat="49.432201366871595" lon="9.424288719892502">
<ele>258.6</ele>
<time>2024-05-12T08:51:11Z</time>
</trkpt>
<trkpt lat="49.43212886340916" lon="9.424288719892502">
<ele>258.2</ele>
<time>2024-05-12T08:51:12Z</time>
</trkpt>
<trkpt lat="49.43205635994673" lon="9.424284864217045">
<ele>257.799</ele>
<time>2024-05-12T08:51:13Z</time>
</trkpt>
<trkpt lat="49.431983940303326" lon="9.424282014369965">
<ele>257.6</ele>
<time>2024-05-12T08:51:14Z</time>
</trkpt>
<trkpt lat="49.43191143684089" lon="9.424280086532235">
<ele>257.2</ele>
<time>2024-05-12T08:51:15Z</time>
</trkpt>
<trkpt lat="49.43184278905392" lon="9.42427346482873">
<ele>256.799</ele>
<time>2024-05-12T08:51:16Z</time>
</trkpt>
<trkpt lat="49.43178176879883" lon="9.424261981621385">
<ele>256.4</ele>
<time>2024-05-12T08:51:17Z</time>
</trkpt>
<trkpt lat="49.43172066472471" lon="9.42425343208015">
<ele>256.2</ele>
<time>2024-05-12T08:51:18Z</time>
</trkpt>
<trkpt lat="49.43165964446962" lon="9.424242954701183">
<ele>256</ele>
<time>2024-05-12T08:51:19Z</time>
</trkpt>
<trkpt lat="49.43159862421453" lon="9.4242353271693">
<ele>255.6</ele>
<time>2024-05-12T08:51:20Z</time>
</trkpt>
<trkpt lat="49.43153760395944" lon="9.424226693809032">
<ele>255.2</ele>
<time>2024-05-12T08:51:21Z</time>
</trkpt>
<trkpt lat="49.43148035556078" lon="9.424218144267796">
<ele>255</ele>
<time>2024-05-12T08:51:22Z</time>
</trkpt>
<trkpt lat="49.43142696283758" lon="9.424218144267796">
<ele>254.8</ele>
<time>2024-05-12T08:51:23Z</time>
</trkpt>
<trkpt lat="49.4313773419708" lon="9.424218144267796">
<ele>254.6</ele>
<time>2024-05-12T08:51:24Z</time>
</trkpt>
<trkpt lat="49.43132017739117" lon="9.424216216430068">
<ele>254.4</ele>
<time>2024-05-12T08:51:25Z</time>
</trkpt>
<trkpt lat="49.4312705565244" lon="9.42421336658299">
<ele>254.2</ele>
<time>2024-05-12T08:51:26Z</time>
</trkpt>
<trkpt lat="49.43121716380119" lon="9.424202889204023">
<ele>254</ele>
<time>2024-05-12T08:51:27Z</time>
</trkpt>
<trkpt lat="49.43116377107799" lon="9.424176150932908">
<ele>253.8</ele>
<time>2024-05-12T08:51:28Z</time>
</trkpt>
<trkpt lat="49.431114150211215" lon="9.424137091264129">
<ele>253.8</ele>
<time>2024-05-12T08:51:29Z</time>
</trkpt>
<trkpt lat="49.431072156876326" lon="9.424088476225734">
<ele>253.6</ele>
<time>2024-05-12T08:51:30Z</time>
</trkpt>
<trkpt lat="49.431037874892354" lon="9.424043633043766">
<ele>253.4</ele>
<time>2024-05-12T08:51:31Z</time>
</trkpt>
<trkpt lat="49.43100350908935" lon="9.42399208433926">
<ele>253.2</ele>
<time>2024-05-12T08:51:32Z</time>
</trkpt>
<trkpt lat="49.430972998961806" lon="9.423936763778327">
<ele>253</ele>
<time>2024-05-12T08:51:33Z</time>
</trkpt>
<trkpt lat="49.430938716977835" lon="9.423883371055126">
<ele>252.8</ele>
<time>2024-05-12T08:51:34Z</time>
</trkpt>
<trkpt lat="49.43091197870672" lon="9.423828050494194">
<ele>252.6</ele>
<time>2024-05-12T08:51:35Z</time>
</trkpt>
<trkpt lat="49.43088146857917" lon="9.423769880086184">
<ele>252.4</ele>
<time>2024-05-12T08:51:36Z</time>
</trkpt>
<trkpt lat="49.43085095845163" lon="9.423711709678171">
<ele>252.4</ele>
<time>2024-05-12T08:51:37Z</time>
</trkpt>
<trkpt lat="49.43082044832408" lon="9.423654545098543">
<ele>252.2</ele>
<time>2024-05-12T08:51:38Z</time>
</trkpt>
<trkpt lat="49.43079371005297" lon="9.42359821870923">
<ele>252.2</ele>
<time>2024-05-12T08:51:39Z</time>
</trkpt>
<trkpt lat="49.43076319992542" lon="9.42354197613895">
<ele>252.2</ele>
<time>2024-05-12T08:51:40Z</time>
</trkpt>
<trkpt lat="49.43074031732976" lon="9.423491433262823">
<ele>252</ele>
<time>2024-05-12T08:51:41Z</time>
</trkpt>
<trkpt lat="49.43072506226599" lon="9.42344474606216">
<ele>252</ele>
<time>2024-05-12T08:51:42Z</time>
</trkpt>
<trkpt lat="49.43070595152676" lon="9.42340183071792">
<ele>252</ele>
<time>2024-05-12T08:51:43Z</time>
</trkpt>
<trkpt lat="49.43068692460656" lon="9.42336360923946">
<ele>252</ele>
<time>2024-05-12T08:51:44Z</time>
</trkpt>
<trkpt lat="49.43067166954279" lon="9.42332362756133">
<ele>252.2</ele>
<time>2024-05-12T08:51:45Z</time>
</trkpt>
<trkpt lat="49.43065641447902" lon="9.42328641191125">
<ele>252.2</ele>
<time>2024-05-12T08:51:46Z</time>
</trkpt>
<trkpt lat="49.43064493127167" lon="9.42324827425182">
<ele>252.4</ele>
<time>2024-05-12T08:51:47Z</time>
</trkpt>
<trkpt lat="49.430622048676014" lon="9.423198653385043">
<ele>252.6</ele>
<time>2024-05-12T08:51:48Z</time>
</trkpt>
<trkpt lat="49.43059916608035" lon="9.423154816031456">
<ele>252.6</ele>
<time>2024-05-12T08:51:49Z</time>
</trkpt>
<trkpt lat="49.43058013916016" lon="9.42310712300241">
<ele>252.6</ele>
<time>2024-05-12T08:51:50Z</time>
</trkpt>
<trkpt lat="49.430561028420925" lon="9.423060351982713">
<ele>252.6</ele>
<time>2024-05-12T08:51:51Z</time>
</trkpt>
<trkpt lat="49.430541917681694" lon="9.423014586791396">
<ele>252.8</ele>
<time>2024-05-12T08:51:52Z</time>
</trkpt>
<trkpt lat="49.43052666261792" lon="9.422973599284887">
<ele>252.8</ele>
<time>2024-05-12T08:51:53Z</time>
</trkpt>
<trkpt lat="49.43051140755415" lon="9.422935461625457">
<ele>252.8</ele>
<time>2024-05-12T08:51:54Z</time>
</trkpt>
<trkpt lat="49.43049615249038" lon="9.422898245975375">
<ele>252.8</ele>
<time>2024-05-12T08:51:55Z</time>
</trkpt>
<trkpt lat="49.430480897426605" lon="9.422862958163025">
<ele>252.8</ele>
<time>2024-05-12T08:51:56Z</time>
</trkpt>
<trkpt lat="49.43046564236283" lon="9.4228295981884">
<ele>252.8</ele>
<time>2024-05-12T08:51:57Z</time>
</trkpt>
<trkpt lat="49.430446615442634" lon="9.422800010070205">
<ele>253</ele>
<time>2024-05-12T08:51:58Z</time>
</trkpt>
<trkpt lat="49.43043898791075" lon="9.422775199636815">
<ele>253</ele>
<time>2024-05-12T08:51:59Z</time>
</trkpt>
<trkpt lat="49.4304275047034" lon="9.422744689509273">
<ele>253</ele>
<time>2024-05-12T08:52:00Z</time>
</trkpt>
<trkpt lat="49.43041224963963" lon="9.422717029228806">
<ele>253</ele>
<time>2024-05-12T08:52:01Z</time>
</trkpt>
<trkpt lat="49.430400766432285" lon="9.4226932246238">
<ele>253</ele>
<time>2024-05-12T08:52:02Z</time>
</trkpt>
<trkpt lat="49.43038936704397" lon="9.42267319187522">
<ele>253</ele>
<time>2024-05-12T08:52:03Z</time>
</trkpt>
<trkpt lat="49.430366484448314" lon="9.422663636505604">
<ele>253</ele>
<time>2024-05-12T08:52:04Z</time>
</trkpt>
<trkpt lat="49.43035122938454" lon="9.422656930983068">
<ele>253</ele>
<time>2024-05-12T08:52:05Z</time>
</trkpt>
<trkpt lat="49.43032834678888" lon="9.42265315912664">
<ele>253</ele>
<time>2024-05-12T08:52:06Z</time>
</trkpt>
<trkpt lat="49.43030923604965" lon="9.422656930983068">
<ele>253</ele>
<time>2024-05-12T08:52:07Z</time>
</trkpt>
<trkpt lat="49.430286353453994" lon="9.422668414190412">
<ele>253</ele>
<time>2024-05-12T08:52:08Z</time>
</trkpt>
<trkpt lat="49.430263470858335" lon="9.4226932246238">
<ele>253</ele>
<time>2024-05-12T08:52:09Z</time>
</trkpt>
<trkpt lat="49.43025584332645" lon="9.422721806913614">
<ele>253</ele>
<time>2024-05-12T08:52:10Z</time>
</trkpt>
<trkpt lat="49.43024821579456" lon="9.42275332286954">
<ele>253</ele>
<time>2024-05-12T08:52:11Z</time>
</trkpt>
<trkpt lat="49.43025584332645" lon="9.422776205465198">
<ele>253</ele>
<time>2024-05-12T08:52:12Z</time>
</trkpt>
<trkpt lat="49.430263470858335" lon="9.422796238213778">
<ele>253</ele>
<time>2024-05-12T08:52:13Z</time>
</trkpt>
<trkpt lat="49.43027872592211" lon="9.422815265133975">
<ele>253</ele>
<time>2024-05-12T08:52:14Z</time>
</trkpt>
<trkpt lat="49.43029398098588" lon="9.42283152602613">
<ele>253</ele>
<time>2024-05-12T08:52:15Z</time>
</trkpt>
<trkpt lat="49.43031686358154" lon="9.42285155877471">
<ele>253</ele>
<time>2024-05-12T08:52:16Z</time>
</trkpt>
<trkpt lat="49.43033597432077" lon="9.42286865785718">
<ele>253</ele>
<time>2024-05-12T08:52:17Z</time>
</trkpt>
<trkpt lat="49.43035122938454" lon="9.422882990911605">
<ele>253</ele>
<time>2024-05-12T08:52:18Z</time>
</trkpt>
<trkpt lat="49.43037025630474" lon="9.422902101650834">
<ele>253</ele>
<time>2024-05-12T08:52:19Z</time>
</trkpt>
<trkpt lat="49.43038551136851" lon="9.422915428876877">
<ele>253</ele>
<time>2024-05-12T08:52:20Z</time>
</trkpt>
<trkpt lat="49.430404622107744" lon="9.422923056408765">
<ele>253</ele>
<time>2024-05-12T08:52:21Z</time>
</trkpt>
<trkpt lat="49.43041610531509" lon="9.4229297619313">
<ele>253</ele>
<time>2024-05-12T08:52:22Z</time>
</trkpt>
<trkpt lat="49.4304275047034" lon="9.422941161319612">
<ele>253.2</ele>
<time>2024-05-12T08:52:23Z</time>
</trkpt>
<trkpt lat="49.43043513223529" lon="9.422953566536307">
<ele>253.2</ele>
<time>2024-05-12T08:52:24Z</time>
</trkpt>
<trkpt lat="49.43043898791075" lon="9.42296689376235">
<ele>253.2</ele>
<time>2024-05-12T08:52:25Z</time>
</trkpt>
<trkpt lat="49.43043136037886" lon="9.422973599284887">
<ele>253.2</ele>
<time>2024-05-12T08:52:26Z</time>
</trkpt>
<trkpt lat="49.43041610531509" lon="9.42298793233931">
<ele>253.2</ele>
<time>2024-05-12T08:52:27Z</time>
</trkpt>
<trkpt lat="49.430404622107744" lon="9.423001259565352">
<ele>253.2</ele>
<time>2024-05-12T08:52:28Z</time>
</trkpt>
<trkpt lat="49.43038551136851" lon="9.423023220151665">
<ele>253.2</ele>
<time>2024-05-12T08:52:29Z</time>
</trkpt>
<trkpt lat="49.430366484448314" lon="9.423051802441478">
<ele>253.2</ele>
<time>2024-05-12T08:52:30Z</time>
</trkpt>
<trkpt lat="49.43035500124097" lon="9.423078456893563">
<ele>253.2</ele>
<time>2024-05-12T08:52:31Z</time>
</trkpt>
<trkpt lat="49.4303397461772" lon="9.423101423308252">
<ele>253.2</ele>
<time>2024-05-12T08:52:32Z</time>
</trkpt>
<trkpt lat="49.43033211864531" lon="9.423118522390723">
<ele>253.2</ele>
<time>2024-05-12T08:52:33Z</time>
</trkpt>
<trkpt lat="49.43032834678888" lon="9.42312807776034">
<ele>253.2</ele>
<time>2024-05-12T08:52:34Z</time>
</trkpt>
<trkpt lat="49.43032834678888" lon="9.423131933435798">
<ele>253.2</ele>
<time>2024-05-12T08:52:36Z</time>
</trkpt>
<trkpt lat="49.430324491113424" lon="9.423143332824113">
<ele>253.2</ele>
<time>2024-05-12T08:52:37Z</time>
</trkpt>
<trkpt lat="49.43031309172511" lon="9.423151966184378">
<ele>253</ele>
<time>2024-05-12T08:52:38Z</time>
</trkpt>
<trkpt lat="49.430305464193225" lon="9.423158587887883">
<ele>253</ele>
<time>2024-05-12T08:52:39Z</time>
</trkpt>
<trkpt lat="49.43029783666134" lon="9.423156660050154">
<ele>252.8</ele>
<time>2024-05-12T08:52:40Z</time>
</trkpt>
<trkpt lat="49.43029020912945" lon="9.423152888193728">
<ele>252.8</ele>
<time>2024-05-12T08:52:41Z</time>
</trkpt>
<trkpt lat="49.430286353453994" lon="9.423151966184378">
<ele>252.8</ele>
<time>2024-05-12T08:52:42Z</time>
</trkpt>
<trkpt lat="49.43027872592211" lon="9.42314811050892">
<ele>252.6</ele>
<time>2024-05-12T08:52:43Z</time>
</trkpt>
<trkpt lat="49.43027109839022" lon="9.423143332824113">
<ele>252.6</ele>
<time>2024-05-12T08:52:44Z</time>
</trkpt>
<trkpt lat="49.430263470858335" lon="9.423136711120604">
<ele>252.4</ele>
<time>2024-05-12T08:52:45Z</time>
</trkpt>
<trkpt lat="49.43025584332645" lon="9.423131933435798">
<ele>252.4</ele>
<time>2024-05-12T08:52:46Z</time>
</trkpt>
<trkpt lat="49.43024821579456" lon="9.423130005598068">
<ele>252.2</ele>
<time>2024-05-12T08:52:47Z</time>
</trkpt>
<trkpt lat="49.43023681640625" lon="9.423141404986382">
<ele>252.2</ele>
<time>2024-05-12T08:52:48Z</time>
</trkpt>
<trkpt lat="49.43023296073079" lon="9.423134783282876">
<ele>252.2</ele>
<time>2024-05-12T08:52:49Z</time>
</trkpt>
<trkpt lat="49.430221477523446" lon="9.42312807776034">
<ele>252.2</ele>
<time>2024-05-12T08:52:50Z</time>
</trkpt>
<trkpt lat="49.43021384999156" lon="9.423123300075533">
<ele>252.2</ele>
<time>2024-05-12T08:52:51Z</time>
</trkpt>
<trkpt lat="49.430206222459674" lon="9.423119528219104">
<ele>252.2</ele>
<time>2024-05-12T08:52:52Z</time>
</trkpt>
<trkpt lat="49.43020245060325" lon="9.423109972849488">
<ele>252.2</ele>
<time>2024-05-12T08:52:53Z</time>
</trkpt>
<trkpt lat="49.43019482307136" lon="9.423103267326953">
<ele>252.2</ele>
<time>2024-05-12T08:52:54Z</time>
</trkpt>
<trkpt lat="49.430187195539474" lon="9.423089940100908">
<ele>252.2</ele>
<time>2024-05-12T08:52:55Z</time>
</trkpt>
<trkpt lat="49.43017956800759" lon="9.423074685037136">
<ele>252.4</ele>
<time>2024-05-12T08:52:56Z</time>
</trkpt>
<trkpt lat="49.43017571233213" lon="9.423060351982713">
<ele>252.4</ele>
<time>2024-05-12T08:52:57Z</time>
</trkpt>
<trkpt lat="49.43016808480024" lon="9.423041325062512">
<ele>252.4</ele>
<time>2024-05-12T08:52:58Z</time>
</trkpt>
<trkpt lat="49.43015668541193" lon="9.423034619539976">
<ele>252.4</ele>
<time>2024-05-12T08:52:59Z</time>
</trkpt>
<trkpt lat="49.43014905788005" lon="9.42302506417036">
<ele>252.4</ele>
<time>2024-05-12T08:53:00Z</time>
</trkpt>
<trkpt lat="49.43014143034816" lon="9.423011736944318">
<ele>252.4</ele>
<time>2024-05-12T08:53:01Z</time>
</trkpt>
<trkpt lat="49.43013380281627" lon="9.423000253736973">
<ele>252.6</ele>
<time>2024-05-12T08:53:02Z</time>
</trkpt>
<trkpt lat="49.43012994714081" lon="9.42298692651093">
<ele>252.6</ele>
<time>2024-05-12T08:53:03Z</time>
</trkpt>
<trkpt lat="49.430126175284386" lon="9.422978376969697">
<ele>252.8</ele>
<time>2024-05-12T08:53:04Z</time>
</trkpt>
<trkpt lat="49.43011469207704" lon="9.42296689376235">
<ele>252.8</ele>
<time>2024-05-12T08:53:05Z</time>
</trkpt>
<trkpt lat="49.43010329268873" lon="9.422960272058845">
<ele>252.8</ele>
<time>2024-05-12T08:53:06Z</time>
</trkpt>
<trkpt lat="49.43009180948138" lon="9.422949710860848">
<ele>253</ele>
<time>2024-05-12T08:53:07Z</time>
</trkpt>
<trkpt lat="49.43006892688573" lon="9.422924984246492">
<ele>253</ele>
<time>2024-05-12T08:53:08Z</time>
</trkpt>
<trkpt lat="49.43005367182195" lon="9.422918278723955">
<ele>253</ele>
<time>2024-05-12T08:53:09Z</time>
</trkpt>
<trkpt lat="49.430046044290066" lon="9.422911573201418">
<ele>253.2</ele>
<time>2024-05-12T08:53:10Z</time>
</trkpt>
<trkpt lat="49.43003841675818" lon="9.422902101650834">
<ele>253.2</ele>
<time>2024-05-12T08:53:11Z</time>
</trkpt>
<trkpt lat="49.430026933550835" lon="9.422893468290567">
<ele>253.2</ele>
<time>2024-05-12T08:53:12Z</time>
</trkpt>
<trkpt lat="49.43001930601895" lon="9.42288969643414">
<ele>253.2</ele>
<time>2024-05-12T08:53:13Z</time>
</trkpt>
<trkpt lat="49.43001167848706" lon="9.422882990911605">
<ele>253</ele>
<time>2024-05-12T08:53:14Z</time>
</trkpt>
<trkpt lat="49.430007906630635" lon="9.422875363379717">
<ele>253</ele>
<time>2024-05-12T08:53:15Z</time>
</trkpt>
<trkpt lat="49.43000027909875" lon="9.422875363379717">
<ele>252.8</ele>
<time>2024-05-12T08:53:16Z</time>
</trkpt>
<trkpt lat="49.42998879589141" lon="9.42288869060576">
<ele>252.8</ele>
<time>2024-05-12T08:53:17Z</time>
</trkpt>
<trkpt lat="49.42998116835952" lon="9.42288969643414">
<ele>252.6</ele>
<time>2024-05-12T08:53:18Z</time>
</trkpt>
<trkpt lat="49.429969768971205" lon="9.422903023660185">
<ele>252.6</ele>
<time>2024-05-12T08:53:19Z</time>
</trkpt>
<trkpt lat="49.42995828576386" lon="9.422913501039147">
<ele>252.6</ele>
<time>2024-05-12T08:53:20Z</time>
</trkpt>
<trkpt lat="49.42994303070009" lon="9.42292682826519">
<ele>252.4</ele>
<time>2024-05-12T08:53:21Z</time>
</trkpt>
<trkpt lat="49.4299354031682" lon="9.422933533787727">
<ele>252.4</ele>
<time>2024-05-12T08:53:22Z</time>
</trkpt>
<trkpt lat="49.429931631311774" lon="9.422945016995072">
<ele>252.2</ele>
<time>2024-05-12T08:53:23Z</time>
</trkpt>
<trkpt lat="49.42992400377989" lon="9.42294686101377">
<ele>252.2</ele>
<time>2024-05-12T08:53:24Z</time>
</trkpt>
<trkpt lat="49.42992014810443" lon="9.422949710860848">
<ele>252</ele>
<time>2024-05-12T08:53:25Z</time>
</trkpt>
<trkpt lat="49.429916376248" lon="9.422958344221115">
<ele>252</ele>
<time>2024-05-12T08:53:26Z</time>
</trkpt>
<trkpt lat="49.42990489304066" lon="9.422965049743652">
<ele>251.8</ele>
<time>2024-05-12T08:53:27Z</time>
</trkpt>
<trkpt lat="49.42990112118423" lon="9.422954488545656">
<ele>251.8</ele>
<time>2024-05-12T08:53:28Z</time>
</trkpt>
<trkpt lat="49.42989726550877" lon="9.42294786684215">
<ele>251.6</ele>
<time>2024-05-12T08:53:29Z</time>
</trkpt>
<trkpt lat="49.429893493652344" lon="9.422941161319612">
<ele>251.6</ele>
<time>2024-05-12T08:53:30Z</time>
</trkpt>
<trkpt lat="49.429885782301426" lon="9.422935461625457">
<ele>251.6</ele>
<time>2024-05-12T08:53:31Z</time>
</trkpt>
<trkpt lat="49.429882010445" lon="9.42292682826519">
<ele>251.6</ele>
<time>2024-05-12T08:53:32Z</time>
</trkpt>
<trkpt lat="49.42987438291311" lon="9.422920206561685">
<ele>251.6</ele>
<time>2024-05-12T08:53:33Z</time>
</trkpt>
<trkpt lat="49.42986675538123" lon="9.422911573201418">
<ele>251.8</ele>
<time>2024-05-12T08:53:34Z</time>
</trkpt>
<trkpt lat="49.42985912784934" lon="9.422904951497912">
<ele>251.8</ele>
<time>2024-05-12T08:53:35Z</time>
</trkpt>
<trkpt lat="49.429851500317454" lon="9.422895396128297">
<ele>252</ele>
<time>2024-05-12T08:53:36Z</time>
</trkpt>
<trkpt lat="49.42984387278557" lon="9.42288969643414">
<ele>252</ele>
<time>2024-05-12T08:53:37Z</time>
</trkpt>
<trkpt lat="49.42984001711011" lon="9.422880141064525">
<ele>252</ele>
<time>2024-05-12T08:53:38Z</time>
</trkpt>
<trkpt lat="49.42983238957822" lon="9.42286966368556">
<ele>252.2</ele>
<time>2024-05-12T08:53:39Z</time>
</trkpt>
<trkpt lat="49.42982476204634" lon="9.422862958163025">
<ele>252.2</ele>
<time>2024-05-12T08:53:40Z</time>
</trkpt>
<trkpt lat="49.42982099018991" lon="9.422855330631135">
<ele>252.4</ele>
<time>2024-05-12T08:53:41Z</time>
</trkpt>
<trkpt lat="49.42981713451445" lon="9.422844853252172">
<ele>252.6</ele>
<time>2024-05-12T08:53:42Z</time>
</trkpt>
<trkpt lat="49.429813362658024" lon="9.422835297882555">
<ele>252.8</ele>
<time>2024-05-12T08:53:43Z</time>
</trkpt>
<trkpt lat="49.429809506982565" lon="9.422824820503592">
<ele>253</ele>
<time>2024-05-12T08:53:44Z</time>
</trkpt>
<trkpt lat="49.42980573512614" lon="9.422818114981055">
<ele>253.2</ele>
<time>2024-05-12T08:53:45Z</time>
</trkpt>
<trkpt lat="49.42979810759425" lon="9.422813337296247">
<ele>253.4</ele>
<time>2024-05-12T08:53:46Z</time>
</trkpt>
<trkpt lat="49.42979810759425" lon="9.422801937907934">
<ele>253.4</ele>
<time>2024-05-12T08:53:47Z</time>
</trkpt>
<trkpt lat="49.429790480062366" lon="9.422795232385395">
<ele>253.6</ele>
<time>2024-05-12T08:53:48Z</time>
</trkpt>
<trkpt lat="49.429790480062366" lon="9.422784755006433">
<ele>253.6</ele>
<time>2024-05-12T08:53:49Z</time>
</trkpt>
<trkpt lat="49.42978662438691" lon="9.422778049483895">
<ele>253.8</ele>
<time>2024-05-12T08:53:50Z</time>
</trkpt>
<trkpt lat="49.42978285253048" lon="9.42277142778039">
<ele>253.8</ele>
<time>2024-05-12T08:53:51Z</time>
</trkpt>
<trkpt lat="49.42977899685502" lon="9.422764722257853">
<ele>253.8</ele>
<time>2024-05-12T08:53:52Z</time>
</trkpt>
<trkpt lat="49.42977522499859" lon="9.422756172716618">
<ele>254</ele>
<time>2024-05-12T08:53:53Z</time>
</trkpt>
<trkpt lat="49.429771369323134" lon="9.42275047302246">
<ele>254</ele>
<time>2024-05-12T08:53:54Z</time>
</trkpt>
<trkpt lat="49.42975996993482" lon="9.422735134139655">
<ele>254</ele>
<time>2024-05-12T08:53:55Z</time>
</trkpt>
<trkpt lat="49.429752342402935" lon="9.422723734751344">
<ele>254</ele>
<time>2024-05-12T08:53:56Z</time>
</trkpt>
<trkpt lat="49.42974471487105" lon="9.42271325737238">
<ele>254</ele>
<time>2024-05-12T08:53:57Z</time>
</trkpt>
<trkpt lat="49.42973708733916" lon="9.422699846327305">
<ele>254</ele>
<time>2024-05-12T08:53:58Z</time>
</trkpt>
<trkpt lat="49.42972945980728" lon="9.4226932246238">
<ele>254</ele>
<time>2024-05-12T08:53:59Z</time>
</trkpt>
<trkpt lat="49.42972183227539" lon="9.422686519101262">
<ele>254</ele>
<time>2024-05-12T08:54:00Z</time>
</trkpt>
<trkpt lat="49.42971797659993" lon="9.422675119712949">
<ele>254</ele>
<time>2024-05-12T08:54:01Z</time>
</trkpt>
<trkpt lat="49.429710349068046" lon="9.422668414190412">
<ele>254</ele>
<time>2024-05-12T08:54:02Z</time>
</trkpt>
<trkpt lat="49.42970649339259" lon="9.422657936811447">
<ele>254</ele>
<time>2024-05-12T08:54:03Z</time>
</trkpt>
<trkpt lat="49.42970272153616" lon="9.422648381441832">
<ele>254</ele>
<time>2024-05-12T08:54:04Z</time>
</trkpt>
<trkpt lat="49.42969509400427" lon="9.422641675919294">
<ele>254</ele>
<time>2024-05-12T08:54:05Z</time>
</trkpt>
<trkpt lat="49.429691238328815" lon="9.422635054215789">
<ele>254</ele>
<time>2024-05-12T08:54:06Z</time>
</trkpt>
<trkpt lat="49.42968746647239" lon="9.422626420855522">
<ele>254</ele>
<time>2024-05-12T08:54:07Z</time>
</trkpt>
<trkpt lat="49.4296798389405" lon="9.422616949304938">
<ele>254</ele>
<time>2024-05-12T08:54:08Z</time>
</trkpt>
<trkpt lat="49.429672211408615" lon="9.422606388106942">
<ele>254</ele>
<time>2024-05-12T08:54:09Z</time>
</trkpt>
<trkpt lat="49.42966458387673" lon="9.422597838565707">
<ele>254</ele>
<time>2024-05-12T08:54:10Z</time>
</trkpt>
<trkpt lat="49.429653100669384" lon="9.42259021103382">
<ele>253.8</ele>
<time>2024-05-12T08:54:11Z</time>
</trkpt>
<trkpt lat="49.429653100669384" lon="9.422584511339664">
<ele>253.8</ele>
<time>2024-05-12T08:54:12Z</time>
</trkpt>
<trkpt lat="49.42964170128107" lon="9.422581661492586">
<ele>253.8</ele>
<time>2024-05-12T08:54:13Z</time>
</trkpt>
<trkpt lat="49.42963784560561" lon="9.422579733654857">
<ele>253.8</ele>
<time>2024-05-12T08:54:14Z</time>
</trkpt>
<trkpt lat="49.429634073749185" lon="9.422576883807778">
<ele>253.8</ele>
<time>2024-05-12T08:54:15Z</time>
</trkpt>
<trkpt lat="49.429634073749185" lon="9.42257302813232">
<ele>253.8</ele>
<time>2024-05-12T08:54:16Z</time>
</trkpt>
<trkpt lat="49.429630218073726" lon="9.42257017828524">
<ele>253.8</ele>
<time>2024-05-12T08:54:17Z</time>
</trkpt>
<trkpt lat="49.429630218073726" lon="9.422568250447512">
<ele>253.6</ele>
<time>2024-05-12T08:54:18Z</time>
</trkpt>
<trkpt lat="49.4296264462173" lon="9.42257017828524">
<ele>253.6</ele>
<time>2024-05-12T08:54:19Z</time>
</trkpt>
<trkpt lat="49.4296264462173" lon="9.42257017828524">
<ele>253.6</ele>
</trkpt>
</trkseg>
</trk>
</gpx>